<?xml version='1.0' encoding='UTF-8'?><gpx version="1.1" creator="JPX - https://github.com/jenetics/jpx" xmlns="http://www.topografix.com/GPX/1/1"><trk><trkseg><trkpt lat="43.470069138351796" lon="11.87627801618325"><ele>254.0</ele><time>2026-05-03T07:38:36Z</time></trkpt><trkpt lat="43.46998987179584" lon="11.876264970124"><ele>254.0</ele><time>2026-05-03T07:38:37Z</time></trkpt><trkpt lat="43.46990638020491" lon="11.876311026860895"><ele>254.0</ele><time>2026-05-03T07:38:39Z</time></trkpt><trkpt lat="43.46984759596243" lon="11.876354643384719"><ele>254.0</ele><time>2026-05-03T07:38:44Z</time></trkpt><trkpt lat="43.46978255212355" lon="11.876360164330235"><ele>254.0</ele><time>2026-05-03T07:38:48Z</time></trkpt><trkpt lat="43.46971993081321" lon="11.8763274895245"><ele>254.0</ele><time>2026-05-03T07:38:54.999Z</time></trkpt><trkpt lat="43.46966882124793" lon="11.876411158186258"><ele>254.0</ele><time>2026-05-03T07:39:14.999Z</time></trkpt><trkpt lat="43.46965492647408" lon="11.876524461428508"><ele>254.00000000000003</ele><time>2026-05-03T07:39:16.999Z</time></trkpt><trkpt lat="43.469630302281566" lon="11.876642733004857"><ele>254.0</ele><time>2026-05-03T07:39:19.999Z</time></trkpt><trkpt lat="43.46963705736014" lon="11.876755502223117"><ele>254.0</ele><time>2026-05-03T07:39:22.999Z</time></trkpt><trkpt lat="43.46969579827041" lon="11.876803143376355"><ele>254.0</ele><time>2026-05-03T07:39:23.999Z</time></trkpt><trkpt lat="43.46979585573951" lon="11.876841604596084"><ele>254.00000000000003</ele><time>2026-05-03T07:39:24.999Z</time></trkpt><trkpt lat="43.469890445671474" lon="11.876902217184268"><ele>254.0</ele><time>2026-05-03T07:39:25.999Z</time></trkpt><trkpt lat="43.469993962125926" lon="11.876981512119643"><ele>254.5</ele><time>2026-05-03T07:39:26.999Z</time></trkpt><trkpt lat="43.470128780510265" lon="11.87704780154377"><ele>255.0</ele><time>2026-05-03T07:39:27.999Z</time></trkpt><trkpt lat="43.47026427527375" lon="11.877126442775516"><ele>255.5</ele><time>2026-05-03T07:39:28.999Z</time></trkpt><trkpt lat="43.47039069099718" lon="11.877226322469442"><ele>256.0</ele><time>2026-05-03T07:39:29.999Z</time></trkpt><trkpt lat="43.47051223950882" lon="11.877298911127115"><ele>256.25</ele><time>2026-05-03T07:39:30.999Z</time></trkpt><trkpt lat="43.47060945907682" lon="11.877368456170979"><ele>256.5</ele><time>2026-05-03T07:39:31.999Z</time></trkpt><trkpt lat="43.47073554075746" lon="11.877412930910339"><ele>256.75</ele><time>2026-05-03T07:39:32.999Z</time></trkpt><trkpt lat="43.470843870716585" lon="11.877474797445391"><ele>257.0</ele><time>2026-05-03T07:39:33.999Z</time></trkpt><trkpt lat="43.470964246919344" lon="11.87753871673498"><ele>257.0</ele><time>2026-05-03T07:39:34.999Z</time></trkpt><trkpt lat="43.4710780538563" lon="11.877592121416752"><ele>257.0</ele><time>2026-05-03T07:39:35.999Z</time></trkpt><trkpt lat="43.471192516867454" lon="11.877670897379419"><ele>257.0</ele><time>2026-05-03T07:39:36.999Z</time></trkpt><trkpt lat="43.471317029013655" lon="11.877735161722553"><ele>257.0</ele><time>2026-05-03T07:39:37.999Z</time></trkpt><trkpt lat="43.47143696302278" lon="11.877797063146144"><ele>257.5</ele><time>2026-05-03T07:39:38.999Z</time></trkpt><trkpt lat="43.47156506667444" lon="11.877839690000203"><ele>258.0</ele><time>2026-05-03T07:39:39.999Z</time></trkpt><trkpt lat="43.471683503377506" lon="11.877922531967522"><ele>258.5</ele><time>2026-05-03T07:39:40.999Z</time></trkpt><trkpt lat="43.471798738756696" lon="11.877976825242026"><ele>259.0</ele><time>2026-05-03T07:39:41.999Z</time></trkpt><trkpt lat="43.47190051227536" lon="11.87801752336204"><ele>259.0</ele><time>2026-05-03T07:39:42.999Z</time></trkpt><trkpt lat="43.47198637045535" lon="11.878045628906868"><ele>259.0</ele><time>2026-05-03T07:39:43.999Z</time></trkpt><trkpt lat="43.47205502871083" lon="11.878084682233155"><ele>259.0</ele><time>2026-05-03T07:39:44.999Z</time></trkpt><trkpt lat="43.472116367616664" lon="11.87811868801906"><ele>259.0</ele><time>2026-05-03T07:39:45.999Z</time></trkpt><trkpt lat="43.47216349548412" lon="11.878188341998221"><ele>259.0</ele><time>2026-05-03T07:39:46.999Z</time></trkpt><trkpt lat="43.472212949437" lon="11.878291935918062"><ele>259.0</ele><time>2026-05-03T07:39:47.999Z</time></trkpt><trkpt lat="43.472278372792154" lon="11.878364565872868"><ele>258.16666666666663</ele><time>2026-05-03T07:39:48.999Z</time></trkpt><trkpt lat="43.47229875445115" lon="11.878475220423821"><ele>257.3333333333333</ele><time>2026-05-03T07:39:49.999Z</time></trkpt><trkpt lat="43.47231876999991" lon="11.878559558816013"><ele>256.5</ele><time>2026-05-03T07:39:50.999Z</time></trkpt><trkpt lat="43.472321920089534" lon="11.878662055817253"><ele>255.66666666666669</ele><time>2026-05-03T07:39:51.999Z</time></trkpt><trkpt lat="43.47229638527889" lon="11.878813724114504"><ele>254.83333333333334</ele><time>2026-05-03T07:39:53.999Z</time></trkpt><trkpt lat="43.472259219086915" lon="11.878932738807572"><ele>254.0</ele><time>2026-05-03T07:39:55.999Z</time></trkpt><trkpt lat="43.4722501352888" lon="11.87902600472377"><ele>254.0</ele><time>2026-05-03T07:39:57.999Z</time></trkpt><trkpt lat="43.47222053600641" lon="11.879134109198855"><ele>253.99999999999997</ele><time>2026-05-03T07:40:00.998Z</time></trkpt><trkpt lat="43.47219016687209" lon="11.879261169394452"><ele>253.99999999999997</ele><time>2026-05-03T07:40:02.998Z</time></trkpt><trkpt lat="43.47214447796388" lon="11.87932374969208"><ele>254.0</ele><time>2026-05-03T07:40:03.998Z</time></trkpt><trkpt lat="43.47211676628175" lon="11.879525889874564"><ele>254.0</ele><time>2026-05-03T07:40:05.998Z</time></trkpt><trkpt lat="43.47208164267936" lon="11.87967044706741"><ele>255.0</ele><time>2026-05-03T07:40:06.998Z</time></trkpt><trkpt lat="43.47204042555992" lon="11.87981198259818"><ele>255.99999999999997</ele><time>2026-05-03T07:40:07.998Z</time></trkpt><trkpt lat="43.47201604783106" lon="11.879960436831855"><ele>257.0</ele><time>2026-05-03T07:40:08.998Z</time></trkpt><trkpt lat="43.4719801052419" lon="11.880110337147503"><ele>258.0</ele><time>2026-05-03T07:40:09.998Z</time></trkpt><trkpt lat="43.47195830514209" lon="11.880261645840916"><ele>259.0</ele><time>2026-05-03T07:40:10.998Z</time></trkpt><trkpt lat="43.47193264230051" lon="11.8804277024478"><ele>259.0</ele><time>2026-05-03T07:40:12Z</time></trkpt><trkpt lat="43.47190645003411" lon="11.880591543552729"><ele>259.0</ele><time>2026-05-03T07:40:13Z</time></trkpt><trkpt lat="43.47189529973911" lon="11.880756836099996"><ele>259.0</ele><time>2026-05-03T07:40:14Z</time></trkpt><trkpt lat="43.4718526235081" lon="11.880912263276096"><ele>259.0</ele><time>2026-05-03T07:40:15Z</time></trkpt><trkpt lat="43.47184622903766" lon="11.881048691337021"><ele>258.8</ele><time>2026-05-03T07:40:16Z</time></trkpt><trkpt lat="43.47182613704004" lon="11.881163549025741"><ele>258.59999999999997</ele><time>2026-05-03T07:40:17Z</time></trkpt><trkpt lat="43.47178869453859" lon="11.881284173352803"><ele>258.4</ele><time>2026-05-03T07:40:18Z</time></trkpt><trkpt lat="43.47175829634745" lon="11.881438149121552"><ele>258.2</ele><time>2026-05-03T07:40:19Z</time></trkpt><trkpt lat="43.471718068978866" lon="11.881607522781286"><ele>258.0</ele><time>2026-05-03T07:40:20Z</time></trkpt><trkpt lat="43.471693161510785" lon="11.881780536217567"><ele>257.25</ele><time>2026-05-03T07:40:21Z</time></trkpt><trkpt lat="43.47163666009337" lon="11.881945091942848"><ele>256.5</ele><time>2026-05-03T07:40:22Z</time></trkpt><trkpt lat="43.4716025891979" lon="11.882113046252302"><ele>255.75</ele><time>2026-05-03T07:40:23Z</time></trkpt><trkpt lat="43.47156516850777" lon="11.882275426836607"><ele>255.0</ele><time>2026-05-03T07:40:24Z</time></trkpt><trkpt lat="43.471517909657955" lon="11.882446275391352"><ele>254.75</ele><time>2026-05-03T07:40:25Z</time></trkpt><trkpt lat="43.471476127134885" lon="11.88261866614778"><ele>254.5</ele><time>2026-05-03T07:40:26Z</time></trkpt><trkpt lat="43.471435361181875" lon="11.882770827351344"><ele>254.25</ele><time>2026-05-03T07:40:27Z</time></trkpt><trkpt lat="43.47138306959999" lon="11.882906602165697"><ele>254.0</ele><time>2026-05-03T07:40:28Z</time></trkpt><trkpt lat="43.47129982563712" lon="11.883036139944616"><ele>255.0</ele><time>2026-05-03T07:40:29Z</time></trkpt><trkpt lat="43.47122100236681" lon="11.883179735741196"><ele>256.0</ele><time>2026-05-03T07:40:30Z</time></trkpt><trkpt lat="43.471134166390605" lon="11.883310249217065"><ele>257.0</ele><time>2026-05-03T07:40:31Z</time></trkpt><trkpt lat="43.47101992758043" lon="11.883430188601158"><ele>258.0</ele><time>2026-05-03T07:40:32Z</time></trkpt><trkpt lat="43.47092502698258" lon="11.883574697149799"><ele>258.25</ele><time>2026-05-03T07:40:33Z</time></trkpt><trkpt lat="43.470869632907885" lon="11.883734814044"><ele>258.5</ele><time>2026-05-03T07:40:34Z</time></trkpt><trkpt lat="43.47082484347455" lon="11.883909663395194"><ele>258.75</ele><time>2026-05-03T07:40:35Z</time></trkpt><trkpt lat="43.47078215169116" lon="11.884078108935443"><ele>259.0</ele><time>2026-05-03T07:40:36Z</time></trkpt><trkpt lat="43.470738174872686" lon="11.884243302548736"><ele>258.8</ele><time>2026-05-03T07:40:37Z</time></trkpt><trkpt lat="43.47067614355959" lon="11.884390623638838"><ele>258.59999999999997</ele><time>2026-05-03T07:40:38Z</time></trkpt><trkpt lat="43.4706355530105" lon="11.884534233295726"><ele>258.4</ele><time>2026-05-03T07:40:39Z</time></trkpt><trkpt lat="43.47059576354849" lon="11.884673521039785"><ele>258.2</ele><time>2026-05-03T07:40:40Z</time></trkpt><trkpt lat="43.47056158761897" lon="11.884791122380598"><ele>258.0</ele><time>2026-05-03T07:40:41Z</time></trkpt><trkpt lat="43.47053228515039" lon="11.884891326866985"><ele>258.0</ele><time>2026-05-03T07:40:42Z</time></trkpt><trkpt lat="43.470503544753164" lon="11.884987565869768"><ele>258.0</ele><time>2026-05-03T07:40:43Z</time></trkpt><trkpt lat="43.47047614929449" lon="11.8850772972821"><ele>258.0</ele><time>2026-05-03T07:40:44Z</time></trkpt><trkpt lat="43.470441125439486" lon="11.88518789976601"><ele>258.0</ele><time>2026-05-03T07:40:46Z</time></trkpt><trkpt lat="43.470549674827176" lon="11.885258925008113"><ele>258.0</ele><time>2026-05-03T07:40:47Z</time></trkpt><trkpt lat="43.470641905703594" lon="11.885274451490702"><ele>258.0</ele><time>2026-05-03T07:40:48Z</time></trkpt><trkpt lat="43.47076062034785" lon="11.885295774082381"><ele>258.0</ele><time>2026-05-03T07:40:49Z</time></trkpt><trkpt lat="43.47090000937184" lon="11.885303910156907"><ele>258.0</ele><time>2026-05-03T07:40:50Z</time></trkpt><trkpt lat="43.47103329851565" lon="11.885312324534427"><ele>258.0</ele><time>2026-05-03T07:40:51Z</time></trkpt><trkpt lat="43.4711536933062" lon="11.8853212895444"><ele>258.0</ele><time>2026-05-03T07:40:52Z</time></trkpt><trkpt lat="43.47125615597729" lon="11.88532903796205"><ele>257.2</ele><time>2026-05-03T07:40:53Z</time></trkpt><trkpt lat="43.47136143650545" lon="11.885307813597901"><ele>256.4</ele><time>2026-05-03T07:40:54Z</time></trkpt><trkpt lat="43.471463872261005" lon="11.885323011487724"><ele>255.59999999999997</ele><time>2026-05-03T07:40:55Z</time></trkpt><trkpt lat="43.47156986282052" lon="11.885319848432886"><ele>254.79999999999998</ele><time>2026-05-03T07:40:56Z</time></trkpt><trkpt lat="43.47169850019112" lon="11.885333728697413"><ele>254.0</ele><time>2026-05-03T07:40:56.999Z</time></trkpt><trkpt lat="43.47183970821163" lon="11.885350519203612"><ele>254.0</ele><time>2026-05-03T07:40:57.999Z</time></trkpt><trkpt lat="43.47196593045872" lon="11.885359944405286"><ele>254.0</ele><time>2026-05-03T07:40:58.999Z</time></trkpt><trkpt lat="43.47209119143699" lon="11.885371671584704"><ele>254.0</ele><time>2026-05-03T07:40:59.999Z</time></trkpt><trkpt lat="43.47222091181527" lon="11.885381421345746"><ele>254.0</ele><time>2026-05-03T07:41:00.999Z</time></trkpt><trkpt lat="43.47234819964499" lon="11.885391799796352"><ele>253.75</ele><time>2026-05-03T07:41:01.999Z</time></trkpt><trkpt lat="43.472476157084195" lon="11.885398964469957"><ele>253.5</ele><time>2026-05-03T07:41:02.999Z</time></trkpt><trkpt lat="43.472601492306275" lon="11.8854055931123"><ele>253.25</ele><time>2026-05-03T07:41:03.999Z</time></trkpt><trkpt lat="43.47271970685497" lon="11.885412822536585"><ele>253.0</ele><time>2026-05-03T07:41:04.999Z</time></trkpt><trkpt lat="43.47282389577877" lon="11.885424546389782"><ele>253.0</ele><time>2026-05-03T07:41:05.999Z</time></trkpt><trkpt lat="43.472937360829405" lon="11.885438347745987"><ele>253.0</ele><time>2026-05-03T07:41:06.999Z</time></trkpt><trkpt lat="43.47305710517506" lon="11.885461247154451"><ele>253.0</ele><time>2026-05-03T07:41:07.999Z</time></trkpt><trkpt lat="43.47318487519917" lon="11.885471946303356"><ele>253.0</ele><time>2026-05-03T07:41:08.999Z</time></trkpt><trkpt lat="43.47331752810488" lon="11.885455972268778"><ele>253.0</ele><time>2026-05-03T07:41:09.999Z</time></trkpt><trkpt lat="43.47344923973782" lon="11.88546494378552"><ele>253.0</ele><time>2026-05-03T07:41:10.999Z</time></trkpt><trkpt lat="43.47357715207187" lon="11.88548095961995"><ele>253.0</ele><time>2026-05-03T07:41:11.999Z</time></trkpt><trkpt lat="43.47370338272477" lon="11.885479684213701"><ele>253.0</ele><time>2026-05-03T07:41:12.999Z</time></trkpt><trkpt lat="43.473822997617056" lon="11.885522253178674"><ele>253.0</ele><time>2026-05-03T07:41:13.999Z</time></trkpt><trkpt lat="43.47394810945084" lon="11.885531530428493"><ele>253.0</ele><time>2026-05-03T07:41:14.999Z</time></trkpt><trkpt lat="43.47407510426194" lon="11.885540947326438"><ele>253.0</ele><time>2026-05-03T07:41:15.999Z</time></trkpt><trkpt lat="43.47421215200295" lon="11.88553502411644"><ele>253.0</ele><time>2026-05-03T07:41:16.999Z</time></trkpt><trkpt lat="43.47434722921613" lon="11.885557181011853"><ele>253.0</ele><time>2026-05-03T07:41:17.999Z</time></trkpt><trkpt lat="43.474470748456696" lon="11.885571580983411"><ele>253.0</ele><time>2026-05-03T07:41:18.999Z</time></trkpt><trkpt lat="43.47457567608487" lon="11.885583545603644"><ele>253.0</ele><time>2026-05-03T07:41:19.999Z</time></trkpt><trkpt lat="43.474675674809326" lon="11.885592525593584"><ele>253.0</ele><time>2026-05-03T07:41:20.999Z</time></trkpt><trkpt lat="43.474766188952735" lon="11.885598946776403"><ele>253.0</ele><time>2026-05-03T07:41:21.999Z</time></trkpt><trkpt lat="43.47485200902399" lon="11.885605731880444"><ele>253.16666666666666</ele><time>2026-05-03T07:41:22.999Z</time></trkpt><trkpt lat="43.47493004481582" lon="11.885611187567813"><ele>253.33333333333331</ele><time>2026-05-03T07:41:23.999Z</time></trkpt><trkpt lat="43.47500321847281" lon="11.885614661106583"><ele>253.5</ele><time>2026-05-03T07:41:24.999Z</time></trkpt><trkpt lat="43.47507278162557" lon="11.885613692968983"><ele>253.66666666666669</ele><time>2026-05-03T07:41:25.999Z</time></trkpt><trkpt lat="43.4751555842186" lon="11.885646153075147"><ele>253.83333333333334</ele><time>2026-05-03T07:41:27.999Z</time></trkpt><trkpt lat="43.47517434802387" lon="11.885800701510231"><ele>254.0</ele><time>2026-05-03T07:41:29.999Z</time></trkpt><trkpt lat="43.47518062673158" lon="11.885920650926774"><ele>254.16666666666669</ele><time>2026-05-03T07:41:30.999Z</time></trkpt><trkpt lat="43.47519902823862" lon="11.886031156505014"><ele>254.33333333333334</ele><time>2026-05-03T07:41:31.999Z</time></trkpt><trkpt lat="43.47520734153342" lon="11.886138114131851"><ele>254.5</ele><time>2026-05-03T07:41:32.999Z</time></trkpt><trkpt lat="43.475209904624755" lon="11.886236318809901"><ele>254.66666666666669</ele><time>2026-05-03T07:41:33.999Z</time></trkpt><trkpt lat="43.475218210215665" lon="11.886354563113295"><ele>254.83333333333334</ele><time>2026-05-03T07:41:34.999Z</time></trkpt><trkpt lat="43.475228004586704" lon="11.886451794238152"><ele>255.0</ele><time>2026-05-03T07:41:35.999Z</time></trkpt><trkpt lat="43.47523752834601" lon="11.88654259181509"><ele>255.0</ele><time>2026-05-03T07:41:36.999Z</time></trkpt><trkpt lat="43.475270973925305" lon="11.886706756006987"><ele>255.0</ele><time>2026-05-03T07:41:38.999Z</time></trkpt><trkpt lat="43.47529278631036" lon="11.886845661972657"><ele>255.0</ele><time>2026-05-03T07:41:39.999Z</time></trkpt><trkpt lat="43.475296085619924" lon="11.887003818375389"><ele>255.0</ele><time>2026-05-03T07:41:40.999Z</time></trkpt><trkpt lat="43.47528049241432" lon="11.887176153920455"><ele>254.5</ele><time>2026-05-03T07:41:41.999Z</time></trkpt><trkpt lat="43.47526256658306" lon="11.887367440858183"><ele>254.0</ele><time>2026-05-03T07:41:42.999Z</time></trkpt><trkpt lat="43.475243303480106" lon="11.887560238532881"><ele>253.5</ele><time>2026-05-03T07:41:43.999Z</time></trkpt><trkpt lat="43.47522516484615" lon="11.887755876679831"><ele>253.0</ele><time>2026-05-03T07:41:44.999Z</time></trkpt><trkpt lat="43.47521467650052" lon="11.88795046715581"><ele>253.0</ele><time>2026-05-03T07:41:45.999Z</time></trkpt><trkpt lat="43.47521660995143" lon="11.888147026656718"><ele>253.0</ele><time>2026-05-03T07:41:46.999Z</time></trkpt><trkpt lat="43.47521762595957" lon="11.888340725113263"><ele>253.0</ele><time>2026-05-03T07:41:47.999Z</time></trkpt><trkpt lat="43.47521183645303" lon="11.888531485196795"><ele>253.0</ele><time>2026-05-03T07:41:48.999Z</time></trkpt><trkpt lat="43.47520432008271" lon="11.888730092339323"><ele>253.25</ele><time>2026-05-03T07:41:49.999Z</time></trkpt><trkpt lat="43.475206828758296" lon="11.888928985854893"><ele>253.5</ele><time>2026-05-03T07:41:50.999Z</time></trkpt><trkpt lat="43.47521020364123" lon="11.889125829267261"><ele>253.75</ele><time>2026-05-03T07:41:51.999Z</time></trkpt><trkpt lat="43.475205068691785" lon="11.889320346458"><ele>254.0</ele><time>2026-05-03T07:41:52.999Z</time></trkpt><trkpt lat="43.475206367082805" lon="11.889522474686519"><ele>254.0</ele><time>2026-05-03T07:41:53.999Z</time></trkpt><trkpt lat="43.47520424442235" lon="11.889779931637822"><ele>254.0</ele><time>2026-05-03T07:41:54.999Z</time></trkpt><trkpt lat="43.475204018607315" lon="11.890075519353081"><ele>254.0</ele><time>2026-05-03T07:41:55.999Z</time></trkpt><trkpt lat="43.47520994034122" lon="11.890338573595036"><ele>254.66666666666669</ele><time>2026-05-03T07:41:56.999Z</time></trkpt><trkpt lat="43.47521464123448" lon="11.890563032665325"><ele>255.33333333333331</ele><time>2026-05-03T07:41:57.999Z</time></trkpt><trkpt lat="43.47522386985902" lon="11.890774423929457"><ele>256.0</ele><time>2026-05-03T07:41:58.999Z</time></trkpt><trkpt lat="43.47523199633361" lon="11.890962630527127"><ele>257.0</ele><time>2026-05-03T07:41:59.999Z</time></trkpt><trkpt lat="43.47523708116059" lon="11.891144914923348"><ele>258.0</ele><time>2026-05-03T07:42:00.999Z</time></trkpt><trkpt lat="43.475249901375285" lon="11.891313606673101"><ele>259.0</ele><time>2026-05-03T07:42:01.999Z</time></trkpt><trkpt lat="43.47525811969253" lon="11.891432879138307"><ele>260.0</ele><time>2026-05-03T07:42:02.999Z</time></trkpt><trkpt lat="43.475270709373554" lon="11.891526966952902"><ele>261.0</ele><time>2026-05-03T07:42:03.999Z</time></trkpt><trkpt lat="43.475315417564154" lon="11.891606315506685"><ele>261.0</ele><time>2026-05-03T07:42:04.999Z</time></trkpt><trkpt lat="43.47540542320015" lon="11.891666780737413"><ele>261.0</ele><time>2026-05-03T07:42:05.999Z</time></trkpt><trkpt lat="43.47550777841366" lon="11.891702807534108"><ele>261.0</ele><time>2026-05-03T07:42:06.999Z</time></trkpt><trkpt lat="43.47563612421343" lon="11.891701663904245"><ele>261.0</ele><time>2026-05-03T07:42:07.998Z</time></trkpt><trkpt lat="43.4757682979124" lon="11.891730528187734"><ele>260.75</ele><time>2026-05-03T07:42:08.998Z</time></trkpt><trkpt lat="43.47588856647198" lon="11.891746103775024"><ele>260.5</ele><time>2026-05-03T07:42:09.998Z</time></trkpt><trkpt lat="43.47599152485931" lon="11.891752611324458"><ele>260.25</ele><time>2026-05-03T07:42:10.998Z</time></trkpt><trkpt lat="43.476096665861256" lon="11.891824120143463"><ele>260.0</ele><time>2026-05-03T07:42:11.998Z</time></trkpt><trkpt lat="43.476211955741455" lon="11.891948587754573"><ele>260.33333333333337</ele><time>2026-05-03T07:42:12.998Z</time></trkpt><trkpt lat="43.47633908751251" lon="11.892081216596546"><ele>260.6666666666667</ele><time>2026-05-03T07:42:13.998Z</time></trkpt><trkpt lat="43.47647491463861" lon="11.892214804026064"><ele>261.0</ele><time>2026-05-03T07:42:14.998Z</time></trkpt><trkpt lat="43.47658250368113" lon="11.892358758813597"><ele>261.0</ele><time>2026-05-03T07:42:15.998Z</time></trkpt><trkpt lat="43.476678844399586" lon="11.892479796816447"><ele>261.0</ele><time>2026-05-03T07:42:16.998Z</time></trkpt><trkpt lat="43.47677345026338" lon="11.892592851543657"><ele>261.0</ele><time>2026-05-03T07:42:18Z</time></trkpt><trkpt lat="43.47687087473063" lon="11.892707744745756"><ele>261.0</ele><time>2026-05-03T07:42:19Z</time></trkpt><trkpt lat="43.476967670134506" lon="11.8928249972673"><ele>261.40000000000003</ele><time>2026-05-03T07:42:20Z</time></trkpt><trkpt lat="43.477059345823854" lon="11.892945655706269"><ele>261.8</ele><time>2026-05-03T07:42:21Z</time></trkpt><trkpt lat="43.47713880357384" lon="11.893049042556354"><ele>262.20000000000005</ele><time>2026-05-03T07:42:22Z</time></trkpt><trkpt lat="43.47719924265886" lon="11.893135934850253"><ele>262.6</ele><time>2026-05-03T07:42:23Z</time></trkpt><trkpt lat="43.477238810661156" lon="11.89323016612239"><ele>263.0</ele><time>2026-05-03T07:42:24Z</time></trkpt><trkpt lat="43.477261034409466" lon="11.893348881382868"><ele>265.4</ele><time>2026-05-03T07:42:25Z</time></trkpt><trkpt lat="43.47726651686028" lon="11.893470031538254"><ele>267.8</ele><time>2026-05-03T07:42:26Z</time></trkpt><trkpt lat="43.47726342008527" lon="11.893568453554204"><ele>270.2</ele><time>2026-05-03T07:42:27Z</time></trkpt><trkpt lat="43.4772626852131" lon="11.8936741480229"><ele>272.6</ele><time>2026-05-03T07:42:29Z</time></trkpt><trkpt lat="43.47739299772045" lon="11.893776895532467"><ele>275.0</ele><time>2026-05-03T07:42:33Z</time></trkpt><trkpt lat="43.47749819971103" lon="11.893805328384142"><ele>275.0</ele><time>2026-05-03T07:42:35Z</time></trkpt><trkpt lat="43.47760094009965" lon="11.89383649610421"><ele>275.0</ele><time>2026-05-03T07:42:37Z</time></trkpt><trkpt lat="43.477699493210515" lon="11.893862703496724"><ele>275.0</ele><time>2026-05-03T07:42:39Z</time></trkpt><trkpt lat="43.4777828172424" lon="11.893876722600188"><ele>275.0</ele><time>2026-05-03T07:42:41Z</time></trkpt><trkpt lat="43.47790795969704" lon="11.893885958743311"><ele>275.0</ele><time>2026-05-03T07:42:43Z</time></trkpt><trkpt lat="43.47800407657028" lon="11.893895553561425"><ele>274.4</ele><time>2026-05-03T07:42:45Z</time></trkpt><trkpt lat="43.47811379935301" lon="11.893928632637708"><ele>273.8</ele><time>2026-05-03T07:42:47Z</time></trkpt><trkpt lat="43.47821072021802" lon="11.893975236930554"><ele>273.2</ele><time>2026-05-03T07:42:49Z</time></trkpt><trkpt lat="43.47829199012417" lon="11.894021518120608"><ele>272.6</ele><time>2026-05-03T07:42:51Z</time></trkpt><trkpt lat="43.478383974805574" lon="11.894075584691992"><ele>272.0</ele><time>2026-05-03T07:42:53Z</time></trkpt><trkpt lat="43.478484557488905" lon="11.894138040201575"><ele>272.0</ele><time>2026-05-03T07:42:55Z</time></trkpt><trkpt lat="43.47857921056592" lon="11.89419981790431"><ele>272.0</ele><time>2026-05-03T07:42:57Z</time></trkpt><trkpt lat="43.478678309294125" lon="11.894263680086958"><ele>272.0</ele><time>2026-05-03T07:42:58.999Z</time></trkpt><trkpt lat="43.4787654234003" lon="11.894325828544332"><ele>272.0</ele><time>2026-05-03T07:43:00.999Z</time></trkpt><trkpt lat="43.478823422816475" lon="11.894367183156028"><ele>272.0</ele><time>2026-05-03T07:43:01.999Z</time></trkpt><trkpt lat="43.47888709066086" lon="11.894413506124238"><ele>272.2857142857143</ele><time>2026-05-03T07:43:02.999Z</time></trkpt><trkpt lat="43.478946084139665" lon="11.89445637203202"><ele>272.57142857142856</ele><time>2026-05-03T07:43:03.999Z</time></trkpt><trkpt lat="43.47901045074739" lon="11.894503142106313"><ele>272.8571428571429</ele><time>2026-05-03T07:43:04.999Z</time></trkpt><trkpt lat="43.47906914899584" lon="11.894562875769113"><ele>273.1428571428571</ele><time>2026-05-03T07:43:05.999Z</time></trkpt><trkpt lat="43.47912912839837" lon="11.894622101236086"><ele>273.42857142857144</ele><time>2026-05-03T07:43:06.999Z</time></trkpt><trkpt lat="43.47919467991711" lon="11.894684445533276"><ele>273.7142857142857</ele><time>2026-05-03T07:43:07.999Z</time></trkpt><trkpt lat="43.47926118292609" lon="11.894738015280256"><ele>274.0</ele><time>2026-05-03T07:43:08.999Z</time></trkpt><trkpt lat="43.47934075127252" lon="11.89478172173881"><ele>274.0</ele><time>2026-05-03T07:43:09.999Z</time></trkpt><trkpt lat="43.47943262820647" lon="11.894805647111511"><ele>274.0</ele><time>2026-05-03T07:43:10.999Z</time></trkpt><trkpt lat="43.47952051226362" lon="11.894827094027299"><ele>274.0</ele><time>2026-05-03T07:43:11.999Z</time></trkpt><trkpt lat="43.47960897110412" lon="11.894834506268277"><ele>274.0</ele><time>2026-05-03T07:43:12.999Z</time></trkpt><trkpt lat="43.479684123432556" lon="11.894898383160896"><ele>274.0</ele><time>2026-05-03T07:43:13.999Z</time></trkpt><trkpt lat="43.47976458712215" lon="11.894946203902917"><ele>274.0</ele><time>2026-05-03T07:43:14.999Z</time></trkpt><trkpt lat="43.479843462194836" lon="11.894995928864974"><ele>273.5</ele><time>2026-05-03T07:43:15.999Z</time></trkpt><trkpt lat="43.47992200482438" lon="11.895045444147602"><ele>273.0</ele><time>2026-05-03T07:43:16.999Z</time></trkpt><trkpt lat="43.47999953527489" lon="11.895093563933527"><ele>272.5</ele><time>2026-05-03T07:43:17.999Z</time></trkpt><trkpt lat="43.48008018650554" lon="11.895126777767619"><ele>272.0</ele><time>2026-05-03T07:43:18.999Z</time></trkpt><trkpt lat="43.480156421820666" lon="11.895174841769691"><ele>271.5</ele><time>2026-05-03T07:43:19.999Z</time></trkpt><trkpt lat="43.48023424408845" lon="11.895220613968286"><ele>271.0</ele><time>2026-05-03T07:43:20.999Z</time></trkpt><trkpt lat="43.48031423344239" lon="11.89526320075664"><ele>271.0</ele><time>2026-05-03T07:43:21.999Z</time></trkpt><trkpt lat="43.4803972645475" lon="11.89531335186146"><ele>271.0</ele><time>2026-05-03T07:43:22.999Z</time></trkpt><trkpt lat="43.480484548878245" lon="11.89536389550281"><ele>271.0</ele><time>2026-05-03T07:43:23.999Z</time></trkpt><trkpt lat="43.480574399753614" lon="11.89541548710498"><ele>271.0</ele><time>2026-05-03T07:43:24.999Z</time></trkpt><trkpt lat="43.48066639715902" lon="11.895466381348388"><ele>271.0</ele><time>2026-05-03T07:43:25.999Z</time></trkpt><trkpt lat="43.480760585982516" lon="11.895512759483939"><ele>269.66666666666663</ele><time>2026-05-03T07:43:26.999Z</time></trkpt><trkpt lat="43.48085419412168" lon="11.8955554106315"><ele>268.3333333333333</ele><time>2026-05-03T07:43:27.999Z</time></trkpt><trkpt lat="43.4809349958936" lon="11.895598617543522"><ele>267.0</ele><time>2026-05-03T07:43:28.999Z</time></trkpt><trkpt lat="43.48101295730269" lon="11.895656881112837"><ele>265.6666666666667</ele><time>2026-05-03T07:43:29.999Z</time></trkpt><trkpt lat="43.481094786078756" lon="11.895692497705395"><ele>264.33333333333337</ele><time>2026-05-03T07:43:30.999Z</time></trkpt><trkpt lat="43.48118109455685" lon="11.895725352975465"><ele>263.0</ele><time>2026-05-03T07:43:31.999Z</time></trkpt><trkpt lat="43.48126967548463" lon="11.895731700871192"><ele>262.5</ele><time>2026-05-03T07:43:32.999Z</time></trkpt><trkpt lat="43.48135546850676" lon="11.89575344586936"><ele>262.0</ele><time>2026-05-03T07:43:33.999Z</time></trkpt><trkpt lat="43.48143387487231" lon="11.895763567957493"><ele>261.5</ele><time>2026-05-03T07:43:34.999Z</time></trkpt><trkpt lat="43.48151027572653" lon="11.895797332365401"><ele>261.0</ele><time>2026-05-03T07:43:35.999Z</time></trkpt><trkpt lat="43.481590788153596" lon="11.895804069646058"><ele>260.5</ele><time>2026-05-03T07:43:36.999Z</time></trkpt><trkpt lat="43.481675443302166" lon="11.895809294980983"><ele>260.0</ele><time>2026-05-03T07:43:37.999Z</time></trkpt><trkpt lat="43.48174353567098" lon="11.895813157646652"><ele>260.0</ele><time>2026-05-03T07:43:38.999Z</time></trkpt><trkpt lat="43.4818459877028" lon="11.89581896941052"><ele>260.0</ele><time>2026-05-03T07:43:40.999Z</time></trkpt><trkpt lat="43.481915466877" lon="11.895819871167177"><ele>260.0</ele><time>2026-05-03T07:43:42.999Z</time></trkpt><trkpt lat="43.481995819876474" lon="11.895938123833211"><ele>260.0</ele><time>2026-05-03T07:43:46.999Z</time></trkpt><trkpt lat="43.48201579447777" lon="11.896093838451865"><ele>260.0</ele><time>2026-05-03T07:43:47.999Z</time></trkpt><trkpt lat="43.48203806746191" lon="11.896304784980174"><ele>260.5</ele><time>2026-05-03T07:43:48.999Z</time></trkpt><trkpt lat="43.48208068238108" lon="11.89649877970552"><ele>261.0</ele><time>2026-05-03T07:43:49.999Z</time></trkpt><trkpt lat="43.48212981937667" lon="11.896667692840241"><ele>261.5</ele><time>2026-05-03T07:43:50.999Z</time></trkpt><trkpt lat="43.48216476834586" lon="11.896843059621727"><ele>262.0</ele><time>2026-05-03T07:43:51.999Z</time></trkpt><trkpt lat="43.48221119244387" lon="11.8970219173589"><ele>262.0</ele><time>2026-05-03T07:43:52.999Z</time></trkpt><trkpt lat="43.482256517749576" lon="11.897194490468351"><ele>262.0</ele><time>2026-05-03T07:43:53.999Z</time></trkpt><trkpt lat="43.48230093185266" lon="11.897372904209437"><ele>262.0</ele><time>2026-05-03T07:43:54.999Z</time></trkpt><trkpt lat="43.482340482638456" lon="11.897576460672719"><ele>262.0</ele><time>2026-05-03T07:43:55.999Z</time></trkpt><trkpt lat="43.482364344750465" lon="11.897848338423445"><ele>262.0</ele><time>2026-05-03T07:43:56.999Z</time></trkpt><trkpt lat="43.48236247856526" lon="11.898145083169252"><ele>262.0</ele><time>2026-05-03T07:43:57.999Z</time></trkpt><trkpt lat="43.482357751504885" lon="11.89842744040852"><ele>262.0</ele><time>2026-05-03T07:43:58.999Z</time></trkpt><trkpt lat="43.48236131910978" lon="11.89866923928487"><ele>262.66666666666663</ele><time>2026-05-03T07:43:59.999Z</time></trkpt><trkpt lat="43.48236241420356" lon="11.898893754404947"><ele>263.3333333333333</ele><time>2026-05-03T07:44:00.999Z</time></trkpt><trkpt lat="43.48235380774114" lon="11.899112958077016"><ele>264.0</ele><time>2026-05-03T07:44:01.999Z</time></trkpt><trkpt lat="43.48233960792756" lon="11.899333125900995"><ele>264.3333333333333</ele><time>2026-05-03T07:44:02.999Z</time></trkpt><trkpt lat="43.482337957520954" lon="11.899553360742527"><ele>264.66666666666663</ele><time>2026-05-03T07:44:03.999Z</time></trkpt><trkpt lat="43.482343190731314" lon="11.899773846932403"><ele>265.0</ele><time>2026-05-03T07:44:04.999Z</time></trkpt><trkpt lat="43.48235775992562" lon="11.899996368802855"><ele>265.3333333333333</ele><time>2026-05-03T07:44:05.999Z</time></trkpt><trkpt lat="43.4823830530416" lon="11.900208581445142"><ele>265.6666666666667</ele><time>2026-05-03T07:44:06.999Z</time></trkpt><trkpt lat="43.48240567547882" lon="11.900415154055672"><ele>266.0</ele><time>2026-05-03T07:44:07.999Z</time></trkpt><trkpt lat="43.48242833021458" lon="11.900630879420794"><ele>266.0</ele><time>2026-05-03T07:44:08.999Z</time></trkpt><trkpt lat="43.482462728331434" lon="11.900869351719857"><ele>266.0</ele><time>2026-05-03T07:44:09.999Z</time></trkpt><trkpt lat="43.482510979929486" lon="11.901109141484346"><ele>266.0</ele><time>2026-05-03T07:44:10.999Z</time></trkpt><trkpt lat="43.482584140618165" lon="11.901311107035076"><ele>266.0</ele><time>2026-05-03T07:44:11.999Z</time></trkpt><trkpt lat="43.4826570560277" lon="11.901497861662213"><ele>266.0</ele><time>2026-05-03T07:44:12.999Z</time></trkpt><trkpt lat="43.48271780318108" lon="11.90168821234165"><ele>266.0</ele><time>2026-05-03T07:44:13.998Z</time></trkpt><trkpt lat="43.48277100481473" lon="11.901885905269904"><ele>266.33333333333337</ele><time>2026-05-03T07:44:14.998Z</time></trkpt><trkpt lat="43.482835853236054" lon="11.902093330805803"><ele>266.6666666666667</ele><time>2026-05-03T07:44:15.998Z</time></trkpt><trkpt lat="43.482893532446894" lon="11.902308200714153"><ele>267.0</ele><time>2026-05-03T07:44:16.998Z</time></trkpt><trkpt lat="43.48291651434039" lon="11.902528250122417"><ele>267.3333333333333</ele><time>2026-05-03T07:44:17.998Z</time></trkpt><trkpt lat="43.48291717845487" lon="11.902771715328718"><ele>267.66666666666663</ele><time>2026-05-03T07:44:18.998Z</time></trkpt><trkpt lat="43.48290528215387" lon="11.903003853880112"><ele>268.0</ele><time>2026-05-03T07:44:19.998Z</time></trkpt><trkpt lat="43.4828982644638" lon="11.90322798869905"><ele>268.25</ele><time>2026-05-03T07:44:20.998Z</time></trkpt><trkpt lat="43.48289621944125" lon="11.903443364741186"><ele>268.5</ele><time>2026-05-03T07:44:21.998Z</time></trkpt><trkpt lat="43.482905246486425" lon="11.903630914142688"><ele>268.75</ele><time>2026-05-03T07:44:22.998Z</time></trkpt><trkpt lat="43.48291392982037" lon="11.903835641611717"><ele>269.0</ele><time>2026-05-03T07:44:24Z</time></trkpt><trkpt lat="43.48293765204041" lon="11.904057965403897"><ele>269.33333333333337</ele><time>2026-05-03T07:44:25Z</time></trkpt><trkpt lat="43.48295862322933" lon="11.904282237254364"><ele>269.6666666666667</ele><time>2026-05-03T07:44:26Z</time></trkpt><trkpt lat="43.48296592406243" lon="11.9044920405297"><ele>270.0</ele><time>2026-05-03T07:44:27Z</time></trkpt><trkpt lat="43.48297566329784" lon="11.90468342845442"><ele>270.0</ele><time>2026-05-03T07:44:28Z</time></trkpt><trkpt lat="43.48297378026387" lon="11.904871160050803"><ele>270.0</ele><time>2026-05-03T07:44:29Z</time></trkpt><trkpt lat="43.48296225803257" lon="11.905038848816478"><ele>270.0</ele><time>2026-05-03T07:44:30Z</time></trkpt><trkpt lat="43.48295605195316" lon="11.905174126158347"><ele>270.0</ele><time>2026-05-03T07:44:31Z</time></trkpt><trkpt lat="43.48294702912094" lon="11.905279153650506"><ele>270.0</ele><time>2026-05-03T07:44:32Z</time></trkpt><trkpt lat="43.48302764071705" lon="11.905390807766144"><ele>270.0</ele><time>2026-05-03T07:44:33Z</time></trkpt><trkpt lat="43.48312732260048" lon="11.905506066028916"><ele>270.0</ele><time>2026-05-03T07:44:34Z</time></trkpt><trkpt lat="43.48323492105801" lon="11.905667240734356"><ele>270.0</ele><time>2026-05-03T07:44:35Z</time></trkpt><trkpt lat="43.4833601687515" lon="11.905841346145309"><ele>271.0</ele><time>2026-05-03T07:44:36Z</time></trkpt><trkpt lat="43.48349427855945" lon="11.906030491643545"><ele>272.0</ele><time>2026-05-03T07:44:37Z</time></trkpt><trkpt lat="43.48360677924984" lon="11.906189160478768"><ele>273.0</ele><time>2026-05-03T07:44:38Z</time></trkpt><trkpt lat="43.48371169647898" lon="11.906329961733737"><ele>272.3333333333333</ele><time>2026-05-03T07:44:39Z</time></trkpt><trkpt lat="43.483819211261995" lon="11.906468635340651"><ele>271.66666666666663</ele><time>2026-05-03T07:44:40Z</time></trkpt><trkpt lat="43.483968351553465" lon="11.906581734925433"><ele>271.0</ele><time>2026-05-03T07:44:41Z</time></trkpt><trkpt lat="43.48414789557763" lon="11.906668439471034"><ele>271.66666666666663</ele><time>2026-05-03T07:44:42Z</time></trkpt><trkpt lat="43.48431466572924" lon="11.906766320566796"><ele>272.3333333333333</ele><time>2026-05-03T07:44:43Z</time></trkpt><trkpt lat="43.48444208868948" lon="11.90695179155475"><ele>273.0</ele><time>2026-05-03T07:44:44Z</time></trkpt><trkpt lat="43.484565522260006" lon="11.907104892118262"><ele>274.6666666666667</ele><time>2026-05-03T07:44:45Z</time></trkpt><trkpt lat="43.48468765156505" lon="11.907222190987046"><ele>276.33333333333337</ele><time>2026-05-03T07:44:46Z</time></trkpt><trkpt lat="43.48481985774665" lon="11.907345640263447"><ele>278.0</ele><time>2026-05-03T07:44:47Z</time></trkpt><trkpt lat="43.4849619550265" lon="11.907441845928494"><ele>278.0</ele><time>2026-05-03T07:44:48Z</time></trkpt><trkpt lat="43.48509208417795" lon="11.90752313116866"><ele>278.0</ele><time>2026-05-03T07:44:49Z</time></trkpt><trkpt lat="43.48521908129017" lon="11.907596492948336"><ele>278.0</ele><time>2026-05-03T07:44:50Z</time></trkpt><trkpt lat="43.48536468406492" lon="11.907664737409965"><ele>278.0</ele><time>2026-05-03T07:44:51Z</time></trkpt><trkpt lat="43.48551448202266" lon="11.907749271463452"><ele>281.6666666666667</ele><time>2026-05-03T07:44:52Z</time></trkpt><trkpt lat="43.48566453920678" lon="11.907840142442934"><ele>285.3333333333333</ele><time>2026-05-03T07:44:53Z</time></trkpt><trkpt lat="43.48580672668161" lon="11.907916432358418"><ele>289.0</ele><time>2026-05-03T07:44:54Z</time></trkpt><trkpt lat="43.4859423385986" lon="11.907979045389128"><ele>289.0</ele><time>2026-05-03T07:44:55Z</time></trkpt><trkpt lat="43.48605376504754" lon="11.90804117537848"><ele>289.0</ele><time>2026-05-03T07:44:56Z</time></trkpt><trkpt lat="43.48615346015731" lon="11.90810313126996"><ele>289.0</ele><time>2026-05-03T07:44:57Z</time></trkpt><trkpt lat="43.48624602056744" lon="11.908181746996457"><ele>289.0</ele><time>2026-05-03T07:44:58Z</time></trkpt><trkpt lat="43.48633025537409" lon="11.908302460628025"><ele>290.25</ele><time>2026-05-03T07:44:59Z</time></trkpt><trkpt lat="43.48640381666525" lon="11.908466295713758"><ele>291.5</ele><time>2026-05-03T07:45:00Z</time></trkpt><trkpt lat="43.48649381532576" lon="11.908627029917941"><ele>292.75</ele><time>2026-05-03T07:45:01Z</time></trkpt><trkpt lat="43.48659535622461" lon="11.908724675226262"><ele>294.0</ele><time>2026-05-03T07:45:02Z</time></trkpt><trkpt lat="43.48668656725193" lon="11.908802337513057"><ele>294.0</ele><time>2026-05-03T07:45:03Z</time></trkpt><trkpt lat="43.48675555227435" lon="11.908887443092746"><ele>294.0</ele><time>2026-05-03T07:45:04Z</time></trkpt><trkpt lat="43.48679646710872" lon="11.908997260849981"><ele>294.0</ele><time>2026-05-03T07:45:05Z</time></trkpt><trkpt lat="43.48681748494377" lon="11.90913474437956"><ele>294.0</ele><time>2026-05-03T07:45:06Z</time></trkpt><trkpt lat="43.48681648789364" lon="11.909313966877644"><ele>294.0</ele><time>2026-05-03T07:45:07Z</time></trkpt><trkpt lat="43.486797113097" lon="11.909489019711465"><ele>295.75</ele><time>2026-05-03T07:45:07.999Z</time></trkpt><trkpt lat="43.48677436128593" lon="11.909660045818264"><ele>297.5</ele><time>2026-05-03T07:45:08.999Z</time></trkpt><trkpt lat="43.48674332679232" lon="11.90984649165445"><ele>299.25</ele><time>2026-05-03T07:45:09.999Z</time></trkpt><trkpt lat="43.48673317922231" lon="11.910064777786356"><ele>301.0</ele><time>2026-05-03T07:45:10.999Z</time></trkpt><trkpt lat="43.48673202653663" lon="11.910260478100021"><ele>302.5</ele><time>2026-05-03T07:45:11.999Z</time></trkpt><trkpt lat="43.4867044836481" lon="11.910407102641846"><ele>304.0</ele><time>2026-05-03T07:45:12.999Z</time></trkpt><trkpt lat="43.486695573394734" lon="11.910561130050835"><ele>305.5</ele><time>2026-05-03T07:45:13.999Z</time></trkpt><trkpt lat="43.486707474490245" lon="11.910712140431595"><ele>307.0</ele><time>2026-05-03T07:45:14.999Z</time></trkpt><trkpt lat="43.48675589829063" lon="11.910862312902832"><ele>308.5</ele><time>2026-05-03T07:45:15.999Z</time></trkpt><trkpt lat="43.48682302714633" lon="11.911022351626624"><ele>310.0</ele><time>2026-05-03T07:45:16.999Z</time></trkpt><trkpt lat="43.48686742713267" lon="11.91119113098424"><ele>311.5</ele><time>2026-05-03T07:45:17.999Z</time></trkpt><trkpt lat="43.486917854218255" lon="11.911397610727619"><ele>313.0</ele><time>2026-05-03T07:45:18.999Z</time></trkpt><trkpt lat="43.48697862887983" lon="11.911617979588405"><ele>312.75</ele><time>2026-05-03T07:45:19.999Z</time></trkpt><trkpt lat="43.48703322058918" lon="11.911821841377256"><ele>312.5</ele><time>2026-05-03T07:45:20.999Z</time></trkpt><trkpt lat="43.48707126170696" lon="11.911999993754801"><ele>312.25</ele><time>2026-05-03T07:45:21.999Z</time></trkpt><trkpt lat="43.48710885163662" lon="11.912166118923986"><ele>312.0</ele><time>2026-05-03T07:45:22.999Z</time></trkpt><trkpt lat="43.4871107106591" lon="11.912362491295973"><ele>312.0</ele><time>2026-05-03T07:45:23.999Z</time></trkpt><trkpt lat="43.48713094052032" lon="11.912559639082863"><ele>312.0</ele><time>2026-05-03T07:45:24.999Z</time></trkpt><trkpt lat="43.48712199935853" lon="11.912748624607573"><ele>312.0</ele><time>2026-05-03T07:45:25.999Z</time></trkpt><trkpt lat="43.487110592853185" lon="11.912940886559996"><ele>312.0</ele><time>2026-05-03T07:45:26.999Z</time></trkpt><trkpt lat="43.487052250222426" lon="11.913131921862236"><ele>314.75</ele><time>2026-05-03T07:45:27.999Z</time></trkpt><trkpt lat="43.48700108567028" lon="11.913330179463703"><ele>317.5</ele><time>2026-05-03T07:45:28.999Z</time></trkpt><trkpt lat="43.48692192799761" lon="11.913508083823956"><ele>320.25</ele><time>2026-05-03T07:45:29.999Z</time></trkpt><trkpt lat="43.4868565173719" lon="11.913683010492523"><ele>323.0</ele><time>2026-05-03T07:45:30.999Z</time></trkpt><trkpt lat="43.486803722673294" lon="11.913837380248195"><ele>324.2</ele><time>2026-05-03T07:45:31.999Z</time></trkpt><trkpt lat="43.486758938942145" lon="11.913966680638929"><ele>325.4</ele><time>2026-05-03T07:45:32.999Z</time></trkpt><trkpt lat="43.4867157572278" lon="11.914071164588336"><ele>326.59999999999997</ele><time>2026-05-03T07:45:33.999Z</time></trkpt><trkpt lat="43.48667597941249" lon="11.914184882487321"><ele>327.79999999999995</ele><time>2026-05-03T07:45:34.999Z</time></trkpt><trkpt lat="43.486634721530955" lon="11.914315257374314"><ele>329.0</ele><time>2026-05-03T07:45:35.999Z</time></trkpt><trkpt lat="43.486594634003225" lon="11.914472268434203"><ele>330.33333333333337</ele><time>2026-05-03T07:45:36.999Z</time></trkpt><trkpt lat="43.48656466600781" lon="11.914665155976614"><ele>331.6666666666667</ele><time>2026-05-03T07:45:37.999Z</time></trkpt><trkpt lat="43.486538360108334" lon="11.914900529709993"><ele>333.0</ele><time>2026-05-03T07:45:38.999Z</time></trkpt><trkpt lat="43.48651332211406" lon="11.915122521244344"><ele>334.5</ele><time>2026-05-03T07:45:39.999Z</time></trkpt><trkpt lat="43.48649545882516" lon="11.91530606747593"><ele>336.0</ele><time>2026-05-03T07:45:40.999Z</time></trkpt><trkpt lat="43.4864786352597" lon="11.915473839392334"><ele>337.5</ele><time>2026-05-03T07:45:41.999Z</time></trkpt><trkpt lat="43.486471276254235" lon="11.915631502150468"><ele>339.0</ele><time>2026-05-03T07:45:42.999Z</time></trkpt><trkpt lat="43.48644932318852" lon="11.915777999009672"><ele>340.0</ele><time>2026-05-03T07:45:43.999Z</time></trkpt><trkpt lat="43.48642833126093" lon="11.915929954934223"><ele>341.0</ele><time>2026-05-03T07:45:44.999Z</time></trkpt><trkpt lat="43.486413540542266" lon="11.916092830010827"><ele>342.0</ele><time>2026-05-03T07:45:45.999Z</time></trkpt><trkpt lat="43.48640234550886" lon="11.916269786581383"><ele>343.0</ele><time>2026-05-03T07:45:46.999Z</time></trkpt><trkpt lat="43.48636832424199" lon="11.916449223731654"><ele>343.0</ele><time>2026-05-03T07:45:47.999Z</time></trkpt><trkpt lat="43.48634676860432" lon="11.916637955244632"><ele>343.0</ele><time>2026-05-03T07:45:48.999Z</time></trkpt><trkpt lat="43.486324270176816" lon="11.91681612853628"><ele>343.0</ele><time>2026-05-03T07:45:49.999Z</time></trkpt><trkpt lat="43.48630024832847" lon="11.917004579542903"><ele>343.0</ele><time>2026-05-03T07:45:50.999Z</time></trkpt><trkpt lat="43.48623306244105" lon="11.917150998929836"><ele>346.0</ele><time>2026-05-03T07:45:51.999Z</time></trkpt><trkpt lat="43.486156251318505" lon="11.917273038256921"><ele>349.0</ele><time>2026-05-03T07:45:52.999Z</time></trkpt><trkpt lat="43.486066079890755" lon="11.91739398089036"><ele>352.0</ele><time>2026-05-03T07:45:53.999Z</time></trkpt><trkpt lat="43.48599375087944" lon="11.917520881910507"><ele>355.0</ele><time>2026-05-03T07:45:54.999Z</time></trkpt><trkpt lat="43.48593593305341" lon="11.917662828886513"><ele>356.3333333333333</ele><time>2026-05-03T07:45:55.999Z</time></trkpt><trkpt lat="43.485911709143515" lon="11.917842688861114"><ele>357.6666666666667</ele><time>2026-05-03T07:45:56.999Z</time></trkpt><trkpt lat="43.485924269957415" lon="11.91806056762119"><ele>359.0</ele><time>2026-05-03T07:45:57.999Z</time></trkpt><trkpt lat="43.485919791501175" lon="11.918290412634363"><ele>360.33333333333337</ele><time>2026-05-03T07:45:58.999Z</time></trkpt><trkpt lat="43.48591515883706" lon="11.918550560423776"><ele>361.6666666666667</ele><time>2026-05-03T07:45:59.999Z</time></trkpt><trkpt lat="43.48591102933107" lon="11.918808275760734"><ele>363.0</ele><time>2026-05-03T07:46:00.999Z</time></trkpt><trkpt lat="43.48590811177382" lon="11.919038837002711"><ele>364.6666666666667</ele><time>2026-05-03T07:46:01.999Z</time></trkpt><trkpt lat="43.48592494226026" lon="11.919266319678956"><ele>366.33333333333337</ele><time>2026-05-03T07:46:02.999Z</time></trkpt><trkpt lat="43.48592532475574" lon="11.919478043809624"><ele>368.0</ele><time>2026-05-03T07:46:03.999Z</time></trkpt><trkpt lat="43.485930671229326" lon="11.919707660889657"><ele>368.0</ele><time>2026-05-03T07:46:04.999Z</time></trkpt><trkpt lat="43.48591992874885" lon="11.919925269563743"><ele>368.0</ele><time>2026-05-03T07:46:05.999Z</time></trkpt><trkpt lat="43.48592655689782" lon="11.920146844345012"><ele>368.0</ele><time>2026-05-03T07:46:06.999Z</time></trkpt><trkpt lat="43.48597119638081" lon="11.920354694079913"><ele>370.6666666666667</ele><time>2026-05-03T07:46:07.999Z</time></trkpt><trkpt lat="43.48598544492225" lon="11.920562220501218"><ele>373.3333333333333</ele><time>2026-05-03T07:46:08.999Z</time></trkpt><trkpt lat="43.485999565743924" lon="11.920774907629523"><ele>376.0</ele><time>2026-05-03T07:46:09.999Z</time></trkpt><trkpt lat="43.48601150469935" lon="11.920980110323555"><ele>378.25</ele><time>2026-05-03T07:46:10.999Z</time></trkpt><trkpt lat="43.485992875333345" lon="11.921158754958684"><ele>380.5</ele><time>2026-05-03T07:46:11.999Z</time></trkpt><trkpt lat="43.486020159300644" lon="11.921318341319934"><ele>382.75</ele><time>2026-05-03T07:46:12.999Z</time></trkpt><trkpt lat="43.48603326241338" lon="11.921494419627779"><ele>385.0</ele><time>2026-05-03T07:46:13.999Z</time></trkpt><trkpt lat="43.486070984796065" lon="11.921663662641125"><ele>386.0</ele><time>2026-05-03T07:46:14.999Z</time></trkpt><trkpt lat="43.486138279609065" lon="11.92182793572825"><ele>387.0</ele><time>2026-05-03T07:46:15.999Z</time></trkpt><trkpt lat="43.48623208167863" lon="11.921964512073332"><ele>388.0</ele><time>2026-05-03T07:46:16.999Z</time></trkpt><trkpt lat="43.48635097003855" lon="11.922099940296066"><ele>389.0</ele><time>2026-05-03T07:46:17.999Z</time></trkpt><trkpt lat="43.486457461022425" lon="11.92227183697447"><ele>389.0</ele><time>2026-05-03T07:46:18.999Z</time></trkpt><trkpt lat="43.48652383150278" lon="11.922477435707885"><ele>389.0</ele><time>2026-05-03T07:46:19.999Z</time></trkpt><trkpt lat="43.486595953812184" lon="11.922710883248115"><ele>389.0</ele><time>2026-05-03T07:46:20.999Z</time></trkpt><trkpt lat="43.486687511852324" lon="11.922945681800304"><ele>395.0</ele><time>2026-05-03T07:46:21.999Z</time></trkpt><trkpt lat="43.48677701953787" lon="11.92318450475841"><ele>401.0</ele><time>2026-05-03T07:46:22.999Z</time></trkpt><trkpt lat="43.48688416918521" lon="11.923420322160508"><ele>407.0</ele><time>2026-05-03T07:46:23.999Z</time></trkpt><trkpt lat="43.48699278762884" lon="11.923617773480109"><ele>408.3333333333333</ele><time>2026-05-03T07:46:24.999Z</time></trkpt><trkpt lat="43.4871205090826" lon="11.923782547034062"><ele>409.66666666666663</ele><time>2026-05-03T07:46:25.998Z</time></trkpt><trkpt lat="43.48725661238628" lon="11.923920295832398"><ele>411.0</ele><time>2026-05-03T07:46:26.998Z</time></trkpt><trkpt lat="43.48738962422292" lon="11.9240486435013"><ele>411.0</ele><time>2026-05-03T07:46:27.998Z</time></trkpt><trkpt lat="43.4875380250892" lon="11.924155398036918"><ele>411.0</ele><time>2026-05-03T07:46:28.998Z</time></trkpt><trkpt lat="43.48769872750906" lon="11.924277322254946"><ele>411.0</ele><time>2026-05-03T07:46:30Z</time></trkpt><trkpt lat="43.4878546614746" lon="11.924372569447046"><ele>413.25</ele><time>2026-05-03T07:46:31Z</time></trkpt><trkpt lat="43.487989718868775" lon="11.924440567728086"><ele>415.5</ele><time>2026-05-03T07:46:32Z</time></trkpt><trkpt lat="43.48810419034278" lon="11.92453005488207"><ele>417.75</ele><time>2026-05-03T07:46:33Z</time></trkpt><trkpt lat="43.48820680536066" lon="11.924607578550528"><ele>420.0</ele><time>2026-05-03T07:46:34Z</time></trkpt><trkpt lat="43.488282847123976" lon="11.92472236065593"><ele>420.0</ele><time>2026-05-03T07:46:35Z</time></trkpt><trkpt lat="43.48835726714119" lon="11.924831871326212"><ele>420.0</ele><time>2026-05-03T07:46:36Z</time></trkpt><trkpt lat="43.48840759764569" lon="11.924972985348264"><ele>420.0</ele><time>2026-05-03T07:46:37Z</time></trkpt><trkpt lat="43.48842914923177" lon="11.925109094392425"><ele>420.0</ele><time>2026-05-03T07:46:38Z</time></trkpt><trkpt lat="43.48841687689486" lon="11.925220831483069"><ele>420.0</ele><time>2026-05-03T07:46:39Z</time></trkpt><trkpt lat="43.488386545290886" lon="11.92529979959803"><ele>425.0</ele><time>2026-05-03T07:46:40Z</time></trkpt><trkpt lat="43.48828759655067" lon="11.925336242720878"><ele>430.0</ele><time>2026-05-03T07:46:41Z</time></trkpt><trkpt lat="43.48821637798845" lon="11.925262941607354"><ele>435.0</ele><time>2026-05-03T07:46:42Z</time></trkpt><trkpt lat="43.48814462243119" lon="11.925249102809493"><ele>440.0</ele><time>2026-05-03T07:46:43Z</time></trkpt><trkpt lat="43.488020213399345" lon="11.925234358155253"><ele>445.0</ele><time>2026-05-03T07:46:44Z</time></trkpt><trkpt lat="43.487823111681436" lon="11.92522096258721"><ele>446.5</ele><time>2026-05-03T07:46:45Z</time></trkpt><trkpt lat="43.48766411276333" lon="11.925217766820566"><ele>448.0</ele><time>2026-05-03T07:46:46Z</time></trkpt><trkpt lat="43.48754271025401" lon="11.925223084212032"><ele>449.5</ele><time>2026-05-03T07:46:47Z</time></trkpt><trkpt lat="43.487442030740304" lon="11.925229449972054"><ele>451.0</ele><time>2026-05-03T07:46:48Z</time></trkpt><trkpt lat="43.48733980839753" lon="11.925243966010157"><ele>451.0</ele><time>2026-05-03T07:46:49Z</time></trkpt><trkpt lat="43.48723209613386" lon="11.925270800531175"><ele>451.0</ele><time>2026-05-03T07:46:50Z</time></trkpt><trkpt lat="43.48714077498908" lon="11.925328302649666"><ele>451.0</ele><time>2026-05-03T07:46:51Z</time></trkpt><trkpt lat="43.487058901716836" lon="11.925397952683698"><ele>451.0</ele><time>2026-05-03T07:46:52Z</time></trkpt><trkpt lat="43.4869990101755" lon="11.925480101060632"><ele>451.0</ele><time>2026-05-03T07:46:53Z</time></trkpt><trkpt lat="43.48696003436559" lon="11.925593648868"><ele>448.20000000000005</ele><time>2026-05-03T07:46:54Z</time></trkpt><trkpt lat="43.48695805362199" lon="11.925723595295734"><ele>445.40000000000003</ele><time>2026-05-03T07:46:55Z</time></trkpt><trkpt lat="43.48697521525887" lon="11.925882757356527"><ele>442.6</ele><time>2026-05-03T07:46:56Z</time></trkpt><trkpt lat="43.48701054785054" lon="11.926043092256894"><ele>439.8</ele><time>2026-05-03T07:46:57Z</time></trkpt><trkpt lat="43.48704394373435" lon="11.926186538429196"><ele>437.0</ele><time>2026-05-03T07:46:58Z</time></trkpt><trkpt lat="43.4870834284403" lon="11.926322677375778"><ele>441.40000000000003</ele><time>2026-05-03T07:46:59Z</time></trkpt><trkpt lat="43.487132512126614" lon="11.926447648840922"><ele>445.80000000000007</ele><time>2026-05-03T07:47:00Z</time></trkpt><trkpt lat="43.48718537906375" lon="11.926559745766875"><ele>450.2</ele><time>2026-05-03T07:47:01Z</time></trkpt><trkpt lat="43.48724047323328" lon="11.926669608933874"><ele>454.6</ele><time>2026-05-03T07:47:02Z</time></trkpt><trkpt lat="43.487303406285726" lon="11.926767618673379"><ele>459.0</ele><time>2026-05-03T07:47:03Z</time></trkpt><trkpt lat="43.48737379354985" lon="11.926852912550046"><ele>459.0</ele><time>2026-05-03T07:47:04Z</time></trkpt><trkpt lat="43.48744663161058" lon="11.9269312584425"><ele>459.0</ele><time>2026-05-03T07:47:05Z</time></trkpt><trkpt lat="43.487514993061545" lon="11.927014246749692"><ele>459.0</ele><time>2026-05-03T07:47:06Z</time></trkpt><trkpt lat="43.48758943030595" lon="11.92708483635582"><ele>459.0</ele><time>2026-05-03T07:47:07Z</time></trkpt><trkpt lat="43.48766661605179" lon="11.927148480816689"><ele>459.0</ele><time>2026-05-03T07:47:08Z</time></trkpt><trkpt lat="43.487739607051395" lon="11.927200306072283"><ele>459.0</ele><time>2026-05-03T07:47:09Z</time></trkpt><trkpt lat="43.487811621493165" lon="11.927249285284576"><ele>459.0</ele><time>2026-05-03T07:47:10Z</time></trkpt><trkpt lat="43.48788791446435" lon="11.927300890460652"><ele>459.0</ele><time>2026-05-03T07:47:11Z</time></trkpt><trkpt lat="43.48796821566474" lon="11.927357283450185"><ele>459.0</ele><time>2026-05-03T07:47:12Z</time></trkpt><trkpt lat="43.48804417208773" lon="11.927420812158664"><ele>459.0</ele><time>2026-05-03T07:47:12.999Z</time></trkpt><trkpt lat="43.48812057933665" lon="11.927477868951202"><ele>459.0</ele><time>2026-05-03T07:47:13.999Z</time></trkpt><trkpt lat="43.488198574738384" lon="11.927538317908333"><ele>459.0</ele><time>2026-05-03T07:47:14.999Z</time></trkpt><trkpt lat="43.48827900007649" lon="11.927600654603747"><ele>460.6666666666667</ele><time>2026-05-03T07:47:15.999Z</time></trkpt><trkpt lat="43.488354988370745" lon="11.927651473070778"><ele>462.33333333333337</ele><time>2026-05-03T07:47:16.999Z</time></trkpt><trkpt lat="43.48841067052815" lon="11.927725623582736"><ele>464.0</ele><time>2026-05-03T07:47:17.999Z</time></trkpt><trkpt lat="43.48847167508138" lon="11.927781933297181"><ele>465.6666666666667</ele><time>2026-05-03T07:47:18.999Z</time></trkpt><trkpt lat="43.48853640273067" lon="11.927841753692862"><ele>467.33333333333337</ele><time>2026-05-03T07:47:19.999Z</time></trkpt><trkpt lat="43.488600831635274" lon="11.927903113813615"><ele>469.0</ele><time>2026-05-03T07:47:20.999Z</time></trkpt><trkpt lat="43.48867186809144" lon="11.927946146916433"><ele>469.00000000000006</ele><time>2026-05-03T07:47:21.999Z</time></trkpt><trkpt lat="43.488732767787134" lon="11.928014444064445"><ele>469.0</ele><time>2026-05-03T07:47:22.999Z</time></trkpt><trkpt lat="43.48878951372329" lon="11.928080592505333"><ele>469.0</ele><time>2026-05-03T07:47:23.999Z</time></trkpt><trkpt lat="43.488852674853625" lon="11.928143904253382"><ele>469.0</ele><time>2026-05-03T07:47:24.999Z</time></trkpt><trkpt lat="43.488917061453776" lon="11.928203362687084"><ele>469.00000000000006</ele><time>2026-05-03T07:47:25.999Z</time></trkpt><trkpt lat="43.488972001617206" lon="11.928294227096629"><ele>469.0</ele><time>2026-05-03T07:47:26.999Z</time></trkpt><trkpt lat="43.4890322692328" lon="11.928367349666772"><ele>472.6</ele><time>2026-05-03T07:47:27.999Z</time></trkpt><trkpt lat="43.48909248666447" lon="11.92844340541242"><ele>476.2</ele><time>2026-05-03T07:47:28.999Z</time></trkpt><trkpt lat="43.48915340453606" lon="11.9285222915538"><ele>479.80000000000007</ele><time>2026-05-03T07:47:29.999Z</time></trkpt><trkpt lat="43.48923473728499" lon="11.928600685091046"><ele>483.40000000000003</ele><time>2026-05-03T07:47:30.999Z</time></trkpt><trkpt lat="43.48931051623506" lon="11.928712955421974"><ele>487.0</ele><time>2026-05-03T07:47:31.999Z</time></trkpt><trkpt lat="43.48938292930792" lon="11.928822881091712"><ele>487.0</ele><time>2026-05-03T07:47:32.999Z</time></trkpt><trkpt lat="43.48944994016691" lon="11.92892490191503"><ele>487.00000000000006</ele><time>2026-05-03T07:47:33.999Z</time></trkpt><trkpt lat="43.4895099646959" lon="11.929024903387186"><ele>487.00000000000006</ele><time>2026-05-03T07:47:34.999Z</time></trkpt><trkpt lat="43.48957358129997" lon="11.9291218960389"><ele>487.0</ele><time>2026-05-03T07:47:35.999Z</time></trkpt><trkpt lat="43.48963637749007" lon="11.92921322136482"><ele>487.0</ele><time>2026-05-03T07:47:36.999Z</time></trkpt><trkpt lat="43.48970712380074" lon="11.929295026388715"><ele>492.0</ele><time>2026-05-03T07:47:37.999Z</time></trkpt><trkpt lat="43.48977796174629" lon="11.929373139395544"><ele>497.00000000000006</ele><time>2026-05-03T07:47:38.999Z</time></trkpt><trkpt lat="43.489846340315154" lon="11.92943942886846"><ele>502.00000000000006</ele><time>2026-05-03T07:47:39.999Z</time></trkpt><trkpt lat="43.48991681107641" lon="11.929506763416565"><ele>507.0</ele><time>2026-05-03T07:47:40.999Z</time></trkpt><trkpt lat="43.48997839028332" lon="11.929579629752418"><ele>512.0</ele><time>2026-05-03T07:47:41.999Z</time></trkpt><trkpt lat="43.490013083610705" lon="11.929749151907501"><ele>511.99999999999994</ele><time>2026-05-03T07:47:43.999Z</time></trkpt><trkpt lat="43.490007225186815" lon="11.929845620268695"><ele>512.0</ele><time>2026-05-03T07:47:44.999Z</time></trkpt><trkpt lat="43.489996036766165" lon="11.92993770929823"><ele>512.0</ele><time>2026-05-03T07:47:45.999Z</time></trkpt><trkpt lat="43.4899971391679" lon="11.930029046550827"><ele>512.0</ele><time>2026-05-03T07:47:46.999Z</time></trkpt><trkpt lat="43.490018127094274" lon="11.930120031495422"><ele>511.99999999999994</ele><time>2026-05-03T07:47:47.999Z</time></trkpt><trkpt lat="43.490067232195315" lon="11.930206633207797"><ele>512.0</ele><time>2026-05-03T07:47:48.999Z</time></trkpt><trkpt lat="43.490139035520535" lon="11.930311764646282"><ele>512.8000000000001</ele><time>2026-05-03T07:47:49.999Z</time></trkpt><trkpt lat="43.490210969602025" lon="11.9304397680246"><ele>513.6</ele><time>2026-05-03T07:47:50.999Z</time></trkpt><trkpt lat="43.49025567554133" lon="11.93056463409213"><ele>514.4000000000001</ele><time>2026-05-03T07:47:51.999Z</time></trkpt><trkpt lat="43.490260310455916" lon="11.930666627775473"><ele>515.2</ele><time>2026-05-03T07:47:52.999Z</time></trkpt><trkpt lat="43.49027583646087" lon="11.930755146514885"><ele>516.0</ele><time>2026-05-03T07:47:53.999Z</time></trkpt><trkpt lat="43.49031468637182" lon="11.930873249208032"><ele>517.8</ele><time>2026-05-03T07:47:55.999Z</time></trkpt><trkpt lat="43.49041101900117" lon="11.930922856909536"><ele>519.6</ele><time>2026-05-03T07:47:57.999Z</time></trkpt><trkpt lat="43.49050599725548" lon="11.930945118439562"><ele>521.4</ele><time>2026-05-03T07:47:59.999Z</time></trkpt><trkpt lat="43.49055626364445" lon="11.930739270860421"><ele>523.2</ele><time>2026-05-03T07:48:00.999Z</time></trkpt><trkpt lat="43.490566158757666" lon="11.930647455658002"><ele>525.0</ele><time>2026-05-03T07:48:01.999Z</time></trkpt><trkpt lat="43.4905968005093" lon="11.930544970605464"><ele>526.0</ele><time>2026-05-03T07:48:02.999Z</time></trkpt><trkpt lat="43.49062589436065" lon="11.930401078331448"><ele>527.0</ele><time>2026-05-03T07:48:03.999Z</time></trkpt><trkpt lat="43.49065352246446" lon="11.93026157142863"><ele>528.0</ele><time>2026-05-03T07:48:04.999Z</time></trkpt><trkpt lat="43.490692127928114" lon="11.930136309387791"><ele>529.0</ele><time>2026-05-03T07:48:05.999Z</time></trkpt><trkpt lat="43.49074906984317" lon="11.930033649803224"><ele>530.0</ele><time>2026-05-03T07:48:06.999Z</time></trkpt><trkpt lat="43.49083661366332" lon="11.929950206645309"><ele>530.0</ele><time>2026-05-03T07:48:07.999Z</time></trkpt><trkpt lat="43.49092135518328" lon="11.929838429441407"><ele>530.0</ele><time>2026-05-03T07:48:08.999Z</time></trkpt><trkpt lat="43.490983760466335" lon="11.929722223263415"><ele>530.0</ele><time>2026-05-03T07:48:09.999Z</time></trkpt><trkpt lat="43.491058957699735" lon="11.929645470492149"><ele>530.0</ele><time>2026-05-03T07:48:10.999Z</time></trkpt><trkpt lat="43.49113396808106" lon="11.92958832427168"><ele>530.0</ele><time>2026-05-03T07:48:11.999Z</time></trkpt><trkpt lat="43.49121709052916" lon="11.929557796190878"><ele>532.1666666666666</ele><time>2026-05-03T07:48:12.999Z</time></trkpt><trkpt lat="43.49129392424241" lon="11.929557728740111"><ele>534.3333333333333</ele><time>2026-05-03T07:48:13.999Z</time></trkpt><trkpt lat="43.4913806433225" lon="11.929583248355414"><ele>536.5</ele><time>2026-05-03T07:48:14.999Z</time></trkpt><trkpt lat="43.49146810922086" lon="11.929635352982118"><ele>538.6666666666666</ele><time>2026-05-03T07:48:15.999Z</time></trkpt><trkpt lat="43.49154859293305" lon="11.92970099697812"><ele>540.8333333333334</ele><time>2026-05-03T07:48:16.999Z</time></trkpt><trkpt lat="43.491623392487064" lon="11.929754956896641"><ele>543.0</ele><time>2026-05-03T07:48:17.999Z</time></trkpt><trkpt lat="43.49169597014478" lon="11.929809278035702"><ele>543.0</ele><time>2026-05-03T07:48:18.999Z</time></trkpt><trkpt lat="43.491764848740694" lon="11.929875722841341"><ele>543.0</ele><time>2026-05-03T07:48:19.999Z</time></trkpt><trkpt lat="43.4918469064597" lon="11.929947550149604"><ele>543.0</ele><time>2026-05-03T07:48:20.999Z</time></trkpt><trkpt lat="43.491944789899065" lon="11.930045137689936"><ele>543.0</ele><time>2026-05-03T07:48:21.999Z</time></trkpt><trkpt lat="43.492042938502884" lon="11.93011271781515"><ele>543.0</ele><time>2026-05-03T07:48:22.999Z</time></trkpt><trkpt lat="43.49213761642158" lon="11.930189948396192"><ele>545.8</ele><time>2026-05-03T07:48:23.999Z</time></trkpt><trkpt lat="43.4922227770101" lon="11.930285293518939"><ele>548.5999999999999</ele><time>2026-05-03T07:48:24.999Z</time></trkpt><trkpt lat="43.49230768165409" lon="11.930372747226581"><ele>551.4000000000001</ele><time>2026-05-03T07:48:25.999Z</time></trkpt><trkpt lat="43.49239320746148" lon="11.930454644317653"><ele>554.2</ele><time>2026-05-03T07:48:26.999Z</time></trkpt><trkpt lat="43.49246541630875" lon="11.930529954907636"><ele>557.0</ele><time>2026-05-03T07:48:27.999Z</time></trkpt><trkpt lat="43.49254425860532" lon="11.930615508869069"><ele>557.0</ele><time>2026-05-03T07:48:28.999Z</time></trkpt><trkpt lat="43.49259854726776" lon="11.930708242128329"><ele>557.0</ele><time>2026-05-03T07:48:29.999Z</time></trkpt><trkpt lat="43.492660375803254" lon="11.930788124457855"><ele>557.0</ele><time>2026-05-03T07:48:30.999Z</time></trkpt><trkpt lat="43.49271605580697" lon="11.930860062844362"><ele>557.0</ele><time>2026-05-03T07:48:31.999Z</time></trkpt><trkpt lat="43.49278836420521" lon="11.930958519994974"><ele>557.0</ele><time>2026-05-03T07:48:33.999Z</time></trkpt><trkpt lat="43.49282940468168" lon="11.931085747052995"><ele>559.0</ele><time>2026-05-03T07:48:36Z</time></trkpt><trkpt lat="43.492754596717496" lon="11.931233223419516"><ele>561.0</ele><time>2026-05-03T07:48:37Z</time></trkpt><trkpt lat="43.49268227375023" lon="11.93132516482213"><ele>563.0</ele><time>2026-05-03T07:48:38Z</time></trkpt><trkpt lat="43.4925959537269" lon="11.931412366630378"><ele>565.0</ele><time>2026-05-03T07:48:39Z</time></trkpt><trkpt lat="43.49252368608259" lon="11.931496547674918"><ele>567.0</ele><time>2026-05-03T07:48:40Z</time></trkpt><trkpt lat="43.49244877969122" lon="11.931575514256652"><ele>567.0</ele><time>2026-05-03T07:48:41Z</time></trkpt><trkpt lat="43.4923830702173" lon="11.931648980110158"><ele>567.0</ele><time>2026-05-03T07:48:42Z</time></trkpt><trkpt lat="43.49232772839424" lon="11.931755281144525"><ele>567.0</ele><time>2026-05-03T07:48:43Z</time></trkpt><trkpt lat="43.49227861282729" lon="11.931883755370315"><ele>567.0</ele><time>2026-05-03T07:48:45Z</time></trkpt><trkpt lat="43.492293341748585" lon="11.93203518534738"><ele>567.0</ele><time>2026-05-03T07:48:48Z</time></trkpt><trkpt lat="43.49231271682168" lon="11.93214940935944"><ele>568.0</ele><time>2026-05-03T07:48:49Z</time></trkpt><trkpt lat="43.49235925685748" lon="11.932264515300712"><ele>569.0</ele><time>2026-05-03T07:48:51Z</time></trkpt><trkpt lat="43.49245536825475" lon="11.932336294677588"><ele>570.0</ele><time>2026-05-03T07:49:05Z</time></trkpt><trkpt lat="43.49253518246507" lon="11.932312626598574"><ele>571.0</ele><time>2026-05-03T07:50:06.999Z</time></trkpt><trkpt lat="43.4926030863818" lon="11.932266541071423"><ele>572.0</ele><time>2026-05-03T07:50:08.999Z</time></trkpt><trkpt lat="43.49271392135446" lon="11.932325206049647"><ele>572.0</ele><time>2026-05-03T07:50:10.999Z</time></trkpt><trkpt lat="43.49281547844922" lon="11.932429418765022"><ele>572.0</ele><time>2026-05-03T07:50:12.999Z</time></trkpt><trkpt lat="43.49284966792026" lon="11.932506852949752"><ele>572.0</ele><time>2026-05-03T07:50:13.999Z</time></trkpt><trkpt lat="43.492888758928395" lon="11.932581712153524"><ele>572.0</ele><time>2026-05-03T07:50:14.999Z</time></trkpt><trkpt lat="43.49293958436852" lon="11.93265347411346"><ele>572.0</ele><time>2026-05-03T07:50:15.999Z</time></trkpt><trkpt lat="43.492979496471634" lon="11.932727446419806"><ele>572.0</ele><time>2026-05-03T07:50:16.999Z</time></trkpt><trkpt lat="43.493035370849654" lon="11.932872641987558"><ele>576.0</ele><time>2026-05-03T07:50:18.999Z</time></trkpt><trkpt lat="43.493089270460075" lon="11.933011461101229"><ele>580.0</ele><time>2026-05-03T07:50:20.999Z</time></trkpt><trkpt lat="43.493109544326835" lon="11.933098018896281"><ele>584.0</ele><time>2026-05-03T07:50:21.999Z</time></trkpt><trkpt lat="43.49315852932443" lon="11.933250245090933"><ele>588.0</ele><time>2026-05-03T07:50:23.999Z</time></trkpt><trkpt lat="43.49324142124621" lon="11.933352910262576"><ele>592.0</ele><time>2026-05-03T07:50:25.999Z</time></trkpt><trkpt lat="43.49334624219228" lon="11.933419851838154"><ele>592.8000000000001</ele><time>2026-05-03T07:50:27.999Z</time></trkpt><trkpt lat="43.49344398847386" lon="11.933499369130464"><ele>593.6</ele><time>2026-05-03T07:50:29.999Z</time></trkpt><trkpt lat="43.49353029682289" lon="11.933587468736492"><ele>594.4000000000001</ele><time>2026-05-03T07:50:31.999Z</time></trkpt><trkpt lat="43.493606587909746" lon="11.933712434627115"><ele>595.2</ele><time>2026-05-03T07:50:33.999Z</time></trkpt><trkpt lat="43.4936386320126" lon="11.933817250358787"><ele>596.0</ele><time>2026-05-03T07:50:34.999Z</time></trkpt><trkpt lat="43.49368047939381" lon="11.933940388799275"><ele>596.0</ele><time>2026-05-03T07:50:35.999Z</time></trkpt><trkpt lat="43.493712990575865" lon="11.934027901414309"><ele>596.0</ele><time>2026-05-03T07:50:36.999Z</time></trkpt><trkpt lat="43.49382485971348" lon="11.93408792096775"><ele>596.0</ele><time>2026-05-03T07:50:38.999Z</time></trkpt><trkpt lat="43.49388714634019" lon="11.93407193975032"><ele>596.0</ele><time>2026-05-03T07:50:39.999Z</time></trkpt><trkpt lat="43.493970073861746" lon="11.934104515015356"><ele>596.0</ele><time>2026-05-03T07:50:42Z</time></trkpt><trkpt lat="43.49401939549564" lon="11.9341942381846"><ele>596.0</ele><time>2026-05-03T07:50:44Z</time></trkpt><trkpt lat="43.494073589608924" lon="11.934304793471874"><ele>600.2</ele><time>2026-05-03T07:50:46Z</time></trkpt><trkpt lat="43.49416027812314" lon="11.934335099682654"><ele>604.4000000000001</ele><time>2026-05-03T07:50:48Z</time></trkpt><trkpt lat="43.49422689472746" lon="11.934427571040436"><ele>608.6</ele><time>2026-05-03T07:50:49Z</time></trkpt><trkpt lat="43.49429057608335" lon="11.934476201162507"><ele>612.8000000000001</ele><time>2026-05-03T07:50:50Z</time></trkpt><trkpt lat="43.494401975446145" lon="11.934559124375905"><ele>617.0</ele><time>2026-05-03T07:50:52Z</time></trkpt><trkpt lat="43.49445587363314" lon="11.934619764536182"><ele>617.0</ele><time>2026-05-03T07:50:53Z</time></trkpt><trkpt lat="43.49451025825393" lon="11.934693812194656"><ele>617.0</ele><time>2026-05-03T07:50:54Z</time></trkpt><trkpt lat="43.494606519450564" lon="11.934783842803407"><ele>617.0</ele><time>2026-05-03T07:50:56Z</time></trkpt><trkpt lat="43.49472606616811" lon="11.934811463020115"><ele>617.0</ele><time>2026-05-03T07:50:58Z</time></trkpt><trkpt lat="43.4947925132657" lon="11.934820606391932"><ele>617.0</ele><time>2026-05-03T07:50:59Z</time></trkpt><trkpt lat="43.49485531877106" lon="11.934836510060121"><ele>617.0</ele><time>2026-05-03T07:51:00Z</time></trkpt><trkpt lat="43.494924109361314" lon="11.934861775094854"><ele>619.1666666666666</ele><time>2026-05-03T07:51:01Z</time></trkpt><trkpt lat="43.4949998674774" lon="11.934906240145756"><ele>621.3333333333333</ele><time>2026-05-03T07:51:02Z</time></trkpt><trkpt lat="43.4950665893321" lon="11.934928791137212"><ele>623.5</ele><time>2026-05-03T07:51:03Z</time></trkpt><trkpt lat="43.49514250923664" lon="11.934922518201276"><ele>625.6666666666666</ele><time>2026-05-03T07:51:05Z</time></trkpt><trkpt lat="43.495183562817694" lon="11.934856474786585"><ele>627.8333333333334</ele><time>2026-05-03T07:51:07Z</time></trkpt><trkpt lat="43.49524324033223" lon="11.934791052672061"><ele>630.0</ele><time>2026-05-03T07:51:08Z</time></trkpt><trkpt lat="43.49536708944898" lon="11.934713800904667"><ele>631.1666666666666</ele><time>2026-05-03T07:51:10Z</time></trkpt><trkpt lat="43.49544105562875" lon="11.9346761632432"><ele>632.3333333333334</ele><time>2026-05-03T07:51:11Z</time></trkpt><trkpt lat="43.49551020125862" lon="11.934658543698283"><ele>633.5</ele><time>2026-05-03T07:51:12Z</time></trkpt><trkpt lat="43.49558401867454" lon="11.93466401784936"><ele>634.6666666666667</ele><time>2026-05-03T07:51:13Z</time></trkpt><trkpt lat="43.49568254876979" lon="11.934770115388382"><ele>635.8333333333334</ele><time>2026-05-03T07:51:14Z</time></trkpt><trkpt lat="43.4957639500312" lon="11.934798683071822"><ele>637.0</ele><time>2026-05-03T07:51:15Z</time></trkpt><trkpt lat="43.49583067687668" lon="11.934863643439558"><ele>637.0</ele><time>2026-05-03T07:51:16Z</time></trkpt><trkpt lat="43.495887530915596" lon="11.934929035666324"><ele>637.0</ele><time>2026-05-03T07:51:17Z</time></trkpt><trkpt lat="43.49594326927378" lon="11.934985029724404"><ele>637.0</ele><time>2026-05-03T07:51:18Z</time></trkpt><trkpt lat="43.49605276900878" lon="11.935002685698624"><ele>637.0</ele><time>2026-05-03T07:51:20Z</time></trkpt><trkpt lat="43.49611054288585" lon="11.935041860710246"><ele>637.0</ele><time>2026-05-03T07:51:21Z</time></trkpt><trkpt lat="43.49618681865236" lon="11.935105797980347"><ele>637.0</ele><time>2026-05-03T07:51:22Z</time></trkpt><trkpt lat="43.496250249968654" lon="11.935173613452118"><ele>638.0</ele><time>2026-05-03T07:51:23Z</time></trkpt><trkpt lat="43.49632420757315" lon="11.93523231844705"><ele>639.0</ele><time>2026-05-03T07:51:24Z</time></trkpt><trkpt lat="43.496394637355266" lon="11.935291241863474"><ele>640.0</ele><time>2026-05-03T07:51:25Z</time></trkpt><trkpt lat="43.49646255917685" lon="11.935341641457875"><ele>641.0</ele><time>2026-05-03T07:51:26Z</time></trkpt><trkpt lat="43.49652967924686" lon="11.935394447488497"><ele>642.0</ele><time>2026-05-03T07:51:27Z</time></trkpt><trkpt lat="43.49658371165742" lon="11.93544569890485"><ele>643.0</ele><time>2026-05-03T07:51:28Z</time></trkpt><trkpt lat="43.49664491652957" lon="11.935517865149475"><ele>643.0</ele><time>2026-05-03T07:51:29Z</time></trkpt><trkpt lat="43.49673169074838" lon="11.935641676072148"><ele>643.0</ele><time>2026-05-03T07:51:31Z</time></trkpt><trkpt lat="43.49677995994398" lon="11.935716689104082"><ele>643.0</ele><time>2026-05-03T07:51:32Z</time></trkpt><trkpt lat="43.496842510234856" lon="11.935777046306104"><ele>643.0</ele><time>2026-05-03T07:51:33Z</time></trkpt><trkpt lat="43.49694299152712" lon="11.935856910147871"><ele>643.0</ele><time>2026-05-03T07:51:35Z</time></trkpt><trkpt lat="43.497025916026914" lon="11.935945670633783"><ele>642.0</ele><time>2026-05-03T07:51:36.999Z</time></trkpt><trkpt lat="43.49706181140417" lon="11.93601784351634"><ele>641.0</ele><time>2026-05-03T07:51:37.999Z</time></trkpt><trkpt lat="43.497093517514195" lon="11.936105972570509"><ele>640.0</ele><time>2026-05-03T07:51:38.999Z</time></trkpt><trkpt lat="43.49711575105961" lon="11.936218738795104"><ele>639.0</ele><time>2026-05-03T07:51:39.999Z</time></trkpt><trkpt lat="43.49713944231835" lon="11.936327130007173"><ele>638.0</ele><time>2026-05-03T07:51:40.999Z</time></trkpt><trkpt lat="43.49715893561074" lon="11.936427224986998"><ele>637.0</ele><time>2026-05-03T07:51:41.999Z</time></trkpt><trkpt lat="43.497206278228724" lon="11.936592675184631"><ele>637.0</ele><time>2026-05-03T07:51:43.999Z</time></trkpt><trkpt lat="43.4972454411424" lon="11.93669061655099"><ele>637.0</ele><time>2026-05-03T07:51:44.999Z</time></trkpt><trkpt lat="43.497271890134115" lon="11.936789942097612"><ele>637.0</ele><time>2026-05-03T07:51:45.999Z</time></trkpt><trkpt lat="43.49729143802469" lon="11.936891127215677"><ele>637.0</ele><time>2026-05-03T07:51:46.999Z</time></trkpt><trkpt lat="43.49730927192454" lon="11.936977633361614"><ele>637.0</ele><time>2026-05-03T07:51:47.999Z</time></trkpt><trkpt lat="43.49732697225615" lon="11.937062738710814"><ele>637.0</ele><time>2026-05-03T07:51:48.999Z</time></trkpt><trkpt lat="43.49738666471082" lon="11.937183377773104"><ele>637.5</ele><time>2026-05-03T07:51:50.999Z</time></trkpt><trkpt lat="43.49742859898746" lon="11.937254890521915"><ele>638.0</ele><time>2026-05-03T07:51:52.999Z</time></trkpt><trkpt lat="43.49747495660739" lon="11.937333219745332"><ele>638.5</ele><time>2026-05-03T07:54:37.999Z</time></trkpt><trkpt lat="43.49749210380243" lon="11.937433991469737"><ele>639.0</ele><time>2026-05-03T07:54:40.999Z</time></trkpt><trkpt lat="43.4975312385324" lon="11.937541545402151"><ele>639.5</ele><time>2026-05-03T07:54:43.999Z</time></trkpt><trkpt lat="43.497579158194604" lon="11.937647198035606"><ele>640.0</ele><time>2026-05-03T07:54:46.999Z</time></trkpt><trkpt lat="43.49761598774618" lon="11.937742101940309"><ele>637.8333333333334</ele><time>2026-05-03T07:54:49.999Z</time></trkpt><trkpt lat="43.49764634131397" lon="11.937826548042002"><ele>635.6666666666667</ele><time>2026-05-03T07:54:51.999Z</time></trkpt><trkpt lat="43.497678540120276" lon="11.937921132212509"><ele>633.5</ele><time>2026-05-03T07:54:54Z</time></trkpt><trkpt lat="43.49773865830652" lon="11.938078734864472"><ele>631.3333333333334</ele><time>2026-05-03T07:54:56Z</time></trkpt><trkpt lat="43.49776928237443" lon="11.938176076649368"><ele>629.1666666666666</ele><time>2026-05-03T07:54:57Z</time></trkpt><trkpt lat="43.49779612959216" lon="11.938264782197942"><ele>627.0</ele><time>2026-05-03T07:54:58Z</time></trkpt><trkpt lat="43.49783361945617" lon="11.938417951509317"><ele>627.0</ele><time>2026-05-03T07:55:00Z</time></trkpt><trkpt lat="43.49790179123663" lon="11.938543405934288"><ele>627.0</ele><time>2026-05-03T07:55:02Z</time></trkpt><trkpt lat="43.49797468297989" lon="11.938613770584226"><ele>627.0</ele><time>2026-05-03T07:55:04Z</time></trkpt><trkpt lat="43.49807436973479" lon="11.93867448301926"><ele>627.0</ele><time>2026-05-03T07:55:06Z</time></trkpt><trkpt lat="43.498133928195074" lon="11.938774964462535"><ele>627.0</ele><time>2026-05-03T07:55:08Z</time></trkpt><trkpt lat="43.49816482199933" lon="11.938902659550944"><ele>627.0</ele><time>2026-05-03T07:55:10Z</time></trkpt><trkpt lat="43.49818116699242" lon="11.939071859705994"><ele>627.0</ele><time>2026-05-03T07:55:12Z</time></trkpt><trkpt lat="43.49820070508144" lon="11.939157363145178"><ele>627.0</ele><time>2026-05-03T07:55:13Z</time></trkpt><trkpt lat="43.49820955692905" lon="11.939243760415165"><ele>627.0</ele><time>2026-05-03T07:55:14Z</time></trkpt><trkpt lat="43.49822751481483" lon="11.939397922928771"><ele>627.0</ele><time>2026-05-03T07:55:16Z</time></trkpt><trkpt lat="43.498258846663916" lon="11.939528795435654"><ele>623.8000000000001</ele><time>2026-05-03T07:55:18Z</time></trkpt><trkpt lat="43.49825185031464" lon="11.939677329353314"><ele>620.6</ele><time>2026-05-03T07:55:20Z</time></trkpt><trkpt lat="43.4981876255775" lon="11.939821181371443"><ele>617.4000000000001</ele><time>2026-05-03T07:55:22Z</time></trkpt><trkpt lat="43.498124506874746" lon="11.939929454058692"><ele>614.2</ele><time>2026-05-03T07:55:24Z</time></trkpt><trkpt lat="43.49815385790838" lon="11.940030309007792"><ele>611.0</ele><time>2026-05-03T07:55:26Z</time></trkpt><trkpt lat="43.49824428784435" lon="11.940074764460864"><ele>611.0</ele><time>2026-05-03T07:55:28Z</time></trkpt><trkpt lat="43.49835718938129" lon="11.940025537583985"><ele>611.0</ele><time>2026-05-03T07:55:30Z</time></trkpt><trkpt lat="43.49846455674888" lon="11.939969304382677"><ele>611.0</ele><time>2026-05-03T07:55:32Z</time></trkpt><trkpt lat="43.49853097569144" lon="11.939936812751956"><ele>611.0</ele><time>2026-05-03T07:55:33Z</time></trkpt><trkpt lat="43.49860159371781" lon="11.93987842040246"><ele>611.0</ele><time>2026-05-03T07:55:34Z</time></trkpt><trkpt lat="43.498679910071914" lon="11.939848040874022"><ele>610.8</ele><time>2026-05-03T07:55:35Z</time></trkpt><trkpt lat="43.49875803958853" lon="11.939821861855794"><ele>610.6</ele><time>2026-05-03T07:55:36Z</time></trkpt><trkpt lat="43.498839482104636" lon="11.939792251640444"><ele>610.4</ele><time>2026-05-03T07:55:37Z</time></trkpt><trkpt lat="43.49891019053885" lon="11.939767169720183"><ele>610.2</ele><time>2026-05-03T07:55:38Z</time></trkpt><trkpt lat="43.49901363064841" lon="11.939725825733998"><ele>610.0</ele><time>2026-05-03T07:55:40Z</time></trkpt><trkpt lat="43.499102613934106" lon="11.939900630822052"><ele>610.0</ele><time>2026-05-03T07:55:44Z</time></trkpt><trkpt lat="43.49914351425283" lon="11.940016786576356"><ele>610.0</ele><time>2026-05-03T07:55:45Z</time></trkpt><trkpt lat="43.49919382927725" lon="11.940118824538322"><ele>610.0</ele><time>2026-05-03T07:55:46Z</time></trkpt><trkpt lat="43.499237833117256" lon="11.940217436181163"><ele>610.0</ele><time>2026-05-03T07:55:47Z</time></trkpt><trkpt lat="43.49929188210914" lon="11.940322841789854"><ele>610.0</ele><time>2026-05-03T07:55:48Z</time></trkpt><trkpt lat="43.49934335167808" lon="11.940425138545558"><ele>608.5</ele><time>2026-05-03T07:55:49Z</time></trkpt><trkpt lat="43.49938750544055" lon="11.940528108283099"><ele>607.0</ele><time>2026-05-03T07:55:50Z</time></trkpt><trkpt lat="43.4994149392976" lon="11.940633079538484"><ele>605.5</ele><time>2026-05-03T07:55:51Z</time></trkpt><trkpt lat="43.49943221180828" lon="11.940738719727452"><ele>604.0</ele><time>2026-05-03T07:55:51.999Z</time></trkpt><trkpt lat="43.49944850698729" lon="11.940840491617466"><ele>602.5</ele><time>2026-05-03T07:55:52.999Z</time></trkpt><trkpt lat="43.49946658696852" lon="11.940944240104669"><ele>601.0</ele><time>2026-05-03T07:55:53.999Z</time></trkpt><trkpt lat="43.499476649232285" lon="11.941051685258676"><ele>599.4</ele><time>2026-05-03T07:55:54.999Z</time></trkpt><trkpt lat="43.49946468776639" lon="11.941152043782806"><ele>597.8</ele><time>2026-05-03T07:55:55.999Z</time></trkpt><trkpt lat="43.49941056060495" lon="11.941309430790136"><ele>596.1999999999999</ele><time>2026-05-03T07:55:57.999Z</time></trkpt><trkpt lat="43.499377651865906" lon="11.941471206632578"><ele>594.6</ele><time>2026-05-03T07:55:59.999Z</time></trkpt><trkpt lat="43.49940007467803" lon="11.941554503068694"><ele>593.0</ele><time>2026-05-03T07:56:00.999Z</time></trkpt><trkpt lat="43.49943977300631" lon="11.941631818437267"><ele>593.0</ele><time>2026-05-03T07:56:01.999Z</time></trkpt><trkpt lat="43.49948943002312" lon="11.94171505049355"><ele>593.0</ele><time>2026-05-03T07:56:02.999Z</time></trkpt><trkpt lat="43.499536787995545" lon="11.941811490616587"><ele>593.0</ele><time>2026-05-03T07:56:03.999Z</time></trkpt><trkpt lat="43.49957983048113" lon="11.941907897281395"><ele>593.0</ele><time>2026-05-03T07:56:04.999Z</time></trkpt><trkpt lat="43.49962546635979" lon="11.941998669656474"><ele>593.0</ele><time>2026-05-03T07:56:05.999Z</time></trkpt><trkpt lat="43.49966475548668" lon="11.942080052373292"><ele>593.0</ele><time>2026-05-03T07:56:06.999Z</time></trkpt><trkpt lat="43.49969928608682" lon="11.942171623962322"><ele>596.1666666666666</ele><time>2026-05-03T07:56:07.999Z</time></trkpt><trkpt lat="43.499723423369325" lon="11.942264858875948"><ele>599.3333333333333</ele><time>2026-05-03T07:56:08.999Z</time></trkpt><trkpt lat="43.49974016561529" lon="11.942357125131663"><ele>602.5</ele><time>2026-05-03T07:56:09.999Z</time></trkpt><trkpt lat="43.499748986504684" lon="11.942443054784313"><ele>605.6666666666666</ele><time>2026-05-03T07:56:10.999Z</time></trkpt><trkpt lat="43.49971572848798" lon="11.942594786732403"><ele>608.8333333333334</ele><time>2026-05-03T07:56:12.999Z</time></trkpt><trkpt lat="43.499671732098484" lon="11.942659041199098"><ele>612.0</ele><time>2026-05-03T07:56:13.999Z</time></trkpt><trkpt lat="43.49960243045601" lon="11.942729184667337"><ele>608.6666666666666</ele><time>2026-05-03T07:56:14.999Z</time></trkpt><trkpt lat="43.49954285215876" lon="11.942784969125533"><ele>605.3333333333334</ele><time>2026-05-03T07:56:15.999Z</time></trkpt><trkpt lat="43.4994876142254" lon="11.942859949260889"><ele>602.0</ele><time>2026-05-03T07:56:16.999Z</time></trkpt><trkpt lat="43.49944178330261" lon="11.942953546504217"><ele>598.6666666666667</ele><time>2026-05-03T07:56:17.999Z</time></trkpt><trkpt lat="43.49939479273489" lon="11.943042475305862"><ele>595.3333333333334</ele><time>2026-05-03T07:56:18.999Z</time></trkpt><trkpt lat="43.49934277533248" lon="11.94312198767332"><ele>592.0</ele><time>2026-05-03T07:56:19.999Z</time></trkpt><trkpt lat="43.499284087261785" lon="11.943191428708971"><ele>592.0</ele><time>2026-05-03T07:56:20.999Z</time></trkpt><trkpt lat="43.49922822286637" lon="11.94326161006562"><ele>592.0</ele><time>2026-05-03T07:56:21.999Z</time></trkpt><trkpt lat="43.49917630176017" lon="11.943335430567211"><ele>592.0</ele><time>2026-05-03T07:56:22.999Z</time></trkpt><trkpt lat="43.499143760648224" lon="11.94341675756599"><ele>592.0</ele><time>2026-05-03T07:56:23.999Z</time></trkpt><trkpt lat="43.49913125252526" lon="11.943508090904771"><ele>592.0</ele><time>2026-05-03T07:56:24.999Z</time></trkpt><trkpt lat="43.49914553730779" lon="11.943613495016907"><ele>592.0</ele><time>2026-05-03T07:56:25.999Z</time></trkpt><trkpt lat="43.49917924570796" lon="11.943728339901112"><ele>591.1666666666667</ele><time>2026-05-03T07:56:26.999Z</time></trkpt><trkpt lat="43.49921712317779" lon="11.943830972584008"><ele>590.3333333333334</ele><time>2026-05-03T07:56:27.999Z</time></trkpt><trkpt lat="43.49925422784968" lon="11.943937126829777"><ele>589.5</ele><time>2026-05-03T07:56:28.999Z</time></trkpt><trkpt lat="43.499304016001794" lon="11.944028237451187"><ele>588.6666666666666</ele><time>2026-05-03T07:56:29.999Z</time></trkpt><trkpt lat="43.49936070608212" lon="11.94410725093154"><ele>587.8333333333333</ele><time>2026-05-03T07:56:30.999Z</time></trkpt><trkpt lat="43.49941157156836" lon="11.944177240995623"><ele>587.0</ele><time>2026-05-03T07:56:31.999Z</time></trkpt><trkpt lat="43.49944795488544" lon="11.944262795817567"><ele>587.8333333333333</ele><time>2026-05-03T07:56:32.999Z</time></trkpt><trkpt lat="43.49949149027496" lon="11.944343133120354"><ele>588.6666666666666</ele><time>2026-05-03T07:56:33.999Z</time></trkpt><trkpt lat="43.49954872272588" lon="11.944396187393064"><ele>589.5</ele><time>2026-05-03T07:56:34.999Z</time></trkpt><trkpt lat="43.499622530352895" lon="11.944429246793346"><ele>590.3333333333334</ele><time>2026-05-03T07:56:35.999Z</time></trkpt><trkpt lat="43.49972107989146" lon="11.944473307716208"><ele>591.1666666666667</ele><time>2026-05-03T07:56:37.999Z</time></trkpt><trkpt lat="43.499796573983026" lon="11.94453141340511"><ele>592.0</ele><time>2026-05-03T07:56:39.999Z</time></trkpt><trkpt lat="43.49983274950946" lon="11.944610655159723"><ele>592.0</ele><time>2026-05-03T07:56:40.999Z</time></trkpt><trkpt lat="43.49986401071764" lon="11.944725367532081"><ele>592.0</ele><time>2026-05-03T07:56:41.999Z</time></trkpt><trkpt lat="43.49991331929856" lon="11.944831812999368"><ele>592.0</ele><time>2026-05-03T07:56:42.999Z</time></trkpt><trkpt lat="43.49996040660334" lon="11.94492957334247"><ele>592.0</ele><time>2026-05-03T07:56:43.999Z</time></trkpt><trkpt lat="43.50001335367133" lon="11.945025016977358"><ele>592.0</ele><time>2026-05-03T07:56:44.999Z</time></trkpt><trkpt lat="43.50007890483615" lon="11.945095874015358"><ele>592.0</ele><time>2026-05-03T07:56:45.999Z</time></trkpt><trkpt lat="43.50012779593817" lon="11.945169582872285"><ele>591.5</ele><time>2026-05-03T07:56:46.999Z</time></trkpt><trkpt lat="43.50016927332166" lon="11.945253592010046"><ele>591.0</ele><time>2026-05-03T07:56:47.999Z</time></trkpt><trkpt lat="43.50021622718082" lon="11.945346323302902"><ele>590.5</ele><time>2026-05-03T07:56:48.999Z</time></trkpt><trkpt lat="43.50027252663202" lon="11.945438992932159"><ele>590.0</ele><time>2026-05-03T07:56:49.999Z</time></trkpt><trkpt lat="43.500328800960745" lon="11.945522191653202"><ele>589.5</ele><time>2026-05-03T07:56:50.999Z</time></trkpt><trkpt lat="43.50039167281352" lon="11.94557013735132"><ele>589.0</ele><time>2026-05-03T07:56:51.999Z</time></trkpt><trkpt lat="43.500458797913176" lon="11.945597406762912"><ele>589.0</ele><time>2026-05-03T07:56:52.999Z</time></trkpt><trkpt lat="43.50057273266026" lon="11.94564164542413"><ele>589.0</ele><time>2026-05-03T07:56:54.999Z</time></trkpt><trkpt lat="43.50065876001738" lon="11.945561355313435"><ele>589.0</ele><time>2026-05-03T07:56:56.999Z</time></trkpt><trkpt lat="43.5007038114322" lon="11.945492670065697"><ele>589.0</ele><time>2026-05-03T07:56:57.999Z</time></trkpt><trkpt lat="43.50077414126404" lon="11.945425367889824"><ele>589.0</ele><time>2026-05-03T07:57:00Z</time></trkpt><trkpt lat="43.500839285869375" lon="11.945484018935783"><ele>589.0</ele><time>2026-05-03T07:57:04Z</time></trkpt><trkpt lat="43.50086808346574" lon="11.945620587752062"><ele>589.0</ele><time>2026-05-03T07:57:07Z</time></trkpt><trkpt lat="43.50089516008312" lon="11.945751729019"><ele>589.0</ele><time>2026-05-03T07:57:09Z</time></trkpt><trkpt lat="43.50094450156582" lon="11.945881814546048"><ele>589.0</ele><time>2026-05-03T07:57:11Z</time></trkpt><trkpt lat="43.50100203520202" lon="11.946147617027894"><ele>584.6</ele><time>2026-05-03T07:57:14Z</time></trkpt><trkpt lat="43.50104718076139" lon="11.946229162522458"><ele>580.2</ele><time>2026-05-03T07:57:15Z</time></trkpt><trkpt lat="43.50107355771005" lon="11.94636493993599"><ele>575.8000000000001</ele><time>2026-05-03T07:57:17Z</time></trkpt><trkpt lat="43.50113673398217" lon="11.9464807870168"><ele>571.4</ele><time>2026-05-03T07:57:19Z</time></trkpt><trkpt lat="43.501157518371684" lon="11.946601519426538"><ele>567.0</ele><time>2026-05-03T07:57:21Z</time></trkpt><trkpt lat="43.501179092830995" lon="11.946733904228086"><ele>565.6</ele><time>2026-05-03T07:57:24Z</time></trkpt><trkpt lat="43.50115927778939" lon="11.946871426782996"><ele>564.2</ele><time>2026-05-03T07:57:26Z</time></trkpt><trkpt lat="43.50116570540335" lon="11.947007956247841"><ele>562.8</ele><time>2026-05-03T07:57:28Z</time></trkpt><trkpt lat="43.50123904402938" lon="11.94714404101552"><ele>561.4</ele><time>2026-05-03T07:57:30Z</time></trkpt><trkpt lat="43.501344701759386" lon="11.947215132753772"><ele>560.0</ele><time>2026-05-03T07:57:32Z</time></trkpt><trkpt lat="43.50140237246953" lon="11.947316586931713"><ele>560.0</ele><time>2026-05-03T07:57:34Z</time></trkpt><trkpt lat="43.50145647508732" lon="11.947367778878677"><ele>560.0</ele><time>2026-05-03T07:57:36Z</time></trkpt><trkpt lat="43.50154351809521" lon="11.947399297206026"><ele>560.0</ele><time>2026-05-03T07:57:38Z</time></trkpt><trkpt lat="43.50159342176714" lon="11.947455273837843"><ele>560.0</ele><time>2026-05-03T07:57:39Z</time></trkpt><trkpt lat="43.50164257417118" lon="11.947607683537289"><ele>560.0</ele><time>2026-05-03T07:57:41Z</time></trkpt><trkpt lat="43.50165717482534" lon="11.947696065527325"><ele>560.0</ele><time>2026-05-03T07:57:42Z</time></trkpt><trkpt lat="43.50167541328511" lon="11.947826929122739"><ele>556.6</ele><time>2026-05-03T07:57:44Z</time></trkpt><trkpt lat="43.50173729785744" lon="11.947930241261997"><ele>553.2</ele><time>2026-05-03T07:57:49Z</time></trkpt><trkpt lat="43.501836577071174" lon="11.948032096953732"><ele>549.8</ele><time>2026-05-03T07:57:51Z</time></trkpt><trkpt lat="43.50191093427021" lon="11.9480943423152"><ele>546.4</ele><time>2026-05-03T07:57:53Z</time></trkpt><trkpt lat="43.501996272451706" lon="11.948178323065772"><ele>543.0</ele><time>2026-05-03T07:57:55Z</time></trkpt><trkpt lat="43.50209588342529" lon="11.948266325457567"><ele>543.0</ele><time>2026-05-03T07:57:57Z</time></trkpt><trkpt lat="43.502167056331864" lon="11.948313344602319"><ele>543.0</ele><time>2026-05-03T07:57:58.999Z</time></trkpt><trkpt lat="43.502266748316735" lon="11.94835961743919"><ele>543.0</ele><time>2026-05-03T07:58:00.999Z</time></trkpt><trkpt lat="43.50233918248909" lon="11.94848303239058"><ele>543.0</ele><time>2026-05-03T07:58:02.999Z</time></trkpt><trkpt lat="43.50237244539398" lon="11.948565120212724"><ele>543.0</ele><time>2026-05-03T07:58:03.999Z</time></trkpt><trkpt lat="43.502436386442824" lon="11.948686495832254"><ele>540.1666666666666</ele><time>2026-05-03T07:58:05.999Z</time></trkpt><trkpt lat="43.502496176616845" lon="11.948723200951992"><ele>537.3333333333334</ele><time>2026-05-03T07:58:06.999Z</time></trkpt><trkpt lat="43.502551021030044" lon="11.948769660868939"><ele>534.5</ele><time>2026-05-03T07:58:07.999Z</time></trkpt><trkpt lat="43.502601845303545" lon="11.948840522494883"><ele>531.6666666666667</ele><time>2026-05-03T07:58:08.999Z</time></trkpt><trkpt lat="43.50264951776279" lon="11.948897773066735"><ele>528.8333333333334</ele><time>2026-05-03T07:58:09.999Z</time></trkpt><trkpt lat="43.50272745014937" lon="11.949017768211952"><ele>526.0</ele><time>2026-05-03T07:58:11.999Z</time></trkpt><trkpt lat="43.50280341470903" lon="11.949153139067429"><ele>524.8333333333334</ele><time>2026-05-03T07:58:13.999Z</time></trkpt><trkpt lat="43.50283934236726" lon="11.949228853234061"><ele>523.6666666666667</ele><time>2026-05-03T07:58:14.999Z</time></trkpt><trkpt lat="43.50288028931744" lon="11.949304175600211"><ele>522.5</ele><time>2026-05-03T07:58:15.999Z</time></trkpt><trkpt lat="43.50291939066122" lon="11.949388067491522"><ele>521.3333333333334</ele><time>2026-05-03T07:58:16.999Z</time></trkpt><trkpt lat="43.50295608429196" lon="11.949461049377183"><ele>520.1666666666666</ele><time>2026-05-03T07:58:17.999Z</time></trkpt><trkpt lat="43.50303071883076" lon="11.94957539589291"><ele>519.0</ele><time>2026-05-03T07:58:19.999Z</time></trkpt><trkpt lat="43.503081842769014" lon="11.949714230235381"><ele>519.0</ele><time>2026-05-03T07:58:21.999Z</time></trkpt><trkpt lat="43.503105879395825" lon="11.949799492413536"><ele>519.0</ele><time>2026-05-03T07:58:22.999Z</time></trkpt><trkpt lat="43.50315372730547" lon="11.949949936030146"><ele>519.0</ele><time>2026-05-03T07:58:24.999Z</time></trkpt><trkpt lat="43.503193890084056" lon="11.950099831604373"><ele>519.0</ele><time>2026-05-03T07:58:26.999Z</time></trkpt><trkpt lat="43.50321728604323" lon="11.95018169935214"><ele>519.0</ele><time>2026-05-03T07:58:27.999Z</time></trkpt><trkpt lat="43.50324635457402" lon="11.95034728645596"><ele>518.1666666666666</ele><time>2026-05-03T07:58:29.999Z</time></trkpt><trkpt lat="43.50325890417343" lon="11.95044610242495"><ele>517.3333333333334</ele><time>2026-05-03T07:58:30.999Z</time></trkpt><trkpt lat="43.503273305136574" lon="11.950531880050386"><ele>516.5</ele><time>2026-05-03T07:58:31.999Z</time></trkpt><trkpt lat="43.50330525735164" lon="11.950705495130423"><ele>515.6666666666667</ele><time>2026-05-03T07:58:33.999Z</time></trkpt><trkpt lat="43.503327341249936" lon="11.950798083028985"><ele>514.8333333333334</ele><time>2026-05-03T07:58:34.999Z</time></trkpt><trkpt lat="43.50335254208042" lon="11.950884949716587"><ele>514.0</ele><time>2026-05-03T07:58:35.999Z</time></trkpt><trkpt lat="43.50340172068651" lon="11.951044461409474"><ele>510.79999999999995</ele><time>2026-05-03T07:58:37.999Z</time></trkpt><trkpt lat="43.503501312475564" lon="11.951124880564963"><ele>507.59999999999997</ele><time>2026-05-03T07:58:39.999Z</time></trkpt><trkpt lat="43.50357994319704" lon="11.951211588889247"><ele>504.4</ele><time>2026-05-03T07:58:41.999Z</time></trkpt><trkpt lat="43.503621306786215" lon="11.951368634314756"><ele>501.2</ele><time>2026-05-03T07:58:43.999Z</time></trkpt><trkpt lat="43.50369185181562" lon="11.95146962287451"><ele>498.0</ele><time>2026-05-03T07:58:45.999Z</time></trkpt><trkpt lat="43.503767747586814" lon="11.951503896884445"><ele>497.59999999999997</ele><time>2026-05-03T07:58:47.999Z</time></trkpt><trkpt lat="43.50390563920425" lon="11.951624030942213"><ele>497.19999999999993</ele><time>2026-05-03T07:58:50.999Z</time></trkpt><trkpt lat="43.50394761550658" lon="11.95169525427521"><ele>496.8</ele><time>2026-05-03T07:58:51.999Z</time></trkpt><trkpt lat="43.50398479895478" lon="11.951769930950244"><ele>496.4</ele><time>2026-05-03T07:58:52.999Z</time></trkpt><trkpt lat="43.504046411029904" lon="11.951885587825316"><ele>496.0</ele><time>2026-05-03T07:58:54.999Z</time></trkpt><trkpt lat="43.50407506210875" lon="11.952029244612625"><ele>496.0</ele><time>2026-05-03T07:58:56.999Z</time></trkpt><trkpt lat="43.5041300351951" lon="11.95219517656512"><ele>496.0</ele><time>2026-05-03T07:58:58.999Z</time></trkpt><trkpt lat="43.50412505810954" lon="11.952350187213154"><ele>496.0</ele><time>2026-05-03T07:59:00.999Z</time></trkpt><trkpt lat="43.50413471082804" lon="11.952438183993985"><ele>496.0</ele><time>2026-05-03T07:59:02.999Z</time></trkpt><trkpt lat="43.50407248488976" lon="11.95254209051934"><ele>496.0</ele><time>2026-05-03T08:01:54Z</time></trkpt><trkpt lat="43.50403520423419" lon="11.95264588478693"><ele>495.00000000000006</ele><time>2026-05-03T08:01:56Z</time></trkpt><trkpt lat="43.50399483995777" lon="11.952773181766004"><ele>494.0</ele><time>2026-05-03T08:01:58Z</time></trkpt><trkpt lat="43.50397384478443" lon="11.9528735159837"><ele>493.0</ele><time>2026-05-03T08:02:00Z</time></trkpt><trkpt lat="43.50395202766067" lon="11.95298277449847"><ele>492.0</ele><time>2026-05-03T08:02:02Z</time></trkpt><trkpt lat="43.5039294687399" lon="11.953089772662217"><ele>491.00000000000006</ele><time>2026-05-03T08:02:04Z</time></trkpt><trkpt lat="43.50388853094101" lon="11.953176521123627"><ele>490.0</ele><time>2026-05-03T08:02:07Z</time></trkpt><trkpt lat="43.50382003224882" lon="11.953151763162834"><ele>486.00000000000006</ele><time>2026-05-03T08:02:10Z</time></trkpt><trkpt lat="43.50374653138515" lon="11.95310641784412"><ele>482.0</ele><time>2026-05-03T08:02:11Z</time></trkpt><trkpt lat="43.5036700137906" lon="11.953103789776923"><ele>478.0</ele><time>2026-05-03T08:02:12Z</time></trkpt><trkpt lat="43.50360866952339" lon="11.953069425989462"><ele>474.0</ele><time>2026-05-03T08:02:13Z</time></trkpt><trkpt lat="43.503540118664446" lon="11.952939492129202"><ele>470.00000000000006</ele><time>2026-05-03T08:02:14.999Z</time></trkpt><trkpt lat="43.50348518517651" lon="11.952873913689725"><ele>466.0</ele><time>2026-05-03T08:02:16.999Z</time></trkpt><trkpt lat="43.50341627985219" lon="11.952837611761465"><ele>466.00000000000006</ele><time>2026-05-03T08:02:18.999Z</time></trkpt><trkpt lat="43.503377957396246" lon="11.952763523116955"><ele>466.0</ele><time>2026-05-03T08:02:19.999Z</time></trkpt><trkpt lat="43.50327301430113" lon="11.952721530189534"><ele>466.0</ele><time>2026-05-03T08:02:21.999Z</time></trkpt><trkpt lat="43.50318572411096" lon="11.952722180919649"><ele>466.0</ele><time>2026-05-03T08:02:22.999Z</time></trkpt><trkpt lat="43.503129489412395" lon="11.952680298034553"><ele>466.00000000000006</ele><time>2026-05-03T08:02:23.999Z</time></trkpt><trkpt lat="43.503083990874046" lon="11.952612678221987"><ele>466.0</ele><time>2026-05-03T08:02:24.999Z</time></trkpt><trkpt lat="43.503028568485995" lon="11.952457333457419"><ele>465.50000000000006</ele><time>2026-05-03T08:02:26.999Z</time></trkpt><trkpt lat="43.5030049052745" lon="11.952376892017572"><ele>465.0</ele><time>2026-05-03T08:02:27.999Z</time></trkpt><trkpt lat="43.50292751871909" lon="11.952233394829612"><ele>464.5</ele><time>2026-05-03T08:02:29.999Z</time></trkpt><trkpt lat="43.50283706030215" lon="11.952191191269492"><ele>464.0</ele><time>2026-05-03T08:02:31.999Z</time></trkpt><trkpt lat="43.502776928611816" lon="11.95213243965332"><ele>463.50000000000006</ele><time>2026-05-03T08:02:33.999Z</time></trkpt><trkpt lat="43.50270776683947" lon="11.952164240676666"><ele>463.0</ele><time>2026-05-03T08:02:37.999Z</time></trkpt><trkpt lat="43.50267536913314" lon="11.952291900190184"><ele>463.0</ele><time>2026-05-03T08:02:39.999Z</time></trkpt><trkpt lat="43.5026394776843" lon="11.95243133964239"><ele>462.99999999999994</ele><time>2026-05-03T08:02:41.999Z</time></trkpt><trkpt lat="43.50263372724826" lon="11.952619399449214"><ele>462.99999999999994</ele><time>2026-05-03T08:02:43.999Z</time></trkpt><trkpt lat="43.502664822215216" lon="11.952764682396115"><ele>463.0</ele><time>2026-05-03T08:02:45.999Z</time></trkpt><trkpt lat="43.50266830932108" lon="11.952863088840529"><ele>463.0</ele><time>2026-05-03T08:02:46.999Z</time></trkpt><trkpt lat="43.50269748541884" lon="11.952998949527556"><ele>462.79999999999995</ele><time>2026-05-03T08:02:48.999Z</time></trkpt><trkpt lat="43.502733048478746" lon="11.953107531798135"><ele>462.59999999999997</ele><time>2026-05-03T08:02:50.999Z</time></trkpt><trkpt lat="43.50285668787224" lon="11.953176452499607"><ele>462.40000000000003</ele><time>2026-05-03T08:02:52.999Z</time></trkpt><trkpt lat="43.50290912685043" lon="11.953236388305172"><ele>462.20000000000005</ele><time>2026-05-03T08:02:53.999Z</time></trkpt><trkpt lat="43.502962111116744" lon="11.953312813280963"><ele>462.0</ele><time>2026-05-03T08:02:54.999Z</time></trkpt><trkpt lat="43.50307232201205" lon="11.953367421294296"><ele>460.40000000000003</ele><time>2026-05-03T08:02:57.999Z</time></trkpt><trkpt lat="43.5031676411704" lon="11.953440300835759"><ele>458.80000000000007</ele><time>2026-05-03T08:02:58.999Z</time></trkpt><trkpt lat="43.50326582790426" lon="11.953501437820943"><ele>457.2</ele><time>2026-05-03T08:02:59.999Z</time></trkpt><trkpt lat="43.50334575174946" lon="11.953563066369144"><ele>455.6</ele><time>2026-05-03T08:03:00.999Z</time></trkpt><trkpt lat="43.50341834138692" lon="11.95359818521051"><ele>454.0</ele><time>2026-05-03T08:03:01.999Z</time></trkpt><trkpt lat="43.50349366394049" lon="11.95364034155739"><ele>454.00000000000006</ele><time>2026-05-03T08:03:02.999Z</time></trkpt><trkpt lat="43.50354800534616" lon="11.953710684448646"><ele>454.0</ele><time>2026-05-03T08:03:03.999Z</time></trkpt><trkpt lat="43.50359549051189" lon="11.95378431087346"><ele>454.0</ele><time>2026-05-03T08:03:04.999Z</time></trkpt><trkpt lat="43.50364845434057" lon="11.953841465477149"><ele>454.0</ele><time>2026-05-03T08:03:05.999Z</time></trkpt><trkpt lat="43.503718119817044" lon="11.953880829170648"><ele>454.00000000000006</ele><time>2026-05-03T08:03:06.999Z</time></trkpt><trkpt lat="43.50378015354473" lon="11.953912267016793"><ele>454.0</ele><time>2026-05-03T08:03:07.999Z</time></trkpt><trkpt lat="43.50384365967321" lon="11.954052723868706"><ele>453.6</ele><time>2026-05-03T08:03:09.999Z</time></trkpt><trkpt lat="43.50391266693434" lon="11.954201213882618"><ele>453.2</ele><time>2026-05-03T08:03:11.999Z</time></trkpt><trkpt lat="43.50398260023142" lon="11.954252996955473"><ele>452.80000000000007</ele><time>2026-05-03T08:03:12.999Z</time></trkpt><trkpt lat="43.50404366446368" lon="11.954294990502985"><ele>452.40000000000003</ele><time>2026-05-03T08:03:13.999Z</time></trkpt><trkpt lat="43.50408640850748" lon="11.95442626686121"><ele>452.0</ele><time>2026-05-03T08:03:15.999Z</time></trkpt><trkpt lat="43.504103564935065" lon="11.954534289423727"><ele>451.99999999999994</ele><time>2026-05-03T08:03:16.999Z</time></trkpt><trkpt lat="43.50411967221597" lon="11.954619756526494"><ele>452.0</ele><time>2026-05-03T08:03:18Z</time></trkpt><trkpt lat="43.50411635699965" lon="11.954730280147857"><ele>452.0</ele><time>2026-05-03T08:03:21Z</time></trkpt><trkpt lat="43.50408133221126" lon="11.954850843567952"><ele>452.0</ele><time>2026-05-03T08:03:24Z</time></trkpt><trkpt lat="43.5040464530752" lon="11.954941091693605"><ele>451.99999999999994</ele><time>2026-05-03T08:03:27Z</time></trkpt><trkpt lat="43.50403084401555" lon="11.95502647538767"><ele>452.0</ele><time>2026-05-03T08:03:29Z</time></trkpt><trkpt lat="43.50403860299865" lon="11.955178368873996"><ele>450.40000000000003</ele><time>2026-05-03T08:03:31Z</time></trkpt><trkpt lat="43.504050107642676" lon="11.955341649529773"><ele>448.80000000000007</ele><time>2026-05-03T08:03:33Z</time></trkpt><trkpt lat="43.50404174342514" lon="11.955520677059175"><ele>447.2</ele><time>2026-05-03T08:03:35Z</time></trkpt><trkpt lat="43.50403414076609" lon="11.955612402662739"><ele>445.6</ele><time>2026-05-03T08:03:36Z</time></trkpt><trkpt lat="43.504015453786096" lon="11.95576305440035"><ele>444.0</ele><time>2026-05-03T08:03:38Z</time></trkpt><trkpt lat="43.50396828485286" lon="11.95590848886383"><ele>443.0</ele><time>2026-05-03T08:03:40Z</time></trkpt><trkpt lat="43.50394559131474" lon="11.956065476842399"><ele>442.0</ele><time>2026-05-03T08:03:42Z</time></trkpt><trkpt lat="43.503953127413865" lon="11.956164478754168"><ele>441.0</ele><time>2026-05-03T08:03:43Z</time></trkpt><trkpt lat="43.50397121744833" lon="11.95625369981838"><ele>440.0</ele><time>2026-05-03T08:03:44Z</time></trkpt><trkpt lat="43.50403842929587" lon="11.956328729199017"><ele>439.0</ele><time>2026-05-03T08:03:46Z</time></trkpt><trkpt lat="43.504040576322296" lon="11.956420236606572"><ele>438.0</ele><time>2026-05-03T08:03:48Z</time></trkpt><trkpt lat="43.50407588035082" lon="11.956551034651408"><ele>438.0</ele><time>2026-05-03T08:03:51Z</time></trkpt><trkpt lat="43.50411496191513" lon="11.956624955679846"><ele>438.0</ele><time>2026-05-03T08:03:54Z</time></trkpt><trkpt lat="43.50416337640168" lon="11.956683307801292"><ele>438.0</ele><time>2026-05-03T08:03:56Z</time></trkpt><trkpt lat="43.504208955797296" lon="11.956767777437452"><ele>438.0</ele><time>2026-05-03T08:03:59Z</time></trkpt><trkpt lat="43.504257831772634" lon="11.95686390897693"><ele>438.0</ele><time>2026-05-03T08:04:03Z</time></trkpt><trkpt lat="43.504246508534905" lon="11.957018980596946"><ele>438.0</ele><time>2026-05-03T08:04:06Z</time></trkpt><trkpt lat="43.50423582740266" lon="11.95712478906421"><ele>437.8333333333333</ele><time>2026-05-03T08:04:09Z</time></trkpt><trkpt lat="43.50424736492366" lon="11.957213519569658"><ele>437.66666666666663</ele><time>2026-05-03T08:04:15Z</time></trkpt><trkpt lat="43.50426337378255" lon="11.957298607635261"><ele>437.5</ele><time>2026-05-03T08:04:21.999Z</time></trkpt><trkpt lat="43.504294707553804" lon="11.957380946625236"><ele>437.3333333333333</ele><time>2026-05-03T08:05:18.999Z</time></trkpt><trkpt lat="43.50431286755595" lon="11.957479187238807"><ele>437.16666666666663</ele><time>2026-05-03T08:06:20Z</time></trkpt><trkpt lat="43.504256903139726" lon="11.957572832907404"><ele>437.0</ele><time>2026-05-03T08:06:21Z</time></trkpt><trkpt lat="43.50419658385775" lon="11.957672741855013"><ele>437.0</ele><time>2026-05-03T08:06:22Z</time></trkpt><trkpt lat="43.5041563271112" lon="11.957788652681272"><ele>437.00000000000006</ele><time>2026-05-03T08:06:23Z</time></trkpt><trkpt lat="43.50412089305994" lon="11.957900693570906"><ele>437.00000000000006</ele><time>2026-05-03T08:06:24Z</time></trkpt><trkpt lat="43.504070805259445" lon="11.957976815904322"><ele>437.0</ele><time>2026-05-03T08:06:25Z</time></trkpt><trkpt lat="43.50408203777755" lon="11.9581571308867"><ele>437.0</ele><time>2026-05-03T08:06:30.999Z</time></trkpt><trkpt lat="43.50403289621789" lon="11.95833669417232"><ele>438.85714285714283</ele><time>2026-05-03T08:06:31.999Z</time></trkpt><trkpt lat="43.5040378666949" lon="11.958437355675501"><ele>440.7142857142858</ele><time>2026-05-03T08:06:32.999Z</time></trkpt><trkpt lat="43.504078464228925" lon="11.958510876213357"><ele>442.5714285714286</ele><time>2026-05-03T08:06:36.999Z</time></trkpt><trkpt lat="43.50413550348715" lon="11.95857514417198"><ele>444.42857142857144</ele><time>2026-05-03T08:06:39.999Z</time></trkpt><trkpt lat="43.50419690655155" lon="11.95855157004668"><ele>446.28571428571433</ele><time>2026-05-03T08:06:41.999Z</time></trkpt><trkpt lat="43.50426053485958" lon="11.958544574877923"><ele>448.1428571428572</ele><time>2026-05-03T08:06:43.999Z</time></trkpt><trkpt lat="43.504320823300716" lon="11.958475187317733"><ele>450.00000000000006</ele><time>2026-05-03T08:06:44.999Z</time></trkpt><trkpt lat="43.50440205187532" lon="11.958383615264907"><ele>449.4</ele><time>2026-05-03T08:06:46.999Z</time></trkpt><trkpt lat="43.50446533088862" lon="11.95836512171628"><ele>448.8</ele><time>2026-05-03T08:06:47.999Z</time></trkpt><trkpt lat="43.50457972786086" lon="11.958359693516334"><ele>448.20000000000005</ele><time>2026-05-03T08:06:49.999Z</time></trkpt><trkpt lat="43.504664315804156" lon="11.958379445140094"><ele>447.6</ele><time>2026-05-03T08:06:51.999Z</time></trkpt><trkpt lat="43.50477079829931" lon="11.958432241934595"><ele>447.0</ele><time>2026-05-03T08:06:53.999Z</time></trkpt><trkpt lat="43.504844246807075" lon="11.958465061160373"><ele>451.40000000000003</ele><time>2026-05-03T08:06:55.999Z</time></trkpt><trkpt lat="43.504856330683346" lon="11.958553333252718"><ele>455.80000000000007</ele><time>2026-05-03T08:06:59.999Z</time></trkpt><trkpt lat="43.5048419519937" lon="11.958640890721913"><ele>460.2</ele><time>2026-05-03T08:07:01.999Z</time></trkpt><trkpt lat="43.50484793416971" lon="11.958875986379063"><ele>464.6</ele><time>2026-05-03T08:07:03.999Z</time></trkpt><trkpt lat="43.504762360968165" lon="11.95893248264069"><ele>469.0</ele><time>2026-05-03T08:07:05.999Z</time></trkpt><trkpt lat="43.50468885076261" lon="11.959005792645453"><ele>469.0</ele><time>2026-05-03T08:07:07.999Z</time></trkpt><trkpt lat="43.50463687634826" lon="11.9590886854387"><ele>469.0</ele><time>2026-05-03T08:07:09.999Z</time></trkpt><trkpt lat="43.50457268111162" lon="11.959171823314819"><ele>469.0</ele><time>2026-05-03T08:07:11.999Z</time></trkpt><trkpt lat="43.504508154969365" lon="11.959263679110093"><ele>469.0</ele><time>2026-05-03T08:07:13.999Z</time></trkpt><trkpt lat="43.50441581437923" lon="11.959381469523072"><ele>469.0</ele><time>2026-05-03T08:07:15.999Z</time></trkpt><trkpt lat="43.504335061435405" lon="11.959518623533562"><ele>469.4</ele><time>2026-05-03T08:07:17.999Z</time></trkpt><trkpt lat="43.50430610372833" lon="11.959621245685035"><ele>469.79999999999995</ele><time>2026-05-03T08:07:18.999Z</time></trkpt><trkpt lat="43.50426832887788" lon="11.959780358266999"><ele>470.20000000000005</ele><time>2026-05-03T08:07:20.999Z</time></trkpt><trkpt lat="43.50425485063587" lon="11.959867098537831"><ele>470.6</ele><time>2026-05-03T08:07:21.999Z</time></trkpt><trkpt lat="43.504180567257286" lon="11.959946478532238"><ele>471.0</ele><time>2026-05-03T08:07:24.999Z</time></trkpt><trkpt lat="43.50418012786358" lon="11.960098699326608"><ele>475.0</ele><time>2026-05-03T08:07:25.999Z</time></trkpt><trkpt lat="43.50414787116007" lon="11.960220998030005"><ele>479.0</ele><time>2026-05-03T08:07:27.999Z</time></trkpt><trkpt lat="43.50415894923673" lon="11.9603722443267"><ele>483.0</ele><time>2026-05-03T08:07:30Z</time></trkpt><trkpt lat="43.50419027448407" lon="11.960523768810791"><ele>487.0</ele><time>2026-05-03T08:07:32Z</time></trkpt><trkpt lat="43.50419283766788" lon="11.960624971233003"><ele>491.0</ele><time>2026-05-03T08:07:33Z</time></trkpt><trkpt lat="43.50419656200167" lon="11.96077503340647"><ele>490.99999999999994</ele><time>2026-05-03T08:07:35Z</time></trkpt><trkpt lat="43.50412967021924" lon="11.96076350507294"><ele>491.0</ele><time>2026-05-03T08:07:37Z</time></trkpt><trkpt lat="43.50412352905449" lon="11.960875445900777"><ele>491.0</ele><time>2026-05-03T08:07:41Z</time></trkpt><trkpt lat="43.50413844537847" lon="11.961002081463496"><ele>491.0</ele><time>2026-05-03T08:07:42Z</time></trkpt><trkpt lat="43.504176215073755" lon="11.961139484779364"><ele>490.99999999999994</ele><time>2026-05-03T08:07:44Z</time></trkpt><trkpt lat="43.504230251267174" lon="11.961225577337675"><ele>491.0</ele><time>2026-05-03T08:07:45Z</time></trkpt><trkpt lat="43.50427461641376" lon="11.961303763068978"><ele>491.0</ele><time>2026-05-03T08:07:46Z</time></trkpt><trkpt lat="43.50429792990022" lon="11.961186427823831"><ele>491.0</ele><time>2026-05-03T08:07:51Z</time></trkpt><trkpt lat="43.50435313733908" lon="11.961104531442379"><ele>491.0</ele><time>2026-05-03T08:07:54Z</time></trkpt><trkpt lat="43.50440002972296" lon="11.961022368532054"><ele>491.0</ele><time>2026-05-03T08:07:55Z</time></trkpt><trkpt lat="43.504464299112726" lon="11.960940491871687"><ele>491.0</ele><time>2026-05-03T08:07:56Z</time></trkpt><trkpt lat="43.504509460629976" lon="11.960779175995956"><ele>490.99999999999994</ele><time>2026-05-03T08:07:58Z</time></trkpt><trkpt lat="43.50450737402224" lon="11.960635783652226"><ele>491.0</ele><time>2026-05-03T08:08:00Z</time></trkpt><trkpt lat="43.504535813449365" lon="11.960529185930486"><ele>491.0</ele><time>2026-05-03T08:08:02Z</time></trkpt><trkpt lat="43.50456835571962" lon="11.960452881419835"><ele>491.0</ele><time>2026-05-03T08:08:03Z</time></trkpt><trkpt lat="43.50465376907866" lon="11.960415219476786"><ele>490.99999999999994</ele><time>2026-05-03T08:08:05Z</time></trkpt><trkpt lat="43.50474181188354" lon="11.96044632360324"><ele>491.0</ele><time>2026-05-03T08:08:07Z</time></trkpt><trkpt lat="43.50483125889344" lon="11.960442205285826"><ele>495.8333333333333</ele><time>2026-05-03T08:08:09Z</time></trkpt><trkpt lat="43.504948404895785" lon="11.960426362421833"><ele>500.66666666666663</ele><time>2026-05-03T08:08:11Z</time></trkpt><trkpt lat="43.505042524328445" lon="11.960467005851172"><ele>505.5</ele><time>2026-05-03T08:08:13Z</time></trkpt><trkpt lat="43.5051120393095" lon="11.960455902461904"><ele>510.33333333333337</ele><time>2026-05-03T08:08:16Z</time></trkpt><trkpt lat="43.50516642648936" lon="11.960500308898828"><ele>515.1666666666667</ele><time>2026-05-03T08:08:18Z</time></trkpt><trkpt lat="43.505162070467755" lon="11.960606089751819"><ele>520.0</ele><time>2026-05-03T08:08:21Z</time></trkpt><trkpt lat="43.50509165954907" lon="11.960667243962114"><ele>520.0</ele><time>2026-05-03T08:08:24Z</time></trkpt><trkpt lat="43.505076199514136" lon="11.960756931998441"><ele>520.0</ele><time>2026-05-03T08:08:26Z</time></trkpt><trkpt lat="43.505115645107004" lon="11.960853996773826"><ele>520.0</ele><time>2026-05-03T08:08:27.999Z</time></trkpt><trkpt lat="43.50515039714063" lon="11.960943291686538"><ele>520.0</ele><time>2026-05-03T08:08:28.999Z</time></trkpt><trkpt lat="43.505180697273026" lon="11.961047480310143"><ele>520.0</ele><time>2026-05-03T08:08:29.999Z</time></trkpt><trkpt lat="43.50520724885065" lon="11.9611709041868"><ele>520.0</ele><time>2026-05-03T08:08:31.999Z</time></trkpt><trkpt lat="43.50520736942743" lon="11.961266248450851"><ele>521.2</ele><time>2026-05-03T08:08:33.999Z</time></trkpt><trkpt lat="43.50528995825271" lon="11.961341522418284"><ele>522.4</ele><time>2026-05-03T08:08:36.999Z</time></trkpt><trkpt lat="43.505339228768214" lon="11.961429341487507"><ele>523.6</ele><time>2026-05-03T08:08:38.999Z</time></trkpt><trkpt lat="43.50532046296507" lon="11.961556501682287"><ele>524.8</ele><time>2026-05-03T08:08:40.999Z</time></trkpt><trkpt lat="43.505280539959735" lon="11.961725179122672"><ele>526.0</ele><time>2026-05-03T08:08:42.999Z</time></trkpt><trkpt lat="43.50525545382777" lon="11.961912180777075"><ele>527.8333333333334</ele><time>2026-05-03T08:08:44.999Z</time></trkpt><trkpt lat="43.50522679845044" lon="11.962013549734502"><ele>529.6666666666667</ele><time>2026-05-03T08:08:45.999Z</time></trkpt><trkpt lat="43.50519257419164" lon="11.962114254299129"><ele>531.5</ele><time>2026-05-03T08:08:46.999Z</time></trkpt><trkpt lat="43.50516971442709" lon="11.962224361449136"><ele>533.3333333333334</ele><time>2026-05-03T08:08:47.999Z</time></trkpt><trkpt lat="43.50521430147053" lon="11.962335958552185"><ele>535.1666666666666</ele><time>2026-05-03T08:08:50.999Z</time></trkpt><trkpt lat="43.50525713619729" lon="11.962243453903847"><ele>537.0</ele><time>2026-05-03T08:08:55.999Z</time></trkpt><trkpt lat="43.505335817864605" lon="11.962165237320985"><ele>541.2</ele><time>2026-05-03T08:08:59.999Z</time></trkpt><trkpt lat="43.505466532805656" lon="11.962120346710654"><ele>545.4000000000001</ele><time>2026-05-03T08:09:00.999Z</time></trkpt><trkpt lat="43.50556876454749" lon="11.962115022292242"><ele>549.5999999999999</ele><time>2026-05-03T08:09:01.999Z</time></trkpt><trkpt lat="43.505640986216044" lon="11.962127417602339"><ele>553.8</ele><time>2026-05-03T08:09:02.999Z</time></trkpt><trkpt lat="43.505732591864245" lon="11.96219609359168"><ele>558.0</ele><time>2026-05-03T08:09:04.999Z</time></trkpt><trkpt lat="43.505817189353856" lon="11.96222047557904"><ele>558.0</ele><time>2026-05-03T08:09:08.999Z</time></trkpt><trkpt lat="43.50585825569218" lon="11.962300690593441"><ele>558.0</ele><time>2026-05-03T08:09:10.999Z</time></trkpt><trkpt lat="43.505934778707214" lon="11.962416818018788"><ele>558.0</ele><time>2026-05-03T08:09:12.999Z</time></trkpt><trkpt lat="43.50600445222694" lon="11.962476932333457"><ele>558.0</ele><time>2026-05-03T08:09:13.999Z</time></trkpt><trkpt lat="43.506027284010344" lon="11.962561709352615"><ele>558.0</ele><time>2026-05-03T08:09:14.999Z</time></trkpt><trkpt lat="43.506045305345545" lon="11.962742742761424"><ele>560.3333333333334</ele><time>2026-05-03T08:09:16.999Z</time></trkpt><trkpt lat="43.50601932103346" lon="11.96285013908471"><ele>562.6666666666666</ele><time>2026-05-03T08:09:17.999Z</time></trkpt><trkpt lat="43.505986614173814" lon="11.962951809475527"><ele>565.0</ele><time>2026-05-03T08:09:18.999Z</time></trkpt><trkpt lat="43.50595403634402" lon="11.963031653751818"><ele>567.3333333333333</ele><time>2026-05-03T08:09:19.999Z</time></trkpt><trkpt lat="43.50593375758618" lon="11.963187713753769"><ele>569.6666666666666</ele><time>2026-05-03T08:09:21.999Z</time></trkpt><trkpt lat="43.50596215569446" lon="11.963284770988151"><ele>572.0</ele><time>2026-05-03T08:09:22.999Z</time></trkpt><trkpt lat="43.50600216085865" lon="11.96338600861203"><ele>573.8000000000001</ele><time>2026-05-03T08:09:23.999Z</time></trkpt><trkpt lat="43.50606516293946" lon="11.963502723842554"><ele>575.6</ele><time>2026-05-03T08:09:25.999Z</time></trkpt><trkpt lat="43.50610906661979" lon="11.96356540953587"><ele>577.4000000000001</ele><time>2026-05-03T08:09:26.999Z</time></trkpt><trkpt lat="43.50619317957888" lon="11.963676271849666"><ele>579.2</ele><time>2026-05-03T08:09:28.999Z</time></trkpt><trkpt lat="43.50625862872898" lon="11.963800363321235"><ele>581.0</ele><time>2026-05-03T08:09:30.999Z</time></trkpt><trkpt lat="43.506292908849915" lon="11.963874539547307"><ele>581.0</ele><time>2026-05-03T08:09:31.999Z</time></trkpt><trkpt lat="43.50634177658119" lon="11.963966612977886"><ele>581.0</ele><time>2026-05-03T08:09:33.999Z</time></trkpt><trkpt lat="43.50639345149711" lon="11.964052603199791"><ele>581.0</ele><time>2026-05-03T08:09:36Z</time></trkpt><trkpt lat="43.50646753214701" lon="11.964131311479722"><ele>581.0</ele><time>2026-05-03T08:15:25.999Z</time></trkpt><trkpt lat="43.506567345201255" lon="11.964207350249774"><ele>581.0</ele><time>2026-05-03T08:15:27.999Z</time></trkpt><trkpt lat="43.506630799982595" lon="11.96428940466304"><ele>583.0</ele><time>2026-05-03T08:15:28.999Z</time></trkpt><trkpt lat="43.50669731580052" lon="11.964344837649351"><ele>585.0</ele><time>2026-05-03T08:15:29.999Z</time></trkpt><trkpt lat="43.50675039747853" lon="11.96440547814548"><ele>587.0</ele><time>2026-05-03T08:15:30.999Z</time></trkpt><trkpt lat="43.50679090871974" lon="11.964481163316565"><ele>589.0</ele><time>2026-05-03T08:15:31.999Z</time></trkpt><trkpt lat="43.506857987323116" lon="11.964623972953751"><ele>591.0</ele><time>2026-05-03T08:15:33.999Z</time></trkpt><trkpt lat="43.50692311948531" lon="11.964772989994605"><ele>591.0</ele><time>2026-05-03T08:15:35.999Z</time></trkpt><trkpt lat="43.506937789234584" lon="11.96485900269563"><ele>591.0</ele><time>2026-05-03T08:15:36.999Z</time></trkpt><trkpt lat="43.506959784076216" lon="11.96494209898571"><ele>591.0</ele><time>2026-05-03T08:15:37.999Z</time></trkpt><trkpt lat="43.50707315944697" lon="11.965044182747498"><ele>591.0</ele><time>2026-05-03T08:15:39.999Z</time></trkpt><trkpt lat="43.50714885318812" lon="11.965092673839743"><ele>591.0</ele><time>2026-05-03T08:15:40.999Z</time></trkpt><trkpt lat="43.507206653056784" lon="11.965184918162896"><ele>591.0</ele><time>2026-05-03T08:15:41.999Z</time></trkpt><trkpt lat="43.507258328584285" lon="11.96527901844355"><ele>592.1666666666666</ele><time>2026-05-03T08:15:42.999Z</time></trkpt><trkpt lat="43.507329138839914" lon="11.965348016762277"><ele>593.3333333333334</ele><time>2026-05-03T08:15:43.999Z</time></trkpt><trkpt lat="43.50740469508901" lon="11.965406711831568"><ele>594.5</ele><time>2026-05-03T08:15:44.999Z</time></trkpt><trkpt lat="43.50746902307202" lon="11.965464575705774"><ele>595.6666666666667</ele><time>2026-05-03T08:15:45.999Z</time></trkpt><trkpt lat="43.50753031705955" lon="11.965521193039773"><ele>596.8333333333334</ele><time>2026-05-03T08:15:46.999Z</time></trkpt><trkpt lat="43.50758225340645" lon="11.965586076786611"><ele>598.0</ele><time>2026-05-03T08:15:47.999Z</time></trkpt><trkpt lat="43.50763942981073" lon="11.96566538844284"><ele>598.0</ele><time>2026-05-03T08:15:48.999Z</time></trkpt><trkpt lat="43.507682041297336" lon="11.965742505858023"><ele>598.0</ele><time>2026-05-03T08:15:49.999Z</time></trkpt><trkpt lat="43.507727915753854" lon="11.9658258520005"><ele>598.0</ele><time>2026-05-03T08:15:50.999Z</time></trkpt><trkpt lat="43.5077865894108" lon="11.965874408900376"><ele>598.0</ele><time>2026-05-03T08:15:51.999Z</time></trkpt><trkpt lat="43.50784526062215" lon="11.965915976697229"><ele>598.0</ele><time>2026-05-03T08:15:52.999Z</time></trkpt><trkpt lat="43.50790938779011" lon="11.965999430186923"><ele>598.0</ele><time>2026-05-03T08:15:54Z</time></trkpt><trkpt lat="43.50794854060127" lon="11.966093166545782"><ele>598.0</ele><time>2026-05-03T08:15:55Z</time></trkpt><trkpt lat="43.50797904774426" lon="11.966179688582598"><ele>598.6666666666667</ele><time>2026-05-03T08:15:56Z</time></trkpt><trkpt lat="43.50801126406158" lon="11.966289694421612"><ele>599.3333333333334</ele><time>2026-05-03T08:15:57Z</time></trkpt><trkpt lat="43.50805056297209" lon="11.96642657252246"><ele>600.0</ele><time>2026-05-03T08:15:58Z</time></trkpt><trkpt lat="43.50806003882105" lon="11.966525751730737"><ele>600.6666666666666</ele><time>2026-05-03T08:15:59Z</time></trkpt><trkpt lat="43.50806431450338" lon="11.966623541995617"><ele>601.3333333333333</ele><time>2026-05-03T08:16:00Z</time></trkpt><trkpt lat="43.5080528873186" lon="11.96672796478221"><ele>602.0</ele><time>2026-05-03T08:16:01Z</time></trkpt><trkpt lat="43.50804143048236" lon="11.966868603854035"><ele>602.0</ele><time>2026-05-03T08:16:02Z</time></trkpt><trkpt lat="43.5080390372404" lon="11.966995378830434"><ele>602.0</ele><time>2026-05-03T08:16:03Z</time></trkpt><trkpt lat="43.508113253609885" lon="11.967060790920982"><ele>602.0</ele><time>2026-05-03T08:16:06Z</time></trkpt><trkpt lat="43.50817772321557" lon="11.967115757496709"><ele>602.0</ele><time>2026-05-03T08:16:07Z</time></trkpt><trkpt lat="43.508238479324156" lon="11.967193777064871"><ele>602.0</ele><time>2026-05-03T08:16:09Z</time></trkpt><trkpt lat="43.50831439917131" lon="11.967215653493339"><ele>602.0</ele><time>2026-05-03T08:16:13Z</time></trkpt><trkpt lat="43.508434234708446" lon="11.967173550086851"><ele>602.0</ele><time>2026-05-03T08:16:15Z</time></trkpt><trkpt lat="43.50851204330092" lon="11.967120271295382"><ele>602.0</ele><time>2026-05-03T08:16:17Z</time></trkpt><trkpt lat="43.50859413694874" lon="11.967084119214537"><ele>602.0</ele><time>2026-05-03T08:16:19Z</time></trkpt><trkpt lat="43.508670731342725" lon="11.967124243562703"><ele>602.0</ele><time>2026-05-03T08:16:20Z</time></trkpt><trkpt lat="43.50876171407142" lon="11.967157300739723"><ele>602.0</ele><time>2026-05-03T08:16:21Z</time></trkpt><trkpt lat="43.50884005941494" lon="11.967181555001014"><ele>602.0</ele><time>2026-05-03T08:16:22Z</time></trkpt><trkpt lat="43.508905285064124" lon="11.967218231338856"><ele>601.8000000000001</ele><time>2026-05-03T08:16:23Z</time></trkpt><trkpt lat="43.50898730675362" lon="11.967238299976973"><ele>601.6</ele><time>2026-05-03T08:16:25Z</time></trkpt><trkpt lat="43.50896087893014" lon="11.967049864229923"><ele>601.4000000000001</ele><time>2026-05-03T08:16:30Z</time></trkpt><trkpt lat="43.50890894596126" lon="11.966876495295582"><ele>601.2</ele><time>2026-05-03T08:16:32Z</time></trkpt><trkpt lat="43.508899038638454" lon="11.966758267375104"><ele>601.0</ele><time>2026-05-03T08:16:33Z</time></trkpt><trkpt lat="43.508890023647155" lon="11.96664516437261"><ele>601.0</ele><time>2026-05-03T08:16:34Z</time></trkpt><trkpt lat="43.50888666289928" lon="11.966540631853647"><ele>601.0</ele><time>2026-05-03T08:16:35Z</time></trkpt><trkpt lat="43.508902464072726" lon="11.966406744057727"><ele>601.0</ele><time>2026-05-03T08:16:36Z</time></trkpt><trkpt lat="43.50892780247109" lon="11.966251612856226"><ele>601.0</ele><time>2026-05-03T08:16:37Z</time></trkpt><trkpt lat="43.508959647931185" lon="11.966093305096694"><ele>601.0</ele><time>2026-05-03T08:16:38Z</time></trkpt><trkpt lat="43.508974953409954" lon="11.965949725651132"><ele>599.6</ele><time>2026-05-03T08:16:39Z</time></trkpt><trkpt lat="43.50899275016292" lon="11.965827141196126"><ele>598.2</ele><time>2026-05-03T08:16:40Z</time></trkpt><trkpt lat="43.509026465996264" lon="11.965724599553425"><ele>596.8</ele><time>2026-05-03T08:16:41Z</time></trkpt><trkpt lat="43.509069814559545" lon="11.965612865306703"><ele>595.4</ele><time>2026-05-03T08:16:42Z</time></trkpt><trkpt lat="43.50910954272653" lon="11.965524993775396"><ele>594.0</ele><time>2026-05-03T08:16:43Z</time></trkpt><trkpt lat="43.50925243992659" lon="11.96546589923026"><ele>594.0</ele><time>2026-05-03T08:16:46Z</time></trkpt><trkpt lat="43.5093486909496" lon="11.965477911996881"><ele>594.0</ele><time>2026-05-03T08:16:47Z</time></trkpt><trkpt lat="43.50946492046803" lon="11.96552183718594"><ele>594.0</ele><time>2026-05-03T08:16:48Z</time></trkpt><trkpt lat="43.5095765589757" lon="11.965568774489922"><ele>594.0</ele><time>2026-05-03T08:16:49Z</time></trkpt><trkpt lat="43.50966592797596" lon="11.965598223524806"><ele>594.0</ele><time>2026-05-03T08:16:50Z</time></trkpt><trkpt lat="43.50975283669175" lon="11.965623534290685"><ele>596.3333333333334</ele><time>2026-05-03T08:16:51Z</time></trkpt><trkpt lat="43.50984357999271" lon="11.965632234620958"><ele>598.6666666666666</ele><time>2026-05-03T08:16:52Z</time></trkpt><trkpt lat="43.509931656413556" lon="11.965660041235799"><ele>601.0</ele><time>2026-05-03T08:16:53Z</time></trkpt><trkpt lat="43.51002689070334" lon="11.965674535139826"><ele>603.3333333333333</ele><time>2026-05-03T08:16:54Z</time></trkpt><trkpt lat="43.51010278140636" lon="11.965699092738943"><ele>605.6666666666666</ele><time>2026-05-03T08:16:55Z</time></trkpt><trkpt lat="43.51017426934127" lon="11.96574794583197"><ele>608.0</ele><time>2026-05-03T08:16:56Z</time></trkpt><trkpt lat="43.51026877111527" lon="11.965808903119056"><ele>608.0</ele><time>2026-05-03T08:16:58Z</time></trkpt><trkpt lat="43.510301232903885" lon="11.9656639316253"><ele>608.0</ele><time>2026-05-03T08:17:00Z</time></trkpt><trkpt lat="43.510349405758554" lon="11.965545442501924"><ele>608.0</ele><time>2026-05-03T08:17:02Z</time></trkpt><trkpt lat="43.510316482166935" lon="11.965439951419242"><ele>608.0</ele><time>2026-05-03T08:17:03.999Z</time></trkpt><trkpt lat="43.51028151028235" lon="11.965346061949832"><ele>608.0</ele><time>2026-05-03T08:17:04.999Z</time></trkpt><trkpt lat="43.51027338061192" lon="11.965229359487678"><ele>608.0</ele><time>2026-05-03T08:17:05.999Z</time></trkpt><trkpt lat="43.51027649123651" lon="11.965083190769237"><ele>608.0</ele><time>2026-05-03T08:17:06.999Z</time></trkpt><trkpt lat="43.5102906375988" lon="11.96496535904509"><ele>608.0</ele><time>2026-05-03T08:17:07.999Z</time></trkpt><trkpt lat="43.51030228267101" lon="11.964815901757776"><ele>608.0</ele><time>2026-05-03T08:17:08.999Z</time></trkpt><trkpt lat="43.51032234468971" lon="11.964675374998519"><ele>608.0</ele><time>2026-05-03T08:17:09.999Z</time></trkpt><trkpt lat="43.510329959768" lon="11.96456471137442"><ele>604.6666666666666</ele><time>2026-05-03T08:17:10.999Z</time></trkpt><trkpt lat="43.510341421170814" lon="11.96446747511151"><ele>601.3333333333333</ele><time>2026-05-03T08:17:11.999Z</time></trkpt><trkpt lat="43.51036883910103" lon="11.96434321264342"><ele>598.0</ele><time>2026-05-03T08:17:13.999Z</time></trkpt><trkpt lat="43.51038096896547" lon="11.964253429494859"><ele>594.6666666666666</ele><time>2026-05-03T08:17:14.999Z</time></trkpt><trkpt lat="43.510387973239624" lon="11.964164694670654"><ele>591.3333333333334</ele><time>2026-05-03T08:17:15.999Z</time></trkpt><trkpt lat="43.51039005081552" lon="11.964038962231056"><ele>588.0</ele><time>2026-05-03T08:17:17.999Z</time></trkpt><trkpt lat="43.510391886535615" lon="11.963941573320888"><ele>595.6</ele><time>2026-05-03T08:17:18.999Z</time></trkpt><trkpt lat="43.5104092794433" lon="11.963848738416356"><ele>603.1999999999999</ele><time>2026-05-03T08:17:19.999Z</time></trkpt><trkpt lat="43.51042313321685" lon="11.963764052418073"><ele>610.8</ele><time>2026-05-03T08:17:20.999Z</time></trkpt><trkpt lat="43.51046920836863" lon="11.963601501729768"><ele>618.4</ele><time>2026-05-03T08:17:22.999Z</time></trkpt><trkpt lat="43.51056057234732" lon="11.963509758153988"><ele>626.0</ele><time>2026-05-03T08:17:24.999Z</time></trkpt><trkpt lat="43.51065154971976" lon="11.963504383703311"><ele>626.0</ele><time>2026-05-03T08:17:27.999Z</time></trkpt><trkpt lat="43.51075639836758" lon="11.963507869143264"><ele>626.0</ele><time>2026-05-03T08:17:30.999Z</time></trkpt><trkpt lat="43.51078829487039" lon="11.963583629550582"><ele>626.0</ele><time>2026-05-03T08:17:34.999Z</time></trkpt><trkpt lat="43.51084280786466" lon="11.963656183074555"><ele>626.0</ele><time>2026-05-03T08:17:36.999Z</time></trkpt><trkpt lat="43.51085056580269" lon="11.963784106283281"><ele>626.0</ele><time>2026-05-03T08:17:39.999Z</time></trkpt><trkpt lat="43.51084963486581" lon="11.963949793864495"><ele>626.0</ele><time>2026-05-03T08:17:41.999Z</time></trkpt><trkpt lat="43.51090448972828" lon="11.964093421441184"><ele>626.0</ele><time>2026-05-03T08:17:46.999Z</time></trkpt><trkpt lat="43.51092514367207" lon="11.96426373966113"><ele>626.0</ele><time>2026-05-03T08:17:48.999Z</time></trkpt><trkpt lat="43.51094894392187" lon="11.964360830815805"><ele>626.0</ele><time>2026-05-03T08:17:49.999Z</time></trkpt><trkpt lat="43.510979328881525" lon="11.964454663388993"><ele>626.0</ele><time>2026-05-03T08:17:50.999Z</time></trkpt><trkpt lat="43.511020344717295" lon="11.964581221621355"><ele>625.4</ele><time>2026-05-03T08:17:52.999Z</time></trkpt><trkpt lat="43.51108199301715" lon="11.96467259654096"><ele>624.8</ele><time>2026-05-03T08:17:54.999Z</time></trkpt><trkpt lat="43.51122633193781" lon="11.964678067250254"><ele>624.1999999999999</ele><time>2026-05-03T08:17:56.999Z</time></trkpt><trkpt lat="43.51132578010491" lon="11.964686827064924"><ele>623.6</ele><time>2026-05-03T08:17:57.999Z</time></trkpt><trkpt lat="43.511422582010574" lon="11.964705873787182"><ele>623.0</ele><time>2026-05-03T08:17:58.999Z</time></trkpt><trkpt lat="43.51148153374188" lon="11.96474361556719"><ele>626.0</ele><time>2026-05-03T08:18:00Z</time></trkpt><trkpt lat="43.51152827070818" lon="11.964895184403577"><ele>629.0</ele><time>2026-05-03T08:18:02Z</time></trkpt><trkpt lat="43.51155986351332" lon="11.965010409646352"><ele>632.0</ele><time>2026-05-03T08:18:03Z</time></trkpt><trkpt lat="43.51158992073782" lon="11.965114786967957"><ele>635.0</ele><time>2026-05-03T08:18:04Z</time></trkpt><trkpt lat="43.511614796319364" lon="11.965208858586406"><ele>638.0</ele><time>2026-05-03T08:18:05Z</time></trkpt><trkpt lat="43.51164922074924" lon="11.96528787104596"><ele>641.0</ele><time>2026-05-03T08:18:06Z</time></trkpt><trkpt lat="43.51170420182596" lon="11.965361046866311"><ele>643.4</ele><time>2026-05-03T08:18:07Z</time></trkpt><trkpt lat="43.511765946649845" lon="11.965446128828418"><ele>645.8</ele><time>2026-05-03T08:18:08Z</time></trkpt><trkpt lat="43.511820607765195" lon="11.965539454813525"><ele>648.1999999999999</ele><time>2026-05-03T08:18:09Z</time></trkpt><trkpt lat="43.5118693617016" lon="11.965634547269637"><ele>650.5999999999999</ele><time>2026-05-03T08:18:10Z</time></trkpt><trkpt lat="43.511911335417714" lon="11.965723176635475"><ele>653.0</ele><time>2026-05-03T08:18:11Z</time></trkpt><trkpt lat="43.511949166223545" lon="11.965878474840112"><ele>655.1666666666666</ele><time>2026-05-03T08:18:13Z</time></trkpt><trkpt lat="43.51195783029881" lon="11.96598813070085"><ele>657.3333333333333</ele><time>2026-05-03T08:18:14Z</time></trkpt><trkpt lat="43.5119659388856" lon="11.96612403096392"><ele>659.5</ele><time>2026-05-03T08:18:15Z</time></trkpt><trkpt lat="43.5119692353236" lon="11.966250510425981"><ele>661.6666666666666</ele><time>2026-05-03T08:18:16Z</time></trkpt><trkpt lat="43.511970557671994" lon="11.966363338006111"><ele>663.8333333333334</ele><time>2026-05-03T08:18:17Z</time></trkpt><trkpt lat="43.51197402606973" lon="11.966469700922506"><ele>666.0</ele><time>2026-05-03T08:18:18Z</time></trkpt><trkpt lat="43.511988457198996" lon="11.966578957480793"><ele>666.0</ele><time>2026-05-03T08:18:19Z</time></trkpt><trkpt lat="43.51201644004225" lon="11.966669442760674"><ele>666.0</ele><time>2026-05-03T08:18:20Z</time></trkpt><trkpt lat="43.51205042000682" lon="11.966743192779287"><ele>666.0</ele><time>2026-05-03T08:18:21Z</time></trkpt><trkpt lat="43.51208883873212" lon="11.966821801512749"><ele>666.0</ele><time>2026-05-03T08:18:22Z</time></trkpt><trkpt lat="43.512127924900376" lon="11.966902184497409"><ele>666.0</ele><time>2026-05-03T08:18:23Z</time></trkpt><trkpt lat="43.51216104851177" lon="11.966990570824976"><ele>666.0</ele><time>2026-05-03T08:18:24Z</time></trkpt><trkpt lat="43.512175151330325" lon="11.967084860263304"><ele>666.0</ele><time>2026-05-03T08:18:25Z</time></trkpt><trkpt lat="43.51216578413469" lon="11.967179131621966"><ele>665.1666666666666</ele><time>2026-05-03T08:18:26Z</time></trkpt><trkpt lat="43.51215325164574" lon="11.967287925807975"><ele>664.3333333333334</ele><time>2026-05-03T08:18:27Z</time></trkpt><trkpt lat="43.51215371167343" lon="11.967398458872514"><ele>663.5</ele><time>2026-05-03T08:18:28Z</time></trkpt><trkpt lat="43.512157571517434" lon="11.967497539955433"><ele>662.6666666666667</ele><time>2026-05-03T08:18:29Z</time></trkpt><trkpt lat="43.5121554294349" lon="11.967602813050773"><ele>661.8333333333334</ele><time>2026-05-03T08:18:30Z</time></trkpt><trkpt lat="43.51213567912894" lon="11.967711878018768"><ele>661.0</ele><time>2026-05-03T08:18:31Z</time></trkpt><trkpt lat="43.51211447163798" lon="11.967794224496094"><ele>661.0</ele><time>2026-05-03T08:18:32Z</time></trkpt><trkpt lat="43.512103557762636" lon="11.967914066757858"><ele>661.0</ele><time>2026-05-03T08:18:34Z</time></trkpt><trkpt lat="43.51218946608422" lon="11.967903775860814"><ele>661.0</ele><time>2026-05-03T08:24:02.999Z</time></trkpt><trkpt lat="43.512173030545185" lon="11.96804298265097"><ele>661.0</ele><time>2026-05-03T08:24:04.999Z</time></trkpt><trkpt lat="43.51218050695986" lon="11.968162462752655"><ele>661.0</ele><time>2026-05-03T08:24:05.999Z</time></trkpt><trkpt lat="43.51215280559932" lon="11.968248208477505"><ele>661.0</ele><time>2026-05-03T08:24:06.999Z</time></trkpt><trkpt lat="43.5121573043418" lon="11.968399076359384"><ele>662.6666666666667</ele><time>2026-05-03T08:24:08.999Z</time></trkpt><trkpt lat="43.51224043554516" lon="11.968546057385254"><ele>664.3333333333334</ele><time>2026-05-03T08:24:10.999Z</time></trkpt><trkpt lat="43.512278051439516" lon="11.968650799070389"><ele>666.0</ele><time>2026-05-03T08:24:11.999Z</time></trkpt><trkpt lat="43.51229977959565" lon="11.968744020040587"><ele>667.6666666666666</ele><time>2026-05-03T08:24:12.999Z</time></trkpt><trkpt lat="43.512311208814566" lon="11.968836301889345"><ele>669.3333333333333</ele><time>2026-05-03T08:24:13.999Z</time></trkpt><trkpt lat="43.512307274623616" lon="11.96894516323636"><ele>671.0</ele><time>2026-05-03T08:24:14.999Z</time></trkpt><trkpt lat="43.51228925943616" lon="11.969047922172962"><ele>671.0</ele><time>2026-05-03T08:24:15.999Z</time></trkpt><trkpt lat="43.512270628819486" lon="11.969153112162164"><ele>671.0</ele><time>2026-05-03T08:24:16.999Z</time></trkpt><trkpt lat="43.51224015510836" lon="11.969265934128723"><ele>671.0</ele><time>2026-05-03T08:24:18Z</time></trkpt><trkpt lat="43.512217162176604" lon="11.96940634171002"><ele>671.0</ele><time>2026-05-03T08:24:20Z</time></trkpt><trkpt lat="43.51229386257749" lon="11.969497109336096"><ele>671.0</ele><time>2026-05-03T08:24:22Z</time></trkpt><trkpt lat="43.51235072312137" lon="11.969592035527006"><ele>674.0</ele><time>2026-05-03T08:24:23Z</time></trkpt><trkpt lat="43.512399446435026" lon="11.969720243393613"><ele>677.0</ele><time>2026-05-03T08:24:24Z</time></trkpt><trkpt lat="43.51241812230195" lon="11.969823498649527"><ele>680.0</ele><time>2026-05-03T08:24:25Z</time></trkpt><trkpt lat="43.51243602622539" lon="11.969932904719425"><ele>683.0</ele><time>2026-05-03T08:24:26Z</time></trkpt><trkpt lat="43.51246683203731" lon="11.970031668280818"><ele>686.0</ele><time>2026-05-03T08:24:27Z</time></trkpt><trkpt lat="43.51251752034521" lon="11.970111144347971"><ele>689.0</ele><time>2026-05-03T08:24:28Z</time></trkpt><trkpt lat="43.51258461781978" lon="11.970177021184034"><ele>688.6666666666666</ele><time>2026-05-03T08:24:29Z</time></trkpt><trkpt lat="43.51265328889193" lon="11.97022464654468"><ele>688.3333333333333</ele><time>2026-05-03T08:24:30Z</time></trkpt><trkpt lat="43.51273006618253" lon="11.970238588646104"><ele>688.0</ele><time>2026-05-03T08:24:31Z</time></trkpt><trkpt lat="43.51281449345732" lon="11.970225711495484"><ele>687.6666666666666</ele><time>2026-05-03T08:24:32Z</time></trkpt><trkpt lat="43.51289200202015" lon="11.970234396022779"><ele>687.3333333333334</ele><time>2026-05-03T08:24:33Z</time></trkpt><trkpt lat="43.51295783761281" lon="11.970279534728578"><ele>687.0</ele><time>2026-05-03T08:24:34Z</time></trkpt><trkpt lat="43.51301772294678" lon="11.97034864106048"><ele>687.0</ele><time>2026-05-03T08:24:35Z</time></trkpt><trkpt lat="43.513066538365415" lon="11.970445961619053"><ele>687.0</ele><time>2026-05-03T08:24:36Z</time></trkpt><trkpt lat="43.51311509364629" lon="11.970563663361311"><ele>687.0</ele><time>2026-05-03T08:24:37Z</time></trkpt><trkpt lat="43.51316348747991" lon="11.970650659390806"><ele>687.0</ele><time>2026-05-03T08:24:38Z</time></trkpt><trkpt lat="43.51321033524678" lon="11.970719706202537"><ele>687.0</ele><time>2026-05-03T08:24:39Z</time></trkpt><trkpt lat="43.513272635798714" lon="11.970785583470146"><ele>687.0</ele><time>2026-05-03T08:24:40Z</time></trkpt><trkpt lat="43.513340273947335" lon="11.970849270467397"><ele>689.1666666666666</ele><time>2026-05-03T08:24:41Z</time></trkpt><trkpt lat="43.513413922422075" lon="11.970930862486684"><ele>691.3333333333334</ele><time>2026-05-03T08:24:42Z</time></trkpt><trkpt lat="43.513490163646104" lon="11.970994611956822"><ele>693.5</ele><time>2026-05-03T08:24:43Z</time></trkpt><trkpt lat="43.51356501899918" lon="11.971064883098206"><ele>695.6666666666667</ele><time>2026-05-03T08:24:44Z</time></trkpt><trkpt lat="43.51363474192" lon="11.97111928974142"><ele>697.8333333333334</ele><time>2026-05-03T08:24:45Z</time></trkpt><trkpt lat="43.513704523837845" lon="11.971133439248876"><ele>700.0</ele><time>2026-05-03T08:24:46Z</time></trkpt><trkpt lat="43.51377294958433" lon="11.971142336193846"><ele>700.0</ele><time>2026-05-03T08:24:47Z</time></trkpt><trkpt lat="43.5138327612844" lon="11.971092550470335"><ele>700.0</ele><time>2026-05-03T08:24:48Z</time></trkpt><trkpt lat="43.51390673791267" lon="11.97103529207989"><ele>700.0</ele><time>2026-05-03T08:24:49Z</time></trkpt><trkpt lat="43.51397420924293" lon="11.970983199162678"><ele>700.0</ele><time>2026-05-03T08:24:50Z</time></trkpt><trkpt lat="43.5140733669068" lon="11.970935237891709"><ele>700.0</ele><time>2026-05-03T08:24:52Z</time></trkpt><trkpt lat="43.51414766529674" lon="11.971001285153061"><ele>700.0</ele><time>2026-05-03T08:24:54Z</time></trkpt><trkpt lat="43.514210033480325" lon="11.97105900472767"><ele>700.0</ele><time>2026-05-03T08:24:55Z</time></trkpt><trkpt lat="43.51427528553334" lon="11.971155217362963"><ele>700.0</ele><time>2026-05-03T08:24:56Z</time></trkpt><trkpt lat="43.51434550937448" lon="11.971266331443653"><ele>700.0</ele><time>2026-05-03T08:24:57Z</time></trkpt><trkpt lat="43.51440499466284" lon="11.971380680496928"><ele>700.0</ele><time>2026-05-03T08:24:58Z</time></trkpt><trkpt lat="43.51445616501105" lon="11.97146539212279"><ele>700.0</ele><time>2026-05-03T08:24:59Z</time></trkpt><trkpt lat="43.514501114619904" lon="11.971553409948234"><ele>700.0</ele><time>2026-05-03T08:25:00Z</time></trkpt><trkpt lat="43.51455819034249" lon="11.97161661789896"><ele>700.0</ele><time>2026-05-03T08:25:01Z</time></trkpt><trkpt lat="43.51461628876954" lon="11.971702515120178"><ele>700.0</ele><time>2026-05-03T08:25:02Z</time></trkpt><trkpt lat="43.5146898850855" lon="11.971787479079742"><ele>700.0</ele><time>2026-05-03T08:25:03Z</time></trkpt><trkpt lat="43.51474945837662" lon="11.971869212452997"><ele>700.0</ele><time>2026-05-03T08:25:04Z</time></trkpt><trkpt lat="43.51478224813659" lon="11.971951021811453"><ele>700.0</ele><time>2026-05-03T08:25:05Z</time></trkpt><trkpt lat="43.51483616366609" lon="11.971998243144407"><ele>701.0</ele><time>2026-05-03T08:25:07Z</time></trkpt><trkpt lat="43.51493581689724" lon="11.972090867896306"><ele>702.0</ele><time>2026-05-03T08:25:09Z</time></trkpt><trkpt lat="43.51499867474984" lon="11.972153181543748"><ele>703.0</ele><time>2026-05-03T08:25:10Z</time></trkpt><trkpt lat="43.51506057041909" lon="11.972193558185044"><ele>704.0</ele><time>2026-05-03T08:25:11Z</time></trkpt><trkpt lat="43.515174907394204" lon="11.972174843839454"><ele>705.0</ele><time>2026-05-03T08:25:13Z</time></trkpt><trkpt lat="43.51528234452204" lon="11.97214320464446"><ele>704.0</ele><time>2026-05-03T08:25:15Z</time></trkpt><trkpt lat="43.51551753094163" lon="11.971708800662514"><ele>703.0</ele><time>2026-05-03T08:25:21Z</time></trkpt><trkpt lat="43.51557313883601" lon="11.971573862775784"><ele>703.0</ele><time>2026-05-03T08:25:23Z</time></trkpt><trkpt lat="43.51564587067017" lon="11.97155154433655"><ele>703.0</ele><time>2026-05-03T08:25:25Z</time></trkpt><trkpt lat="43.51576345061958" lon="11.97151395068326"><ele>703.0</ele><time>2026-05-03T08:25:27Z</time></trkpt><trkpt lat="43.515827143747586" lon="11.971530900793143"><ele>703.0</ele><time>2026-05-03T08:25:28Z</time></trkpt><trkpt lat="43.51589305989455" lon="11.971565931174583"><ele>703.0</ele><time>2026-05-03T08:25:29Z</time></trkpt><trkpt lat="43.515958448633995" lon="11.971597906000676"><ele>703.0</ele><time>2026-05-03T08:25:30Z</time></trkpt><trkpt lat="43.51604925028971" lon="11.971600477324364"><ele>703.0</ele><time>2026-05-03T08:25:32Z</time></trkpt><trkpt lat="43.516152136098285" lon="11.971453787532106"><ele>703.0</ele><time>2026-05-03T08:25:34Z</time></trkpt><trkpt lat="43.51621466427755" lon="11.971387456952078"><ele>703.0</ele><time>2026-05-03T08:25:35Z</time></trkpt><trkpt lat="43.516292674299144" lon="11.971338913720695"><ele>703.0</ele><time>2026-05-03T08:25:36Z</time></trkpt><trkpt lat="43.516364674669106" lon="11.971318920470909"><ele>703.0</ele><time>2026-05-03T08:25:37Z</time></trkpt><trkpt lat="43.51646380851141" lon="11.971348137504366"><ele>704.6666666666667</ele><time>2026-05-03T08:25:39Z</time></trkpt><trkpt lat="43.5165103027451" lon="11.97150343341108"><ele>706.3333333333334</ele><time>2026-05-03T08:25:40Z</time></trkpt><trkpt lat="43.51656750401669" lon="11.97155475123311"><ele>708.0</ele><time>2026-05-03T08:25:40.999Z</time></trkpt><trkpt lat="43.516625403256256" lon="11.971603112424383"><ele>709.6666666666666</ele><time>2026-05-03T08:25:41.999Z</time></trkpt><trkpt lat="43.51669163607913" lon="11.971625135819261"><ele>711.3333333333333</ele><time>2026-05-03T08:25:44.999Z</time></trkpt><trkpt lat="43.51676897908575" lon="11.971626169072799"><ele>713.0</ele><time>2026-05-03T08:28:08.999Z</time></trkpt><trkpt lat="43.51687669218738" lon="11.971684748855607"><ele>713.1666666666666</ele><time>2026-05-03T08:28:10.999Z</time></trkpt><trkpt lat="43.516937134414135" lon="11.971732191273468"><ele>713.3333333333333</ele><time>2026-05-03T08:28:11.999Z</time></trkpt><trkpt lat="43.51703745079896" lon="11.971811878767967"><ele>713.5</ele><time>2026-05-03T08:28:13.999Z</time></trkpt><trkpt lat="43.51713079463841" lon="11.971846117591307"><ele>713.6666666666666</ele><time>2026-05-03T08:28:15.999Z</time></trkpt><trkpt lat="43.517194247649655" lon="11.971842097173663"><ele>713.8333333333334</ele><time>2026-05-03T08:28:16.999Z</time></trkpt><trkpt lat="43.51725015652536" lon="11.971801934559432"><ele>714.0</ele><time>2026-05-03T08:28:17.999Z</time></trkpt><trkpt lat="43.5172949790051" lon="11.971652219569469"><ele>714.0</ele><time>2026-05-03T08:28:19.999Z</time></trkpt><trkpt lat="43.51735460546473" lon="11.971544646042272"><ele>714.0</ele><time>2026-05-03T08:28:20.999Z</time></trkpt><trkpt lat="43.517396081711766" lon="11.971469283848181"><ele>714.0</ele><time>2026-05-03T08:28:21.999Z</time></trkpt><trkpt lat="43.51747291391604" lon="11.971333272601314"><ele>714.0</ele><time>2026-05-03T08:28:23.999Z</time></trkpt><trkpt lat="43.51758801217346" lon="11.971251544008894"><ele>714.0</ele><time>2026-05-03T08:28:25.999Z</time></trkpt><trkpt lat="43.51766986885064" lon="11.971246199458754"><ele>714.0</ele><time>2026-05-03T08:28:26.999Z</time></trkpt><trkpt lat="43.517756012180485" lon="11.971239108964113"><ele>714.0</ele><time>2026-05-03T08:28:27.999Z</time></trkpt><trkpt lat="43.51783811395746" lon="11.971242396445275"><ele>714.0</ele><time>2026-05-03T08:28:28.999Z</time></trkpt><trkpt lat="43.517918401935326" lon="11.971246705573598"><ele>714.0</ele><time>2026-05-03T08:28:30Z</time></trkpt><trkpt lat="43.517997706875775" lon="11.97125932526123"><ele>714.0</ele><time>2026-05-03T08:28:31Z</time></trkpt><trkpt lat="43.51807434318971" lon="11.971269230501377"><ele>714.0</ele><time>2026-05-03T08:28:32Z</time></trkpt><trkpt lat="43.51814254090765" lon="11.971276552176427"><ele>713.0</ele><time>2026-05-03T08:28:33Z</time></trkpt><trkpt lat="43.51826506942237" lon="11.971282642630683"><ele>712.0</ele><time>2026-05-03T08:28:35Z</time></trkpt><trkpt lat="43.518389028321494" lon="11.971288662722502"><ele>711.0</ele><time>2026-05-03T08:28:37Z</time></trkpt><trkpt lat="43.518462107065766" lon="11.9712959624061"><ele>710.0</ele><time>2026-05-03T08:28:38Z</time></trkpt><trkpt lat="43.518530243481365" lon="11.971304443203671"><ele>709.0</ele><time>2026-05-03T08:28:39Z</time></trkpt><trkpt lat="43.51859740072535" lon="11.971322699904148"><ele>709.0</ele><time>2026-05-03T08:28:40Z</time></trkpt><trkpt lat="43.51866433770312" lon="11.971336350577923"><ele>709.0</ele><time>2026-05-03T08:28:41Z</time></trkpt><trkpt lat="43.5187296210288" lon="11.971331588766795"><ele>709.0</ele><time>2026-05-03T08:28:42Z</time></trkpt><trkpt lat="43.5187927692499" lon="11.9713311928536"><ele>709.0</ele><time>2026-05-03T08:28:43Z</time></trkpt><trkpt lat="43.51891110107598" lon="11.97135448446246"><ele>709.0</ele><time>2026-05-03T08:28:45Z</time></trkpt><trkpt lat="43.5190204025019" lon="11.971336736288675"><ele>709.0</ele><time>2026-05-03T08:28:47Z</time></trkpt><trkpt lat="43.519119034322365" lon="11.971270442121211"><ele>707.0</ele><time>2026-05-03T08:28:49Z</time></trkpt><trkpt lat="43.51917844685672" lon="11.971237670903479"><ele>705.0</ele><time>2026-05-03T08:28:50Z</time></trkpt><trkpt lat="43.519248045401" lon="11.971198371053974"><ele>703.0</ele><time>2026-05-03T08:28:51Z</time></trkpt><trkpt lat="43.519313239036414" lon="11.971166022194875"><ele>701.0</ele><time>2026-05-03T08:28:52Z</time></trkpt><trkpt lat="43.51939071227547" lon="11.971123343759935"><ele>699.0</ele><time>2026-05-03T08:28:54Z</time></trkpt><trkpt lat="43.519374930075806" lon="11.970936598750205"><ele>697.0</ele><time>2026-05-03T08:28:57Z</time></trkpt><trkpt lat="43.519363002491446" lon="11.970813443810115"><ele>694.8333333333334</ele><time>2026-05-03T08:28:58Z</time></trkpt><trkpt lat="43.51937445555381" lon="11.970677460387083"><ele>692.6666666666667</ele><time>2026-05-03T08:28:59Z</time></trkpt><trkpt lat="43.51942198021457" lon="11.970554201322328"><ele>690.5</ele><time>2026-05-03T08:29:01Z</time></trkpt><trkpt lat="43.51942953058229" lon="11.97045652449861"><ele>688.3333333333334</ele><time>2026-05-03T08:29:04Z</time></trkpt><trkpt lat="43.51937268076826" lon="11.970503511746388"><ele>686.1666666666666</ele><time>2026-05-03T08:29:07Z</time></trkpt><trkpt lat="43.519370923023196" lon="11.97060771145978"><ele>684.0</ele><time>2026-05-03T08:29:09Z</time></trkpt><trkpt lat="43.51935363216139" lon="11.97073494344837"><ele>686.6</ele><time>2026-05-03T08:29:22Z</time></trkpt><trkpt lat="43.519351730638604" lon="11.970866266575822"><ele>689.2</ele><time>2026-05-03T08:29:24Z</time></trkpt><trkpt lat="43.51935866468079" lon="11.970967086214563"><ele>691.8000000000001</ele><time>2026-05-03T08:29:26Z</time></trkpt><trkpt lat="43.51942180273133" lon="11.971107637365156"><ele>694.4000000000001</ele><time>2026-05-03T08:29:48.999Z</time></trkpt><trkpt lat="43.51947263632845" lon="11.971199760249966"><ele>697.0</ele><time>2026-05-03T08:29:49.999Z</time></trkpt><trkpt lat="43.519549307842155" lon="11.971308986461057"><ele>697.3333333333334</ele><time>2026-05-03T08:29:50.999Z</time></trkpt><trkpt lat="43.51965358167476" lon="11.97144298987717"><ele>697.6666666666666</ele><time>2026-05-03T08:29:51.999Z</time></trkpt><trkpt lat="43.51976121263679" lon="11.971600274185041"><ele>698.0</ele><time>2026-05-03T08:29:52.999Z</time></trkpt><trkpt lat="43.51986644353493" lon="11.971763218861252"><ele>698.0</ele><time>2026-05-03T08:29:53.999Z</time></trkpt><trkpt lat="43.51995857444281" lon="11.971904789322107"><ele>698.0</ele><time>2026-05-03T08:29:54.999Z</time></trkpt><trkpt lat="43.52003250869741" lon="11.971999832429406"><ele>698.0</ele><time>2026-05-03T08:29:55.999Z</time></trkpt><trkpt lat="43.52013056966846" lon="11.972079102927276"><ele>698.0</ele><time>2026-05-03T08:29:56.999Z</time></trkpt><trkpt lat="43.52023598087019" lon="11.97214147150376"><ele>698.0</ele><time>2026-05-03T08:29:57.999Z</time></trkpt><trkpt lat="43.52033141137625" lon="11.97218146191682"><ele>698.0</ele><time>2026-05-03T08:29:58.999Z</time></trkpt><trkpt lat="43.520420291160406" lon="11.972256564110697"><ele>698.0</ele><time>2026-05-03T08:29:59.999Z</time></trkpt><trkpt lat="43.520488155170135" lon="11.972366380935725"><ele>698.0</ele><time>2026-05-03T08:30:00.999Z</time></trkpt><trkpt lat="43.52054435994582" lon="11.972519436087554"><ele>698.0</ele><time>2026-05-03T08:30:01.999Z</time></trkpt><trkpt lat="43.520595546735294" lon="11.97269843929627"><ele>695.25</ele><time>2026-05-03T08:30:02.999Z</time></trkpt><trkpt lat="43.52063901632004" lon="11.972880642988963"><ele>692.5</ele><time>2026-05-03T08:30:03.999Z</time></trkpt><trkpt lat="43.520694718034925" lon="11.97303833161609"><ele>689.75</ele><time>2026-05-03T08:30:04.999Z</time></trkpt><trkpt lat="43.52074655313764" lon="11.97319694654543"><ele>687.0</ele><time>2026-05-03T08:30:05.999Z</time></trkpt><trkpt lat="43.52079688610593" lon="11.973351668311714"><ele>686.25</ele><time>2026-05-03T08:30:06.999Z</time></trkpt><trkpt lat="43.520860935607274" lon="11.973503189994751"><ele>685.5</ele><time>2026-05-03T08:30:07.999Z</time></trkpt><trkpt lat="43.52093327319239" lon="11.973647739845827"><ele>684.75</ele><time>2026-05-03T08:30:08.999Z</time></trkpt><trkpt lat="43.520992093631115" lon="11.97378006867378"><ele>684.0</ele><time>2026-05-03T08:30:09.999Z</time></trkpt><trkpt lat="43.521029898536746" lon="11.973891480201267"><ele>684.0</ele><time>2026-05-03T08:30:10.999Z</time></trkpt><trkpt lat="43.521041412185745" lon="11.974006686902607"><ele>684.0</ele><time>2026-05-03T08:30:11.999Z</time></trkpt><trkpt lat="43.521018589490396" lon="11.974121399971958"><ele>684.0</ele><time>2026-05-03T08:30:12.999Z</time></trkpt><trkpt lat="43.52095637610213" lon="11.974199865891952"><ele>684.0</ele><time>2026-05-03T08:30:13.999Z</time></trkpt><trkpt lat="43.52087911471859" lon="11.974245266413782"><ele>684.0</ele><time>2026-05-03T08:30:14.999Z</time></trkpt><trkpt lat="43.520767766581336" lon="11.974246268814603"><ele>684.0</ele><time>2026-05-03T08:30:15.999Z</time></trkpt><trkpt lat="43.52065154190124" lon="11.974224681212455"><ele>684.0</ele><time>2026-05-03T08:30:16.999Z</time></trkpt><trkpt lat="43.52055327960634" lon="11.974182512181242"><ele>684.0</ele><time>2026-05-03T08:30:17.999Z</time></trkpt><trkpt lat="43.52047221409626" lon="11.974151559607536"><ele>684.0</ele><time>2026-05-03T08:30:18.999Z</time></trkpt><trkpt lat="43.52035837460468" lon="11.974207952811494"><ele>684.0</ele><time>2026-05-03T08:30:20.999Z</time></trkpt><trkpt lat="43.520298953413544" lon="11.974304327756348"><ele>686.4000000000001</ele><time>2026-05-03T08:30:21.999Z</time></trkpt><trkpt lat="43.52025786193682" lon="11.974444065384516"><ele>688.8</ele><time>2026-05-03T08:30:22.999Z</time></trkpt><trkpt lat="43.52022245759925" lon="11.974582908262729"><ele>691.2</ele><time>2026-05-03T08:30:23.999Z</time></trkpt><trkpt lat="43.52019480703603" lon="11.97469923955047"><ele>693.5999999999999</ele><time>2026-05-03T08:30:24.999Z</time></trkpt><trkpt lat="43.520174213012496" lon="11.974807879189974"><ele>696.0</ele><time>2026-05-03T08:30:25.999Z</time></trkpt><trkpt lat="43.520163097833844" lon="11.974895494197797"><ele>696.0</ele><time>2026-05-03T08:30:26.999Z</time></trkpt><trkpt lat="43.520169383143184" lon="11.974997488563297"><ele>696.0</ele><time>2026-05-03T08:30:27.999Z</time></trkpt><trkpt lat="43.52018903076345" lon="11.975167164374364"><ele>696.0</ele><time>2026-05-03T08:30:29.999Z</time></trkpt><trkpt lat="43.52021644512106" lon="11.975292224841553"><ele>696.0</ele><time>2026-05-03T08:30:30.999Z</time></trkpt><trkpt lat="43.52026764844456" lon="11.975454669474576"><ele>696.0</ele><time>2026-05-03T08:30:31.999Z</time></trkpt><trkpt lat="43.52031391592679" lon="11.975606869003824"><ele>695.8</ele><time>2026-05-03T08:30:32.999Z</time></trkpt><trkpt lat="43.52034586267479" lon="11.975721617106139"><ele>695.5999999999999</ele><time>2026-05-03T08:30:33.999Z</time></trkpt><trkpt lat="43.52036324362998" lon="11.975873593711917"><ele>695.4</ele><time>2026-05-03T08:30:34.999Z</time></trkpt><trkpt lat="43.52035356048673" lon="11.97602227137998"><ele>695.2</ele><time>2026-05-03T08:30:36Z</time></trkpt><trkpt lat="43.52033992574828" lon="11.976157668624733"><ele>695.0</ele><time>2026-05-03T08:30:37Z</time></trkpt><trkpt lat="43.52034291373193" lon="11.976287867100353"><ele>694.8</ele><time>2026-05-03T08:30:38Z</time></trkpt><trkpt lat="43.52033565475573" lon="11.976426031701019"><ele>694.6</ele><time>2026-05-03T08:30:39Z</time></trkpt><trkpt lat="43.520350468109214" lon="11.976556927313073"><ele>694.4000000000001</ele><time>2026-05-03T08:30:40Z</time></trkpt><trkpt lat="43.52037460722654" lon="11.976691714489426"><ele>694.2</ele><time>2026-05-03T08:30:41Z</time></trkpt><trkpt lat="43.52040840045528" lon="11.976823353775284"><ele>694.0</ele><time>2026-05-03T08:30:42Z</time></trkpt><trkpt lat="43.52045776711136" lon="11.976929999988215"><ele>691.8333333333334</ele><time>2026-05-03T08:30:43Z</time></trkpt><trkpt lat="43.52047309442132" lon="11.977032448973487"><ele>689.6666666666667</ele><time>2026-05-03T08:30:44Z</time></trkpt><trkpt lat="43.52047182440602" lon="11.977129120833327"><ele>687.5</ele><time>2026-05-03T08:30:45Z</time></trkpt><trkpt lat="43.520435733813024" lon="11.977217258053487"><ele>685.3333333333334</ele><time>2026-05-03T08:30:46Z</time></trkpt><trkpt lat="43.520390771464534" lon="11.977315716036262"><ele>683.1666666666666</ele><time>2026-05-03T08:30:47Z</time></trkpt><trkpt lat="43.52029224762741" lon="11.977347033481792"><ele>681.0</ele><time>2026-05-03T08:30:48Z</time></trkpt><trkpt lat="43.52019594602451" lon="11.97736298670903"><ele>681.0</ele><time>2026-05-03T08:30:49Z</time></trkpt><trkpt lat="43.52008191938855" lon="11.977351826710406"><ele>681.0</ele><time>2026-05-03T08:30:50Z</time></trkpt><trkpt lat="43.51997021531177" lon="11.977331731675138"><ele>681.0</ele><time>2026-05-03T08:30:51Z</time></trkpt><trkpt lat="43.519869065557394" lon="11.977320754834677"><ele>681.0</ele><time>2026-05-03T08:30:52Z</time></trkpt><trkpt lat="43.51977574812839" lon="11.977329635079153"><ele>681.0</ele><time>2026-05-03T08:30:53Z</time></trkpt><trkpt lat="43.519684244642534" lon="11.977344438670485"><ele>681.0</ele><time>2026-05-03T08:30:54Z</time></trkpt><trkpt lat="43.51959707767262" lon="11.97735903364927"><ele>681.0</ele><time>2026-05-03T08:30:55Z</time></trkpt><trkpt lat="43.51951360498903" lon="11.977381600573171"><ele>681.0</ele><time>2026-05-03T08:30:56Z</time></trkpt><trkpt lat="43.519434501670176" lon="11.97741817618364"><ele>681.0</ele><time>2026-05-03T08:30:57Z</time></trkpt><trkpt lat="43.5193634355617" lon="11.977500199800865"><ele>681.0</ele><time>2026-05-03T08:30:58Z</time></trkpt><trkpt lat="43.519311467457385" lon="11.977603003373964"><ele>681.0</ele><time>2026-05-03T08:30:59Z</time></trkpt><trkpt lat="43.51927870616167" lon="11.977728310895014"><ele>680.0</ele><time>2026-05-03T08:31:00Z</time></trkpt><trkpt lat="43.519265780398555" lon="11.977863833859688"><ele>679.0</ele><time>2026-05-03T08:31:01Z</time></trkpt><trkpt lat="43.519263921762104" lon="11.978011702566928"><ele>678.0</ele><time>2026-05-03T08:31:02Z</time></trkpt><trkpt lat="43.51924505968892" lon="11.978153258673505"><ele>677.0</ele><time>2026-05-03T08:31:03Z</time></trkpt><trkpt lat="43.5192541477261" lon="11.978311697755686"><ele>676.0</ele><time>2026-05-03T08:31:04Z</time></trkpt><trkpt lat="43.51925375410998" lon="11.978459566156253"><ele>674.1999999999999</ele><time>2026-05-03T08:31:05Z</time></trkpt><trkpt lat="43.5192480328948" lon="11.978597002586925"><ele>672.4</ele><time>2026-05-03T08:31:06Z</time></trkpt><trkpt lat="43.519239543390654" lon="11.978716980055108"><ele>670.6</ele><time>2026-05-03T08:31:07Z</time></trkpt><trkpt lat="43.5192365272822" lon="11.978834012026988"><ele>668.8</ele><time>2026-05-03T08:31:08Z</time></trkpt><trkpt lat="43.5192464979003" lon="11.97895505587276"><ele>667.0</ele><time>2026-05-03T08:31:09Z</time></trkpt><trkpt lat="43.519272184517504" lon="11.979084886475142"><ele>666.4000000000001</ele><time>2026-05-03T08:31:10Z</time></trkpt><trkpt lat="43.51931133894049" lon="11.979217359823409"><ele>665.8000000000001</ele><time>2026-05-03T08:31:11Z</time></trkpt><trkpt lat="43.519353214433046" lon="11.979363064099223"><ele>665.2</ele><time>2026-05-03T08:31:12Z</time></trkpt><trkpt lat="43.51939369250225" lon="11.979505659368012"><ele>664.6</ele><time>2026-05-03T08:31:13Z</time></trkpt><trkpt lat="43.51943023657875" lon="11.97964965090776"><ele>664.0</ele><time>2026-05-03T08:31:14Z</time></trkpt><trkpt lat="43.51947242881441" lon="11.979830789735422"><ele>664.75</ele><time>2026-05-03T08:31:15Z</time></trkpt><trkpt lat="43.519519714951606" lon="11.980018051595621"><ele>665.5</ele><time>2026-05-03T08:31:16Z</time></trkpt><trkpt lat="43.519582693330165" lon="11.980173772768836"><ele>666.25</ele><time>2026-05-03T08:31:17Z</time></trkpt><trkpt lat="43.51965641818134" lon="11.980289838714544"><ele>667.0</ele><time>2026-05-03T08:31:18Z</time></trkpt><trkpt lat="43.51972327635387" lon="11.980398791451995"><ele>667.0</ele><time>2026-05-03T08:31:19Z</time></trkpt><trkpt lat="43.51979191766529" lon="11.980498711799997"><ele>667.0</ele><time>2026-05-03T08:31:20Z</time></trkpt><trkpt lat="43.519852055679024" lon="11.98061393516071"><ele>667.0</ele><time>2026-05-03T08:31:21Z</time></trkpt><trkpt lat="43.51993116548494" lon="11.980695439544899"><ele>667.0</ele><time>2026-05-03T08:31:22Z</time></trkpt><trkpt lat="43.51999186976512" lon="11.980798650800173"><ele>667.0</ele><time>2026-05-03T08:31:23Z</time></trkpt><trkpt lat="43.52004512496988" lon="11.980907103185107"><ele>668.8</ele><time>2026-05-03T08:31:24Z</time></trkpt><trkpt lat="43.520092232463945" lon="11.981025641118293"><ele>670.6</ele><time>2026-05-03T08:31:25Z</time></trkpt><trkpt lat="43.52012346968793" lon="11.981155006049702"><ele>672.4</ele><time>2026-05-03T08:31:26Z</time></trkpt><trkpt lat="43.52014559028197" lon="11.981271492898381"><ele>674.1999999999999</ele><time>2026-05-03T08:31:27Z</time></trkpt><trkpt lat="43.52017116820258" lon="11.981385834363724"><ele>676.0</ele><time>2026-05-03T08:31:28Z</time></trkpt><trkpt lat="43.52020244986584" lon="11.981513429432622"><ele>676.0</ele><time>2026-05-03T08:31:29Z</time></trkpt><trkpt lat="43.52023811759929" lon="11.981638247923039"><ele>676.0</ele><time>2026-05-03T08:31:30Z</time></trkpt><trkpt lat="43.5202700363058" lon="11.98174749155735"><ele>676.0</ele><time>2026-05-03T08:31:31Z</time></trkpt><trkpt lat="43.5202935620583" lon="11.981860367285739"><ele>676.0</ele><time>2026-05-03T08:31:32Z</time></trkpt><trkpt lat="43.52031316289689" lon="11.981954075088074"><ele>676.0</ele><time>2026-05-03T08:31:33Z</time></trkpt><trkpt lat="43.520336237193206" lon="11.98208622415207"><ele>676.0</ele><time>2026-05-03T08:31:35Z</time></trkpt><trkpt lat="43.52034391351292" lon="11.982229991711796"><ele>675.0</ele><time>2026-05-03T08:31:37Z</time></trkpt><trkpt lat="43.5203173290103" lon="11.982357808321257"><ele>674.0</ele><time>2026-05-03T08:31:39Z</time></trkpt><trkpt lat="43.520293685426005" lon="11.982457394855622"><ele>673.0</ele><time>2026-05-03T08:31:42Z</time></trkpt><trkpt lat="43.520236241943614" lon="11.98251687976911"><ele>672.0</ele><time>2026-05-03T08:32:08.999Z</time></trkpt><trkpt lat="43.52014119049344" lon="11.982446327010559"><ele>671.0</ele><time>2026-05-03T08:32:10.999Z</time></trkpt><trkpt lat="43.52008465852163" lon="11.98240597186754"><ele>670.0</ele><time>2026-05-03T08:32:11.999Z</time></trkpt><trkpt lat="43.51997778459651" lon="11.982316109276432"><ele>670.0</ele><time>2026-05-03T08:32:13.999Z</time></trkpt><trkpt lat="43.519921809951605" lon="11.9822669899416"><ele>670.0</ele><time>2026-05-03T08:32:14.999Z</time></trkpt><trkpt lat="43.51986308234521" lon="11.98221895452203"><ele>670.0</ele><time>2026-05-03T08:32:15.999Z</time></trkpt><trkpt lat="43.51975728806348" lon="11.98215023717786"><ele>670.0</ele><time>2026-05-03T08:32:17.999Z</time></trkpt><trkpt lat="43.51963453402582" lon="11.982154393643864"><ele>670.0</ele><time>2026-05-03T08:32:19.999Z</time></trkpt><trkpt lat="43.519547282604144" lon="11.982161441912636"><ele>666.8333333333334</ele><time>2026-05-03T08:32:20.999Z</time></trkpt><trkpt lat="43.519471423494394" lon="11.982166760725331"><ele>663.6666666666667</ele><time>2026-05-03T08:32:21.999Z</time></trkpt><trkpt lat="43.519390956576906" lon="11.982158999047373"><ele>660.5</ele><time>2026-05-03T08:32:22.999Z</time></trkpt><trkpt lat="43.519322093585544" lon="11.982153490620178"><ele>657.3333333333334</ele><time>2026-05-03T08:32:23.999Z</time></trkpt><trkpt lat="43.51919658267459" lon="11.98212728729798"><ele>654.1666666666666</ele><time>2026-05-03T08:32:25.999Z</time></trkpt><trkpt lat="43.51913508148953" lon="11.98209916738404"><ele>651.0</ele><time>2026-05-03T08:32:26.999Z</time></trkpt><trkpt lat="43.51901727202103" lon="11.9819882042137"><ele>651.0</ele><time>2026-05-03T08:32:28.999Z</time></trkpt><trkpt lat="43.518956877675215" lon="11.981918902405962"><ele>651.0</ele><time>2026-05-03T08:32:29.999Z</time></trkpt><trkpt lat="43.518894676465955" lon="11.98184814437113"><ele>651.0</ele><time>2026-05-03T08:32:30.999Z</time></trkpt><trkpt lat="43.51883522728072" lon="11.981783577139504"><ele>651.0</ele><time>2026-05-03T08:32:31.999Z</time></trkpt><trkpt lat="43.518781271144555" lon="11.981732021325966"><ele>651.0</ele><time>2026-05-03T08:32:32.999Z</time></trkpt><trkpt lat="43.51872166481791" lon="11.98168028431177"><ele>651.0</ele><time>2026-05-03T08:32:33.999Z</time></trkpt><trkpt lat="43.51865144953884" lon="11.981661588518394"><ele>651.0</ele><time>2026-05-03T08:32:34.999Z</time></trkpt><trkpt lat="43.51854591026911" lon="11.98162685467987"><ele>649.1999999999999</ele><time>2026-05-03T08:32:36.999Z</time></trkpt><trkpt lat="43.51850197461269" lon="11.981505360294795"><ele>647.4</ele><time>2026-05-03T08:32:38.999Z</time></trkpt><trkpt lat="43.51849126163193" lon="11.981367223350537"><ele>645.6</ele><time>2026-05-03T08:32:40.999Z</time></trkpt><trkpt lat="43.51848970894468" lon="11.981249625133767"><ele>643.8</ele><time>2026-05-03T08:32:43Z</time></trkpt><trkpt lat="43.51852105618017" lon="11.981096969418113"><ele>642.0</ele><time>2026-05-03T08:32:45Z</time></trkpt><trkpt lat="43.51854791997788" lon="11.981002008297333"><ele>642.0</ele><time>2026-05-03T08:32:46Z</time></trkpt><trkpt lat="43.5185654050321" lon="11.980882540564009"><ele>642.0</ele><time>2026-05-03T08:32:47Z</time></trkpt><trkpt lat="43.51856823568719" lon="11.980757335050981"><ele>642.0</ele><time>2026-05-03T08:32:48Z</time></trkpt><trkpt lat="43.51856825030467" lon="11.980636869362636"><ele>642.0</ele><time>2026-05-03T08:32:49Z</time></trkpt><trkpt lat="43.51854530364424" lon="11.980543451584532"><ele>642.0</ele><time>2026-05-03T08:32:50Z</time></trkpt><trkpt lat="43.51850478513118" lon="11.980431923347757"><ele>642.0</ele><time>2026-05-03T08:32:51Z</time></trkpt><trkpt lat="43.51847018245916" lon="11.980356160493146"><ele>641.8333333333334</ele><time>2026-05-03T08:32:52Z</time></trkpt><trkpt lat="43.51841780297623" lon="11.98022927840167"><ele>641.6666666666666</ele><time>2026-05-03T08:32:54Z</time></trkpt><trkpt lat="43.51832957946638" lon="11.98016757388209"><ele>641.5</ele><time>2026-05-03T08:32:56Z</time></trkpt><trkpt lat="43.51826244801138" lon="11.980168530346578"><ele>641.3333333333333</ele><time>2026-05-03T08:32:57Z</time></trkpt><trkpt lat="43.51819481921836" lon="11.980161881717814"><ele>641.1666666666666</ele><time>2026-05-03T08:32:58Z</time></trkpt><trkpt lat="43.518104602472334" lon="11.980147625453656"><ele>641.0</ele><time>2026-05-03T08:32:59Z</time></trkpt><trkpt lat="43.51803876360496" lon="11.980139102140523"><ele>641.0</ele><time>2026-05-03T08:33:00Z</time></trkpt><trkpt lat="43.51797286609003" lon="11.980092882963888"><ele>641.0</ele><time>2026-05-03T08:33:01Z</time></trkpt><trkpt lat="43.51788701787397" lon="11.980053744038372"><ele>641.0</ele><time>2026-05-03T08:33:02Z</time></trkpt><trkpt lat="43.51779377732125" lon="11.979994502611719"><ele>641.0</ele><time>2026-05-03T08:33:04Z</time></trkpt><trkpt lat="43.517704903192815" lon="11.979922816484493"><ele>641.0</ele><time>2026-05-03T08:33:06Z</time></trkpt><trkpt lat="43.51764498808146" lon="11.979840394313772"><ele>638.5</ele><time>2026-05-03T08:33:08Z</time></trkpt><trkpt lat="43.51761556568627" lon="11.979724292762072"><ele>636.0</ele><time>2026-05-03T08:33:10Z</time></trkpt><trkpt lat="43.51759282194529" lon="11.979595621535731"><ele>633.5</ele><time>2026-05-03T08:33:12Z</time></trkpt><trkpt lat="43.517553445870746" lon="11.979498239159852"><ele>631.0</ele><time>2026-05-03T08:33:14Z</time></trkpt><trkpt lat="43.517535168835074" lon="11.979395794159192"><ele>628.5</ele><time>2026-05-03T08:33:16Z</time></trkpt><trkpt lat="43.51752323013713" lon="11.979294646086908"><ele>626.0</ele><time>2026-05-03T08:33:18Z</time></trkpt><trkpt lat="43.51748940592943" lon="11.979174393311414"><ele>626.0</ele><time>2026-05-03T08:33:20Z</time></trkpt><trkpt lat="43.51743203731695" lon="11.979018487022568"><ele>626.0</ele><time>2026-05-03T08:33:22Z</time></trkpt><trkpt lat="43.51739417930642" lon="11.978920144276168"><ele>626.0</ele><time>2026-05-03T08:33:23Z</time></trkpt><trkpt lat="43.51736989270816" lon="11.978819837520616"><ele>626.0</ele><time>2026-05-03T08:33:24Z</time></trkpt><trkpt lat="43.517344446575606" lon="11.978709701180941"><ele>626.0</ele><time>2026-05-03T08:33:25Z</time></trkpt><trkpt lat="43.517306454719275" lon="11.978609908832007"><ele>626.0</ele><time>2026-05-03T08:33:26Z</time></trkpt><trkpt lat="43.51725765136509" lon="11.978518507530959"><ele>626.0</ele><time>2026-05-03T08:33:27Z</time></trkpt><trkpt lat="43.517216527415755" lon="11.978450191116076"><ele>626.0</ele><time>2026-05-03T08:33:28Z</time></trkpt><trkpt lat="43.517192313453094" lon="11.978368660494526"><ele>626.0</ele><time>2026-05-03T08:33:29Z</time></trkpt><trkpt lat="43.517120152275375" lon="11.978331987747486"><ele>626.0</ele><time>2026-05-03T08:33:32Z</time></trkpt><trkpt lat="43.516982418574294" lon="11.978294040169986"><ele>626.0</ele><time>2026-05-03T08:33:34Z</time></trkpt><trkpt lat="43.51693340586957" lon="11.97823758860939"><ele>625.6666666666666</ele><time>2026-05-03T08:33:35Z</time></trkpt><trkpt lat="43.51685632454011" lon="11.978278157290607"><ele>625.3333333333333</ele><time>2026-05-03T08:33:37Z</time></trkpt><trkpt lat="43.516843374777395" lon="11.978368539117309"><ele>625.0</ele><time>2026-05-03T08:33:38Z</time></trkpt><trkpt lat="43.516791597656336" lon="11.97847389674402"><ele>624.6666666666666</ele><time>2026-05-03T08:33:39Z</time></trkpt><trkpt lat="43.516720125398464" lon="11.978521207118842"><ele>624.3333333333334</ele><time>2026-05-03T08:33:40Z</time></trkpt><trkpt lat="43.51665115353402" lon="11.978585270540595"><ele>624.0</ele><time>2026-05-03T08:33:41Z</time></trkpt><trkpt lat="43.51660057766323" lon="11.978669196805962"><ele>623.8333333333334</ele><time>2026-05-03T08:33:42Z</time></trkpt><trkpt lat="43.51654541936931" lon="11.978750829990807"><ele>623.6666666666666</ele><time>2026-05-03T08:33:43Z</time></trkpt><trkpt lat="43.51649205402103" lon="11.978818204528688"><ele>623.5</ele><time>2026-05-03T08:33:44Z</time></trkpt><trkpt lat="43.51638375195707" lon="11.978799774041518"><ele>623.3333333333333</ele><time>2026-05-03T08:33:46Z</time></trkpt><trkpt lat="43.516308840797066" lon="11.978752342120455"><ele>623.1666666666666</ele><time>2026-05-03T08:33:47Z</time></trkpt><trkpt lat="43.516229174090554" lon="11.978682687765083"><ele>623.0</ele><time>2026-05-03T08:33:48Z</time></trkpt><trkpt lat="43.51615267445578" lon="11.97865230268793"><ele>623.0</ele><time>2026-05-03T08:33:50Z</time></trkpt><trkpt lat="43.51611353356609" lon="11.978739606983934"><ele>623.0</ele><time>2026-05-03T08:33:52Z</time></trkpt><trkpt lat="43.516092262668536" lon="11.978860684886687"><ele>623.0</ele><time>2026-05-03T08:33:53Z</time></trkpt><trkpt lat="43.516086503114" lon="11.979034358898739"><ele>623.0</ele><time>2026-05-03T08:33:54Z</time></trkpt><trkpt lat="43.51608502716098" lon="11.979153690910636"><ele>623.0</ele><time>2026-05-03T08:33:55Z</time></trkpt><trkpt lat="43.51607588630613" lon="11.979257955795045"><ele>620.3333333333333</ele><time>2026-05-03T08:33:56Z</time></trkpt><trkpt lat="43.51605763054859" lon="11.97937377759801"><ele>617.6666666666666</ele><time>2026-05-03T08:33:57Z</time></trkpt><trkpt lat="43.51603089824341" lon="11.979495352573137"><ele>615.0</ele><time>2026-05-03T08:33:58Z</time></trkpt><trkpt lat="43.5160080035831" lon="11.979609699901774"><ele>612.3333333333334</ele><time>2026-05-03T08:33:59Z</time></trkpt><trkpt lat="43.51596867231257" lon="11.97970914948974"><ele>609.6666666666667</ele><time>2026-05-03T08:34:00Z</time></trkpt><trkpt lat="43.515918202885814" lon="11.97980699643834"><ele>607.0</ele><time>2026-05-03T08:34:01Z</time></trkpt><trkpt lat="43.51586151874056" lon="11.97990254391502"><ele>607.0</ele><time>2026-05-03T08:34:02Z</time></trkpt><trkpt lat="43.515809126876" lon="11.979997458472996"><ele>607.0</ele><time>2026-05-03T08:34:03Z</time></trkpt><trkpt lat="43.515772357272326" lon="11.980113265892644"><ele>607.0</ele><time>2026-05-03T08:34:04Z</time></trkpt><trkpt lat="43.51574422253075" lon="11.980227419825994"><ele>607.0</ele><time>2026-05-03T08:34:05Z</time></trkpt><trkpt lat="43.51569375634221" lon="11.98033690526527"><ele>607.0</ele><time>2026-05-03T08:34:05.999Z</time></trkpt><trkpt lat="43.515623039899694" lon="11.980448803127738"><ele>606.75</ele><time>2026-05-03T08:34:06.999Z</time></trkpt><trkpt lat="43.51554278522213" lon="11.980568745259859"><ele>606.5</ele><time>2026-05-03T08:34:07.999Z</time></trkpt><trkpt lat="43.51546981542181" lon="11.980700840634125"><ele>606.25</ele><time>2026-05-03T08:34:08.999Z</time></trkpt><trkpt lat="43.51539367026404" lon="11.98082129156282"><ele>606.0</ele><time>2026-05-03T08:34:09.999Z</time></trkpt><trkpt lat="43.515310796797635" lon="11.980920737060206"><ele>603.6666666666666</ele><time>2026-05-03T08:34:10.999Z</time></trkpt><trkpt lat="43.51523585922637" lon="11.98097535209762"><ele>601.3333333333334</ele><time>2026-05-03T08:34:11.999Z</time></trkpt><trkpt lat="43.51512943170152" lon="11.980991354324006"><ele>599.0</ele><time>2026-05-03T08:36:27Z</time></trkpt><trkpt lat="43.5151952470308" lon="11.980952001397558"><ele>596.6666666666667</ele><time>2026-05-03T08:40:00Z</time></trkpt><trkpt lat="43.51516012356669" lon="11.981036790388092"><ele>594.3333333333334</ele><time>2026-05-03T08:43:04.999Z</time></trkpt><trkpt lat="43.515108496509754" lon="11.981113967274304"><ele>592.0</ele><time>2026-05-03T08:43:07.999Z</time></trkpt><trkpt lat="43.51504823804354" lon="11.981149907390913"><ele>592.0</ele><time>2026-05-03T08:43:09.999Z</time></trkpt><trkpt lat="43.51495955707617" lon="11.981203016750566"><ele>592.0</ele><time>2026-05-03T08:43:12Z</time></trkpt><trkpt lat="43.51489546857735" lon="11.981303087835945"><ele>592.0</ele><time>2026-05-03T08:43:14Z</time></trkpt><trkpt lat="43.5148151090551" lon="11.981428299224712"><ele>592.0</ele><time>2026-05-03T08:43:16Z</time></trkpt><trkpt lat="43.514758579017474" lon="11.981497547963379"><ele>592.0</ele><time>2026-05-03T08:43:17Z</time></trkpt><trkpt lat="43.51470289630503" lon="11.981548737718631"><ele>592.0</ele><time>2026-05-03T08:43:18Z</time></trkpt><trkpt lat="43.51463402404514" lon="11.981580916547236"><ele>592.0</ele><time>2026-05-03T08:43:19Z</time></trkpt><trkpt lat="43.514551043875976" lon="11.98160021055948"><ele>592.0</ele><time>2026-05-03T08:43:20Z</time></trkpt><trkpt lat="43.51446678859144" lon="11.981633534636593"><ele>592.0</ele><time>2026-05-03T08:43:22Z</time></trkpt><trkpt lat="43.51439483210563" lon="11.981654222155262"><ele>592.0</ele><time>2026-05-03T08:43:24Z</time></trkpt><trkpt lat="43.514278141054014" lon="11.9815950278149"><ele>592.0</ele><time>2026-05-03T08:43:26Z</time></trkpt><trkpt lat="43.51419465803475" lon="11.981587854275213"><ele>593.0</ele><time>2026-05-03T08:43:27Z</time></trkpt><trkpt lat="43.514112537975265" lon="11.981593093737253"><ele>594.0</ele><time>2026-05-03T08:43:28Z</time></trkpt><trkpt lat="43.514029144717156" lon="11.981608447968762"><ele>595.0</ele><time>2026-05-03T08:43:29Z</time></trkpt><trkpt lat="43.51395850321518" lon="11.981628610960142"><ele>596.0</ele><time>2026-05-03T08:43:30Z</time></trkpt><trkpt lat="43.51386400396688" lon="11.981703772949684"><ele>597.0</ele><time>2026-05-03T08:43:32Z</time></trkpt><trkpt lat="43.51374941279819" lon="11.981777479317312"><ele>595.0</ele><time>2026-05-03T08:43:34Z</time></trkpt><trkpt lat="43.51368474623458" lon="11.981776404908574"><ele>593.0</ele><time>2026-05-03T08:43:35Z</time></trkpt><trkpt lat="43.51359837884476" lon="11.98174405431191"><ele>591.0</ele><time>2026-05-03T08:43:36Z</time></trkpt><trkpt lat="43.51350063377657" lon="11.981691381222342"><ele>589.0</ele><time>2026-05-03T08:43:37Z</time></trkpt><trkpt lat="43.51340132776478" lon="11.98164846752154"><ele>587.0</ele><time>2026-05-03T08:43:38Z</time></trkpt><trkpt lat="43.5133376025232" lon="11.981604775099761"><ele>585.0</ele><time>2026-05-03T08:43:39Z</time></trkpt><trkpt lat="43.51323757935846" lon="11.981510632296748"><ele>585.0</ele><time>2026-05-03T08:43:41Z</time></trkpt><trkpt lat="43.51317924900891" lon="11.981381916532127"><ele>585.0</ele><time>2026-05-03T08:43:42Z</time></trkpt><trkpt lat="43.51311751033501" lon="11.98127106930713"><ele>585.0</ele><time>2026-05-03T08:43:43Z</time></trkpt><trkpt lat="43.51306187223757" lon="11.981140317951997"><ele>585.0</ele><time>2026-05-03T08:43:44Z</time></trkpt><trkpt lat="43.513005882455204" lon="11.98100504224783"><ele>585.0</ele><time>2026-05-03T08:43:45Z</time></trkpt><trkpt lat="43.51294790586464" lon="11.980910916444206"><ele>586.4285714285714</ele><time>2026-05-03T08:43:46Z</time></trkpt><trkpt lat="43.51289999618091" lon="11.980819140069148"><ele>587.8571428571429</ele><time>2026-05-03T08:43:47Z</time></trkpt><trkpt lat="43.51284654589443" lon="11.980752130144397"><ele>589.2857142857142</ele><time>2026-05-03T08:43:48Z</time></trkpt><trkpt lat="43.512792685470565" lon="11.980697029439792"><ele>590.7142857142858</ele><time>2026-05-03T08:43:49Z</time></trkpt><trkpt lat="43.5127254840648" lon="11.980657087268273"><ele>592.1428571428571</ele><time>2026-05-03T08:43:50Z</time></trkpt><trkpt lat="43.512656557606384" lon="11.980632875092786"><ele>593.5714285714286</ele><time>2026-05-03T08:43:51Z</time></trkpt><trkpt lat="43.51258811142023" lon="11.980679021600167"><ele>595.0</ele><time>2026-05-03T08:43:54Z</time></trkpt><trkpt lat="43.512519290595954" lon="11.980788437157399"><ele>589.75</ele><time>2026-05-03T08:43:56Z</time></trkpt><trkpt lat="43.51244915105191" lon="11.980886110488836"><ele>584.5</ele><time>2026-05-03T08:43:57Z</time></trkpt><trkpt lat="43.51238524518398" lon="11.980991751319817"><ele>579.25</ele><time>2026-05-03T08:43:58Z</time></trkpt><trkpt lat="43.51236396749984" lon="11.981200661750956"><ele>574.0</ele><time>2026-05-03T08:43:59Z</time></trkpt><trkpt lat="43.512297720382044" lon="11.981342775824492"><ele>574.0</ele><time>2026-05-03T08:44:00Z</time></trkpt><trkpt lat="43.51225650024563" lon="11.981477322794888"><ele>574.0</ele><time>2026-05-03T08:44:01Z</time></trkpt><trkpt lat="43.512189272797315" lon="11.981612717893077"><ele>574.0</ele><time>2026-05-03T08:44:02Z</time></trkpt><trkpt lat="43.512137335338764" lon="11.981700263370033"><ele>574.0</ele><time>2026-05-03T08:44:03Z</time></trkpt><trkpt lat="43.51206120485913" lon="11.9817485817195"><ele>574.0</ele><time>2026-05-03T08:44:05Z</time></trkpt><trkpt lat="43.511937580256145" lon="11.981739912646937"><ele>575.0</ele><time>2026-05-03T08:44:07Z</time></trkpt><trkpt lat="43.51184070123651" lon="11.98173101969594"><ele>576.0</ele><time>2026-05-03T08:44:08Z</time></trkpt><trkpt lat="43.51176307074949" lon="11.98170619320154"><ele>577.0</ele><time>2026-05-03T08:44:09Z</time></trkpt><trkpt lat="43.5116794023581" lon="11.981644603477278"><ele>578.0</ele><time>2026-05-03T08:44:10Z</time></trkpt><trkpt lat="43.51160386058498" lon="11.981600929380367"><ele>579.0</ele><time>2026-05-03T08:44:11Z</time></trkpt><trkpt lat="43.51150819712481" lon="11.981523036433758"><ele>579.0</ele><time>2026-05-03T08:44:12Z</time></trkpt><trkpt lat="43.5114331314102" lon="11.98144623544025"><ele>579.0</ele><time>2026-05-03T08:44:13Z</time></trkpt><trkpt lat="43.51137050526279" lon="11.981417840077341"><ele>579.0</ele><time>2026-05-03T08:44:14Z</time></trkpt><trkpt lat="43.51129373813252" lon="11.98135396429023"><ele>579.0</ele><time>2026-05-03T08:44:15Z</time></trkpt><trkpt lat="43.51120687292965" lon="11.981307568817687"><ele>579.0</ele><time>2026-05-03T08:44:16Z</time></trkpt><trkpt lat="43.511139160266694" lon="11.981277514025074"><ele>579.0</ele><time>2026-05-03T08:44:17Z</time></trkpt><trkpt lat="43.51106156180637" lon="11.981275947189284"><ele>582.2</ele><time>2026-05-03T08:44:19Z</time></trkpt><trkpt lat="43.51096893551291" lon="11.98131571535308"><ele>585.4</ele><time>2026-05-03T08:44:21Z</time></trkpt><trkpt lat="43.51092872744226" lon="11.981388660619386"><ele>588.6</ele><time>2026-05-03T08:44:23Z</time></trkpt><trkpt lat="43.51098875296854" lon="11.981342131895685"><ele>591.8</ele><time>2026-05-03T08:44:26Z</time></trkpt><trkpt lat="43.511050434698056" lon="11.981496448523707"><ele>595.0</ele><time>2026-05-03T08:44:29Z</time></trkpt><trkpt lat="43.51112187670423" lon="11.981673604964495"><ele>598.5</ele><time>2026-05-03T08:44:30Z</time></trkpt><trkpt lat="43.51114686470485" lon="11.981872751936404"><ele>602.0</ele><time>2026-05-03T08:44:31Z</time></trkpt><trkpt lat="43.51118466985104" lon="11.981988403992354"><ele>605.5</ele><time>2026-05-03T08:44:32Z</time></trkpt><trkpt lat="43.51124457156745" lon="11.982123366863465"><ele>609.0</ele><time>2026-05-03T08:44:33Z</time></trkpt><trkpt lat="43.51129979039042" lon="11.982266772172224"><ele>600.5</ele><time>2026-05-03T08:44:34Z</time></trkpt><trkpt lat="43.51135747177053" lon="11.982415657787321"><ele>592.0</ele><time>2026-05-03T08:44:35Z</time></trkpt><trkpt lat="43.51142047352952" lon="11.982535864296317"><ele>583.5</ele><time>2026-05-03T08:44:36Z</time></trkpt><trkpt lat="43.51149605606001" lon="11.982672047489274"><ele>575.0</ele><time>2026-05-03T08:44:37Z</time></trkpt><trkpt lat="43.511571604119524" lon="11.982768530569711"><ele>575.0</ele><time>2026-05-03T08:44:38Z</time></trkpt><trkpt lat="43.51162370067288" lon="11.982876735935971"><ele>575.0</ele><time>2026-05-03T08:44:39Z</time></trkpt><trkpt lat="43.51166649969464" lon="11.982979141173011"><ele>575.0</ele><time>2026-05-03T08:44:40Z</time></trkpt><trkpt lat="43.511709366572646" lon="11.983114449995535"><ele>575.0</ele><time>2026-05-03T08:44:41Z</time></trkpt><trkpt lat="43.511751954186586" lon="11.983295148853095"><ele>575.0</ele><time>2026-05-03T08:44:42Z</time></trkpt><trkpt lat="43.51177757342622" lon="11.983457158566853"><ele>576.2</ele><time>2026-05-03T08:44:43Z</time></trkpt><trkpt lat="43.51179058460271" lon="11.983601467798469"><ele>577.4</ele><time>2026-05-03T08:44:44Z</time></trkpt><trkpt lat="43.51179550049945" lon="11.983719979361751"><ele>578.6</ele><time>2026-05-03T08:44:45Z</time></trkpt><trkpt lat="43.511820931625245" lon="11.983818758593245"><ele>579.8</ele><time>2026-05-03T08:44:46Z</time></trkpt><trkpt lat="43.51188568665859" lon="11.983912822129376"><ele>581.0</ele><time>2026-05-03T08:44:47Z</time></trkpt><trkpt lat="43.511953144377266" lon="11.983993249463406"><ele>581.0</ele><time>2026-05-03T08:44:48Z</time></trkpt><trkpt lat="43.51202185600162" lon="11.984077616144454"><ele>581.0</ele><time>2026-05-03T08:44:49Z</time></trkpt><trkpt lat="43.512078994084845" lon="11.984168489863443"><ele>581.0</ele><time>2026-05-03T08:44:50Z</time></trkpt><trkpt lat="43.51210683916417" lon="11.984306081969807"><ele>581.0</ele><time>2026-05-03T08:44:51.999Z</time></trkpt><trkpt lat="43.512052395565824" lon="11.984436371580836"><ele>581.0</ele><time>2026-05-03T08:44:53.999Z</time></trkpt><trkpt lat="43.51199313028224" lon="11.98455763817718"><ele>581.2</ele><time>2026-05-03T08:44:54.999Z</time></trkpt><trkpt lat="43.5119285885892" lon="11.984674928851545"><ele>581.4000000000001</ele><time>2026-05-03T08:44:55.999Z</time></trkpt><trkpt lat="43.511886275624434" lon="11.984764712103074"><ele>581.6</ele><time>2026-05-03T08:44:56.999Z</time></trkpt><trkpt lat="43.51186392109091" lon="11.984881116598588"><ele>581.8000000000001</ele><time>2026-05-03T08:44:57.999Z</time></trkpt><trkpt lat="43.51183830994426" lon="11.985017948914182"><ele>582.0</ele><time>2026-05-03T08:44:58.999Z</time></trkpt><trkpt lat="43.51182481016102" lon="11.985168524054243"><ele>579.8000000000001</ele><time>2026-05-03T08:44:59.999Z</time></trkpt><trkpt lat="43.51181428100674" lon="11.985270807947908"><ele>577.6</ele><time>2026-05-03T08:45:00.999Z</time></trkpt><trkpt lat="43.511779799100516" lon="11.985387224556764"><ele>575.4000000000001</ele><time>2026-05-03T08:45:01.999Z</time></trkpt><trkpt lat="43.51174925354658" lon="11.985508360235391"><ele>573.2</ele><time>2026-05-03T08:45:02.999Z</time></trkpt><trkpt lat="43.51170524925558" lon="11.985678492692635"><ele>571.0</ele><time>2026-05-03T08:45:04.999Z</time></trkpt><trkpt lat="43.5116723986328" lon="11.98576827359285"><ele>567.3333333333334</ele><time>2026-05-03T08:45:05.999Z</time></trkpt><trkpt lat="43.51156868623293" lon="11.985862698130363"><ele>563.6666666666667</ele><time>2026-05-03T08:45:07.999Z</time></trkpt><trkpt lat="43.511499472540535" lon="11.985924865641616"><ele>560.0</ele><time>2026-05-03T08:45:08.999Z</time></trkpt><trkpt lat="43.51147474706022" lon="11.986007127427436"><ele>556.3333333333334</ele><time>2026-05-03T08:45:09.999Z</time></trkpt><trkpt lat="43.51147737545646" lon="11.986110484840939"><ele>552.6666666666666</ele><time>2026-05-03T08:45:10.999Z</time></trkpt><trkpt lat="43.51143393696571" lon="11.986184630610076"><ele>549.0</ele><time>2026-05-03T08:45:11.999Z</time></trkpt><trkpt lat="43.51133924503441" lon="11.986346426665294"><ele>549.0</ele><time>2026-05-03T08:45:13.999Z</time></trkpt><trkpt lat="43.51125637627488" lon="11.986409068495814"><ele>549.0</ele><time>2026-05-03T08:45:14.999Z</time></trkpt><trkpt lat="43.511193800765625" lon="11.986425829911418"><ele>549.0</ele><time>2026-05-03T08:45:15.999Z</time></trkpt><trkpt lat="43.51110127041689" lon="11.98638965312293"><ele>549.0</ele><time>2026-05-03T08:45:18Z</time></trkpt><trkpt lat="43.51100177893845" lon="11.986350746758056"><ele>549.0</ele><time>2026-05-03T08:45:20Z</time></trkpt><trkpt lat="43.510926905527235" lon="11.98631691275463"><ele>549.0</ele><time>2026-05-03T08:45:21Z</time></trkpt><trkpt lat="43.510833587933554" lon="11.986299382945173"><ele>550.3333333333334</ele><time>2026-05-03T08:45:22Z</time></trkpt><trkpt lat="43.51076318685251" lon="11.986326893439035"><ele>551.6666666666666</ele><time>2026-05-03T08:45:23Z</time></trkpt><trkpt lat="43.51069887818107" lon="11.98638675534987"><ele>553.0</ele><time>2026-05-03T08:45:24Z</time></trkpt><trkpt lat="43.510572081957875" lon="11.986434872146052"><ele>554.3333333333333</ele><time>2026-05-03T08:45:26Z</time></trkpt><trkpt lat="43.51049684954093" lon="11.986441748659075"><ele>555.6666666666666</ele><time>2026-05-03T08:45:27Z</time></trkpt><trkpt lat="43.510420512844235" lon="11.986441681735654"><ele>557.0</ele><time>2026-05-03T08:45:28Z</time></trkpt><trkpt lat="43.510335861333445" lon="11.986428351610003"><ele>557.0</ele><time>2026-05-03T08:45:29Z</time></trkpt><trkpt lat="43.510253905616096" lon="11.986416440454231"><ele>557.0</ele><time>2026-05-03T08:45:30Z</time></trkpt><trkpt lat="43.510161752383915" lon="11.986429542921732"><ele>557.0</ele><time>2026-05-03T08:45:31Z</time></trkpt><trkpt lat="43.510072406014686" lon="11.986450212230848"><ele>557.0</ele><time>2026-05-03T08:45:32Z</time></trkpt><trkpt lat="43.50999644287515" lon="11.986443498125325"><ele>557.0</ele><time>2026-05-03T08:45:33Z</time></trkpt><trkpt lat="43.50992750884941" lon="11.98642824837974"><ele>557.0</ele><time>2026-05-03T08:45:34Z</time></trkpt><trkpt lat="43.50984122963675" lon="11.986390579718991"><ele>557.0</ele><time>2026-05-03T08:45:35Z</time></trkpt><trkpt lat="43.50975859266884" lon="11.986341665714983"><ele>557.0</ele><time>2026-05-03T08:45:36Z</time></trkpt><trkpt lat="43.50966287272142" lon="11.986299038279794"><ele>557.0</ele><time>2026-05-03T08:45:37Z</time></trkpt><trkpt lat="43.50956864204795" lon="11.986276080184126"><ele>557.0</ele><time>2026-05-03T08:45:38Z</time></trkpt><trkpt lat="43.50949497471941" lon="11.98625005121539"><ele>557.0</ele><time>2026-05-03T08:45:39Z</time></trkpt><trkpt lat="43.50943226126881" lon="11.986227118235291"><ele>557.0</ele><time>2026-05-03T08:45:40Z</time></trkpt><trkpt lat="43.509349594694044" lon="11.986204583589291"><ele>556.8000000000001</ele><time>2026-05-03T08:45:41Z</time></trkpt><trkpt lat="43.50925505394959" lon="11.986157095314402"><ele>556.6</ele><time>2026-05-03T08:45:42Z</time></trkpt><trkpt lat="43.50917116276578" lon="11.986112751877261"><ele>556.4000000000001</ele><time>2026-05-03T08:45:43Z</time></trkpt><trkpt lat="43.509089809240834" lon="11.98605993927429"><ele>556.2</ele><time>2026-05-03T08:45:44Z</time></trkpt><trkpt lat="43.50901882941437" lon="11.98601492614412"><ele>556.0</ele><time>2026-05-03T08:45:45Z</time></trkpt><trkpt lat="43.508925518242144" lon="11.985945399531714"><ele>556.0</ele><time>2026-05-03T08:45:47Z</time></trkpt><trkpt lat="43.50885158184274" lon="11.985861245260718"><ele>556.0</ele><time>2026-05-03T08:45:49Z</time></trkpt><trkpt lat="43.508775235936604" lon="11.985833525036064"><ele>556.0</ele><time>2026-05-03T08:45:51Z</time></trkpt><trkpt lat="43.50868208531986" lon="11.98574263862435"><ele>556.0</ele><time>2026-05-03T08:45:53Z</time></trkpt><trkpt lat="43.508624616744285" lon="11.985782200006076"><ele>556.0</ele><time>2026-05-03T08:45:55Z</time></trkpt><trkpt lat="43.50861931601636" lon="11.9859025266039"><ele>556.0</ele><time>2026-05-03T08:45:57Z</time></trkpt><trkpt lat="43.508638437333076" lon="11.98599735264176"><ele>563.6</ele><time>2026-05-03T08:45:59Z</time></trkpt><trkpt lat="43.508636580606606" lon="11.986139291098585"><ele>571.2</ele><time>2026-05-03T08:46:00Z</time></trkpt><trkpt lat="43.50864246909914" lon="11.986308141059128"><ele>578.8</ele><time>2026-05-03T08:46:01Z</time></trkpt><trkpt lat="43.508639143889575" lon="11.986450059424817"><ele>586.4</ele><time>2026-05-03T08:46:02Z</time></trkpt><trkpt lat="43.50866445666509" lon="11.986555723600063"><ele>594.0</ele><time>2026-05-03T08:46:03Z</time></trkpt><trkpt lat="43.508715990409335" lon="11.986621196686459"><ele>596.4</ele><time>2026-05-03T08:46:04Z</time></trkpt><trkpt lat="43.5087417805619" lon="11.98677915323497"><ele>598.8</ele><time>2026-05-03T08:46:06Z</time></trkpt><trkpt lat="43.508766745965126" lon="11.986958271434853"><ele>601.2</ele><time>2026-05-03T08:46:08Z</time></trkpt><trkpt lat="43.50877246580944" lon="11.987057929190211"><ele>603.6</ele><time>2026-05-03T08:46:09Z</time></trkpt><trkpt lat="43.50877057895609" lon="11.987182287574335"><ele>606.0</ele><time>2026-05-03T08:46:10Z</time></trkpt><trkpt lat="43.50876993946511" lon="11.987282554851872"><ele>602.0</ele><time>2026-05-03T08:46:11Z</time></trkpt><trkpt lat="43.50881448628572" lon="11.987375533636742"><ele>598.0</ele><time>2026-05-03T08:46:13Z</time></trkpt><trkpt lat="43.508872483005696" lon="11.987436679194204"><ele>594.0</ele><time>2026-05-03T08:46:14Z</time></trkpt><trkpt lat="43.50892465138989" lon="11.987548962562038"><ele>590.0</ele><time>2026-05-03T08:46:15Z</time></trkpt><trkpt lat="43.50897951568585" lon="11.98764123498244"><ele>586.0</ele><time>2026-05-03T08:46:16Z</time></trkpt><trkpt lat="43.509012983587276" lon="11.987751228199931"><ele>582.0</ele><time>2026-05-03T08:46:17Z</time></trkpt><trkpt lat="43.509033516059844" lon="11.987863761692857"><ele>582.0</ele><time>2026-05-03T08:46:18Z</time></trkpt><trkpt lat="43.50904679579526" lon="11.987953468129982"><ele>582.0</ele><time>2026-05-03T08:46:19Z</time></trkpt><trkpt lat="43.50903568903017" lon="11.988130499489888"><ele>582.0</ele><time>2026-05-03T08:46:21Z</time></trkpt><trkpt lat="43.50903927145905" lon="11.988233464834343"><ele>582.0</ele><time>2026-05-03T08:46:22Z</time></trkpt><trkpt lat="43.509078024033435" lon="11.98832134180574"><ele>582.0</ele><time>2026-05-03T08:46:23Z</time></trkpt><trkpt lat="43.509122809178834" lon="11.988391687528791"><ele>582.0</ele><time>2026-05-03T08:46:24Z</time></trkpt><trkpt lat="43.50917729141232" lon="11.988472307774362"><ele>582.8333333333334</ele><time>2026-05-03T08:46:25Z</time></trkpt><trkpt lat="43.5092066394211" lon="11.988566104356185"><ele>583.6666666666666</ele><time>2026-05-03T08:46:26Z</time></trkpt><trkpt lat="43.509236952518975" lon="11.988678935375658"><ele>584.5</ele><time>2026-05-03T08:46:27Z</time></trkpt><trkpt lat="43.50926595883324" lon="11.988826024036035"><ele>585.3333333333333</ele><time>2026-05-03T08:46:28Z</time></trkpt><trkpt lat="43.50927409591113" lon="11.98892478774083"><ele>586.1666666666666</ele><time>2026-05-03T08:46:31Z</time></trkpt><trkpt lat="43.509203825306955" lon="11.988930961795305"><ele>587.0</ele><time>2026-05-03T08:46:34.999Z</time></trkpt><trkpt lat="43.509147636000876" lon="11.988880746033619"><ele>587.0</ele><time>2026-05-03T08:46:37.999Z</time></trkpt><trkpt lat="43.5090743168526" lon="11.988851151962395"><ele>587.0</ele><time>2026-05-03T08:51:34.999Z</time></trkpt><trkpt lat="43.509023373284144" lon="11.988797164074443"><ele>587.0</ele><time>2026-05-03T08:51:37Z</time></trkpt><trkpt lat="43.50896098459465" lon="11.988725577278185"><ele>587.0</ele><time>2026-05-03T08:51:39Z</time></trkpt><trkpt lat="43.508898058739334" lon="11.98864889223618"><ele>587.0</ele><time>2026-05-03T08:51:41Z</time></trkpt><trkpt lat="43.50887209527422" lon="11.988550614912933"><ele>587.0</ele><time>2026-05-03T08:51:43Z</time></trkpt><trkpt lat="43.50880834131858" lon="11.988425615030414"><ele>587.0</ele><time>2026-05-03T08:51:46Z</time></trkpt><trkpt lat="43.508759026217646" lon="11.988358478533533"><ele>587.0</ele><time>2026-05-03T08:51:47Z</time></trkpt><trkpt lat="43.508676789156894" lon="11.988271667632384"><ele>587.0</ele><time>2026-05-03T08:51:49Z</time></trkpt><trkpt lat="43.508591145402875" lon="11.988184068418425"><ele>587.0</ele><time>2026-05-03T08:51:50Z</time></trkpt><trkpt lat="43.508526212642074" lon="11.988130813469969"><ele>587.0</ele><time>2026-05-03T08:51:51Z</time></trkpt><trkpt lat="43.508405112752506" lon="11.988144940658554"><ele>590.0</ele><time>2026-05-03T08:51:53Z</time></trkpt><trkpt lat="43.50832617729848" lon="11.988186939470022"><ele>593.0</ele><time>2026-05-03T08:51:54Z</time></trkpt><trkpt lat="43.508237205833375" lon="11.988226159844197"><ele>596.0</ele><time>2026-05-03T08:51:55Z</time></trkpt><trkpt lat="43.50817996466474" lon="11.988266053188863"><ele>599.0</ele><time>2026-05-03T08:51:56Z</time></trkpt><trkpt lat="43.50810477679464" lon="11.988305188953316"><ele>602.0</ele><time>2026-05-03T08:51:57Z</time></trkpt><trkpt lat="43.50802535455342" lon="11.988334205183497"><ele>605.0</ele><time>2026-05-03T08:51:58Z</time></trkpt><trkpt lat="43.50794166752145" lon="11.988331502006545"><ele>606.5</ele><time>2026-05-03T08:51:59Z</time></trkpt><trkpt lat="43.50786025741408" lon="11.988323989524844"><ele>608.0</ele><time>2026-05-03T08:52:00Z</time></trkpt><trkpt lat="43.50776691428795" lon="11.98831346138451"><ele>609.5</ele><time>2026-05-03T08:52:01Z</time></trkpt><trkpt lat="43.50768006961366" lon="11.988301497290527"><ele>611.0</ele><time>2026-05-03T08:52:02Z</time></trkpt><trkpt lat="43.50761125801071" lon="11.988280914543628"><ele>612.5</ele><time>2026-05-03T08:52:03Z</time></trkpt><trkpt lat="43.50755113200054" lon="11.988245386517901"><ele>614.0</ele><time>2026-05-03T08:52:04Z</time></trkpt><trkpt lat="43.50748968050649" lon="11.988196206365064"><ele>614.0</ele><time>2026-05-03T08:52:05Z</time></trkpt><trkpt lat="43.50740141464522" lon="11.988096269834747"><ele>614.0</ele><time>2026-05-03T08:52:07Z</time></trkpt><trkpt lat="43.50735516481045" lon="11.988028084759579"><ele>614.0</ele><time>2026-05-03T08:52:08Z</time></trkpt><trkpt lat="43.50728701040949" lon="11.987906301310462"><ele>614.0</ele><time>2026-05-03T08:52:09Z</time></trkpt><trkpt lat="43.507222377671226" lon="11.987787647777242"><ele>614.0</ele><time>2026-05-03T08:52:10Z</time></trkpt><trkpt lat="43.50715081653485" lon="11.987683388975064"><ele>614.0</ele><time>2026-05-03T08:52:11Z</time></trkpt><trkpt lat="43.50708821337827" lon="11.987582557089274"><ele>614.0</ele><time>2026-05-03T08:52:12Z</time></trkpt><trkpt lat="43.5070463989894" lon="11.987495145213634"><ele>614.0</ele><time>2026-05-03T08:52:13Z</time></trkpt><trkpt lat="43.5070276151956" lon="11.987333735575112"><ele>614.0</ele><time>2026-05-03T08:52:15Z</time></trkpt><trkpt lat="43.507008412005085" lon="11.987188869519606"><ele>614.0</ele><time>2026-05-03T08:52:16Z</time></trkpt><trkpt lat="43.50698615765493" lon="11.98705216994528"><ele>614.0</ele><time>2026-05-03T08:52:17Z</time></trkpt><trkpt lat="43.50694861237055" lon="11.986945011357427"><ele>614.0</ele><time>2026-05-03T08:52:18Z</time></trkpt><trkpt lat="43.50690974161353" lon="11.98686136177956"><ele>614.0</ele><time>2026-05-03T08:52:19Z</time></trkpt><trkpt lat="43.50685407768759" lon="11.986710014438323"><ele>614.0</ele><time>2026-05-03T08:52:21Z</time></trkpt><trkpt lat="43.506814111398015" lon="11.986627226173738"><ele>614.0</ele><time>2026-05-03T08:52:22Z</time></trkpt><trkpt lat="43.506764526830985" lon="11.986544145931095"><ele>614.0</ele><time>2026-05-03T08:52:23Z</time></trkpt><trkpt lat="43.50669799673787" lon="11.98645914159017"><ele>619.0</ele><time>2026-05-03T08:52:24Z</time></trkpt><trkpt lat="43.506632897925336" lon="11.986394961021874"><ele>624.0</ele><time>2026-05-03T08:52:25Z</time></trkpt><trkpt lat="43.50657497301529" lon="11.986355122025495"><ele>629.0</ele><time>2026-05-03T08:52:26Z</time></trkpt><trkpt lat="43.506455134111555" lon="11.986302024114938"><ele>634.0</ele><time>2026-05-03T08:52:28Z</time></trkpt><trkpt lat="43.50637757970959" lon="11.986240996953642"><ele>639.0</ele><time>2026-05-03T08:52:29Z</time></trkpt><trkpt lat="43.50631536351058" lon="11.98615235926855"><ele>644.0</ele><time>2026-05-03T08:52:30Z</time></trkpt><trkpt lat="43.50627066275833" lon="11.98605101497154"><ele>644.6</ele><time>2026-05-03T08:52:31Z</time></trkpt><trkpt lat="43.506225668441196" lon="11.985939715564884"><ele>645.2</ele><time>2026-05-03T08:52:32Z</time></trkpt><trkpt lat="43.50617403956468" lon="11.98580993260203"><ele>645.8000000000001</ele><time>2026-05-03T08:52:33Z</time></trkpt><trkpt lat="43.506108151646174" lon="11.985697594845258"><ele>646.4000000000001</ele><time>2026-05-03T08:52:34Z</time></trkpt><trkpt lat="43.506053161962804" lon="11.985587725683128"><ele>647.0</ele><time>2026-05-03T08:52:35Z</time></trkpt><trkpt lat="43.5059974850102" lon="11.98551216560141"><ele>647.0</ele><time>2026-05-03T08:52:36Z</time></trkpt><trkpt lat="43.50594219498974" lon="11.985464270981025"><ele>647.0</ele><time>2026-05-03T08:52:37Z</time></trkpt><trkpt lat="43.505886355067084" lon="11.985424002862484"><ele>647.0</ele><time>2026-05-03T08:52:38Z</time></trkpt><trkpt lat="43.505825273505685" lon="11.985395091332828"><ele>647.0</ele><time>2026-05-03T08:52:39Z</time></trkpt><trkpt lat="43.505713930969016" lon="11.985443349863008"><ele>647.0</ele><time>2026-05-03T08:52:41Z</time></trkpt><trkpt lat="43.50560223857381" lon="11.985425662537402"><ele>647.0</ele><time>2026-05-03T08:52:43Z</time></trkpt><trkpt lat="43.505532699683776" lon="11.985369517789586"><ele>647.0</ele><time>2026-05-03T08:52:44Z</time></trkpt><trkpt lat="43.50547068217627" lon="11.985218065221888"><ele>647.0</ele><time>2026-05-03T08:52:46Z</time></trkpt><trkpt lat="43.505382125226944" lon="11.985055736793486"><ele>647.0</ele><time>2026-05-03T08:52:48Z</time></trkpt><trkpt lat="43.5053230839404" lon="11.984981324471002"><ele>647.0</ele><time>2026-05-03T08:52:49Z</time></trkpt><trkpt lat="43.50523432462033" lon="11.984922509642818"><ele>650.0</ele><time>2026-05-03T08:52:50Z</time></trkpt><trkpt lat="43.50512740896517" lon="11.984880244370567"><ele>653.0</ele><time>2026-05-03T08:52:51Z</time></trkpt><trkpt lat="43.50502588787398" lon="11.984858232415828"><ele>656.0</ele><time>2026-05-03T08:52:52Z</time></trkpt><trkpt lat="43.504948897812156" lon="11.984840972583328"><ele>659.0</ele><time>2026-05-03T08:52:53Z</time></trkpt><trkpt lat="43.50485099529179" lon="11.984764589708762"><ele>662.0</ele><time>2026-05-03T08:52:55Z</time></trkpt><trkpt lat="43.504752498367466" lon="11.98467207278021"><ele>662.0</ele><time>2026-05-03T08:52:57Z</time></trkpt><trkpt lat="43.50470495165673" lon="11.984592644175676"><ele>662.0</ele><time>2026-05-03T08:52:58Z</time></trkpt><trkpt lat="43.50465905516661" lon="11.984504015560793"><ele>662.0</ele><time>2026-05-03T08:52:59Z</time></trkpt><trkpt lat="43.504610732161" lon="11.984393304538685"><ele>662.0</ele><time>2026-05-03T08:53:00Z</time></trkpt><trkpt lat="43.504566260816894" lon="11.984285145894843"><ele>662.0</ele><time>2026-05-03T08:53:01Z</time></trkpt><trkpt lat="43.50452816060029" lon="11.984191493951462"><ele>662.0</ele><time>2026-05-03T08:53:02Z</time></trkpt><trkpt lat="43.50450732771034" lon="11.984099486983476"><ele>665.0</ele><time>2026-05-03T08:53:03Z</time></trkpt><trkpt lat="43.50447569983237" lon="11.98397384871467"><ele>668.0</ele><time>2026-05-03T08:53:05Z</time></trkpt><trkpt lat="43.504413579057506" lon="11.983959650899013"><ele>671.0</ele><time>2026-05-03T08:53:06Z</time></trkpt><trkpt lat="43.504347868774346" lon="11.983971973468583"><ele>674.0</ele><time>2026-05-03T08:53:07Z</time></trkpt><trkpt lat="43.504278437311235" lon="11.983933880503518"><ele>677.0</ele><time>2026-05-03T08:53:08Z</time></trkpt><trkpt lat="43.5042023510814" lon="11.983896722078326"><ele>680.0</ele><time>2026-05-03T08:53:09Z</time></trkpt><trkpt lat="43.50413204854583" lon="11.983917282996837"><ele>680.0</ele><time>2026-05-03T08:53:10Z</time></trkpt><trkpt lat="43.50407413716827" lon="11.983987883369666"><ele>680.0</ele><time>2026-05-03T08:53:11Z</time></trkpt><trkpt lat="43.5039994164013" lon="11.984024432748566"><ele>680.0</ele><time>2026-05-03T08:53:12Z</time></trkpt><trkpt lat="43.503865284060005" lon="11.983991060367408"><ele>680.0</ele><time>2026-05-03T08:53:15Z</time></trkpt><trkpt lat="43.50378711373509" lon="11.98400540286269"><ele>680.0</ele><time>2026-05-03T08:53:16Z</time></trkpt><trkpt lat="43.503697408947026" lon="11.984004619314428"><ele>681.5</ele><time>2026-05-03T08:53:17Z</time></trkpt><trkpt lat="43.503618903050814" lon="11.983981732130415"><ele>683.0</ele><time>2026-05-03T08:53:18Z</time></trkpt><trkpt lat="43.5035454473522" lon="11.983957902209225"><ele>684.5</ele><time>2026-05-03T08:53:19Z</time></trkpt><trkpt lat="43.50347296027197" lon="11.983960323610447"><ele>686.0</ele><time>2026-05-03T08:53:20Z</time></trkpt><trkpt lat="43.503366641773084" lon="11.983907562125824"><ele>687.5</ele><time>2026-05-03T08:53:22Z</time></trkpt><trkpt lat="43.50331266241139" lon="11.98381583120325"><ele>689.0</ele><time>2026-05-03T08:53:24Z</time></trkpt><trkpt lat="43.50322209408572" lon="11.983719904596013"><ele>689.0</ele><time>2026-05-03T08:53:26Z</time></trkpt><trkpt lat="43.503115182061904" lon="11.98377316214325"><ele>689.0</ele><time>2026-05-03T08:53:28Z</time></trkpt><trkpt lat="43.5030406580609" lon="11.983811344957033"><ele>689.0</ele><time>2026-05-03T08:53:29Z</time></trkpt><trkpt lat="43.5029610596697" lon="11.98381828231278"><ele>689.0</ele><time>2026-05-03T08:53:30Z</time></trkpt><trkpt lat="43.502856869708886" lon="11.983835868855643"><ele>689.0</ele><time>2026-05-03T08:53:31Z</time></trkpt><trkpt lat="43.50273607401397" lon="11.983837729033276"><ele>693.8000000000001</ele><time>2026-05-03T08:53:32Z</time></trkpt><trkpt lat="43.502601789200426" lon="11.983805870509766"><ele>698.6</ele><time>2026-05-03T08:53:33Z</time></trkpt><trkpt lat="43.50249666423263" lon="11.983757962214321"><ele>703.4</ele><time>2026-05-03T08:53:34Z</time></trkpt><trkpt lat="43.50242265733113" lon="11.983699850119525"><ele>708.2</ele><time>2026-05-03T08:53:35Z</time></trkpt><trkpt lat="43.50238082745722" lon="11.98379039323336"><ele>713.0</ele><time>2026-05-03T08:53:37Z</time></trkpt><trkpt lat="43.50237591246626" lon="11.983882287831229"><ele>713.0</ele><time>2026-05-03T08:53:38Z</time></trkpt><trkpt lat="43.50234331620341" lon="11.984011572929484"><ele>713.0</ele><time>2026-05-03T08:53:40Z</time></trkpt><trkpt lat="43.50229746439603" lon="11.984235634189366"><ele>713.0</ele><time>2026-05-03T08:53:42Z</time></trkpt><trkpt lat="43.50223076054287" lon="11.984271223916064"><ele>713.0</ele><time>2026-05-03T08:53:46Z</time></trkpt><trkpt lat="43.50217413429742" lon="11.984217126385216"><ele>713.0</ele><time>2026-05-03T08:53:48Z</time></trkpt><trkpt lat="43.50209571508668" lon="11.984064283481574"><ele>711.4</ele><time>2026-05-03T08:53:49Z</time></trkpt><trkpt lat="43.502054565864576" lon="11.983951781689473"><ele>709.8</ele><time>2026-05-03T08:53:50Z</time></trkpt><trkpt lat="43.502008372398485" lon="11.983831189067898"><ele>708.2</ele><time>2026-05-03T08:53:51Z</time></trkpt><trkpt lat="43.50196060723429" lon="11.983708247920665"><ele>706.6</ele><time>2026-05-03T08:53:52Z</time></trkpt><trkpt lat="43.501908583245026" lon="11.983597652169953"><ele>705.0</ele><time>2026-05-03T08:53:53Z</time></trkpt><trkpt lat="43.501819594208904" lon="11.983482617205416"><ele>705.0</ele><time>2026-05-03T08:53:54Z</time></trkpt><trkpt lat="43.50176945748532" lon="11.983381361248666"><ele>705.0</ele><time>2026-05-03T08:53:55Z</time></trkpt><trkpt lat="43.501721761840514" lon="11.983314455857746"><ele>705.0</ele><time>2026-05-03T08:53:56Z</time></trkpt><trkpt lat="43.50165661591209" lon="11.983251407309947"><ele>705.0</ele><time>2026-05-03T08:53:57Z</time></trkpt><trkpt lat="43.50157664921906" lon="11.983201469685174"><ele>705.0</ele><time>2026-05-03T08:53:58Z</time></trkpt><trkpt lat="43.50149770137239" lon="11.98316548193254"><ele>705.0</ele><time>2026-05-03T08:53:59Z</time></trkpt><trkpt lat="43.501434360084815" lon="11.983127303239227"><ele>703.8333333333334</ele><time>2026-05-03T08:54:00Z</time></trkpt><trkpt lat="43.50136812571447" lon="11.983083550162757"><ele>702.6666666666666</ele><time>2026-05-03T08:54:01Z</time></trkpt><trkpt lat="43.501321188762205" lon="11.982993493473536"><ele>701.5</ele><time>2026-05-03T08:54:02Z</time></trkpt><trkpt lat="43.501271851468154" lon="11.982893982944617"><ele>700.3333333333333</ele><time>2026-05-03T08:54:03Z</time></trkpt><trkpt lat="43.50120187790805" lon="11.982814131197536"><ele>699.1666666666666</ele><time>2026-05-03T08:54:04Z</time></trkpt><trkpt lat="43.50116019268061" lon="11.982737040441833"><ele>698.0</ele><time>2026-05-03T08:54:05Z</time></trkpt><trkpt lat="43.50108449477332" lon="11.982649361479515"><ele>698.0</ele><time>2026-05-03T08:54:07Z</time></trkpt><trkpt lat="43.50104639152966" lon="11.982524707913239"><ele>698.0</ele><time>2026-05-03T08:54:08Z</time></trkpt><trkpt lat="43.5009739906926" lon="11.982506056200092"><ele>698.0</ele><time>2026-05-03T08:54:09Z</time></trkpt><trkpt lat="43.5009056915702" lon="11.98243202672149"><ele>698.0</ele><time>2026-05-03T08:54:12Z</time></trkpt><trkpt lat="43.50086178176465" lon="11.982309712829524"><ele>698.0</ele><time>2026-05-03T08:54:14Z</time></trkpt><trkpt lat="43.50081400868365" lon="11.982173738185491"><ele>701.8</ele><time>2026-05-03T08:54:16Z</time></trkpt><trkpt lat="43.500825831080654" lon="11.982027453561878"><ele>705.5999999999999</ele><time>2026-05-03T08:54:17Z</time></trkpt><trkpt lat="43.500818539435784" lon="11.981874679999791"><ele>709.4000000000001</ele><time>2026-05-03T08:54:18Z</time></trkpt><trkpt lat="43.50081129555052" lon="11.981728649423673"><ele>713.2</ele><time>2026-05-03T08:54:19Z</time></trkpt><trkpt lat="43.5007972791008" lon="11.981596888152396"><ele>717.0</ele><time>2026-05-03T08:54:20Z</time></trkpt><trkpt lat="43.50078655347837" lon="11.981463817885555"><ele>719.2</ele><time>2026-05-03T08:54:21Z</time></trkpt><trkpt lat="43.500772013730476" lon="11.981349122118157"><ele>721.4000000000001</ele><time>2026-05-03T08:54:22Z</time></trkpt><trkpt lat="43.500744945236825" lon="11.981256260188434"><ele>723.5999999999999</ele><time>2026-05-03T08:54:23Z</time></trkpt><trkpt lat="43.50068746474837" lon="11.981185960966549"><ele>725.8</ele><time>2026-05-03T08:54:24Z</time></trkpt><trkpt lat="43.50061296773988" lon="11.981106989204829"><ele>728.0</ele><time>2026-05-03T08:54:25Z</time></trkpt><trkpt lat="43.500520637949556" lon="11.980996099321041"><ele>728.0</ele><time>2026-05-03T08:54:26Z</time></trkpt><trkpt lat="43.500444122266956" lon="11.980897499220735"><ele>728.0</ele><time>2026-05-03T08:54:27Z</time></trkpt><trkpt lat="43.50036040570506" lon="11.98081208419451"><ele>728.0</ele><time>2026-05-03T08:54:29Z</time></trkpt><trkpt lat="43.50027467095989" lon="11.980831920129091"><ele>728.0</ele><time>2026-05-03T08:54:30Z</time></trkpt><trkpt lat="43.50017841219323" lon="11.98088047026491"><ele>728.0</ele><time>2026-05-03T08:54:31Z</time></trkpt><trkpt lat="43.500056422905345" lon="11.98098306845395"><ele>722.2</ele><time>2026-05-03T08:54:32Z</time></trkpt><trkpt lat="43.49996925513794" lon="11.98106833132785"><ele>716.4</ele><time>2026-05-03T08:54:33Z</time></trkpt><trkpt lat="43.499872411644276" lon="11.981114582899705"><ele>710.6</ele><time>2026-05-03T08:54:34Z</time></trkpt><trkpt lat="43.49979923381304" lon="11.981143755478147"><ele>704.8000000000001</ele><time>2026-05-03T08:54:35Z</time></trkpt><trkpt lat="43.49968831627515" lon="11.981169793527291"><ele>699.0</ele><time>2026-05-03T08:54:37Z</time></trkpt><trkpt lat="43.49961699997118" lon="11.981159120573617"><ele>697.8333333333334</ele><time>2026-05-03T08:54:38Z</time></trkpt><trkpt lat="43.49954440840354" lon="11.981129909502988"><ele>696.6666666666666</ele><time>2026-05-03T08:54:39Z</time></trkpt><trkpt lat="43.49946475080983" lon="11.981095183730357"><ele>695.5</ele><time>2026-05-03T08:54:40Z</time></trkpt><trkpt lat="43.49938150110154" lon="11.981043396757434"><ele>694.3333333333333</ele><time>2026-05-03T08:54:41Z</time></trkpt><trkpt lat="43.49931691283951" lon="11.981015180622736"><ele>693.1666666666666</ele><time>2026-05-03T08:54:42Z</time></trkpt><trkpt lat="43.499259868369215" lon="11.980958587063814"><ele>692.0</ele><time>2026-05-03T08:54:43Z</time></trkpt><trkpt lat="43.49920487609715" lon="11.980901108999042"><ele>696.4000000000001</ele><time>2026-05-03T08:54:44Z</time></trkpt><trkpt lat="43.499155182769805" lon="11.98084316307946"><ele>700.8000000000001</ele><time>2026-05-03T08:54:45Z</time></trkpt><trkpt lat="43.49909560845493" lon="11.980708784789725"><ele>705.2</ele><time>2026-05-03T08:54:47Z</time></trkpt><trkpt lat="43.499084778564644" lon="11.980523280650829"><ele>709.6</ele><time>2026-05-03T08:54:49Z</time></trkpt><trkpt lat="43.4990687336211" lon="11.980408974872379"><ele>714.0</ele><time>2026-05-03T08:54:50Z</time></trkpt><trkpt lat="43.49905503678442" lon="11.980311488612113"><ele>714.0</ele><time>2026-05-03T08:54:51Z</time></trkpt><trkpt lat="43.499026592752436" lon="11.980214319712754"><ele>714.0</ele><time>2026-05-03T08:54:52Z</time></trkpt><trkpt lat="43.49898951651095" lon="11.980127902439813"><ele>714.0</ele><time>2026-05-03T08:54:53Z</time></trkpt><trkpt lat="43.49892017078465" lon="11.980168149850211"><ele>714.0</ele><time>2026-05-03T08:54:55Z</time></trkpt><trkpt lat="43.49886156525326" lon="11.980214761292993"><ele>714.0</ele><time>2026-05-03T08:54:56Z</time></trkpt><trkpt lat="43.49877265691873" lon="11.980291423970643"><ele>714.0</ele><time>2026-05-03T08:54:57Z</time></trkpt><trkpt lat="43.498689407439315" lon="11.98033826152362"><ele>711.0</ele><time>2026-05-03T08:54:58Z</time></trkpt><trkpt lat="43.4986125179695" lon="11.980353092351336"><ele>708.0</ele><time>2026-05-03T08:54:59Z</time></trkpt><trkpt lat="43.49851215979404" lon="11.980356111832213"><ele>705.0</ele><time>2026-05-03T08:55:00Z</time></trkpt><trkpt lat="43.49843133540963" lon="11.980359796464667"><ele>702.0</ele><time>2026-05-03T08:55:01Z</time></trkpt><trkpt lat="43.498359018148484" lon="11.980335040332026"><ele>699.0</ele><time>2026-05-03T08:55:02Z</time></trkpt><trkpt lat="43.498276033195744" lon="11.980275288759755"><ele>696.0</ele><time>2026-05-03T08:55:03Z</time></trkpt><trkpt lat="43.498194140703696" lon="11.980197854645136"><ele>696.0</ele><time>2026-05-03T08:55:04Z</time></trkpt><trkpt lat="43.49811581446983" lon="11.980106249523185"><ele>696.0</ele><time>2026-05-03T08:55:05Z</time></trkpt><trkpt lat="43.498058644214346" lon="11.979998943082169"><ele>696.0</ele><time>2026-05-03T08:55:06Z</time></trkpt><trkpt lat="43.498005451234114" lon="11.979913188253978"><ele>696.0</ele><time>2026-05-03T08:55:07Z</time></trkpt><trkpt lat="43.497952598599326" lon="11.979838768023376"><ele>696.0</ele><time>2026-05-03T08:55:08Z</time></trkpt><trkpt lat="43.4978602754824" lon="11.97979539483423"><ele>701.0</ele><time>2026-05-03T08:55:10Z</time></trkpt><trkpt lat="43.49779082478079" lon="11.97977558178916"><ele>706.0</ele><time>2026-05-03T08:55:12Z</time></trkpt><trkpt lat="43.49766929882762" lon="11.979715198951643"><ele>711.0</ele><time>2026-05-03T08:55:14Z</time></trkpt><trkpt lat="43.49759073709782" lon="11.979682974089934"><ele>716.0</ele><time>2026-05-03T08:55:15Z</time></trkpt><trkpt lat="43.49752323365613" lon="11.979591049842597"><ele>721.0</ele><time>2026-05-03T08:55:17Z</time></trkpt><trkpt lat="43.497466533990874" lon="11.97948885103576"><ele>721.0</ele><time>2026-05-03T08:55:18Z</time></trkpt><trkpt lat="43.49739811507069" lon="11.979374868271488"><ele>721.0</ele><time>2026-05-03T08:55:19Z</time></trkpt><trkpt lat="43.49732212521318" lon="11.979215227541003"><ele>721.0</ele><time>2026-05-03T08:55:20Z</time></trkpt><trkpt lat="43.4972443086072" lon="11.979123242380595"><ele>721.0</ele><time>2026-05-03T08:55:21Z</time></trkpt><trkpt lat="43.49715760452154" lon="11.979054396776991"><ele>721.0</ele><time>2026-05-03T08:55:22Z</time></trkpt><trkpt lat="43.49708966061979" lon="11.979005112783472"><ele>723.0</ele><time>2026-05-03T08:55:23Z</time></trkpt><trkpt lat="43.49700387238379" lon="11.978961187148192"><ele>725.0</ele><time>2026-05-03T08:55:25Z</time></trkpt><trkpt lat="43.496921474898244" lon="11.978933470904039"><ele>727.0</ele><time>2026-05-03T08:55:26Z</time></trkpt><trkpt lat="43.496830807026164" lon="11.978982048633812"><ele>729.0</ele><time>2026-05-03T08:55:29Z</time></trkpt><trkpt lat="43.49674218085616" lon="11.979199908978888"><ele>729.0</ele><time>2026-05-03T08:59:43Z</time></trkpt><trkpt lat="43.49674284445912" lon="11.97929210293684"><ele>729.0</ele><time>2026-05-03T08:59:44Z</time></trkpt><trkpt lat="43.49674758272593" lon="11.979443774024354"><ele>729.0</ele><time>2026-05-03T08:59:46Z</time></trkpt><trkpt lat="43.49676911430234" lon="11.979532987132524"><ele>729.0</ele><time>2026-05-03T08:59:47Z</time></trkpt><trkpt lat="43.496793983019636" lon="11.979614093915842"><ele>729.0</ele><time>2026-05-03T08:59:48Z</time></trkpt><trkpt lat="43.49681502813525" lon="11.979784068040367"><ele>729.0</ele><time>2026-05-03T08:59:50Z</time></trkpt><trkpt lat="43.49680795421195" lon="11.979891007521436"><ele>729.0</ele><time>2026-05-03T08:59:51Z</time></trkpt><trkpt lat="43.49679069569169" lon="11.97999868703764"><ele>729.0</ele><time>2026-05-03T08:59:52Z</time></trkpt><trkpt lat="43.49678314058452" lon="11.980093967440252"><ele>729.0</ele><time>2026-05-03T08:59:53Z</time></trkpt><trkpt lat="43.49678034257312" lon="11.98019453547799"><ele>729.0</ele><time>2026-05-03T08:59:54Z</time></trkpt><trkpt lat="43.496769252212374" lon="11.980299496999729"><ele>729.0</ele><time>2026-05-03T08:59:55Z</time></trkpt><trkpt lat="43.49673973347922" lon="11.980422055182014"><ele>729.0</ele><time>2026-05-03T08:59:56Z</time></trkpt><trkpt lat="43.49670149912052" lon="11.980542031267909"><ele>729.3333333333334</ele><time>2026-05-03T08:59:57Z</time></trkpt><trkpt lat="43.49666254959243" lon="11.98064916387382"><ele>729.6666666666666</ele><time>2026-05-03T08:59:58Z</time></trkpt><trkpt lat="43.496636145852484" lon="11.98074066267573"><ele>730.0</ele><time>2026-05-03T08:59:59Z</time></trkpt><trkpt lat="43.49663243171599" lon="11.980830711509258"><ele>730.3333333333333</ele><time>2026-05-03T09:00:00Z</time></trkpt><trkpt lat="43.496661395975366" lon="11.980912059418133"><ele>730.6666666666666</ele><time>2026-05-03T09:00:01Z</time></trkpt><trkpt lat="43.49670209899343" lon="11.980997230670704"><ele>731.0</ele><time>2026-05-03T09:00:02Z</time></trkpt><trkpt lat="43.49674479748866" lon="11.981109528068352"><ele>732.6666666666666</ele><time>2026-05-03T09:00:03Z</time></trkpt><trkpt lat="43.49679236705669" lon="11.981189455535576"><ele>734.3333333333333</ele><time>2026-05-03T09:00:04Z</time></trkpt><trkpt lat="43.4968503331843" lon="11.981290696509065"><ele>736.0</ele><time>2026-05-03T09:00:05Z</time></trkpt><trkpt lat="43.496883260180745" lon="11.981367278157547"><ele>737.6666666666666</ele><time>2026-05-03T09:00:06Z</time></trkpt><trkpt lat="43.496907585814924" lon="11.981453738178635"><ele>739.3333333333334</ele><time>2026-05-03T09:00:09Z</time></trkpt><trkpt lat="43.496933179980985" lon="11.981549981400477"><ele>741.0</ele><time>2026-05-03T09:00:14Z</time></trkpt><trkpt lat="43.496828906813754" lon="11.981474416692782"><ele>741.0</ele><time>2026-05-03T09:00:17Z</time></trkpt><trkpt lat="43.49677574129051" lon="11.981419531268097"><ele>741.0</ele><time>2026-05-03T09:00:18Z</time></trkpt><trkpt lat="43.49667124000049" lon="11.981413318099321"><ele>741.0</ele><time>2026-05-03T09:00:20Z</time></trkpt><trkpt lat="43.49655880932468" lon="11.981373771650585"><ele>741.0</ele><time>2026-05-03T09:00:22Z</time></trkpt><trkpt lat="43.4964222998054" lon="11.981326312027832"><ele>741.0</ele><time>2026-05-03T09:00:24Z</time></trkpt><trkpt lat="43.49633840192513" lon="11.98131712402844"><ele>741.0</ele><time>2026-05-03T09:00:25Z</time></trkpt><trkpt lat="43.49626171811691" lon="11.981287291731473"><ele>741.0</ele><time>2026-05-03T09:00:26Z</time></trkpt><trkpt lat="43.49616753217483" lon="11.981254872965375"><ele>741.0</ele><time>2026-05-03T09:00:27Z</time></trkpt><trkpt lat="43.496086216955526" lon="11.981241470882312"><ele>741.0</ele><time>2026-05-03T09:00:28Z</time></trkpt><trkpt lat="43.4960115078541" lon="11.981241961484287"><ele>741.0</ele><time>2026-05-03T09:00:29Z</time></trkpt><trkpt lat="43.49593736766125" lon="11.9812622124749"><ele>741.0</ele><time>2026-05-03T09:00:30Z</time></trkpt><trkpt lat="43.49587065438014" lon="11.98129624823005"><ele>742.8333333333334</ele><time>2026-05-03T09:00:31Z</time></trkpt><trkpt lat="43.495808653772514" lon="11.981347441597501"><ele>744.6666666666666</ele><time>2026-05-03T09:00:32Z</time></trkpt><trkpt lat="43.49573424583064" lon="11.981397696256986"><ele>746.5</ele><time>2026-05-03T09:00:33Z</time></trkpt><trkpt lat="43.49567487848059" lon="11.981438834576979"><ele>748.3333333333333</ele><time>2026-05-03T09:00:34Z</time></trkpt><trkpt lat="43.495609688163576" lon="11.98150451521861"><ele>750.1666666666666</ele><time>2026-05-03T09:00:35Z</time></trkpt><trkpt lat="43.49551651021695" lon="11.981609795065495"><ele>752.0</ele><time>2026-05-03T09:00:37Z</time></trkpt><trkpt lat="43.49546570734844" lon="11.981694411287268"><ele>752.8333333333333</ele><time>2026-05-03T09:00:38Z</time></trkpt><trkpt lat="43.49542158111616" lon="11.981776825172568"><ele>753.6666666666666</ele><time>2026-05-03T09:00:39Z</time></trkpt><trkpt lat="43.49537591164428" lon="11.981856619599183"><ele>754.5</ele><time>2026-05-03T09:00:40Z</time></trkpt><trkpt lat="43.495346716337444" lon="11.981954750842092"><ele>755.3333333333334</ele><time>2026-05-03T09:00:41Z</time></trkpt><trkpt lat="43.49533572390853" lon="11.982058318692351"><ele>756.1666666666667</ele><time>2026-05-03T09:00:42Z</time></trkpt><trkpt lat="43.49533586794782" lon="11.98216589711947"><ele>757.0</ele><time>2026-05-03T09:00:43Z</time></trkpt><trkpt lat="43.495349260199575" lon="11.982266144450977"><ele>757.0</ele><time>2026-05-03T09:00:44Z</time></trkpt><trkpt lat="43.495381538895586" lon="11.982371375041092"><ele>757.0</ele><time>2026-05-03T09:00:45Z</time></trkpt><trkpt lat="43.49540908766281" lon="11.982475225753149"><ele>757.0</ele><time>2026-05-03T09:00:46Z</time></trkpt><trkpt lat="43.495424674209474" lon="11.982641627489691"><ele>757.0</ele><time>2026-05-03T09:00:48Z</time></trkpt><trkpt lat="43.49541801821143" lon="11.982734094140888"><ele>757.0</ele><time>2026-05-03T09:00:49Z</time></trkpt><trkpt lat="43.49540083805341" lon="11.982824187751072"><ele>757.0</ele><time>2026-05-03T09:00:50Z</time></trkpt><trkpt lat="43.495394201863476" lon="11.982928838887258"><ele>759.0</ele><time>2026-05-03T09:00:51Z</time></trkpt><trkpt lat="43.495392915835026" lon="11.983045183122245"><ele>761.0</ele><time>2026-05-03T09:00:52Z</time></trkpt><trkpt lat="43.49539668923801" lon="11.983169360615822"><ele>763.0</ele><time>2026-05-03T09:00:53Z</time></trkpt><trkpt lat="43.495398892455704" lon="11.98327415518785"><ele>765.0</ele><time>2026-05-03T09:00:54Z</time></trkpt><trkpt lat="43.49540693848419" lon="11.983364730577035"><ele>766.9999999999999</ele><time>2026-05-03T09:00:55Z</time></trkpt><trkpt lat="43.495427488256155" lon="11.983456651956724"><ele>769.0</ele><time>2026-05-03T09:00:56Z</time></trkpt><trkpt lat="43.49544669447784" lon="11.983552532337423"><ele>770.8000000000001</ele><time>2026-05-03T09:00:57Z</time></trkpt><trkpt lat="43.49541036149311" lon="11.983677007995317"><ele>772.6</ele><time>2026-05-03T09:00:59Z</time></trkpt><trkpt lat="43.49535107641925" lon="11.9837874553598"><ele>774.4</ele><time>2026-05-03T09:01:00Z</time></trkpt><trkpt lat="43.49528441183436" lon="11.983886454677306"><ele>776.2</ele><time>2026-05-03T09:01:01Z</time></trkpt><trkpt lat="43.495204315701386" lon="11.983996484489026"><ele>778.0</ele><time>2026-05-03T09:01:02Z</time></trkpt><trkpt lat="43.49512991508728" lon="11.98410372418432"><ele>778.8</ele><time>2026-05-03T09:01:03Z</time></trkpt><trkpt lat="43.49504753726538" lon="11.9842161084709"><ele>779.5999999999999</ele><time>2026-05-03T09:01:04Z</time></trkpt><trkpt lat="43.494963652186584" lon="11.98432113504382"><ele>780.4000000000001</ele><time>2026-05-03T09:01:05Z</time></trkpt><trkpt lat="43.494892253490946" lon="11.984412341251478"><ele>781.2</ele><time>2026-05-03T09:01:06Z</time></trkpt><trkpt lat="43.49483021872075" lon="11.98448752171949"><ele>782.0</ele><time>2026-05-03T09:01:07Z</time></trkpt><trkpt lat="43.49477344633876" lon="11.984585963568842"><ele>782.0000000000001</ele><time>2026-05-03T09:01:08Z</time></trkpt><trkpt lat="43.49471869157483" lon="11.984688560724647"><ele>782.0</ele><time>2026-05-03T09:01:09Z</time></trkpt><trkpt lat="43.49469365340598" lon="11.984778475642896"><ele>782.0</ele><time>2026-05-03T09:01:10Z</time></trkpt><trkpt lat="43.49468940578789" lon="11.984869483457562"><ele>782.0</ele><time>2026-05-03T09:01:11Z</time></trkpt><trkpt lat="43.49465428392451" lon="11.98497990714628"><ele>782.0000000000001</ele><time>2026-05-03T09:01:12Z</time></trkpt><trkpt lat="43.49462796403481" lon="11.985083712411106"><ele>782.0</ele><time>2026-05-03T09:01:13Z</time></trkpt><trkpt lat="43.49462634300082" lon="11.985269678312648"><ele>783.6</ele><time>2026-05-03T09:01:15Z</time></trkpt><trkpt lat="43.494621164291615" lon="11.985357830851221"><ele>785.2</ele><time>2026-05-03T09:01:16Z</time></trkpt><trkpt lat="43.49458601052914" lon="11.985535376381712"><ele>786.8</ele><time>2026-05-03T09:01:18Z</time></trkpt><trkpt lat="43.4945267850881" lon="11.985673406844732"><ele>788.4</ele><time>2026-05-03T09:01:20Z</time></trkpt><trkpt lat="43.4944718171284" lon="11.985832119097235"><ele>790.0</ele><time>2026-05-03T09:01:22Z</time></trkpt><trkpt lat="43.49446834005668" lon="11.985925383618833"><ele>794.8333333333333</ele><time>2026-05-03T09:01:23Z</time></trkpt><trkpt lat="43.494469286929004" lon="11.986035480478867"><ele>799.6666666666666</ele><time>2026-05-03T09:01:24Z</time></trkpt><trkpt lat="43.49446961778981" lon="11.986137661579829"><ele>804.5</ele><time>2026-05-03T09:01:25Z</time></trkpt><trkpt lat="43.494470365718236" lon="11.986240858793334"><ele>809.3333333333333</ele><time>2026-05-03T09:01:26Z</time></trkpt><trkpt lat="43.494459668127526" lon="11.986340233093458"><ele>814.1666666666666</ele><time>2026-05-03T09:01:27Z</time></trkpt><trkpt lat="43.494463309781146" lon="11.986431998638974"><ele>819.0</ele><time>2026-05-03T09:01:28Z</time></trkpt><trkpt lat="43.49442881819229" lon="11.986641283051906"><ele>818.2</ele><time>2026-05-03T09:01:30Z</time></trkpt><trkpt lat="43.49440761361525" lon="11.986758509551624"><ele>817.4000000000001</ele><time>2026-05-03T09:01:31Z</time></trkpt><trkpt lat="43.49437755207223" lon="11.986891925740764"><ele>816.6</ele><time>2026-05-03T09:01:32Z</time></trkpt><trkpt lat="43.49434796395497" lon="11.987018721804159"><ele>815.8</ele><time>2026-05-03T09:01:33Z</time></trkpt><trkpt lat="43.49431488730379" lon="11.98715984038492"><ele>815.0</ele><time>2026-05-03T09:01:34Z</time></trkpt><trkpt lat="43.4942786535079" lon="11.987257554713105"><ele>815.0</ele><time>2026-05-03T09:01:35Z</time></trkpt><trkpt lat="43.49424155068448" lon="11.987330964849672"><ele>815.0</ele><time>2026-05-03T09:01:36Z</time></trkpt><trkpt lat="43.4941343651947" lon="11.987370645911422"><ele>815.0</ele><time>2026-05-03T09:01:38Z</time></trkpt><trkpt lat="43.49404682472804" lon="11.987396950831544"><ele>815.0</ele><time>2026-05-03T09:01:39Z</time></trkpt><trkpt lat="43.49394775677699" lon="11.987424790899965"><ele>815.0</ele><time>2026-05-03T09:01:40Z</time></trkpt><trkpt lat="43.49383777903917" lon="11.987461073994378"><ele>815.0</ele><time>2026-05-03T09:01:41Z</time></trkpt><trkpt lat="43.4937576218709" lon="11.987472026603697"><ele>815.0</ele><time>2026-05-03T09:01:42Z</time></trkpt><trkpt lat="43.493637406994786" lon="11.98749170817407"><ele>815.0</ele><time>2026-05-03T09:01:43Z</time></trkpt><trkpt lat="43.49348670943078" lon="11.987547111924545"><ele>815.0</ele><time>2026-05-03T09:01:44Z</time></trkpt><trkpt lat="43.49337262228108" lon="11.987609495983483"><ele>816.4</ele><time>2026-05-03T09:01:45Z</time></trkpt><trkpt lat="43.49328486214453" lon="11.987643738442696"><ele>817.8</ele><time>2026-05-03T09:01:46Z</time></trkpt><trkpt lat="43.493143755970635" lon="11.987671285855395"><ele>819.2</ele><time>2026-05-03T09:01:48Z</time></trkpt><trkpt lat="43.493057275713994" lon="11.987656554883682"><ele>820.6</ele><time>2026-05-03T09:01:49Z</time></trkpt><trkpt lat="43.49297014239784" lon="11.987634035416137"><ele>822.0</ele><time>2026-05-03T09:01:50Z</time></trkpt><trkpt lat="43.49284954156881" lon="11.987633171132028"><ele>822.0</ele><time>2026-05-03T09:01:51Z</time></trkpt><trkpt lat="43.49275551381016" lon="11.987648083632264"><ele>822.0</ele><time>2026-05-03T09:01:52Z</time></trkpt><trkpt lat="43.492682554480325" lon="11.987673400069992"><ele>822.0</ele><time>2026-05-03T09:01:53Z</time></trkpt><trkpt lat="43.49260801263316" lon="11.987720520202307"><ele>822.0</ele><time>2026-05-03T09:01:54Z</time></trkpt><trkpt lat="43.4925448507716" lon="11.987780669472247"><ele>822.0</ele><time>2026-05-03T09:01:55Z</time></trkpt><trkpt lat="43.49251651711689" lon="11.987899117466942"><ele>822.0</ele><time>2026-05-03T09:01:57Z</time></trkpt><trkpt lat="43.49251269209496" lon="11.988022703255995"><ele>822.0</ele><time>2026-05-03T09:01:58Z</time></trkpt><trkpt lat="43.49250178264315" lon="11.988158360599027"><ele>822.0</ele><time>2026-05-03T09:01:59Z</time></trkpt><trkpt lat="43.492467197319705" lon="11.988280076273078"><ele>822.0</ele><time>2026-05-03T09:02:00Z</time></trkpt><trkpt lat="43.49243901945745" lon="11.988413553379397"><ele>822.0</ele><time>2026-05-03T09:02:01Z</time></trkpt><trkpt lat="43.492408742784086" lon="11.988530179691644"><ele>822.0</ele><time>2026-05-03T09:02:02Z</time></trkpt><trkpt lat="43.4923675572923" lon="11.988661019374252"><ele>821.5</ele><time>2026-05-03T09:02:03Z</time></trkpt><trkpt lat="43.492314700005366" lon="11.988786462304759"><ele>821.0</ele><time>2026-05-03T09:02:04Z</time></trkpt><trkpt lat="43.492255307897665" lon="11.988918972388403"><ele>820.5</ele><time>2026-05-03T09:02:05Z</time></trkpt><trkpt lat="43.49219466481397" lon="11.988996037874438"><ele>820.0</ele><time>2026-05-03T09:02:07Z</time></trkpt><trkpt lat="43.49206512745873" lon="11.989104501230877"><ele>821.9999999999999</ele><time>2026-05-03T09:02:09Z</time></trkpt><trkpt lat="43.49195307324305" lon="11.989190658268042"><ele>824.0</ele><time>2026-05-03T09:02:10Z</time></trkpt><trkpt lat="43.491866589484076" lon="11.989248042904151"><ele>826.0</ele><time>2026-05-03T09:02:11Z</time></trkpt><trkpt lat="43.491806809193925" lon="11.989316358766676"><ele>828.0</ele><time>2026-05-03T09:02:12Z</time></trkpt><trkpt lat="43.49175327472771" lon="11.98937968760499"><ele>829.9999999999999</ele><time>2026-05-03T09:02:13Z</time></trkpt><trkpt lat="43.49169611725091" lon="11.98942304397296"><ele>832.0</ele><time>2026-05-03T09:02:22Z</time></trkpt><trkpt lat="43.4916515676894" lon="11.989541996968864"><ele>831.9999999999999</ele><time>2026-05-03T09:02:24Z</time></trkpt><trkpt lat="43.49167888018043" lon="11.989684665333241"><ele>832.0</ele><time>2026-05-03T09:02:26Z</time></trkpt><trkpt lat="43.49172106009293" lon="11.989802409108513"><ele>832.0</ele><time>2026-05-03T09:02:27Z</time></trkpt><trkpt lat="43.491748418039265" lon="11.989905131122073"><ele>832.0</ele><time>2026-05-03T09:02:28Z</time></trkpt><trkpt lat="43.491755095308974" lon="11.990008671779078"><ele>831.9999999999999</ele><time>2026-05-03T09:02:29Z</time></trkpt><trkpt lat="43.491752519874765" lon="11.99009890451632"><ele>832.0</ele><time>2026-05-03T09:02:30Z</time></trkpt><trkpt lat="43.49172361706506" lon="11.990238469576031"><ele>831.0</ele><time>2026-05-03T09:02:32Z</time></trkpt><trkpt lat="43.4916815222269" lon="11.990310571551607"><ele>830.0</ele><time>2026-05-03T09:02:33Z</time></trkpt><trkpt lat="43.49161603997392" lon="11.990370193315274"><ele>829.0</ele><time>2026-05-03T09:02:34Z</time></trkpt><trkpt lat="43.491534038769565" lon="11.99042848196667"><ele>828.0</ele><time>2026-05-03T09:02:35Z</time></trkpt><trkpt lat="43.49143200776847" lon="11.990502631704455"><ele>827.0</ele><time>2026-05-03T09:02:36Z</time></trkpt><trkpt lat="43.49132656120534" lon="11.990576934770356"><ele>827.6</ele><time>2026-05-03T09:02:37Z</time></trkpt><trkpt lat="43.491217951810164" lon="11.990640592406045"><ele>828.2</ele><time>2026-05-03T09:02:38Z</time></trkpt><trkpt lat="43.49111456585438" lon="11.990712682920128"><ele>828.8</ele><time>2026-05-03T09:02:39Z</time></trkpt><trkpt lat="43.491045191211875" lon="11.990798585035739"><ele>829.4</ele><time>2026-05-03T09:02:40Z</time></trkpt><trkpt lat="43.49096708837545" lon="11.990897614238506"><ele>830.0</ele><time>2026-05-03T09:02:41Z</time></trkpt><trkpt lat="43.49092056526588" lon="11.990989980800528"><ele>828.4</ele><time>2026-05-03T09:02:42Z</time></trkpt><trkpt lat="43.490841848806326" lon="11.991102419422553"><ele>826.8</ele><time>2026-05-03T09:02:44Z</time></trkpt><trkpt lat="43.49078279509928" lon="11.991145884804364"><ele>825.2</ele><time>2026-05-03T09:02:45Z</time></trkpt><trkpt lat="43.49070710997782" lon="11.991190014042676"><ele>823.6</ele><time>2026-05-03T09:02:46Z</time></trkpt><trkpt lat="43.49057488855154" lon="11.991309802718206"><ele>822.0</ele><time>2026-05-03T09:02:48Z</time></trkpt><trkpt lat="43.49048571168542" lon="11.991346277804617"><ele>825.8</ele><time>2026-05-03T09:02:49Z</time></trkpt><trkpt lat="43.490417793637235" lon="11.991375797332967"><ele>829.6</ele><time>2026-05-03T09:02:50Z</time></trkpt><trkpt lat="43.490336008660435" lon="11.991383499002966"><ele>833.4</ele><time>2026-05-03T09:02:51Z</time></trkpt><trkpt lat="43.490254380972786" lon="11.991371573239718"><ele>837.1999999999999</ele><time>2026-05-03T09:02:52Z</time></trkpt><trkpt lat="43.49015169693291" lon="11.991377277641147"><ele>841.0</ele><time>2026-05-03T09:02:54Z</time></trkpt><trkpt lat="43.49002792655955" lon="11.991400456512196"><ele>840.9999999999999</ele><time>2026-05-03T09:02:56Z</time></trkpt><trkpt lat="43.48988095240821" lon="11.991423416135037"><ele>841.0</ele><time>2026-05-03T09:02:58Z</time></trkpt><trkpt lat="43.48979840936924" lon="11.991445860706168"><ele>841.0</ele><time>2026-05-03T09:02:59Z</time></trkpt><trkpt lat="43.489734599686834" lon="11.991470569681736"><ele>841.0</ele><time>2026-05-03T09:03:00Z</time></trkpt><trkpt lat="43.48966820028339" lon="11.991488044308502"><ele>840.9999999999999</ele><time>2026-05-03T09:03:01Z</time></trkpt><trkpt lat="43.489606279830184" lon="11.991512315860561"><ele>841.0</ele><time>2026-05-03T09:03:02Z</time></trkpt><trkpt lat="43.48954297232742" lon="11.991536619654944"><ele>844.1999999999999</ele><time>2026-05-03T09:03:03Z</time></trkpt><trkpt lat="43.48943098888858" lon="11.99158943583124"><ele>847.4</ele><time>2026-05-03T09:03:05Z</time></trkpt><trkpt lat="43.489352954073084" lon="11.991621427052415"><ele>850.6</ele><time>2026-05-03T09:03:06Z</time></trkpt><trkpt lat="43.4892727082042" lon="11.991642165168008"><ele>853.8</ele><time>2026-05-03T09:03:07Z</time></trkpt><trkpt lat="43.48915061694875" lon="11.991596892015867"><ele>857.0</ele><time>2026-05-03T09:03:09Z</time></trkpt><trkpt lat="43.489094108838245" lon="11.991546263173603"><ele>857.0</ele><time>2026-05-03T09:03:10Z</time></trkpt><trkpt lat="43.488981698469985" lon="11.991466557382699"><ele>857.0</ele><time>2026-05-03T09:03:12Z</time></trkpt><trkpt lat="43.488880532804714" lon="11.991355779982822"><ele>857.0</ele><time>2026-05-03T09:03:14Z</time></trkpt><trkpt lat="43.48882403854609" lon="11.991285048930681"><ele>857.0</ele><time>2026-05-03T09:03:15Z</time></trkpt><trkpt lat="43.488773553757916" lon="11.99121887850011"><ele>857.0</ele><time>2026-05-03T09:03:16Z</time></trkpt><trkpt lat="43.48867469984717" lon="11.991122817900218"><ele>856.0</ele><time>2026-05-03T09:03:18Z</time></trkpt><trkpt lat="43.4886164409229" lon="11.991046951446554"><ele>855.0</ele><time>2026-05-03T09:03:19Z</time></trkpt><trkpt lat="43.488553655328204" lon="11.990980443313363"><ele>854.0</ele><time>2026-05-03T09:03:20Z</time></trkpt><trkpt lat="43.48845369301544" lon="11.990920473882875"><ele>853.0</ele><time>2026-05-03T09:03:21Z</time></trkpt><trkpt lat="43.48836273823986" lon="11.990867349084406"><ele>852.0</ele><time>2026-05-03T09:03:22Z</time></trkpt><trkpt lat="43.488280186752945" lon="11.990739400744358"><ele>852.0</ele><time>2026-05-03T09:03:24Z</time></trkpt><trkpt lat="43.48824345189547" lon="11.990636140607018"><ele>852.0</ele><time>2026-05-03T09:03:25Z</time></trkpt><trkpt lat="43.48820165529028" lon="11.990541619202672"><ele>852.0</ele><time>2026-05-03T09:03:26Z</time></trkpt><trkpt lat="43.48815520379719" lon="11.990453350578912"><ele>852.0</ele><time>2026-05-03T09:03:27Z</time></trkpt><trkpt lat="43.488095936460404" lon="11.990380852685607"><ele>852.0</ele><time>2026-05-03T09:03:28Z</time></trkpt><trkpt lat="43.48803115923645" lon="11.990320247412143"><ele>852.0</ele><time>2026-05-03T09:03:29Z</time></trkpt><trkpt lat="43.4879500331711" lon="11.990261207918717"><ele>850.8</ele><time>2026-05-03T09:03:30Z</time></trkpt><trkpt lat="43.487867290093774" lon="11.990197823404111"><ele>849.6</ele><time>2026-05-03T09:03:31Z</time></trkpt><trkpt lat="43.48778639991907" lon="11.990125960427324"><ele>848.4</ele><time>2026-05-03T09:03:32Z</time></trkpt><trkpt lat="43.48770570995512" lon="11.99005624273296"><ele>847.1999999999999</ele><time>2026-05-03T09:03:33Z</time></trkpt><trkpt lat="43.487612711331884" lon="11.990001541880561"><ele>846.0</ele><time>2026-05-03T09:03:34Z</time></trkpt><trkpt lat="43.487512080711376" lon="11.989925567555549"><ele>846.0</ele><time>2026-05-03T09:03:35Z</time></trkpt><trkpt lat="43.4874190685483" lon="11.989832123474368"><ele>846.0</ele><time>2026-05-03T09:03:36Z</time></trkpt><trkpt lat="43.48734209234725" lon="11.989733794652352"><ele>846.0</ele><time>2026-05-03T09:03:37Z</time></trkpt><trkpt lat="43.48727278582751" lon="11.98964678449576"><ele>846.0</ele><time>2026-05-03T09:03:38Z</time></trkpt><trkpt lat="43.48721455688841" lon="11.989580583163502"><ele>846.0</ele><time>2026-05-03T09:03:39Z</time></trkpt><trkpt lat="43.487131572057955" lon="11.98952010647063"><ele>843.5999999999999</ele><time>2026-05-03T09:03:41Z</time></trkpt><trkpt lat="43.48699243954323" lon="11.98942015739876"><ele>841.2</ele><time>2026-05-03T09:03:43Z</time></trkpt><trkpt lat="43.486917565634116" lon="11.98936022093548"><ele>838.8</ele><time>2026-05-03T09:03:44Z</time></trkpt><trkpt lat="43.486855479431625" lon="11.989314579697123"><ele>836.4000000000001</ele><time>2026-05-03T09:03:45Z</time></trkpt><trkpt lat="43.48676233691943" lon="11.989257732197597"><ele>834.0</ele><time>2026-05-03T09:03:47Z</time></trkpt><trkpt lat="43.48669324150417" lon="11.98930672325748"><ele>834.0</ele><time>2026-05-03T09:03:52Z</time></trkpt><trkpt lat="43.48661622424621" lon="11.989322409215562"><ele>834.0</ele><time>2026-05-03T09:03:55Z</time></trkpt><trkpt lat="43.4865265589329" lon="11.989333851647432"><ele>834.0</ele><time>2026-05-03T09:03:57Z</time></trkpt><trkpt lat="43.48646012827111" lon="11.989353653627285"><ele>834.0</ele><time>2026-05-03T09:03:59Z</time></trkpt><trkpt lat="43.48639460860159" lon="11.989370215034779"><ele>834.0</ele><time>2026-05-03T09:04:01Z</time></trkpt><trkpt lat="43.486317060348476" lon="11.989377690264716"><ele>834.0</ele><time>2026-05-03T09:04:03Z</time></trkpt><trkpt lat="43.48625433055634" lon="11.989395784298496"><ele>834.0</ele><time>2026-05-03T09:04:06Z</time></trkpt><trkpt lat="43.486152730387964" lon="11.989410165256977"><ele>831.2</ele><time>2026-05-03T09:04:10Z</time></trkpt><trkpt lat="43.48605545032474" lon="11.989404124937256"><ele>828.4000000000001</ele><time>2026-05-03T09:04:12Z</time></trkpt><trkpt lat="43.48593199055836" lon="11.989381858982295"><ele>825.6</ele><time>2026-05-03T09:04:14Z</time></trkpt><trkpt lat="43.48586486627475" lon="11.98937939326414"><ele>822.8</ele><time>2026-05-03T09:04:15Z</time></trkpt><trkpt lat="43.48576168123056" lon="11.98939270346541"><ele>820.0</ele><time>2026-05-03T09:04:17Z</time></trkpt><trkpt lat="43.48571152978918" lon="11.9894890127013"><ele>822.0</ele><time>2026-05-03T09:04:20Z</time></trkpt><trkpt lat="43.48524784371033" lon="11.989723568613835"><ele>822.0</ele><time>2026-05-03T09:04:24Z</time></trkpt><trkpt lat="43.48521555040387" lon="11.989801692389376"><ele>822.0</ele><time>2026-05-03T09:04:28Z</time></trkpt><trkpt lat="43.48536865051858" lon="11.989718254095797"><ele>822.0</ele><time>2026-05-03T09:11:12Z</time></trkpt><trkpt lat="43.48546920126821" lon="11.989664860734488"><ele>822.0</ele><time>2026-05-03T09:11:14Z</time></trkpt><trkpt lat="43.48553989104746" lon="11.989655911264878"><ele>822.0</ele><time>2026-05-03T09:11:17Z</time></trkpt><trkpt lat="43.485643550381916" lon="11.989650494396182"><ele>821.6666666666666</ele><time>2026-05-03T09:11:20Z</time></trkpt><trkpt lat="43.48573280482842" lon="11.989644701404075"><ele>821.3333333333333</ele><time>2026-05-03T09:11:22Z</time></trkpt><trkpt lat="43.485808273368775" lon="11.989672607259488"><ele>821.0</ele><time>2026-05-03T09:11:24Z</time></trkpt><trkpt lat="43.48591146670578" lon="11.989695618694842"><ele>820.6666666666666</ele><time>2026-05-03T09:11:27Z</time></trkpt><trkpt lat="43.48598413798175" lon="11.98975135248269"><ele>820.3333333333333</ele><time>2026-05-03T09:11:29Z</time></trkpt><trkpt lat="43.485996620090546" lon="11.98983726452496"><ele>820.0</ele><time>2026-05-03T09:11:30Z</time></trkpt><trkpt lat="43.48604361201727" lon="11.989933794138489"><ele>821.0</ele><time>2026-05-03T09:11:31Z</time></trkpt><trkpt lat="43.48607961772634" lon="11.990012649927852"><ele>822.0</ele><time>2026-05-03T09:11:32Z</time></trkpt><trkpt lat="43.486187004966666" lon="11.990078708290243"><ele>823.0</ele><time>2026-05-03T09:11:34Z</time></trkpt><trkpt lat="43.48629339740209" lon="11.990099574460901"><ele>824.0</ele><time>2026-05-03T09:11:36Z</time></trkpt><trkpt lat="43.486400782511545" lon="11.990103835147655"><ele>825.0</ele><time>2026-05-03T09:11:38Z</time></trkpt><trkpt lat="43.48648845913847" lon="11.990200613014032"><ele>825.0</ele><time>2026-05-03T09:11:40Z</time></trkpt><trkpt lat="43.48651875462798" lon="11.990355984985225"><ele>825.0</ele><time>2026-05-03T09:11:42Z</time></trkpt><trkpt lat="43.48651282014857" lon="11.990462692871251"><ele>825.0</ele><time>2026-05-03T09:11:43Z</time></trkpt><trkpt lat="43.486503437502584" lon="11.990575982405947"><ele>825.0</ele><time>2026-05-03T09:11:44Z</time></trkpt><trkpt lat="43.486487241933666" lon="11.990682361271196"><ele>825.0</ele><time>2026-05-03T09:11:45Z</time></trkpt><trkpt lat="43.48647652621365" lon="11.99077612043963"><ele>825.0</ele><time>2026-05-03T09:11:46Z</time></trkpt><trkpt lat="43.486462754350924" lon="11.99093076370624"><ele>823.5</ele><time>2026-05-03T09:11:48Z</time></trkpt><trkpt lat="43.48645288246917" lon="11.991023642867217"><ele>822.0</ele><time>2026-05-03T09:11:49Z</time></trkpt><trkpt lat="43.48645814262867" lon="11.991118306202514"><ele>820.5</ele><time>2026-05-03T09:11:50Z</time></trkpt><trkpt lat="43.486467784321846" lon="11.991241140278117"><ele>819.0</ele><time>2026-05-03T09:11:51Z</time></trkpt><trkpt lat="43.486492228415976" lon="11.991361809342042"><ele>817.5</ele><time>2026-05-03T09:11:52Z</time></trkpt><trkpt lat="43.48649880966479" lon="11.991467342487251"><ele>816.0</ele><time>2026-05-03T09:11:53Z</time></trkpt><trkpt lat="43.48650938582472" lon="11.991558548156696"><ele>816.0</ele><time>2026-05-03T09:11:54Z</time></trkpt><trkpt lat="43.48654165256857" lon="11.991642275905985"><ele>816.0</ele><time>2026-05-03T09:11:55Z</time></trkpt><trkpt lat="43.486619129915326" lon="11.99169761090182"><ele>816.0</ele><time>2026-05-03T09:11:57Z</time></trkpt><trkpt lat="43.48669162684519" lon="11.99173569288008"><ele>816.0</ele><time>2026-05-03T09:11:59Z</time></trkpt><trkpt lat="43.486766606976616" lon="11.99174408411535"><ele>816.0</ele><time>2026-05-03T09:12:02Z</time></trkpt><trkpt lat="43.486833120881215" lon="11.9917345172659"><ele>816.0</ele><time>2026-05-03T09:12:06Z</time></trkpt><trkpt lat="43.486899349327736" lon="11.99170568538157"><ele>816.0</ele><time>2026-05-03T09:12:07Z</time></trkpt><trkpt lat="43.48695465191017" lon="11.991661012347588"><ele>816.0</ele><time>2026-05-03T09:12:09Z</time></trkpt><trkpt lat="43.487017783606404" lon="11.99163700311279"><ele>816.0</ele><time>2026-05-03T09:12:11Z</time></trkpt><trkpt lat="43.48706805439248" lon="11.991736058388652"><ele>816.0</ele><time>2026-05-03T09:12:14Z</time></trkpt><trkpt lat="43.48711880233009" lon="11.991853972251738"><ele>816.0</ele><time>2026-05-03T09:12:16Z</time></trkpt><trkpt lat="43.4871985579606" lon="11.991925377136777"><ele>816.0</ele><time>2026-05-03T09:12:18Z</time></trkpt><trkpt lat="43.4872516294749" lon="11.99208871960921"><ele>814.5</ele><time>2026-05-03T09:12:20Z</time></trkpt><trkpt lat="43.48729712981202" lon="11.992239187028488"><ele>813.0</ele><time>2026-05-03T09:12:21Z</time></trkpt><trkpt lat="43.487330475414076" lon="11.99235021714694"><ele>811.5</ele><time>2026-05-03T09:12:22Z</time></trkpt><trkpt lat="43.48737406469672" lon="11.992429795166187"><ele>810.0</ele><time>2026-05-03T09:12:23Z</time></trkpt><trkpt lat="43.48741163809295" lon="11.992516512730184"><ele>808.5</ele><time>2026-05-03T09:12:24Z</time></trkpt><trkpt lat="43.487438091137065" lon="11.992599533847505"><ele>807.0</ele><time>2026-05-03T09:12:25Z</time></trkpt><trkpt lat="43.48786622122173" lon="11.992831470475751"><ele>806.8571428571429</ele><time>2026-05-03T09:12:31Z</time></trkpt><trkpt lat="43.48792640395808" lon="11.992878684937827"><ele>806.7142857142858</ele><time>2026-05-03T09:12:32Z</time></trkpt><trkpt lat="43.48797000527176" lon="11.992942279115242"><ele>806.5714285714287</ele><time>2026-05-03T09:12:33Z</time></trkpt><trkpt lat="43.48799872244905" lon="11.993022255204522"><ele>806.4285714285714</ele><time>2026-05-03T09:12:34Z</time></trkpt><trkpt lat="43.488013308444835" lon="11.99310704476603"><ele>806.2857142857142</ele><time>2026-05-03T09:12:35Z</time></trkpt><trkpt lat="43.48804158328096" lon="11.993232395357014"><ele>806.1428571428572</ele><time>2026-05-03T09:12:35.999Z</time></trkpt><trkpt lat="43.48803904081554" lon="11.993336190346048"><ele>806.0</ele><time>2026-05-03T09:12:36.999Z</time></trkpt><trkpt lat="43.48807837515237" lon="11.993497669508146"><ele>800.8</ele><time>2026-05-03T09:12:38.999Z</time></trkpt><trkpt lat="43.488125964499055" lon="11.99360707243755"><ele>795.5999999999999</ele><time>2026-05-03T09:12:40.999Z</time></trkpt><trkpt lat="43.488156381806334" lon="11.993710577913058"><ele>790.4</ele><time>2026-05-03T09:12:42.999Z</time></trkpt><trkpt lat="43.488227069957965" lon="11.993799275939956"><ele>785.2</ele><time>2026-05-03T09:12:44.999Z</time></trkpt><trkpt lat="43.48833771953747" lon="11.993849157717728"><ele>780.0</ele><time>2026-05-03T09:12:46.999Z</time></trkpt><trkpt lat="43.48844675449004" lon="11.99387591569797"><ele>780.0</ele><time>2026-05-03T09:12:48.999Z</time></trkpt><trkpt lat="43.4884651545335" lon="11.9940179859378"><ele>780.0</ele><time>2026-05-03T09:12:52Z</time></trkpt><trkpt lat="43.48855078115062" lon="11.994036573260457"><ele>780.0</ele><time>2026-05-03T09:12:53Z</time></trkpt><trkpt lat="43.48856206106794" lon="11.994158258159604"><ele>780.0</ele><time>2026-05-03T09:12:55Z</time></trkpt><trkpt lat="43.488584911018435" lon="11.994249709767479"><ele>780.0</ele><time>2026-05-03T09:12:56Z</time></trkpt><trkpt lat="43.48869372020584" lon="11.994510038049134"><ele>780.6</ele><time>2026-05-03T09:12:57Z</time></trkpt><trkpt lat="43.488767049396984" lon="11.994652911611444"><ele>781.2</ele><time>2026-05-03T09:12:58Z</time></trkpt><trkpt lat="43.48882451759488" lon="11.994760543690228"><ele>781.8</ele><time>2026-05-03T09:12:59Z</time></trkpt><trkpt lat="43.488863553301535" lon="11.994890476622432"><ele>782.4</ele><time>2026-05-03T09:13:00Z</time></trkpt><trkpt lat="43.48889534208162" lon="11.994970280198995"><ele>783.0</ele><time>2026-05-03T09:13:01Z</time></trkpt><trkpt lat="43.488951163128235" lon="11.995048210161194"><ele>778.4</ele><time>2026-05-03T09:13:02Z</time></trkpt><trkpt lat="43.48903137237153" lon="11.995158536732204"><ele>773.8</ele><time>2026-05-03T09:13:03Z</time></trkpt><trkpt lat="43.48909097231187" lon="11.995224472440048"><ele>769.2</ele><time>2026-05-03T09:13:04Z</time></trkpt><trkpt lat="43.489138082417895" lon="11.995297567305752"><ele>764.6</ele><time>2026-05-03T09:13:05Z</time></trkpt><trkpt lat="43.48916896163097" lon="11.995451934830392"><ele>760.0</ele><time>2026-05-03T09:13:07Z</time></trkpt><trkpt lat="43.48927195845511" lon="11.995579401948422"><ele>760.0</ele><time>2026-05-03T09:13:09Z</time></trkpt><trkpt lat="43.489297086221406" lon="11.995678635960326"><ele>760.0</ele><time>2026-05-03T09:13:10Z</time></trkpt><trkpt lat="43.48934753132969" lon="11.995760133592485"><ele>760.0</ele><time>2026-05-03T09:13:11Z</time></trkpt><trkpt lat="43.489388219285544" lon="11.995858628827179"><ele>760.0</ele><time>2026-05-03T09:13:12Z</time></trkpt><trkpt lat="43.48942267730233" lon="11.996025686131292"><ele>760.0</ele><time>2026-05-03T09:13:14Z</time></trkpt><trkpt lat="43.489451909062446" lon="11.996190355350185"><ele>757.8</ele><time>2026-05-03T09:13:16Z</time></trkpt><trkpt lat="43.48944289147871" lon="11.996365247731026"><ele>755.6</ele><time>2026-05-03T09:13:17Z</time></trkpt><trkpt lat="43.48943068476801" lon="11.996521087572566"><ele>753.4000000000001</ele><time>2026-05-03T09:13:18Z</time></trkpt><trkpt lat="43.489438224683575" lon="11.996624223477845"><ele>751.2</ele><time>2026-05-03T09:13:19Z</time></trkpt><trkpt lat="43.489456796161264" lon="11.996709282584206"><ele>749.0</ele><time>2026-05-03T09:13:20Z</time></trkpt><trkpt lat="43.48948071108977" lon="11.996804971884416"><ele>748.0</ele><time>2026-05-03T09:13:21Z</time></trkpt><trkpt lat="43.48952891749704" lon="11.996933237277412"><ele>747.0</ele><time>2026-05-03T09:13:23Z</time></trkpt><trkpt lat="43.48951396826085" lon="11.9970264455889"><ele>746.0</ele><time>2026-05-03T09:13:26Z</time></trkpt><trkpt lat="43.489500413434456" lon="11.997115888191635"><ele>745.0</ele><time>2026-05-03T09:13:28Z</time></trkpt><trkpt lat="43.489550397673966" lon="11.997229567994689"><ele>744.0</ele><time>2026-05-03T09:13:34Z</time></trkpt><trkpt lat="43.48960948936804" lon="11.997362150062479"><ele>742.6666666666666</ele><time>2026-05-03T09:13:36Z</time></trkpt><trkpt lat="43.48963248811438" lon="11.997509007431098"><ele>741.3333333333334</ele><time>2026-05-03T09:13:38Z</time></trkpt><trkpt lat="43.48965482904971" lon="11.997599495168219"><ele>740.0</ele><time>2026-05-03T09:13:43Z</time></trkpt><trkpt lat="43.4896324371336" lon="11.997712132644695"><ele>738.6666666666667</ele><time>2026-05-03T09:13:46Z</time></trkpt><trkpt lat="43.489638590482144" lon="11.997799450631916"><ele>737.3333333333334</ele><time>2026-05-03T09:13:47Z</time></trkpt><trkpt lat="43.489613152165354" lon="11.997905008972976"><ele>736.0</ele><time>2026-05-03T09:13:48Z</time></trkpt><trkpt lat="43.48962618946529" lon="11.998046163595149"><ele>736.0</ele><time>2026-05-03T09:13:50Z</time></trkpt><trkpt lat="43.48964356447813" lon="11.99817481371013"><ele>736.0</ele><time>2026-05-03T09:13:52Z</time></trkpt><trkpt lat="43.48969444749833" lon="11.998335000870231"><ele>736.0</ele><time>2026-05-03T09:13:54Z</time></trkpt><trkpt lat="43.489738392408064" lon="11.998414102251436"><ele>736.0</ele><time>2026-05-03T09:13:55Z</time></trkpt><trkpt lat="43.48977761690213" lon="11.998488258649813"><ele>736.0</ele><time>2026-05-03T09:13:56Z</time></trkpt><trkpt lat="43.48980796531663" lon="11.998565887061478"><ele>736.0</ele><time>2026-05-03T09:13:57Z</time></trkpt><trkpt lat="43.48985107084043" lon="11.99872561801349"><ele>734.5</ele><time>2026-05-03T09:13:59Z</time></trkpt><trkpt lat="43.489866455631415" lon="11.99890686192032"><ele>733.0</ele><time>2026-05-03T09:14:01Z</time></trkpt><trkpt lat="43.489869762464814" lon="11.999013018259049"><ele>731.5</ele><time>2026-05-03T09:14:02Z</time></trkpt><trkpt lat="43.489898534246244" lon="11.999106631978936"><ele>730.0</ele><time>2026-05-03T09:14:03Z</time></trkpt><trkpt lat="43.48995369435455" lon="11.999189893942876"><ele>728.5</ele><time>2026-05-03T09:14:04Z</time></trkpt><trkpt lat="43.49000774735481" lon="11.99926927419119"><ele>727.0</ele><time>2026-05-03T09:14:05Z</time></trkpt><trkpt lat="43.490028597939606" lon="11.999352249813999"><ele>725.2857142857142</ele><time>2026-05-03T09:14:06Z</time></trkpt><trkpt lat="43.489990570322306" lon="11.999422498533846"><ele>723.5714285714287</ele><time>2026-05-03T09:14:09Z</time></trkpt><trkpt lat="43.48992613385353" lon="11.99940179997536"><ele>721.8571428571429</ele><time>2026-05-03T09:14:10Z</time></trkpt><trkpt lat="43.489866698422624" lon="11.999362047052186"><ele>720.1428571428571</ele><time>2026-05-03T09:14:11Z</time></trkpt><trkpt lat="43.48979791405276" lon="11.999338800555877"><ele>718.4285714285713</ele><time>2026-05-03T09:14:12Z</time></trkpt><trkpt lat="43.48968322027966" lon="11.999296995415577"><ele>716.7142857142858</ele><time>2026-05-03T09:14:14Z</time></trkpt><trkpt lat="43.4896247534725" lon="11.999261744557446"><ele>715.0</ele><time>2026-05-03T09:14:15Z</time></trkpt><trkpt lat="43.489526555338145" lon="11.99919368033644"><ele>714.0</ele><time>2026-05-03T09:14:17Z</time></trkpt><trkpt lat="43.48947745897455" lon="11.999065718654192"><ele>713.0</ele><time>2026-05-03T09:14:19Z</time></trkpt><trkpt lat="43.48938717114803" lon="11.998951397790783"><ele>712.0</ele><time>2026-05-03T09:14:21Z</time></trkpt><trkpt lat="43.48928769738233" lon="11.998956108037444"><ele>711.0</ele><time>2026-05-03T09:14:23Z</time></trkpt><trkpt lat="43.48922867712034" lon="11.99898872909916"><ele>710.0</ele><time>2026-05-03T09:14:24Z</time></trkpt><trkpt lat="43.489123993561385" lon="11.999046993764306"><ele>710.0</ele><time>2026-05-03T09:14:26Z</time></trkpt><trkpt lat="43.48907929098829" lon="11.999137172685382"><ele>710.0</ele><time>2026-05-03T09:14:28Z</time></trkpt><trkpt lat="43.48913695147573" lon="11.99929266565259"><ele>710.0</ele><time>2026-05-03T09:14:30Z</time></trkpt><trkpt lat="43.489202659908464" lon="11.9994068391422"><ele>710.0</ele><time>2026-05-03T09:14:31Z</time></trkpt><trkpt lat="43.48926085318408" lon="11.999500570664937"><ele>710.0</ele><time>2026-05-03T09:14:32Z</time></trkpt><trkpt lat="43.48931742201745" lon="11.999578441336816"><ele>710.8333333333333</ele><time>2026-05-03T09:14:33Z</time></trkpt><trkpt lat="43.489384087912384" lon="11.999647978366635"><ele>711.6666666666666</ele><time>2026-05-03T09:14:34Z</time></trkpt><trkpt lat="43.4894433624015" lon="11.999718108687988"><ele>712.5</ele><time>2026-05-03T09:14:35Z</time></trkpt><trkpt lat="43.4894929567398" lon="11.999798149973078"><ele>713.3333333333334</ele><time>2026-05-03T09:14:36Z</time></trkpt><trkpt lat="43.48955464224362" lon="11.999885920625031"><ele>714.1666666666667</ele><time>2026-05-03T09:14:37Z</time></trkpt><trkpt lat="43.48962327476542" lon="11.999967549015551"><ele>715.0</ele><time>2026-05-03T09:14:38Z</time></trkpt><trkpt lat="43.489690549560734" lon="12.000060249287557"><ele>715.0</ele><time>2026-05-03T09:14:39Z</time></trkpt><trkpt lat="43.4897424933898" lon="12.000165529033023"><ele>715.0</ele><time>2026-05-03T09:14:40Z</time></trkpt><trkpt lat="43.48978412680082" lon="12.0002697905128"><ele>715.0</ele><time>2026-05-03T09:14:41Z</time></trkpt><trkpt lat="43.48982414479415" lon="12.000368668758282"><ele>715.0</ele><time>2026-05-03T09:14:42Z</time></trkpt><trkpt lat="43.489880086863224" lon="12.000444993447555"><ele>715.0</ele><time>2026-05-03T09:14:43Z</time></trkpt><trkpt lat="43.48995774394944" lon="12.000496006265877"><ele>715.0</ele><time>2026-05-03T09:14:44Z</time></trkpt><trkpt lat="43.49006247751582" lon="12.000529791756827"><ele>715.0</ele><time>2026-05-03T09:14:45Z</time></trkpt><trkpt lat="43.49018405205988" lon="12.000581005425401"><ele>715.0</ele><time>2026-05-03T09:14:46Z</time></trkpt><trkpt lat="43.490259361396724" lon="12.00064218673429"><ele>715.0</ele><time>2026-05-03T09:14:47Z</time></trkpt><trkpt lat="43.49032718620033" lon="12.000715500240792"><ele>715.0</ele><time>2026-05-03T09:14:48Z</time></trkpt><trkpt lat="43.49037062384535" lon="12.000795996278532"><ele>715.0</ele><time>2026-05-03T09:14:49Z</time></trkpt><trkpt lat="43.490413060617875" lon="12.000897753834206"><ele>712.0</ele><time>2026-05-03T09:14:50Z</time></trkpt><trkpt lat="43.49046043854609" lon="12.000984609452276"><ele>709.0</ele><time>2026-05-03T09:14:51Z</time></trkpt><trkpt lat="43.490519590850944" lon="12.001042166114873"><ele>706.0</ele><time>2026-05-03T09:14:52Z</time></trkpt><trkpt lat="43.49059772133739" lon="12.001079036679721"><ele>703.0</ele><time>2026-05-03T09:14:53Z</time></trkpt><trkpt lat="43.490688599552215" lon="12.001129636251555"><ele>700.0</ele><time>2026-05-03T09:14:54Z</time></trkpt><trkpt lat="43.49077726166746" lon="12.001191918470475"><ele>697.0</ele><time>2026-05-03T09:14:55Z</time></trkpt><trkpt lat="43.49085608332363" lon="12.001259893162846"><ele>697.0</ele><time>2026-05-03T09:14:56Z</time></trkpt><trkpt lat="43.49092556055264" lon="12.001322088342468"><ele>697.0</ele><time>2026-05-03T09:14:57Z</time></trkpt><trkpt lat="43.491021131765635" lon="12.001406102603207"><ele>697.0</ele><time>2026-05-03T09:14:59Z</time></trkpt><trkpt lat="43.49105193549742" lon="12.001490455008039"><ele>697.0</ele><time>2026-05-03T09:15:00Z</time></trkpt><trkpt lat="43.49109997781296" lon="12.001642543792792"><ele>697.0</ele><time>2026-05-03T09:15:02Z</time></trkpt><trkpt lat="43.491182174262455" lon="12.001712591821962"><ele>692.0</ele><time>2026-05-03T09:15:04Z</time></trkpt><trkpt lat="43.4912605302011" lon="12.001821812021547"><ele>687.0</ele><time>2026-05-03T09:15:06Z</time></trkpt><trkpt lat="43.49130002148159" lon="12.001912833343678"><ele>682.0</ele><time>2026-05-03T09:15:07Z</time></trkpt><trkpt lat="43.491333457806384" lon="12.002012642059135"><ele>677.0</ele><time>2026-05-03T09:15:08Z</time></trkpt><trkpt lat="43.491366295054696" lon="12.002111808272739"><ele>672.0</ele><time>2026-05-03T09:15:09Z</time></trkpt><trkpt lat="43.49139692799185" lon="12.002197901843981"><ele>667.0</ele><time>2026-05-03T09:15:10Z</time></trkpt><trkpt lat="43.49143698004435" lon="12.002292417210109"><ele>667.0</ele><time>2026-05-03T09:15:12Z</time></trkpt><trkpt lat="43.49153983360029" lon="12.002367979166978"><ele>667.0</ele><time>2026-05-03T09:15:14Z</time></trkpt><trkpt lat="43.49159924756475" lon="12.002420873160927"><ele>667.0</ele><time>2026-05-03T09:15:15Z</time></trkpt><trkpt lat="43.4916660929846" lon="12.002454116367531"><ele>667.0</ele><time>2026-05-03T09:15:16Z</time></trkpt><trkpt lat="43.491728402410104" lon="12.002434746564534"><ele>667.0</ele><time>2026-05-03T09:15:17Z</time></trkpt><trkpt lat="43.49183023576909" lon="12.00239602785253"><ele>667.0</ele><time>2026-05-03T09:15:19Z</time></trkpt><trkpt lat="43.491946814060974" lon="12.002396540866865"><ele>667.0</ele><time>2026-05-03T09:15:21Z</time></trkpt><trkpt lat="43.492052003233475" lon="12.002370938099768"><ele>667.0</ele><time>2026-05-03T09:15:23Z</time></trkpt><trkpt lat="43.49213299390301" lon="12.002291728102325"><ele>667.0</ele><time>2026-05-03T09:15:25Z</time></trkpt><trkpt lat="43.492195503943606" lon="12.002222935548662"><ele>667.0</ele><time>2026-05-03T09:15:27Z</time></trkpt><trkpt lat="43.492201726123014" lon="12.002133848912166"><ele>667.0</ele><time>2026-05-03T09:15:30Z</time></trkpt><trkpt lat="43.492137620447615" lon="12.002079769405531"><ele>667.0</ele><time>2026-05-03T09:15:32Z</time></trkpt><trkpt lat="43.49210491014258" lon="12.001963983629366"><ele>662.3333333333334</ele><time>2026-05-03T09:15:34Z</time></trkpt><trkpt lat="43.49217031507124" lon="12.001821608482064"><ele>657.6666666666667</ele><time>2026-05-03T09:15:36Z</time></trkpt><trkpt lat="43.492259996933534" lon="12.001734943253366"><ele>653.0</ele><time>2026-05-03T09:15:37Z</time></trkpt><trkpt lat="43.49232037767346" lon="12.001703558225437"><ele>648.3333333333334</ele><time>2026-05-03T09:15:38Z</time></trkpt><trkpt lat="43.49238521168344" lon="12.001650400483438"><ele>643.6666666666666</ele><time>2026-05-03T09:15:40Z</time></trkpt><trkpt lat="43.49244913576933" lon="12.001636726435407"><ele>639.0</ele><time>2026-05-03T09:15:44Z</time></trkpt><trkpt lat="43.49245489904638" lon="12.001754700440738"><ele>639.0</ele><time>2026-05-03T09:16:30Z</time></trkpt><trkpt lat="43.492523777024005" lon="12.001900912710903"><ele>639.0</ele><time>2026-05-03T09:16:32Z</time></trkpt><trkpt lat="43.492579719747674" lon="12.001972344835927"><ele>639.0</ele><time>2026-05-03T09:16:33Z</time></trkpt><trkpt lat="43.4926399147947" lon="12.002052130796113"><ele>639.0</ele><time>2026-05-03T09:16:34Z</time></trkpt><trkpt lat="43.492698241168206" lon="12.002127629649463"><ele>639.0</ele><time>2026-05-03T09:16:35Z</time></trkpt><trkpt lat="43.4927607947112" lon="12.002192735995104"><ele>639.0</ele><time>2026-05-03T09:16:36Z</time></trkpt><trkpt lat="43.49283254435732" lon="12.002262257115255"><ele>639.0</ele><time>2026-05-03T09:16:37Z</time></trkpt><trkpt lat="43.492910475622374" lon="12.002324626595017"><ele>639.0</ele><time>2026-05-03T09:16:38Z</time></trkpt><trkpt lat="43.49298627726581" lon="12.00239084431182"><ele>639.0</ele><time>2026-05-03T09:16:39Z</time></trkpt><trkpt lat="43.493055463843426" lon="12.002462053143704"><ele>639.0</ele><time>2026-05-03T09:16:40Z</time></trkpt><trkpt lat="43.49312122969123" lon="12.002532326689742"><ele>639.0</ele><time>2026-05-03T09:16:41Z</time></trkpt><trkpt lat="43.493177369712306" lon="12.002607114463599"><ele>639.0</ele><time>2026-05-03T09:16:42Z</time></trkpt><trkpt lat="43.49321840069799" lon="12.002683050011429"><ele>634.2</ele><time>2026-05-03T09:16:43Z</time></trkpt><trkpt lat="43.493246922226874" lon="12.002767347264577"><ele>629.4</ele><time>2026-05-03T09:16:44Z</time></trkpt><trkpt lat="43.493263315232525" lon="12.002868584506238"><ele>624.6</ele><time>2026-05-03T09:16:45Z</time></trkpt><trkpt lat="43.493273376626796" lon="12.00295718011765"><ele>619.8</ele><time>2026-05-03T09:16:46Z</time></trkpt><trkpt lat="43.49326560546835" lon="12.003119659727533"><ele>615.0</ele><time>2026-05-03T09:16:48Z</time></trkpt><trkpt lat="43.49325117453116" lon="12.00329350267565"><ele>617.2</ele><time>2026-05-03T09:16:50Z</time></trkpt><trkpt lat="43.4932469114015" lon="12.003399051422667"><ele>619.4</ele><time>2026-05-03T09:16:51Z</time></trkpt><trkpt lat="43.49329481616828" lon="12.00357302987521"><ele>621.6</ele><time>2026-05-03T09:16:53Z</time></trkpt><trkpt lat="43.493353848972795" lon="12.003667742967497"><ele>623.8</ele><time>2026-05-03T09:16:54Z</time></trkpt><trkpt lat="43.493409582815445" lon="12.00374156897935"><ele>626.0</ele><time>2026-05-03T09:16:55Z</time></trkpt><trkpt lat="43.493508735320965" lon="12.003847134790735"><ele>626.0</ele><time>2026-05-03T09:16:57Z</time></trkpt><trkpt lat="43.49354054521035" lon="12.00392709424863"><ele>626.0</ele><time>2026-05-03T09:16:58Z</time></trkpt><trkpt lat="43.49358077171858" lon="12.004007230000719"><ele>626.0</ele><time>2026-05-03T09:16:59Z</time></trkpt><trkpt lat="43.49362986223856" lon="12.004089557734368"><ele>626.0</ele><time>2026-05-03T09:17:00Z</time></trkpt><trkpt lat="43.49367754872024" lon="12.004172525399142"><ele>626.0</ele><time>2026-05-03T09:17:01Z</time></trkpt><trkpt lat="43.49373099800178" lon="12.004256457908884"><ele>626.0</ele><time>2026-05-03T09:17:02Z</time></trkpt><trkpt lat="43.493775237938216" lon="12.004339243146697"><ele>626.0</ele><time>2026-05-03T09:17:03Z</time></trkpt><trkpt lat="43.49382221093721" lon="12.004426044637038"><ele>620.7142857142857</ele><time>2026-05-03T09:17:04Z</time></trkpt><trkpt lat="43.49387595369215" lon="12.004504107888302"><ele>615.4285714285714</ele><time>2026-05-03T09:17:05Z</time></trkpt><trkpt lat="43.493943750640696" lon="12.00454383240497"><ele>610.1428571428571</ele><time>2026-05-03T09:17:06Z</time></trkpt><trkpt lat="43.49401710271292" lon="12.004540923208898"><ele>604.8571428571429</ele><time>2026-05-03T09:17:07Z</time></trkpt><trkpt lat="43.494085063429274" lon="12.004515293409423"><ele>599.5714285714286</ele><time>2026-05-03T09:17:08Z</time></trkpt><trkpt lat="43.494153919593245" lon="12.004457289599081"><ele>594.2857142857142</ele><time>2026-05-03T09:17:09Z</time></trkpt><trkpt lat="43.49422479353449" lon="12.004436769816012"><ele>589.0</ele><time>2026-05-03T09:17:10Z</time></trkpt><trkpt lat="43.49433164725622" lon="12.004498698277905"><ele>589.0</ele><time>2026-05-03T09:17:12Z</time></trkpt><trkpt lat="43.494362696575294" lon="12.004587822072393"><ele>589.0</ele><time>2026-05-03T09:17:13Z</time></trkpt><trkpt lat="43.49437845121761" lon="12.004711088688957"><ele>589.0</ele><time>2026-05-03T09:17:14Z</time></trkpt><trkpt lat="43.49438601342005" lon="12.004840138983221"><ele>589.0</ele><time>2026-05-03T09:17:15Z</time></trkpt><trkpt lat="43.49439179952746" lon="12.004954253137559"><ele>589.0</ele><time>2026-05-03T09:17:16Z</time></trkpt><trkpt lat="43.49445697523149" lon="12.005015765438383"><ele>589.0</ele><time>2026-05-03T09:17:18Z</time></trkpt><trkpt lat="43.494537759971415" lon="12.005004375503164"><ele>586.6666666666667</ele><time>2026-05-03T09:17:19Z</time></trkpt><trkpt lat="43.49462027019775" lon="12.004967876732987"><ele>584.3333333333334</ele><time>2026-05-03T09:17:20Z</time></trkpt><trkpt lat="43.494700380181705" lon="12.00494489879655"><ele>582.0</ele><time>2026-05-03T09:17:21Z</time></trkpt><trkpt lat="43.49478544944498" lon="12.004941749123748"><ele>579.6666666666666</ele><time>2026-05-03T09:17:22Z</time></trkpt><trkpt lat="43.49487209653088" lon="12.00497894377366"><ele>577.3333333333333</ele><time>2026-05-03T09:17:23Z</time></trkpt><trkpt lat="43.4949550288909" lon="12.005038672244432"><ele>575.0</ele><time>2026-05-03T09:17:24Z</time></trkpt><trkpt lat="43.49502613945501" lon="12.005107864488803"><ele>575.0</ele><time>2026-05-03T09:17:25Z</time></trkpt><trkpt lat="43.49508600794621" lon="12.005199495882557"><ele>575.0</ele><time>2026-05-03T09:17:26Z</time></trkpt><trkpt lat="43.495126823440735" lon="12.005320077367925"><ele>575.0</ele><time>2026-05-03T09:17:27Z</time></trkpt><trkpt lat="43.49514104500526" lon="12.005441047142423"><ele>575.0</ele><time>2026-05-03T09:17:28Z</time></trkpt><trkpt lat="43.495142935352334" lon="12.005570276562786"><ele>575.0</ele><time>2026-05-03T09:17:29Z</time></trkpt><trkpt lat="43.495121739927285" lon="12.005701551592978"><ele>577.2</ele><time>2026-05-03T09:17:30Z</time></trkpt><trkpt lat="43.49509396449162" lon="12.005837781266063"><ele>579.4</ele><time>2026-05-03T09:17:31Z</time></trkpt><trkpt lat="43.49508260422504" lon="12.005971060009445"><ele>581.6</ele><time>2026-05-03T09:17:32Z</time></trkpt><trkpt lat="43.49510017817555" lon="12.00610992305991"><ele>583.8</ele><time>2026-05-03T09:17:33Z</time></trkpt><trkpt lat="43.49511613189815" lon="12.006247041043158"><ele>586.0</ele><time>2026-05-03T09:17:34Z</time></trkpt><trkpt lat="43.49512459146405" lon="12.006363255571351"><ele>586.0</ele><time>2026-05-03T09:17:35Z</time></trkpt><trkpt lat="43.49513826540558" lon="12.006473406568965"><ele>586.0</ele><time>2026-05-03T09:17:36Z</time></trkpt><trkpt lat="43.49515239407666" lon="12.006579754064687"><ele>586.0</ele><time>2026-05-03T09:17:37Z</time></trkpt><trkpt lat="43.49515364003673" lon="12.006687985132336"><ele>586.0</ele><time>2026-05-03T09:17:38Z</time></trkpt><trkpt lat="43.495137033916095" lon="12.006795925602953"><ele>586.0</ele><time>2026-05-03T09:17:39Z</time></trkpt><trkpt lat="43.4951602676794" lon="12.006909263897493"><ele>586.0</ele><time>2026-05-03T09:17:41Z</time></trkpt><trkpt lat="43.49522348777834" lon="12.006979167858152"><ele>585.8</ele><time>2026-05-03T09:17:42Z</time></trkpt><trkpt lat="43.49524664936399" lon="12.007073753188438"><ele>585.6</ele><time>2026-05-03T09:17:43Z</time></trkpt><trkpt lat="43.495269981082835" lon="12.00723997953484"><ele>585.4</ele><time>2026-05-03T09:17:44Z</time></trkpt><trkpt lat="43.4952943471873" lon="12.007386934412915"><ele>585.2</ele><time>2026-05-03T09:17:45Z</time></trkpt><trkpt lat="43.49532288566134" lon="12.007488790584635"><ele>585.0</ele><time>2026-05-03T09:17:46Z</time></trkpt><trkpt lat="43.49535259798511" lon="12.0076267849528"><ele>585.0</ele><time>2026-05-03T09:20:47Z</time></trkpt><trkpt lat="43.495307747704004" lon="12.007515811365915"><ele>585.0</ele><time>2026-05-03T09:20:50Z</time></trkpt><trkpt lat="43.49525616404753" lon="12.007422836734905"><ele>585.0</ele><time>2026-05-03T09:20:53Z</time></trkpt><trkpt lat="43.495241900766956" lon="12.007308519998494"><ele>585.0</ele><time>2026-05-03T09:20:57Z</time></trkpt><trkpt lat="43.495205942848145" lon="12.007190429480772"><ele>585.0</ele><time>2026-05-03T09:21:00Z</time></trkpt><trkpt lat="43.49516697758341" lon="12.007071072261306"><ele>585.0</ele><time>2026-05-03T09:21:02Z</time></trkpt><trkpt lat="43.495165032478084" lon="12.006954240334451"><ele>585.0</ele><time>2026-05-03T09:21:04Z</time></trkpt><trkpt lat="43.49516694029602" lon="12.006743506926863"><ele>585.0</ele><time>2026-05-03T09:21:06Z</time></trkpt><trkpt lat="43.495159754718465" lon="12.00659745734913"><ele>585.0</ele><time>2026-05-03T09:21:07Z</time></trkpt><trkpt lat="43.4951530761647" lon="12.006445739643894"><ele>585.0</ele><time>2026-05-03T09:21:08Z</time></trkpt><trkpt lat="43.49514448244561" lon="12.006299526042742"><ele>585.2</ele><time>2026-05-03T09:21:09Z</time></trkpt><trkpt lat="43.49513378953979" lon="12.006164252011166"><ele>585.4</ele><time>2026-05-03T09:21:10Z</time></trkpt><trkpt lat="43.49512419421521" lon="12.00605045888668"><ele>585.6</ele><time>2026-05-03T09:21:11Z</time></trkpt><trkpt lat="43.49517288655625" lon="12.005931494422764"><ele>585.8</ele><time>2026-05-03T09:21:12Z</time></trkpt><trkpt lat="43.495193778493324" lon="12.00580044592186"><ele>586.0</ele><time>2026-05-03T09:21:13Z</time></trkpt><trkpt lat="43.495179405088315" lon="12.005672905392062"><ele>584.1666666666667</ele><time>2026-05-03T09:21:14Z</time></trkpt><trkpt lat="43.495171610411425" lon="12.005556981895477"><ele>582.3333333333334</ele><time>2026-05-03T09:21:15Z</time></trkpt><trkpt lat="43.49514477956048" lon="12.005449334257436"><ele>580.5</ele><time>2026-05-03T09:21:16Z</time></trkpt><trkpt lat="43.49510240240343" lon="12.005339906126213"><ele>578.6666666666666</ele><time>2026-05-03T09:21:17Z</time></trkpt><trkpt lat="43.495052513081696" lon="12.005243042797094"><ele>576.8333333333333</ele><time>2026-05-03T09:21:18Z</time></trkpt><trkpt lat="43.494977878551865" lon="12.005162595062691"><ele>575.0</ele><time>2026-05-03T09:21:19Z</time></trkpt><trkpt lat="43.49488708818985" lon="12.00509837152013"><ele>575.0</ele><time>2026-05-03T09:21:20Z</time></trkpt><trkpt lat="43.49477252388481" lon="12.00507208574228"><ele>575.0</ele><time>2026-05-03T09:21:21Z</time></trkpt><trkpt lat="43.494682736209704" lon="12.00510585106522"><ele>575.0</ele><time>2026-05-03T09:21:22Z</time></trkpt><trkpt lat="43.494594855040745" lon="12.005145814171131"><ele>575.0</ele><time>2026-05-03T09:21:23Z</time></trkpt><trkpt lat="43.49452915479308" lon="12.005153979766241"><ele>575.0</ele><time>2026-05-03T09:21:24Z</time></trkpt><trkpt lat="43.49447308316837" lon="12.005100748342915"><ele>575.0</ele><time>2026-05-03T09:21:26Z</time></trkpt><trkpt lat="43.49443301588509" lon="12.004937426328917"><ele>577.3333333333333</ele><time>2026-05-03T09:21:28Z</time></trkpt><trkpt lat="43.49440895717865" lon="12.004830854051876"><ele>579.6666666666666</ele><time>2026-05-03T09:21:29Z</time></trkpt><trkpt lat="43.49437977579487" lon="12.00470024064332"><ele>582.0</ele><time>2026-05-03T09:21:30Z</time></trkpt><trkpt lat="43.49433703604246" lon="12.004633260052659"><ele>584.3333333333334</ele><time>2026-05-03T09:21:31Z</time></trkpt><trkpt lat="43.49425482138278" lon="12.004570075259416"><ele>586.6666666666667</ele><time>2026-05-03T09:21:33Z</time></trkpt><trkpt lat="43.49415484029004" lon="12.004596166641445"><ele>589.0</ele><time>2026-05-03T09:21:34Z</time></trkpt><trkpt lat="43.494074937954466" lon="12.004640183642614"><ele>589.0</ele><time>2026-05-03T09:21:35Z</time></trkpt><trkpt lat="43.49399181053045" lon="12.004650910668182"><ele>589.0</ele><time>2026-05-03T09:21:37Z</time></trkpt><trkpt lat="43.49396779235102" lon="12.004569273068745"><ele>589.0</ele><time>2026-05-03T09:21:40Z</time></trkpt><trkpt lat="43.493887968663735" lon="12.004594863683229"><ele>589.0</ele><time>2026-05-03T09:21:42Z</time></trkpt><trkpt lat="43.49383044833771" lon="12.004488602900521"><ele>589.0</ele><time>2026-05-03T09:21:44Z</time></trkpt><trkpt lat="43.49338751918438" lon="12.003807915199452"><ele>593.3333333333334</ele><time>2026-05-03T09:21:47Z</time></trkpt><trkpt lat="43.493351047348504" lon="12.003715526135988"><ele>597.6666666666667</ele><time>2026-05-03T09:21:48Z</time></trkpt><trkpt lat="43.493304953446284" lon="12.003635460244503"><ele>602.0</ele><time>2026-05-03T09:21:49Z</time></trkpt><trkpt lat="43.49325459478505" lon="12.003510359036051"><ele>606.3333333333334</ele><time>2026-05-03T09:21:50Z</time></trkpt><trkpt lat="43.49322723537204" lon="12.00342882095322"><ele>610.6666666666666</ele><time>2026-05-03T09:21:51Z</time></trkpt><trkpt lat="43.493260914119176" lon="12.00326178584746"><ele>615.0</ele><time>2026-05-03T09:21:53Z</time></trkpt><trkpt lat="43.49329832064871" lon="12.003090727515541"><ele>615.0</ele><time>2026-05-03T09:21:55Z</time></trkpt><trkpt lat="43.49328289723105" lon="12.002992189616064"><ele>615.0</ele><time>2026-05-03T09:21:56Z</time></trkpt><trkpt lat="43.49325337235354" lon="12.002827908376217"><ele>615.0</ele><time>2026-05-03T09:21:58Z</time></trkpt><trkpt lat="43.49322490917238" lon="12.00273532222116"><ele>615.0</ele><time>2026-05-03T09:21:59Z</time></trkpt><trkpt lat="43.493184956706656" lon="12.002629194187678"><ele>615.0</ele><time>2026-05-03T09:22:00Z</time></trkpt><trkpt lat="43.49307156670381" lon="12.002542686637334"><ele>612.0</ele><time>2026-05-03T09:22:01Z</time></trkpt><trkpt lat="43.49301325763313" lon="12.002476429772766"><ele>609.0</ele><time>2026-05-03T09:22:02Z</time></trkpt><trkpt lat="43.49292802181893" lon="12.00240662999303"><ele>606.0</ele><time>2026-05-03T09:22:04Z</time></trkpt><trkpt lat="43.4928499799548" lon="12.002346774037719"><ele>603.0</ele><time>2026-05-03T09:22:05Z</time></trkpt><trkpt lat="43.49278504058692" lon="12.0022682229639"><ele>600.0</ele><time>2026-05-03T09:22:06Z</time></trkpt><trkpt lat="43.49272987359002" lon="12.002184180258606"><ele>597.0</ele><time>2026-05-03T09:22:07Z</time></trkpt><trkpt lat="43.492625957622785" lon="12.002044437714567"><ele>601.1666666666666</ele><time>2026-05-03T09:22:09Z</time></trkpt><trkpt lat="43.49255281622053" lon="12.00198526325156"><ele>605.3333333333334</ele><time>2026-05-03T09:22:10Z</time></trkpt><trkpt lat="43.49246086444079" lon="12.001862644091474"><ele>609.5</ele><time>2026-05-03T09:22:12Z</time></trkpt><trkpt lat="43.49240734265586" lon="12.001748225701979"><ele>613.6666666666667</ele><time>2026-05-03T09:22:14Z</time></trkpt><trkpt lat="43.492357278310095" lon="12.001687220830524"><ele>617.8333333333334</ele><time>2026-05-03T09:22:15Z</time></trkpt><trkpt lat="43.492324330134814" lon="12.001610622690595"><ele>622.0</ele><time>2026-05-03T09:22:16Z</time></trkpt><trkpt lat="43.49227608356178" lon="12.001554668796611"><ele>626.25</ele><time>2026-05-03T09:22:17Z</time></trkpt><trkpt lat="43.49232445877534" lon="12.00167181576739"><ele>630.5</ele><time>2026-05-03T09:22:18Z</time></trkpt><trkpt lat="43.49228468478222" lon="12.001869113885508"><ele>634.75</ele><time>2026-05-03T09:22:20Z</time></trkpt><trkpt lat="43.492188998539056" lon="12.00197932195257"><ele>639.0</ele><time>2026-05-03T09:22:21Z</time></trkpt><trkpt lat="43.49215780082465" lon="12.002087790769552"><ele>639.0</ele><time>2026-05-03T09:22:22Z</time></trkpt><trkpt lat="43.49222550145296" lon="12.002135897345205"><ele>639.0</ele><time>2026-05-03T09:22:24Z</time></trkpt><trkpt lat="43.49219802319096" lon="12.002261240866794"><ele>639.0</ele><time>2026-05-03T09:22:28Z</time></trkpt><trkpt lat="43.49213526837287" lon="12.002348858313235"><ele>639.0</ele><time>2026-05-03T09:22:30Z</time></trkpt><trkpt lat="43.492049963280444" lon="12.002392431839963"><ele>639.0</ele><time>2026-05-03T09:22:31Z</time></trkpt><trkpt lat="43.491954096777775" lon="12.0023669327581"><ele>639.0</ele><time>2026-05-03T09:22:33Z</time></trkpt><trkpt lat="43.491848293851945" lon="12.002427089565417"><ele>643.6666666666666</ele><time>2026-05-03T09:22:35Z</time></trkpt><trkpt lat="43.491745940634075" lon="12.002450620098616"><ele>648.3333333333334</ele><time>2026-05-03T09:22:36Z</time></trkpt><trkpt lat="43.49167798770647" lon="12.002437889910734"><ele>653.0</ele><time>2026-05-03T09:22:37Z</time></trkpt><trkpt lat="43.49162289388886" lon="12.002370648024645"><ele>657.6666666666667</ele><time>2026-05-03T09:22:39Z</time></trkpt><trkpt lat="43.49152940911147" lon="12.002288003793993"><ele>662.3333333333334</ele><time>2026-05-03T09:22:41Z</time></trkpt><trkpt lat="43.49149202619692" lon="12.002216360137682"><ele>667.0</ele><time>2026-05-03T09:22:42Z</time></trkpt><trkpt lat="43.49143539083513" lon="12.002112010382959"><ele>667.0</ele><time>2026-05-03T09:22:43Z</time></trkpt><trkpt lat="43.49138513156078" lon="12.002044271583127"><ele>667.0</ele><time>2026-05-03T09:22:44Z</time></trkpt><trkpt lat="43.491335681506705" lon="12.001972740787428"><ele>667.0</ele><time>2026-05-03T09:22:45Z</time></trkpt><trkpt lat="43.49124526631304" lon="12.001822098041506"><ele>667.0</ele><time>2026-05-03T09:22:47Z</time></trkpt><trkpt lat="43.49118569631645" lon="12.001776019274956"><ele>667.0</ele><time>2026-05-03T09:22:48Z</time></trkpt><trkpt lat="43.49110964340278" lon="12.001669914794201"><ele>672.0</ele><time>2026-05-03T09:22:50Z</time></trkpt><trkpt lat="43.49107204009615" lon="12.001587027474562"><ele>677.0</ele><time>2026-05-03T09:22:51Z</time></trkpt><trkpt lat="43.49103089272236" lon="12.001511593687555"><ele>682.0</ele><time>2026-05-03T09:22:52Z</time></trkpt><trkpt lat="43.490967774637525" lon="12.0014177383481"><ele>687.0</ele><time>2026-05-03T09:22:53Z</time></trkpt><trkpt lat="43.49088799024128" lon="12.001348717928817"><ele>692.0</ele><time>2026-05-03T09:22:54Z</time></trkpt><trkpt lat="43.49079940932286" lon="12.001272296474598"><ele>697.0</ele><time>2026-05-03T09:22:55Z</time></trkpt><trkpt lat="43.4907223761169" lon="12.001210122158067"><ele>697.0</ele><time>2026-05-03T09:22:56Z</time></trkpt><trkpt lat="43.49065030101974" lon="12.001156314760985"><ele>697.0</ele><time>2026-05-03T09:22:57Z</time></trkpt><trkpt lat="43.49058453015159" lon="12.001105076500822"><ele>697.0</ele><time>2026-05-03T09:22:58.001Z</time></trkpt><trkpt lat="43.49052759477784" lon="12.001058027597303"><ele>697.0</ele><time>2026-05-03T09:22:59.001Z</time></trkpt><trkpt lat="43.49047267396933" lon="12.001003268813715"><ele>697.0</ele><time>2026-05-03T09:23:00.001Z</time></trkpt><trkpt lat="43.49041659578897" lon="12.000918085694082"><ele>697.0</ele><time>2026-05-03T09:23:01.001Z</time></trkpt><trkpt lat="43.490364497569296" lon="12.000781905259705"><ele>700.0</ele><time>2026-05-03T09:23:02.001Z</time></trkpt><trkpt lat="43.490316650149744" lon="12.000677979553274"><ele>703.0</ele><time>2026-05-03T09:23:03.001Z</time></trkpt><trkpt lat="43.49023139464972" lon="12.000632325802632"><ele>706.0</ele><time>2026-05-03T09:23:04.001Z</time></trkpt><trkpt lat="43.49014978338754" lon="12.000586826650046"><ele>709.0</ele><time>2026-05-03T09:23:05.001Z</time></trkpt><trkpt lat="43.49007371496009" lon="12.000542865779359"><ele>712.0</ele><time>2026-05-03T09:23:06Z</time></trkpt><trkpt lat="43.48999303501349" lon="12.000502560044604"><ele>715.0</ele><time>2026-05-03T09:23:07Z</time></trkpt><trkpt lat="43.48991817017891" lon="12.000462313863945"><ele>715.0</ele><time>2026-05-03T09:23:08Z</time></trkpt><trkpt lat="43.489852355890065" lon="12.000400084148213"><ele>715.0</ele><time>2026-05-03T09:23:09Z</time></trkpt><trkpt lat="43.48980545491503" lon="12.000304437773016"><ele>715.0</ele><time>2026-05-03T09:23:10Z</time></trkpt><trkpt lat="43.48975502614736" lon="12.000181089605514"><ele>715.0</ele><time>2026-05-03T09:23:11Z</time></trkpt><trkpt lat="43.48968741776199" lon="12.000049969784097"><ele>715.0</ele><time>2026-05-03T09:23:12Z</time></trkpt><trkpt lat="43.48960294617218" lon="11.999931921094843"><ele>711.3333333333334</ele><time>2026-05-03T09:23:13Z</time></trkpt><trkpt lat="43.48952212192111" lon="11.999840637706708"><ele>707.6666666666667</ele><time>2026-05-03T09:23:14Z</time></trkpt><trkpt lat="43.48945473399483" lon="11.999758897341598"><ele>704.0</ele><time>2026-05-03T09:23:15Z</time></trkpt><trkpt lat="43.48939784293071" lon="11.99967287713795"><ele>700.3333333333334</ele><time>2026-05-03T09:23:16Z</time></trkpt><trkpt lat="43.48933497382459" lon="11.999596647514284"><ele>696.6666666666666</ele><time>2026-05-03T09:23:17Z</time></trkpt><trkpt lat="43.489279657970826" lon="11.999532987308633"><ele>693.0</ele><time>2026-05-03T09:23:18Z</time></trkpt><trkpt lat="43.48923512706867" lon="11.999464438181155"><ele>693.0</ele><time>2026-05-03T09:23:19Z</time></trkpt><trkpt lat="43.48917352409336" lon="11.999338604142082"><ele>693.0</ele><time>2026-05-03T09:23:21Z</time></trkpt><trkpt lat="43.48913445680578" lon="11.999266646311908"><ele>693.0</ele><time>2026-05-03T09:23:22Z</time></trkpt><trkpt lat="43.48909818980532" lon="11.999155202964529"><ele>693.0</ele><time>2026-05-03T09:23:24Z</time></trkpt><trkpt lat="43.48918819667927" lon="11.999039324420488"><ele>693.0</ele><time>2026-05-03T09:23:27Z</time></trkpt><trkpt lat="43.489271188913186" lon="11.999006844696778"><ele>696.4</ele><time>2026-05-03T09:23:29Z</time></trkpt><trkpt lat="43.48934046650756" lon="11.999008416673211"><ele>699.8</ele><time>2026-05-03T09:23:31Z</time></trkpt><trkpt lat="43.48946189070343" lon="11.998925857044773"><ele>703.2</ele><time>2026-05-03T09:23:32Z</time></trkpt><trkpt lat="43.489517733864" lon="11.998990602816736"><ele>706.6</ele><time>2026-05-03T09:23:33Z</time></trkpt><trkpt lat="43.48958016885802" lon="11.9991013692527"><ele>710.0</ele><time>2026-05-03T09:23:34Z</time></trkpt><trkpt lat="43.489615761743984" lon="11.999195120941836"><ele>710.8333333333333</ele><time>2026-05-03T09:23:35Z</time></trkpt><trkpt lat="43.48965573607439" lon="11.999276285542454"><ele>711.6666666666666</ele><time>2026-05-03T09:23:36Z</time></trkpt><trkpt lat="43.48970863069881" lon="11.999328478776352"><ele>712.5</ele><time>2026-05-03T09:23:37Z</time></trkpt><trkpt lat="43.48977024079805" lon="11.999365668277958"><ele>713.3333333333334</ele><time>2026-05-03T09:23:38Z</time></trkpt><trkpt lat="43.489871306397134" lon="11.999378129560421"><ele>714.1666666666667</ele><time>2026-05-03T09:23:39Z</time></trkpt><trkpt lat="43.4899649830613" lon="11.999411459839227"><ele>715.0</ele><time>2026-05-03T09:23:40Z</time></trkpt><trkpt lat="43.49005232480561" lon="11.999426533689242"><ele>715.0</ele><time>2026-05-03T09:23:42Z</time></trkpt><trkpt lat="43.49001640455675" lon="11.999239083012203"><ele>715.0</ele><time>2026-05-03T09:23:44Z</time></trkpt><trkpt lat="43.48997661299915" lon="11.999152691794517"><ele>715.0</ele><time>2026-05-03T09:23:45Z</time></trkpt><trkpt lat="43.48993442925884" lon="11.999018703560047"><ele>715.0</ele><time>2026-05-03T09:23:46Z</time></trkpt><trkpt lat="43.48987702123583" lon="11.998907684265731"><ele>715.0</ele><time>2026-05-03T09:23:47Z</time></trkpt><trkpt lat="43.489835301418196" lon="11.998788725643049"><ele>717.4</ele><time>2026-05-03T09:23:48Z</time></trkpt><trkpt lat="43.48984648472282" lon="11.998618941692287"><ele>719.8</ele><time>2026-05-03T09:23:49Z</time></trkpt><trkpt lat="43.48982658491663" lon="11.998502033715173"><ele>722.2</ele><time>2026-05-03T09:23:50Z</time></trkpt><trkpt lat="43.489793180243815" lon="11.998422925195001"><ele>724.6</ele><time>2026-05-03T09:23:51Z</time></trkpt><trkpt lat="43.48970994356235" lon="11.998306630215863"><ele>727.0</ele><time>2026-05-03T09:23:53Z</time></trkpt><trkpt lat="43.48967425069533" lon="11.998217038238097"><ele>728.8</ele><time>2026-05-03T09:23:54Z</time></trkpt><trkpt lat="43.489624489671485" lon="11.998105343227863"><ele>730.6</ele><time>2026-05-03T09:23:56Z</time></trkpt><trkpt lat="43.48963133208468" lon="11.997966670479268"><ele>732.4</ele><time>2026-05-03T09:23:58Z</time></trkpt><trkpt lat="43.48963387338255" lon="11.99780506483301"><ele>734.1999999999999</ele><time>2026-05-03T09:24:00Z</time></trkpt><trkpt lat="43.4896510669618" lon="11.997704955238778"><ele>736.0</ele><time>2026-05-03T09:24:01Z</time></trkpt><trkpt lat="43.48964006003847" lon="11.997564735076491"><ele>736.1999999999999</ele><time>2026-05-03T09:24:03Z</time></trkpt><trkpt lat="43.48961608526075" lon="11.997318953375697"><ele>736.4</ele><time>2026-05-03T09:24:04Z</time></trkpt><trkpt lat="43.48955019624531" lon="11.997332925383267"><ele>736.6</ele><time>2026-05-03T09:24:06Z</time></trkpt><trkpt lat="43.48952851069259" lon="11.997225780621866"><ele>736.8</ele><time>2026-05-03T09:24:08Z</time></trkpt><trkpt lat="43.489528909723234" lon="11.99712451959288"><ele>737.0</ele><time>2026-05-03T09:24:11Z</time></trkpt><trkpt lat="43.489490521391986" lon="11.997029397047301"><ele>737.0</ele><time>2026-05-03T09:24:15Z</time></trkpt><trkpt lat="43.48945899367884" lon="11.996742270002796"><ele>737.0</ele><time>2026-05-03T09:24:17Z</time></trkpt><trkpt lat="43.48947435253647" lon="11.996632294184904"><ele>737.0</ele><time>2026-05-03T09:24:18Z</time></trkpt><trkpt lat="43.48946120568037" lon="11.99654674958092"><ele>737.0</ele><time>2026-05-03T09:24:20Z</time></trkpt><trkpt lat="43.4894526348242" lon="11.99640899017937"><ele>760.0</ele><time>2026-05-03T09:24:22Z</time></trkpt><trkpt lat="43.489364872837555" lon="11.995753485162892"><ele>760.0</ele><time>2026-05-03T09:24:24Z</time></trkpt><trkpt lat="43.489284010313796" lon="11.99562497347981"><ele>760.0</ele><time>2026-05-03T09:24:26Z</time></trkpt><trkpt lat="43.48924355869515" lon="11.995546572210936"><ele>760.0</ele><time>2026-05-03T09:24:27Z</time></trkpt><trkpt lat="43.489165763139376" lon="11.995437497535296"><ele>760.0</ele><time>2026-05-03T09:24:29Z</time></trkpt><trkpt lat="43.48909211452215" lon="11.995253764763685"><ele>760.0</ele><time>2026-05-03T09:24:31Z</time></trkpt><trkpt lat="43.48903608419421" lon="11.995182330211081"><ele>760.0</ele><time>2026-05-03T09:24:32Z</time></trkpt><trkpt lat="43.48896950241802" lon="11.995106753695294"><ele>760.0</ele><time>2026-05-03T09:24:33Z</time></trkpt><trkpt lat="43.48891948542578" lon="11.995018480248163"><ele>760.0</ele><time>2026-05-03T09:24:34Z</time></trkpt><trkpt lat="43.48886550406232" lon="11.994931009235357"><ele>760.0</ele><time>2026-05-03T09:24:35Z</time></trkpt><trkpt lat="43.48883692137902" lon="11.994763587653294"><ele>759.1666666666667</ele><time>2026-05-03T09:24:36Z</time></trkpt><trkpt lat="43.488795829703925" lon="11.994668516737036"><ele>758.3333333333334</ele><time>2026-05-03T09:24:37Z</time></trkpt><trkpt lat="43.48875484221389" lon="11.99456424597376"><ele>757.5</ele><time>2026-05-03T09:24:38Z</time></trkpt><trkpt lat="43.48866526554691" lon="11.994572282530179"><ele>756.6666666666666</ele><time>2026-05-03T09:24:40Z</time></trkpt><trkpt lat="43.48862674901985" lon="11.994480021181445"><ele>755.8333333333333</ele><time>2026-05-03T09:24:41Z</time></trkpt><trkpt lat="43.48858940411622" lon="11.994337210240268"><ele>755.0</ele><time>2026-05-03T09:24:42Z</time></trkpt><trkpt lat="43.488528918754994" lon="11.994220789530903"><ele>759.1666666666666</ele><time>2026-05-03T09:24:44Z</time></trkpt><trkpt lat="43.48850185040725" lon="11.994094817840297"><ele>763.3333333333333</ele><time>2026-05-03T09:24:48Z</time></trkpt><trkpt lat="43.48850146764117" lon="11.993964653088716"><ele>767.5</ele><time>2026-05-03T09:24:50Z</time></trkpt><trkpt lat="43.48843438641933" lon="11.993937400641755"><ele>771.6666666666666</ele><time>2026-05-03T09:24:52Z</time></trkpt><trkpt lat="43.488347627275566" lon="11.993897045692677"><ele>775.8333333333334</ele><time>2026-05-03T09:24:54Z</time></trkpt><trkpt lat="43.48830043568178" lon="11.993827516601103"><ele>780.0</ele><time>2026-05-03T09:24:56Z</time></trkpt><trkpt lat="43.488267802618395" lon="11.993745988556965"><ele>806.0</ele><time>2026-05-03T09:24:58Z</time></trkpt><trkpt lat="43.48804667644808" lon="11.993091362116116"><ele>806.0000000000001</ele><time>2026-05-03T09:25:01Z</time></trkpt><trkpt lat="43.48801989625721" lon="11.992983570839819"><ele>806.0</ele><time>2026-05-03T09:25:02Z</time></trkpt><trkpt lat="43.487966477617896" lon="11.992847667596209"><ele>806.0</ele><time>2026-05-03T09:25:04Z</time></trkpt><trkpt lat="43.4879095717326" lon="11.992795763747392"><ele>806.0</ele><time>2026-05-03T09:25:05Z</time></trkpt><trkpt lat="43.48784588610205" lon="11.992774829583983"><ele>806.0000000000001</ele><time>2026-05-03T09:25:06Z</time></trkpt><trkpt lat="43.48777406742083" lon="11.992774937515225"><ele>806.0</ele><time>2026-05-03T09:25:07Z</time></trkpt><trkpt lat="43.48768418433928" lon="11.992766188864172"><ele>806.1999999999999</ele><time>2026-05-03T09:25:08Z</time></trkpt><trkpt lat="43.48758332799378" lon="11.992695074551262"><ele>806.4</ele><time>2026-05-03T09:25:10Z</time></trkpt><trkpt lat="43.48753987419" lon="11.99262811513306"><ele>806.6</ele><time>2026-05-03T09:25:11Z</time></trkpt><trkpt lat="43.487494367936" lon="11.99253239104918"><ele>806.8</ele><time>2026-05-03T09:25:12Z</time></trkpt><trkpt lat="43.48745679399194" lon="11.992430929408396"><ele>807.0</ele><time>2026-05-03T09:25:13Z</time></trkpt><trkpt lat="43.48742156717004" lon="11.992263155297666"><ele>807.0</ele><time>2026-05-03T09:25:14Z</time></trkpt><trkpt lat="43.4873633683182" lon="11.992110075241174"><ele>807.0</ele><time>2026-05-03T09:25:16Z</time></trkpt><trkpt lat="43.48735671379822" lon="11.991982332277246"><ele>807.0</ele><time>2026-05-03T09:25:17Z</time></trkpt><trkpt lat="43.48735077520928" lon="11.99187493135815"><ele>807.0</ele><time>2026-05-03T09:25:18Z</time></trkpt><trkpt lat="43.48732957483507" lon="11.99175487130183"><ele>807.0</ele><time>2026-05-03T09:25:19Z</time></trkpt><trkpt lat="43.48747267629541" lon="11.99205608051053"><ele>807.0</ele><time>2026-05-03T09:25:20Z</time></trkpt><trkpt lat="43.48738029517999" lon="11.991858629813294"><ele>807.0</ele><time>2026-05-03T09:25:22Z</time></trkpt><trkpt lat="43.48725161421089" lon="11.991701932699643"><ele>807.0</ele><time>2026-05-03T09:25:23Z</time></trkpt><trkpt lat="43.48709452055902" lon="11.991725135257878"><ele>809.25</ele><time>2026-05-03T09:25:32Z</time></trkpt><trkpt lat="43.486955486047684" lon="11.991641679442743"><ele>811.5</ele><time>2026-05-03T09:25:34Z</time></trkpt><trkpt lat="43.48685679216571" lon="11.991586282405478"><ele>813.75</ele><time>2026-05-03T09:25:35Z</time></trkpt><trkpt lat="43.486754656248856" lon="11.991470215493223"><ele>816.0</ele><time>2026-05-03T09:25:37Z</time></trkpt><trkpt lat="43.48670843561009" lon="11.991385189654792"><ele>816.0</ele><time>2026-05-03T09:25:38Z</time></trkpt><trkpt lat="43.48667229829291" lon="11.991265836270625"><ele>816.0</ele><time>2026-05-03T09:25:39Z</time></trkpt><trkpt lat="43.48663810123711" lon="11.99113245642944"><ele>816.0</ele><time>2026-05-03T09:25:40Z</time></trkpt><trkpt lat="43.486605643263275" lon="11.991024268772582"><ele>816.0</ele><time>2026-05-03T09:25:41Z</time></trkpt><trkpt lat="43.486586146579505" lon="11.990940605249438"><ele>816.0</ele><time>2026-05-03T09:25:42Z</time></trkpt><trkpt lat="43.48658038112121" lon="11.990839986846007"><ele>816.0</ele><time>2026-05-03T09:25:43Z</time></trkpt><trkpt lat="43.48658394943855" lon="11.990753264412938"><ele>817.5</ele><time>2026-05-03T09:25:44Z</time></trkpt><trkpt lat="43.486580526289515" lon="11.990663108189363"><ele>819.0</ele><time>2026-05-03T09:25:45Z</time></trkpt><trkpt lat="43.48658380695277" lon="11.990566585980957"><ele>820.5</ele><time>2026-05-03T09:25:46Z</time></trkpt><trkpt lat="43.48658791196032" lon="11.990474157496987"><ele>822.0</ele><time>2026-05-03T09:25:47Z</time></trkpt><trkpt lat="43.48658253256771" lon="11.990380331993371"><ele>823.5</ele><time>2026-05-03T09:25:48Z</time></trkpt><trkpt lat="43.486549820756245" lon="11.990245871429595"><ele>825.0</ele><time>2026-05-03T09:25:50Z</time></trkpt><trkpt lat="43.48647504276372" lon="11.990192910473633"><ele>825.0</ele><time>2026-05-03T09:25:52Z</time></trkpt><trkpt lat="43.486417929287896" lon="11.990151573466587"><ele>825.0</ele><time>2026-05-03T09:25:53Z</time></trkpt><trkpt lat="43.486348346295316" lon="11.990133035715294"><ele>825.0</ele><time>2026-05-03T09:25:55Z</time></trkpt><trkpt lat="43.48627020214028" lon="11.990104389041537"><ele>825.0</ele><time>2026-05-03T09:25:56Z</time></trkpt><trkpt lat="43.48618297423001" lon="11.990066922859784"><ele>825.0</ele><time>2026-05-03T09:25:57Z</time></trkpt><trkpt lat="43.486105108937444" lon="11.990008053776316"><ele>825.0</ele><time>2026-05-03T09:25:59Z</time></trkpt><trkpt lat="43.48596281390503" lon="11.989777115252357"><ele>824.1666666666666</ele><time>2026-05-03T09:26:01Z</time></trkpt><trkpt lat="43.485931025603236" lon="11.989689520154169"><ele>823.3333333333333</ele><time>2026-05-03T09:26:02Z</time></trkpt><trkpt lat="43.485892379652086" lon="11.989610557573524"><ele>822.5</ele><time>2026-05-03T09:26:03Z</time></trkpt><trkpt lat="43.48578663658998" lon="11.989571512008038"><ele>821.6666666666666</ele><time>2026-05-03T09:26:05Z</time></trkpt><trkpt lat="43.4856954692554" lon="11.989637745211065"><ele>820.8333333333333</ele><time>2026-05-03T09:26:06Z</time></trkpt><trkpt lat="43.48561173363497" lon="11.9896337928243"><ele>820.0</ele><time>2026-05-03T09:26:07Z</time></trkpt><trkpt lat="43.48552145162819" lon="11.989658639574165"><ele>820.0</ele><time>2026-05-03T09:26:08Z</time></trkpt><trkpt lat="43.48543101171265" lon="11.989677156789956"><ele>820.0</ele><time>2026-05-03T09:26:09Z</time></trkpt><trkpt lat="43.48533803790791" lon="11.989691696419913"><ele>820.0</ele><time>2026-05-03T09:26:10Z</time></trkpt><trkpt lat="43.48521244297189" lon="11.989724844744066"><ele>820.0</ele><time>2026-05-03T09:26:11Z</time></trkpt><trkpt lat="43.485104944377554" lon="11.989739131034467"><ele>820.0</ele><time>2026-05-03T09:26:12Z</time></trkpt><trkpt lat="43.48501481707353" lon="11.98977000930153"><ele>820.3333333333333</ele><time>2026-05-03T09:26:13Z</time></trkpt><trkpt lat="43.484946727163795" lon="11.98978485912261"><ele>820.6666666666666</ele><time>2026-05-03T09:26:14Z</time></trkpt><trkpt lat="43.48487717394735" lon="11.989778277891888"><ele>821.0</ele><time>2026-05-03T09:26:15Z</time></trkpt><trkpt lat="43.484811414489464" lon="11.989797880035837"><ele>821.3333333333333</ele><time>2026-05-03T09:26:16Z</time></trkpt><trkpt lat="43.48474535058933" lon="11.98980522930573"><ele>821.6666666666666</ele><time>2026-05-03T09:26:17Z</time></trkpt><trkpt lat="43.48464089065862" lon="11.989778774876813"><ele>822.0</ele><time>2026-05-03T09:26:19Z</time></trkpt><trkpt lat="43.484551566545996" lon="11.989799716423336"><ele>822.3333333333334</ele><time>2026-05-03T09:29:16.001Z</time></trkpt><trkpt lat="43.48447776381621" lon="11.989786085090323"><ele>822.6666666666667</ele><time>2026-05-03T09:29:17.001Z</time></trkpt><trkpt lat="43.48438380454666" lon="11.989793656833438"><ele>823.0</ele><time>2026-05-03T09:29:18.001Z</time></trkpt><trkpt lat="43.4843203517507" lon="11.989806480709968"><ele>823.3333333333334</ele><time>2026-05-03T09:29:19.001Z</time></trkpt><trkpt lat="43.48424490091883" lon="11.98980654469329"><ele>823.6666666666667</ele><time>2026-05-03T09:29:20.001Z</time></trkpt><trkpt lat="43.48413776258364" lon="11.989790550522088"><ele>824.0</ele><time>2026-05-03T09:29:21.001Z</time></trkpt><trkpt lat="43.48404358540326" lon="11.989787831289846"><ele>824.0</ele><time>2026-05-03T09:29:22.001Z</time></trkpt><trkpt lat="43.48393844620295" lon="11.989780998586449"><ele>824.0</ele><time>2026-05-03T09:29:23.001Z</time></trkpt><trkpt lat="43.483852526238124" lon="11.989797289139831"><ele>824.0</ele><time>2026-05-03T09:29:24Z</time></trkpt><trkpt lat="43.483759822267196" lon="11.98985492995733"><ele>824.0</ele><time>2026-05-03T09:29:26Z</time></trkpt><trkpt lat="43.483646426928566" lon="11.989817329058644"><ele>824.0</ele><time>2026-05-03T09:29:28Z</time></trkpt><trkpt lat="43.483581979220226" lon="11.98978884942108"><ele>825.8333333333334</ele><time>2026-05-03T09:29:29Z</time></trkpt><trkpt lat="43.48352117992227" lon="11.989754686715598"><ele>827.6666666666667</ele><time>2026-05-03T09:29:30Z</time></trkpt><trkpt lat="43.483422984086125" lon="11.989735536554294"><ele>829.5</ele><time>2026-05-03T09:29:32Z</time></trkpt><trkpt lat="43.483304298194014" lon="11.989722443377165"><ele>831.3333333333333</ele><time>2026-05-03T09:29:34Z</time></trkpt><trkpt lat="43.48323365775133" lon="11.98972589757472"><ele>833.1666666666666</ele><time>2026-05-03T09:29:35Z</time></trkpt><trkpt lat="43.483170202791065" lon="11.989731836145268"><ele>835.0</ele><time>2026-05-03T09:29:36Z</time></trkpt><trkpt lat="43.48304967224323" lon="11.989741157509785"><ele>834.9999999999999</ele><time>2026-05-03T09:29:38Z</time></trkpt><trkpt lat="43.482985167485474" lon="11.989760409995547"><ele>835.0</ele><time>2026-05-03T09:29:39Z</time></trkpt><trkpt lat="43.48287171455118" lon="11.989756327265235"><ele>835.0</ele><time>2026-05-03T09:29:41Z</time></trkpt><trkpt lat="43.48279507647431" lon="11.989757338948092"><ele>835.0</ele><time>2026-05-03T09:29:42Z</time></trkpt><trkpt lat="43.4826976064656" lon="11.989781564035349"><ele>834.9999999999999</ele><time>2026-05-03T09:29:44Z</time></trkpt><trkpt lat="43.4826126390975" lon="11.989751324631886"><ele>835.0</ele><time>2026-05-03T09:29:46Z</time></trkpt><trkpt lat="43.4825450855564" lon="11.989727525008348"><ele>838.5</ele><time>2026-05-03T09:29:47Z</time></trkpt><trkpt lat="43.482455827938644" lon="11.98974698413527"><ele>842.0</ele><time>2026-05-03T09:29:49Z</time></trkpt><trkpt lat="43.48238513317459" lon="11.989822269224973"><ele>845.5</ele><time>2026-05-03T09:29:51Z</time></trkpt><trkpt lat="43.48225737847168" lon="11.989968852865044"><ele>849.0</ele><time>2026-05-03T09:29:53Z</time></trkpt><trkpt lat="43.482219612069535" lon="11.990111040707264"><ele>850.6666666666666</ele><time>2026-05-03T09:29:55Z</time></trkpt><trkpt lat="43.48216905423177" lon="11.990245789086453"><ele>852.3333333333333</ele><time>2026-05-03T09:29:57Z</time></trkpt><trkpt lat="43.48212837664515" lon="11.9903413192806"><ele>854.0</ele><time>2026-05-03T09:29:58Z</time></trkpt><trkpt lat="43.4820872419028" lon="11.990417664293402"><ele>855.6666666666666</ele><time>2026-05-03T09:29:59Z</time></trkpt><trkpt lat="43.48203144879297" lon="11.990487575826705"><ele>857.3333333333333</ele><time>2026-05-03T09:30:00Z</time></trkpt><trkpt lat="43.48195305107217" lon="11.99056577647252"><ele>859.0</ele><time>2026-05-03T09:30:01Z</time></trkpt><trkpt lat="43.48186232191935" lon="11.990643088444774"><ele>860.4000000000001</ele><time>2026-05-03T09:30:02Z</time></trkpt><trkpt lat="43.481724197753636" lon="11.990729084100444"><ele>861.8000000000001</ele><time>2026-05-03T09:30:03Z</time></trkpt><trkpt lat="43.481635402821865" lon="11.990796209328828"><ele>863.1999999999999</ele><time>2026-05-03T09:30:04Z</time></trkpt><trkpt lat="43.481548424951946" lon="11.990852842510023"><ele>864.5999999999999</ele><time>2026-05-03T09:30:05Z</time></trkpt><trkpt lat="43.481481081693964" lon="11.990870675354715"><ele>866.0</ele><time>2026-05-03T09:30:06Z</time></trkpt><trkpt lat="43.481392723041154" lon="11.990868296682542"><ele>866.1999999999999</ele><time>2026-05-03T09:30:07Z</time></trkpt><trkpt lat="43.481299136328985" lon="11.990854684322622"><ele>866.3999999999999</ele><time>2026-05-03T09:30:08Z</time></trkpt><trkpt lat="43.48120737828312" lon="11.99083326861491"><ele>866.6</ele><time>2026-05-03T09:30:09Z</time></trkpt><trkpt lat="43.481088670783166" lon="11.990869476251442"><ele>866.8</ele><time>2026-05-03T09:30:11Z</time></trkpt><trkpt lat="43.481014319697145" lon="11.990905568415473"><ele>867.0</ele><time>2026-05-03T09:30:12Z</time></trkpt><trkpt lat="43.48096809891992" lon="11.99096726058524"><ele>868.0</ele><time>2026-05-03T09:30:14Z</time></trkpt><trkpt lat="43.48088347456568" lon="11.991073601243565"><ele>869.0</ele><time>2026-05-03T09:30:15Z</time></trkpt><trkpt lat="43.48081386933857" lon="11.991180021976215"><ele>870.0</ele><time>2026-05-03T09:30:16Z</time></trkpt><trkpt lat="43.480724672269346" lon="11.991282283634042"><ele>871.0</ele><time>2026-05-03T09:30:17Z</time></trkpt><trkpt lat="43.480647227944424" lon="11.991257476762572"><ele>872.0</ele><time>2026-05-03T09:30:35Z</time></trkpt><trkpt lat="43.48054665129595" lon="11.99126092408224"><ele>872.0</ele><time>2026-05-03T09:30:37Z</time></trkpt><trkpt lat="43.48048021955858" lon="11.991266241603393"><ele>872.0</ele><time>2026-05-03T09:30:38Z</time></trkpt><trkpt lat="43.48040960670951" lon="11.991267715301788"><ele>872.0</ele><time>2026-05-03T09:30:39Z</time></trkpt><trkpt lat="43.48030875593296" lon="11.991277767575482"><ele>872.0</ele><time>2026-05-03T09:30:41Z</time></trkpt><trkpt lat="43.48020756463885" lon="11.991170501253618"><ele>872.0</ele><time>2026-05-03T09:30:44Z</time></trkpt><trkpt lat="43.48012123692144" lon="11.99114061231554"><ele>873.4000000000001</ele><time>2026-05-03T09:30:45Z</time></trkpt><trkpt lat="43.480049782313564" lon="11.991141235592037"><ele>874.8000000000001</ele><time>2026-05-03T09:30:46Z</time></trkpt><trkpt lat="43.47992642052107" lon="11.991136286328697"><ele>876.2</ele><time>2026-05-03T09:30:48Z</time></trkpt><trkpt lat="43.47984232726315" lon="11.991157643198916"><ele>877.6</ele><time>2026-05-03T09:30:49Z</time></trkpt><trkpt lat="43.47975231980786" lon="11.991213811522252"><ele>879.0</ele><time>2026-05-03T09:30:50Z</time></trkpt><trkpt lat="43.4796831553712" lon="11.991262146028296"><ele>879.0</ele><time>2026-05-03T09:30:51Z</time></trkpt><trkpt lat="43.479615811050074" lon="11.99129315402009"><ele>879.0</ele><time>2026-05-03T09:30:52Z</time></trkpt><trkpt lat="43.47954797323616" lon="11.991317473323928"><ele>879.0</ele><time>2026-05-03T09:30:53Z</time></trkpt><trkpt lat="43.479463917726044" lon="11.99135731206768"><ele>879.0</ele><time>2026-05-03T09:30:54Z</time></trkpt><trkpt lat="43.4794003462706" lon="11.99135139397498"><ele>879.0</ele><time>2026-05-03T09:30:55Z</time></trkpt><trkpt lat="43.479302422331706" lon="11.991333468291261"><ele>879.0</ele><time>2026-05-03T09:30:56Z</time></trkpt><trkpt lat="43.47922215906241" lon="11.991315309020983"><ele>880.6666666666666</ele><time>2026-05-03T09:30:57Z</time></trkpt><trkpt lat="43.479147221284734" lon="11.991309751888958"><ele>882.3333333333333</ele><time>2026-05-03T09:30:58Z</time></trkpt><trkpt lat="43.47903138581316" lon="11.991302740227288"><ele>884.0</ele><time>2026-05-03T09:31:00Z</time></trkpt><trkpt lat="43.47894277995459" lon="11.991307666463728"><ele>885.6666666666666</ele><time>2026-05-03T09:31:01Z</time></trkpt><trkpt lat="43.4788722070098" lon="11.991297788415606"><ele>887.3333333333333</ele><time>2026-05-03T09:31:02Z</time></trkpt><trkpt lat="43.4787970004935" lon="11.991263786114644"><ele>889.0</ele><time>2026-05-03T09:31:03Z</time></trkpt><trkpt lat="43.47868498968663" lon="11.991196085548895"><ele>889.0</ele><time>2026-05-03T09:31:04Z</time></trkpt><trkpt lat="43.47858361066764" lon="11.99113713126571"><ele>889.0000000000001</ele><time>2026-05-03T09:31:05.001Z</time></trkpt><trkpt lat="43.47847871399721" lon="11.991114956578969"><ele>889.0000000000001</ele><time>2026-05-03T09:31:07.001Z</time></trkpt><trkpt lat="43.47836661940893" lon="11.99110295879986"><ele>889.0</ele><time>2026-05-03T09:31:09.001Z</time></trkpt><trkpt lat="43.478248095909095" lon="11.991077430675823"><ele>889.0</ele><time>2026-05-03T09:31:11.001Z</time></trkpt><trkpt lat="43.478182142752296" lon="11.99103561636356"><ele>889.0</ele><time>2026-05-03T09:31:12.001Z</time></trkpt><trkpt lat="43.47810955325494" lon="11.990977627580202"><ele>889.0</ele><time>2026-05-03T09:31:13.001Z</time></trkpt><trkpt lat="43.47801480612174" lon="11.990898115997823"><ele>889.0</ele><time>2026-05-03T09:31:14.001Z</time></trkpt><trkpt lat="43.477881848269774" lon="11.99081489465885"><ele>889.0</ele><time>2026-05-03T09:31:15.001Z</time></trkpt><trkpt lat="43.47772556325834" lon="11.990732882475655"><ele>892.25</ele><time>2026-05-03T09:31:16.001Z</time></trkpt><trkpt lat="43.477582818458636" lon="11.990654439261768"><ele>895.5</ele><time>2026-05-03T09:31:17.001Z</time></trkpt><trkpt lat="43.477462500622195" lon="11.990592405232537"><ele>898.75</ele><time>2026-05-03T09:31:18.001Z</time></trkpt><trkpt lat="43.47736011899811" lon="11.990533028849196"><ele>902.0</ele><time>2026-05-03T09:31:19.001Z</time></trkpt><trkpt lat="43.4772698760644" lon="11.99046786887343"><ele>902.0</ele><time>2026-05-03T09:31:20.001Z</time></trkpt><trkpt lat="43.47717576639556" lon="11.990410339313703"><ele>902.0</ele><time>2026-05-03T09:31:21.001Z</time></trkpt><trkpt lat="43.4770647552589" lon="11.990359774873454"><ele>902.0</ele><time>2026-05-03T09:31:22.001Z</time></trkpt><trkpt lat="43.47695785850767" lon="11.990299240093046"><ele>902.0</ele><time>2026-05-03T09:31:23.001Z</time></trkpt><trkpt lat="43.476855136906565" lon="11.990233915499521"><ele>902.0</ele><time>2026-05-03T09:31:24.001Z</time></trkpt><trkpt lat="43.47676210083678" lon="11.99017116636992"><ele>901.4000000000001</ele><time>2026-05-03T09:31:25.001Z</time></trkpt><trkpt lat="43.47667771214443" lon="11.990103359077354"><ele>900.8000000000001</ele><time>2026-05-03T09:31:26.001Z</time></trkpt><trkpt lat="43.47659728170221" lon="11.990038633884316"><ele>900.2</ele><time>2026-05-03T09:31:27.001Z</time></trkpt><trkpt lat="43.4765100017633" lon="11.98997850153195"><ele>899.6</ele><time>2026-05-03T09:31:28.001Z</time></trkpt><trkpt lat="43.476426364699094" lon="11.98992253870345"><ele>899.0</ele><time>2026-05-03T09:31:29.001Z</time></trkpt><trkpt lat="43.476346886195934" lon="11.989841053608773"><ele>897.8000000000001</ele><time>2026-05-03T09:31:30Z</time></trkpt><trkpt lat="43.47626658927095" lon="11.989745908520243"><ele>896.6000000000001</ele><time>2026-05-03T09:31:31Z</time></trkpt><trkpt lat="43.4761845249658" lon="11.989651284239612"><ele>895.4</ele><time>2026-05-03T09:31:32Z</time></trkpt><trkpt lat="43.4760948198191" lon="11.9895639108424"><ele>894.2</ele><time>2026-05-03T09:31:33Z</time></trkpt><trkpt lat="43.47600215431119" lon="11.989479460938233"><ele>893.0</ele><time>2026-05-03T09:31:34Z</time></trkpt><trkpt lat="43.47591188434194" lon="11.989402745006705"><ele>893.0</ele><time>2026-05-03T09:31:35Z</time></trkpt><trkpt lat="43.47583203347632" lon="11.989343736614897"><ele>893.0</ele><time>2026-05-03T09:31:36Z</time></trkpt><trkpt lat="43.475757922121375" lon="11.989307593022614"><ele>893.0</ele><time>2026-05-03T09:31:37Z</time></trkpt><trkpt lat="43.47566455369246" lon="11.989265331180787"><ele>893.0</ele><time>2026-05-03T09:31:38Z</time></trkpt><trkpt lat="43.475562670412046" lon="11.989228658861089"><ele>893.0</ele><time>2026-05-03T09:31:39Z</time></trkpt><trkpt lat="43.475487802380684" lon="11.98919741415062"><ele>891.1666666666667</ele><time>2026-05-03T09:31:40Z</time></trkpt><trkpt lat="43.4754136180254" lon="11.989212820183443"><ele>889.3333333333334</ele><time>2026-05-03T09:31:41Z</time></trkpt><trkpt lat="43.475329726876765" lon="11.989224253374418"><ele>887.5</ele><time>2026-05-03T09:31:42Z</time></trkpt><trkpt lat="43.475243443772726" lon="11.989228125048067"><ele>885.6666666666667</ele><time>2026-05-03T09:31:43Z</time></trkpt><trkpt lat="43.475147033374995" lon="11.989234276180323"><ele>883.8333333333334</ele><time>2026-05-03T09:31:44Z</time></trkpt><trkpt lat="43.47505340758012" lon="11.989225246750713"><ele>882.0</ele><time>2026-05-03T09:31:45Z</time></trkpt><trkpt lat="43.47495952644761" lon="11.989198086171017"><ele>884.1666666666666</ele><time>2026-05-03T09:31:46Z</time></trkpt><trkpt lat="43.474878057930596" lon="11.989161488475581"><ele>886.3333333333333</ele><time>2026-05-03T09:31:47Z</time></trkpt><trkpt lat="43.47480516648519" lon="11.98911811321856"><ele>888.5</ele><time>2026-05-03T09:31:48Z</time></trkpt><trkpt lat="43.474718913272106" lon="11.989069818850615"><ele>890.6666666666666</ele><time>2026-05-03T09:31:49Z</time></trkpt><trkpt lat="43.474632152949255" lon="11.989016535632004"><ele>892.8333333333333</ele><time>2026-05-03T09:31:50Z</time></trkpt><trkpt lat="43.47456133554745" lon="11.988973452343256"><ele>895.0</ele><time>2026-05-03T09:31:51Z</time></trkpt><trkpt lat="43.47448411880071" lon="11.988950801801263"><ele>895.0</ele><time>2026-05-03T09:31:52Z</time></trkpt><trkpt lat="43.474397239406485" lon="11.98896526589918"><ele>895.0</ele><time>2026-05-03T09:31:53Z</time></trkpt><trkpt lat="43.47430694865687" lon="11.988974522876932"><ele>895.0</ele><time>2026-05-03T09:31:54Z</time></trkpt><trkpt lat="43.474231377394524" lon="11.98896932364923"><ele>895.0</ele><time>2026-05-03T09:31:55Z</time></trkpt><trkpt lat="43.47412141143301" lon="11.988864832262472"><ele>895.0</ele><time>2026-05-03T09:31:57Z</time></trkpt><trkpt lat="43.47406022657025" lon="11.98881482692544"><ele>895.0</ele><time>2026-05-03T09:31:58Z</time></trkpt><trkpt lat="43.47396610653151" lon="11.98877347610522"><ele>895.0</ele><time>2026-05-03T09:31:59Z</time></trkpt><trkpt lat="43.47388305302679" lon="11.988737032908519"><ele>895.0</ele><time>2026-05-03T09:32:00Z</time></trkpt><trkpt lat="43.47381467301644" lon="11.988713192342754"><ele>895.0</ele><time>2026-05-03T09:32:01Z</time></trkpt><trkpt lat="43.473712635969115" lon="11.98865396026266"><ele>895.0</ele><time>2026-05-03T09:32:03Z</time></trkpt><trkpt lat="43.47366434694807" lon="11.988553547781551"><ele>894.6</ele><time>2026-05-03T09:32:05Z</time></trkpt><trkpt lat="43.47368064899614" lon="11.988454703996021"><ele>894.2</ele><time>2026-05-03T09:32:07Z</time></trkpt><trkpt lat="43.473728987943225" lon="11.988391608639642"><ele>893.8</ele><time>2026-05-03T09:32:09Z</time></trkpt><trkpt lat="43.47382877894078" lon="11.988177165565512"><ele>893.4</ele><time>2026-05-03T09:32:11Z</time></trkpt><trkpt lat="43.47386089187161" lon="11.988082566465126"><ele>893.0</ele><time>2026-05-03T09:32:12Z</time></trkpt><trkpt lat="43.47387468628254" lon="11.987948509343786"><ele>893.0</ele><time>2026-05-03T09:32:14Z</time></trkpt><trkpt lat="43.473825388437845" lon="11.988068053954908"><ele>893.0</ele><time>2026-05-03T09:34:37Z</time></trkpt><trkpt lat="43.47380142693486" lon="11.987960871713149"><ele>893.0</ele><time>2026-05-03T09:34:47Z</time></trkpt><trkpt lat="43.473735663109984" lon="11.987879904382366"><ele>893.0</ele><time>2026-05-03T09:34:49Z</time></trkpt><trkpt lat="43.47365868366182" lon="11.987815261035607"><ele>893.0</ele><time>2026-05-03T09:34:51Z</time></trkpt><trkpt lat="43.473541501433786" lon="11.987773094656061"><ele>890.8</ele><time>2026-05-03T09:34:53Z</time></trkpt><trkpt lat="43.47341527373481" lon="11.987750964112195"><ele>888.5999999999999</ele><time>2026-05-03T09:34:55Z</time></trkpt><trkpt lat="43.47334102785541" lon="11.987713429174322"><ele>886.4000000000001</ele><time>2026-05-03T09:34:56Z</time></trkpt><trkpt lat="43.47326338480735" lon="11.98767888316437"><ele>884.2</ele><time>2026-05-03T09:34:57Z</time></trkpt><trkpt lat="43.47320085921724" lon="11.987643472446305"><ele>882.0</ele><time>2026-05-03T09:34:58Z</time></trkpt><trkpt lat="43.47309898998065" lon="11.987552598877588"><ele>882.6666666666666</ele><time>2026-05-03T09:35:00Z</time></trkpt><trkpt lat="43.47299583960594" lon="11.98745235475755"><ele>883.3333333333333</ele><time>2026-05-03T09:35:02Z</time></trkpt><trkpt lat="43.472940689990196" lon="11.98737707436329"><ele>884.0</ele><time>2026-05-03T09:35:03Z</time></trkpt><trkpt lat="43.47288671682938" lon="11.987287526502119"><ele>884.6666666666666</ele><time>2026-05-03T09:35:04Z</time></trkpt><trkpt lat="43.4728443480789" lon="11.987194020192147"><ele>885.3333333333333</ele><time>2026-05-03T09:35:05Z</time></trkpt><trkpt lat="43.47281571436961" lon="11.987103487232686"><ele>886.0</ele><time>2026-05-03T09:35:06Z</time></trkpt><trkpt lat="43.47279193252585" lon="11.987020593894522"><ele>882.0</ele><time>2026-05-03T09:35:07Z</time></trkpt><trkpt lat="43.47274317595095" lon="11.986855763041778"><ele>877.9999999999999</ele><time>2026-05-03T09:35:09Z</time></trkpt><trkpt lat="43.47269160818661" lon="11.986775792323076"><ele>873.9999999999999</ele><time>2026-05-03T09:35:10Z</time></trkpt><trkpt lat="43.472621666491236" lon="11.986704371355737"><ele>870.0</ele><time>2026-05-03T09:35:11Z</time></trkpt><trkpt lat="43.47254732689457" lon="11.986613775242391"><ele>866.0</ele><time>2026-05-03T09:35:12Z</time></trkpt><trkpt lat="43.472486535388775" lon="11.98652085132477"><ele>866.0</ele><time>2026-05-03T09:35:13Z</time></trkpt><trkpt lat="43.472412888192295" lon="11.986401902442642"><ele>866.0</ele><time>2026-05-03T09:35:15Z</time></trkpt><trkpt lat="43.47234445052373" lon="11.986237817755281"><ele>866.0</ele><time>2026-05-03T09:35:17Z</time></trkpt><trkpt lat="43.47232309398344" lon="11.98610805568297"><ele>866.0</ele><time>2026-05-03T09:35:18Z</time></trkpt><trkpt lat="43.472311781562006" lon="11.985943286694427"><ele>867.1999999999999</ele><time>2026-05-03T09:35:19Z</time></trkpt><trkpt lat="43.47230691989657" lon="11.985771298669363"><ele>868.3999999999999</ele><time>2026-05-03T09:35:20Z</time></trkpt><trkpt lat="43.47230933185692" lon="11.985662728660223"><ele>869.6</ele><time>2026-05-03T09:35:21Z</time></trkpt><trkpt lat="43.4723459479871" lon="11.985566884498096"><ele>870.8</ele><time>2026-05-03T09:35:23Z</time></trkpt><trkpt lat="43.472422347174266" lon="11.985473346542518"><ele>872.0</ele><time>2026-05-03T09:35:24Z</time></trkpt><trkpt lat="43.47251274393879" lon="11.985350620340727"><ele>872.0</ele><time>2026-05-03T09:35:25Z</time></trkpt><trkpt lat="43.472577849582315" lon="11.985247841878175"><ele>872.0</ele><time>2026-05-03T09:35:26Z</time></trkpt><trkpt lat="43.472629569950584" lon="11.98513066266414"><ele>872.0</ele><time>2026-05-03T09:35:27Z</time></trkpt><trkpt lat="43.47265124035008" lon="11.985007251145563"><ele>872.0</ele><time>2026-05-03T09:35:28Z</time></trkpt><trkpt lat="43.472667678167426" lon="11.984842261666646"><ele>872.0</ele><time>2026-05-03T09:35:29Z</time></trkpt><trkpt lat="43.47267917957794" lon="11.984679240880288"><ele>871.5</ele><time>2026-05-03T09:35:30Z</time></trkpt><trkpt lat="43.472676413839515" lon="11.984518596183939"><ele>871.0</ele><time>2026-05-03T09:35:31.001Z</time></trkpt><trkpt lat="43.472652413749" lon="11.984347093449092"><ele>870.5</ele><time>2026-05-03T09:35:32.001Z</time></trkpt><trkpt lat="43.472612016598674" lon="11.984172038293284"><ele>870.0</ele><time>2026-05-03T09:35:33.001Z</time></trkpt><trkpt lat="43.472569514822645" lon="11.984003518604181"><ele>871.5</ele><time>2026-05-03T09:35:34.001Z</time></trkpt><trkpt lat="43.472516463447064" lon="11.983827074060102"><ele>873.0</ele><time>2026-05-03T09:35:35.001Z</time></trkpt><trkpt lat="43.47246618225589" lon="11.983666490118148"><ele>874.5</ele><time>2026-05-03T09:35:36.001Z</time></trkpt><trkpt lat="43.472424858557304" lon="11.983514116799059"><ele>876.0</ele><time>2026-05-03T09:35:37.001Z</time></trkpt><trkpt lat="43.47239288260122" lon="11.983383966316099"><ele>878.75</ele><time>2026-05-03T09:35:38.001Z</time></trkpt><trkpt lat="43.47233133878959" lon="11.983248729055273"><ele>881.5</ele><time>2026-05-03T09:35:39.001Z</time></trkpt><trkpt lat="43.47228378580427" lon="11.983087383693968"><ele>884.25</ele><time>2026-05-03T09:35:40.001Z</time></trkpt><trkpt lat="43.4722432412569" lon="11.982951895828528"><ele>887.0</ele><time>2026-05-03T09:35:41.001Z</time></trkpt><trkpt lat="43.47218610228414" lon="11.982824650249606"><ele>887.0</ele><time>2026-05-03T09:35:42Z</time></trkpt><trkpt lat="43.472119584955585" lon="11.982767611083483"><ele>887.0</ele><time>2026-05-03T09:35:43Z</time></trkpt><trkpt lat="43.47200965588361" lon="11.982693657325585"><ele>887.0</ele><time>2026-05-03T09:35:44Z</time></trkpt><trkpt lat="43.47190649660778" lon="11.982618914137724"><ele>887.0</ele><time>2026-05-03T09:35:45Z</time></trkpt><trkpt lat="43.471795536460384" lon="11.982535749864883"><ele>887.0</ele><time>2026-05-03T09:35:46Z</time></trkpt><trkpt lat="43.471677223640505" lon="11.982502099189292"><ele>886.8</ele><time>2026-05-03T09:35:47Z</time></trkpt><trkpt lat="43.47157899233855" lon="11.982461591797662"><ele>886.6</ele><time>2026-05-03T09:35:48Z</time></trkpt><trkpt lat="43.47150487072957" lon="11.982428002773487"><ele>886.3999999999999</ele><time>2026-05-03T09:35:49Z</time></trkpt><trkpt lat="43.4714425084643" lon="11.982375623052711"><ele>886.1999999999999</ele><time>2026-05-03T09:35:50Z</time></trkpt><trkpt lat="43.47135474134245" lon="11.9822789962454"><ele>886.0</ele><time>2026-05-03T09:35:51Z</time></trkpt><trkpt lat="43.4712685437513" lon="11.982162007664718"><ele>886.0</ele><time>2026-05-03T09:35:52Z</time></trkpt><trkpt lat="43.47119746646409" lon="11.98205737173089"><ele>885.9999999999999</ele><time>2026-05-03T09:35:53Z</time></trkpt><trkpt lat="43.47114614185887" lon="11.98194495874605"><ele>885.9999999999999</ele><time>2026-05-03T09:35:55Z</time></trkpt><trkpt lat="43.47121760822195" lon="11.981833911170565"><ele>886.0</ele><time>2026-05-03T09:35:57Z</time></trkpt><trkpt lat="43.47131487583166" lon="11.981818406080652"><ele>886.0</ele><time>2026-05-03T09:35:58Z</time></trkpt><trkpt lat="43.47142104957809" lon="11.981812811467982"><ele>886.0</ele><time>2026-05-03T09:35:59Z</time></trkpt><trkpt lat="43.471522324789795" lon="11.981819349472623"><ele>885.9999999999999</ele><time>2026-05-03T09:36:00Z</time></trkpt><trkpt lat="43.47162918257925" lon="11.98179339933454"><ele>885.9999999999999</ele><time>2026-05-03T09:36:01Z</time></trkpt><trkpt lat="43.47173192183764" lon="11.981745065195728"><ele>886.0</ele><time>2026-05-03T09:36:02Z</time></trkpt><trkpt lat="43.471843310488346" lon="11.981695923162361"><ele>886.0</ele><time>2026-05-03T09:36:03Z</time></trkpt><trkpt lat="43.471959739236944" lon="11.981639545717043"><ele>888.6666666666666</ele><time>2026-05-03T09:36:04Z</time></trkpt><trkpt lat="43.47206960187447" lon="11.981581544020887"><ele>891.3333333333333</ele><time>2026-05-03T09:36:05Z</time></trkpt><trkpt lat="43.4721676560366" lon="11.981512347799645"><ele>894.0</ele><time>2026-05-03T09:36:06Z</time></trkpt><trkpt lat="43.47223992338542" lon="11.981461516095239"><ele>896.6666666666667</ele><time>2026-05-03T09:36:07Z</time></trkpt><trkpt lat="43.472303353177125" lon="11.981471358690241"><ele>899.3333333333334</ele><time>2026-05-03T09:36:08Z</time></trkpt><trkpt lat="43.47236268698095" lon="11.981502567780922"><ele>902.0</ele><time>2026-05-03T09:36:09Z</time></trkpt><trkpt lat="43.47239327688311" lon="11.981579430304668"><ele>902.6</ele><time>2026-05-03T09:36:10Z</time></trkpt><trkpt lat="43.47244925781253" lon="11.981685630755386"><ele>903.2</ele><time>2026-05-03T09:36:12Z</time></trkpt><trkpt lat="43.47252949899385" lon="11.981662876039282"><ele>903.8</ele><time>2026-05-03T09:36:14Z</time></trkpt><trkpt lat="43.472580788660174" lon="11.981525790528543"><ele>904.4</ele><time>2026-05-03T09:36:16Z</time></trkpt><trkpt lat="43.47255412508276" lon="11.981390167371408"><ele>905.0</ele><time>2026-05-03T09:36:18Z</time></trkpt><trkpt lat="43.47255663074999" lon="11.981219381708224"><ele>907.75</ele><time>2026-05-03T09:36:19Z</time></trkpt><trkpt lat="43.47253357925518" lon="11.981046811595498"><ele>910.5</ele><time>2026-05-03T09:36:20Z</time></trkpt><trkpt lat="43.47248141684673" lon="11.980880192275414"><ele>913.25</ele><time>2026-05-03T09:36:21Z</time></trkpt><trkpt lat="43.47240930543966" lon="11.980732875497788"><ele>916.0</ele><time>2026-05-03T09:36:22Z</time></trkpt><trkpt lat="43.4723454105888" lon="11.9806018538739"><ele>917.0</ele><time>2026-05-03T09:36:23Z</time></trkpt><trkpt lat="43.47227652766682" lon="11.980491824741883"><ele>917.9999999999999</ele><time>2026-05-03T09:36:24Z</time></trkpt><trkpt lat="43.472215711005305" lon="11.98040546150038"><ele>918.9999999999999</ele><time>2026-05-03T09:36:25Z</time></trkpt><trkpt lat="43.47215570150289" lon="11.980307482968307"><ele>920.0</ele><time>2026-05-03T09:36:26Z</time></trkpt><trkpt lat="43.4720916718366" lon="11.980215013344484"><ele>921.0</ele><time>2026-05-03T09:36:27Z</time></trkpt><trkpt lat="43.472023600258154" lon="11.980148825976443"><ele>921.0</ele><time>2026-05-03T09:36:28Z</time></trkpt><trkpt lat="43.47194221920515" lon="11.980097249331074"><ele>920.9999999999999</ele><time>2026-05-03T09:36:29Z</time></trkpt><trkpt lat="43.47183992331259" lon="11.980053874918049"><ele>920.9999999999999</ele><time>2026-05-03T09:36:30Z</time></trkpt><trkpt lat="43.47173415354565" lon="11.980017657444852"><ele>921.0</ele><time>2026-05-03T09:36:31Z</time></trkpt><trkpt lat="43.47162390865475" lon="11.97999874928716"><ele>921.0</ele><time>2026-05-03T09:36:32Z</time></trkpt><trkpt lat="43.471502169161575" lon="11.979999007826622"><ele>924.25</ele><time>2026-05-03T09:36:33Z</time></trkpt><trkpt lat="43.47137867625583" lon="11.979996213110384"><ele>927.5</ele><time>2026-05-03T09:36:34Z</time></trkpt><trkpt lat="43.471258026005195" lon="11.979983065958658"><ele>930.75</ele><time>2026-05-03T09:36:35Z</time></trkpt><trkpt lat="43.471140463122836" lon="11.979973007080641"><ele>934.0</ele><time>2026-05-03T09:36:36Z</time></trkpt><trkpt lat="43.47103488892477" lon="11.97996196644916"><ele>936.2</ele><time>2026-05-03T09:36:37Z</time></trkpt><trkpt lat="43.47093073711878" lon="11.979960038642826"><ele>938.4000000000001</ele><time>2026-05-03T09:36:38Z</time></trkpt><trkpt lat="43.47082386728343" lon="11.97996907111715"><ele>940.6</ele><time>2026-05-03T09:36:39Z</time></trkpt><trkpt lat="43.470712070197784" lon="11.979989581614245"><ele>942.8</ele><time>2026-05-03T09:36:40Z</time></trkpt><trkpt lat="43.470613864153485" lon="11.98000245442449"><ele>945.0</ele><time>2026-05-03T09:36:41Z</time></trkpt><trkpt lat="43.470523289124266" lon="11.979989090293053"><ele>945.0</ele><time>2026-05-03T09:36:42Z</time></trkpt><trkpt lat="43.47045362729938" lon="11.979938762793077"><ele>945.0</ele><time>2026-05-03T09:36:43Z</time></trkpt><trkpt lat="43.47038815254446" lon="11.979867213656503"><ele>945.0</ele><time>2026-05-03T09:36:44Z</time></trkpt><trkpt lat="43.470314980314356" lon="11.979775072275954"><ele>945.0</ele><time>2026-05-03T09:36:45Z</time></trkpt><trkpt lat="43.470239273766786" lon="11.979681338379885"><ele>945.0</ele><time>2026-05-03T09:36:46Z</time></trkpt><trkpt lat="43.470169010419475" lon="11.979577921112897"><ele>945.1666666666666</ele><time>2026-05-03T09:36:47Z</time></trkpt><trkpt lat="43.47014617874708" lon="11.97948581802866"><ele>945.3333333333333</ele><time>2026-05-03T09:36:48Z</time></trkpt><trkpt lat="43.47011721212103" lon="11.979401843263146"><ele>945.5</ele><time>2026-05-03T09:36:49Z</time></trkpt><trkpt lat="43.47007534169582" lon="11.979299835231853"><ele>945.6666666666666</ele><time>2026-05-03T09:36:51Z</time></trkpt><trkpt lat="43.469968971902816" lon="11.979360662058399"><ele>945.8333333333333</ele><time>2026-05-03T09:36:52Z</time></trkpt><trkpt lat="43.46988653959212" lon="11.979348721789991"><ele>946.0</ele><time>2026-05-03T09:37:00Z</time></trkpt><trkpt lat="43.4697567498826" lon="11.979319593209588"><ele>945.9999999999999</ele><time>2026-05-03T09:37:02Z</time></trkpt><trkpt lat="43.46967967006925" lon="11.979284471321536"><ele>946.0</ele><time>2026-05-03T09:37:03Z</time></trkpt><trkpt lat="43.469613519703465" lon="11.979252166954735"><ele>946.0</ele><time>2026-05-03T09:37:04Z</time></trkpt><trkpt lat="43.46954975864821" lon="11.979228820024284"><ele>946.0</ele><time>2026-05-03T09:37:05Z</time></trkpt><trkpt lat="43.469441984476006" lon="11.97919050730786"><ele>945.9999999999999</ele><time>2026-05-03T09:37:07Z</time></trkpt><trkpt lat="43.469324568853345" lon="11.979165088125804"><ele>946.0</ele><time>2026-05-03T09:37:09Z</time></trkpt><trkpt lat="43.46925916245774" lon="11.979157483122107"><ele>946.1428571428571</ele><time>2026-05-03T09:37:10Z</time></trkpt><trkpt lat="43.46918982020357" lon="11.979164012692847"><ele>946.2857142857142</ele><time>2026-05-03T09:37:11Z</time></trkpt><trkpt lat="43.46911984945578" lon="11.979194468871366"><ele>946.4285714285713</ele><time>2026-05-03T09:37:12Z</time></trkpt><trkpt lat="43.469045142589884" lon="11.97923450921043"><ele>946.5714285714286</ele><time>2026-05-03T09:37:13Z</time></trkpt><trkpt lat="43.46897623553139" lon="11.979274951136395"><ele>946.7142857142856</ele><time>2026-05-03T09:37:14Z</time></trkpt><trkpt lat="43.4689153852184" lon="11.979305868568515"><ele>946.8571428571428</ele><time>2026-05-03T09:37:15Z</time></trkpt><trkpt lat="43.46884949918272" lon="11.97933676637095"><ele>947.0</ele><time>2026-05-03T09:37:16Z</time></trkpt><trkpt lat="43.46878082978847" lon="11.979366449656702"><ele>948.3333333333334</ele><time>2026-05-03T09:37:17Z</time></trkpt><trkpt lat="43.468701606820936" lon="11.97941493263598"><ele>949.6666666666667</ele><time>2026-05-03T09:37:18Z</time></trkpt><trkpt lat="43.46862158735446" lon="11.979475157897278"><ele>951.0</ele><time>2026-05-03T09:37:19Z</time></trkpt><trkpt lat="43.46855321493884" lon="11.979545124591036"><ele>952.3333333333333</ele><time>2026-05-03T09:37:20Z</time></trkpt><trkpt lat="43.46849174080015" lon="11.979630113165634"><ele>953.6666666666666</ele><time>2026-05-03T09:37:21Z</time></trkpt><trkpt lat="43.46843789882973" lon="11.979742528631286"><ele>955.0</ele><time>2026-05-03T09:37:22Z</time></trkpt><trkpt lat="43.46835379997753" lon="11.979823327065112"><ele>955.0</ele><time>2026-05-03T09:37:23Z</time></trkpt><trkpt lat="43.46827780314626" lon="11.97991096075279"><ele>955.0</ele><time>2026-05-03T09:37:24Z</time></trkpt><trkpt lat="43.46821393594398" lon="11.98001367670177"><ele>955.0</ele><time>2026-05-03T09:37:25Z</time></trkpt><trkpt lat="43.46814252674379" lon="11.980091925626322"><ele>955.0</ele><time>2026-05-03T09:37:26Z</time></trkpt><trkpt lat="43.468077194709714" lon="11.980167738172039"><ele>955.0</ele><time>2026-05-03T09:37:27Z</time></trkpt><trkpt lat="43.46801515013855" lon="11.980251876899365"><ele>956.0</ele><time>2026-05-03T09:37:28Z</time></trkpt><trkpt lat="43.4679390560584" lon="11.980346341706673"><ele>957.0</ele><time>2026-05-03T09:37:29Z</time></trkpt><trkpt lat="43.46784883490184" lon="11.980457949185617"><ele>958.0</ele><time>2026-05-03T09:37:30Z</time></trkpt><trkpt lat="43.46776617388874" lon="11.980550607295555"><ele>959.0</ele><time>2026-05-03T09:37:31Z</time></trkpt><trkpt lat="43.46770397471985" lon="11.980615281559137"><ele>960.0</ele><time>2026-05-03T09:37:32Z</time></trkpt><trkpt lat="43.46759620910256" lon="11.980669742942219"><ele>960.0</ele><time>2026-05-03T09:37:34Z</time></trkpt><trkpt lat="43.4675332089626" lon="11.980677554209358"><ele>960.0</ele><time>2026-05-03T09:37:35Z</time></trkpt><trkpt lat="43.46740313104762" lon="11.98067866737773"><ele>960.0</ele><time>2026-05-03T09:37:37Z</time></trkpt><trkpt lat="43.467334078202164" lon="11.980675343708153"><ele>960.0</ele><time>2026-05-03T09:37:38Z</time></trkpt><trkpt lat="43.467263873722565" lon="11.980671964610481"><ele>960.0</ele><time>2026-05-03T09:37:39Z</time></trkpt><trkpt lat="43.46720081219732" lon="11.980671212007465"><ele>960.0</ele><time>2026-05-03T09:37:40Z</time></trkpt><trkpt lat="43.46709507056087" lon="11.980682656797459"><ele>958.5</ele><time>2026-05-03T09:37:42Z</time></trkpt><trkpt lat="43.46699440921103" lon="11.980722621831172"><ele>957.0</ele><time>2026-05-03T09:37:44Z</time></trkpt><trkpt lat="43.46693464750251" lon="11.980758267085001"><ele>955.5</ele><time>2026-05-03T09:37:45Z</time></trkpt><trkpt lat="43.46687879735747" lon="11.980823465271929"><ele>954.0</ele><time>2026-05-03T09:37:46.001Z</time></trkpt><trkpt lat="43.466808786526556" lon="11.980871719037472"><ele>952.5</ele><time>2026-05-03T09:37:47.001Z</time></trkpt><trkpt lat="43.466726598954544" lon="11.980926188342773"><ele>951.0</ele><time>2026-05-03T09:37:48Z</time></trkpt><trkpt lat="43.46663761405282" lon="11.98097631071431"><ele>950.5</ele><time>2026-05-03T09:37:49Z</time></trkpt><trkpt lat="43.46655101431116" lon="11.981011521893384"><ele>950.0</ele><time>2026-05-03T09:37:50Z</time></trkpt><trkpt lat="43.46645252208358" lon="11.98100387659771"><ele>949.5</ele><time>2026-05-03T09:37:51Z</time></trkpt><trkpt lat="43.466389749750874" lon="11.980996319809146"><ele>949.0</ele><time>2026-05-03T09:37:52Z</time></trkpt><trkpt lat="43.466325878743305" lon="11.981027329413134"><ele>948.5</ele><time>2026-05-03T09:37:53Z</time></trkpt><trkpt lat="43.466255632151906" lon="11.981031275453255"><ele>948.0</ele><time>2026-05-03T09:37:54Z</time></trkpt><trkpt lat="43.4661779014463" lon="11.98102632151312"><ele>947.5</ele><time>2026-05-03T09:37:55Z</time></trkpt><trkpt lat="43.46608636626505" lon="11.981028713010318"><ele>947.0</ele><time>2026-05-03T09:37:56Z</time></trkpt><trkpt lat="43.46600544432612" lon="11.9810354344076"><ele>946.5</ele><time>2026-05-03T09:37:57Z</time></trkpt><trkpt lat="43.465925292329395" lon="11.981045865216657"><ele>946.0</ele><time>2026-05-03T09:37:58Z</time></trkpt><trkpt lat="43.46584325853325" lon="11.981049661585235"><ele>945.5</ele><time>2026-05-03T09:37:59Z</time></trkpt><trkpt lat="43.46575285884444" lon="11.981053402377466"><ele>945.0</ele><time>2026-05-03T09:38:00Z</time></trkpt><trkpt lat="43.46566665215422" lon="11.981057264793476"><ele>945.0</ele><time>2026-05-03T09:38:01Z</time></trkpt><trkpt lat="43.46558517828601" lon="11.981063532838002"><ele>945.0</ele><time>2026-05-03T09:38:02Z</time></trkpt><trkpt lat="43.46550258125174" lon="11.981062893675022"><ele>945.0</ele><time>2026-05-03T09:38:03Z</time></trkpt><trkpt lat="43.46542955132354" lon="11.981062816071056"><ele>945.0</ele><time>2026-05-03T09:38:04Z</time></trkpt><trkpt lat="43.46530689636606" lon="11.981051807965365"><ele>945.0</ele><time>2026-05-03T09:38:06Z</time></trkpt><trkpt lat="43.46523921495179" lon="11.981036845199226"><ele>945.0</ele><time>2026-05-03T09:38:07Z</time></trkpt><trkpt lat="43.4651577859827" lon="11.9809999033948"><ele>944.2</ele><time>2026-05-03T09:38:08Z</time></trkpt><trkpt lat="43.4650740278359" lon="11.98096344651926"><ele>943.4</ele><time>2026-05-03T09:38:09Z</time></trkpt><trkpt lat="43.46498065205618" lon="11.98093716213092"><ele>942.5999999999999</ele><time>2026-05-03T09:38:10Z</time></trkpt><trkpt lat="43.464901875989305" lon="11.980919330882376"><ele>941.8</ele><time>2026-05-03T09:38:11Z</time></trkpt><trkpt lat="43.464779377687215" lon="11.98094533574623"><ele>941.0</ele><time>2026-05-03T09:38:13Z</time></trkpt><trkpt lat="43.46466093270854" lon="11.980958496401243"><ele>938.3333333333334</ele><time>2026-05-03T09:38:15Z</time></trkpt><trkpt lat="43.46459392334289" lon="11.980811334092275"><ele>935.6666666666667</ele><time>2026-05-03T09:38:16Z</time></trkpt><trkpt lat="43.464512629480424" lon="11.980805034860213"><ele>933.0</ele><time>2026-05-03T09:38:18Z</time></trkpt><trkpt lat="43.464448370492306" lon="11.980798194348848"><ele>930.3333333333333</ele><time>2026-05-03T09:38:22Z</time></trkpt><trkpt lat="43.46436685241209" lon="11.980806421488982"><ele>927.6666666666666</ele><time>2026-05-03T09:38:26Z</time></trkpt><trkpt lat="43.464273722457186" lon="11.98083055286234"><ele>925.0</ele><time>2026-05-03T09:38:29Z</time></trkpt><trkpt lat="43.46421954551097" lon="11.980877617613379"><ele>925.0</ele><time>2026-05-03T09:38:31Z</time></trkpt><trkpt lat="43.464053301308745" lon="11.980991787119502"><ele>925.0</ele><time>2026-05-03T09:38:33Z</time></trkpt><trkpt lat="43.463942050884995" lon="11.981031836546906"><ele>925.0</ele><time>2026-05-03T09:38:35Z</time></trkpt><trkpt lat="43.46387585399299" lon="11.981055387640305"><ele>925.0</ele><time>2026-05-03T09:38:36Z</time></trkpt><trkpt lat="43.46378843620911" lon="11.981085061136366"><ele>920.8</ele><time>2026-05-03T09:38:37Z</time></trkpt><trkpt lat="43.46370700220647" lon="11.981084222903416"><ele>916.6</ele><time>2026-05-03T09:38:38Z</time></trkpt><trkpt lat="43.46362726692065" lon="11.981081236030658"><ele>912.4000000000001</ele><time>2026-05-03T09:38:39Z</time></trkpt><trkpt lat="43.46355113871725" lon="11.981103317233682"><ele>908.2</ele><time>2026-05-03T09:38:40Z</time></trkpt><trkpt lat="43.463453019784595" lon="11.981128584266"><ele>904.0</ele><time>2026-05-03T09:38:42Z</time></trkpt><trkpt lat="43.463325601456056" lon="11.981124858816953"><ele>904.0</ele><time>2026-05-03T09:38:44Z</time></trkpt><trkpt lat="43.463209829424116" lon="11.981127226701254"><ele>904.0000000000001</ele><time>2026-05-03T09:38:46Z</time></trkpt><trkpt lat="43.46313049984176" lon="11.981128447630809"><ele>904.0000000000001</ele><time>2026-05-03T09:38:48Z</time></trkpt><trkpt lat="43.463045115648825" lon="11.981138420531861"><ele>904.0</ele><time>2026-05-03T09:38:50Z</time></trkpt><trkpt lat="43.462954627464306" lon="11.981071331573958"><ele>904.0</ele><time>2026-05-03T09:38:52Z</time></trkpt><trkpt lat="43.46287246813493" lon="11.980974718909883"><ele>899.4000000000001</ele><time>2026-05-03T09:38:55Z</time></trkpt><trkpt lat="43.462779986420614" lon="11.980952228383824"><ele>894.8000000000001</ele><time>2026-05-03T09:38:58Z</time></trkpt><trkpt lat="43.46267369316954" lon="11.980981356264197"><ele>890.1999999999999</ele><time>2026-05-03T09:39:00Z</time></trkpt><trkpt lat="43.462581939097205" lon="11.980981329975979"><ele>885.5999999999999</ele><time>2026-05-03T09:39:01Z</time></trkpt><trkpt lat="43.46250568122369" lon="11.980919294508066"><ele>881.0</ele><time>2026-05-03T09:39:02Z</time></trkpt><trkpt lat="43.46243744017626" lon="11.980866211782267"><ele>881.8571428571428</ele><time>2026-05-03T09:39:03Z</time></trkpt><trkpt lat="43.46236780435776" lon="11.9808117040499"><ele>882.7142857142858</ele><time>2026-05-03T09:39:04Z</time></trkpt><trkpt lat="43.46229879716376" lon="11.980759148217881"><ele>883.5714285714286</ele><time>2026-05-03T09:39:05Z</time></trkpt><trkpt lat="43.46223716640659" lon="11.98071585916983"><ele>884.4285714285713</ele><time>2026-05-03T09:39:06Z</time></trkpt><trkpt lat="43.462175192629665" lon="11.98068849424257"><ele>885.2857142857142</ele><time>2026-05-03T09:39:07Z</time></trkpt><trkpt lat="43.46211150518358" lon="11.980657392268833"><ele>886.1428571428571</ele><time>2026-05-03T09:39:08Z</time></trkpt><trkpt lat="43.46204572080281" lon="11.980614380643274"><ele>887.0</ele><time>2026-05-03T09:39:09Z</time></trkpt><trkpt lat="43.461981527155366" lon="11.980583680221288"><ele>887.0000000000001</ele><time>2026-05-03T09:39:10Z</time></trkpt><trkpt lat="43.46191008670715" lon="11.980572697365348"><ele>887.0</ele><time>2026-05-03T09:39:11Z</time></trkpt><trkpt lat="43.461798191749786" lon="11.980622001036943"><ele>887.0</ele><time>2026-05-03T09:39:13Z</time></trkpt><trkpt lat="43.461689245403754" lon="11.980613623005056"><ele>887.0</ele><time>2026-05-03T09:39:15Z</time></trkpt><trkpt lat="43.461626189253394" lon="11.98059393955961"><ele>887.0000000000001</ele><time>2026-05-03T09:39:16Z</time></trkpt><trkpt lat="43.46156303391072" lon="11.980589436696917"><ele>887.0</ele><time>2026-05-03T09:39:17Z</time></trkpt><trkpt lat="43.46146845887158" lon="11.980623406357916"><ele>887.0</ele><time>2026-05-03T09:39:19Z</time></trkpt><trkpt lat="43.46140756615326" lon="11.980731018467642"><ele>887.0</ele><time>2026-05-03T09:39:21Z</time></trkpt><trkpt lat="43.4613143113371" lon="11.980797465812792"><ele>887.0</ele><time>2026-05-03T09:39:24Z</time></trkpt><trkpt lat="43.46112065545652" lon="11.98084953348949"><ele>887.0</ele><time>2026-05-03T09:39:26Z</time></trkpt><trkpt lat="43.46105857374585" lon="11.980826535372486"><ele>884.4000000000001</ele><time>2026-05-03T09:39:27Z</time></trkpt><trkpt lat="43.46096488618174" lon="11.980794962558663"><ele>881.8000000000001</ele><time>2026-05-03T09:39:29Z</time></trkpt><trkpt lat="43.46089879739148" lon="11.980774903595416"><ele>879.2</ele><time>2026-05-03T09:39:30Z</time></trkpt><trkpt lat="43.460793576832785" lon="11.980731014999888"><ele>876.6</ele><time>2026-05-03T09:39:32Z</time></trkpt><trkpt lat="43.460710751979256" lon="11.980729916003762"><ele>874.0</ele><time>2026-05-03T09:39:34Z</time></trkpt><trkpt lat="43.460614227820066" lon="11.980796503738095"><ele>873.9999999999999</ele><time>2026-05-03T09:39:36Z</time></trkpt><trkpt lat="43.46052794145789" lon="11.98082769440202"><ele>874.0</ele><time>2026-05-03T09:39:38Z</time></trkpt><trkpt lat="43.460456579011286" lon="11.980823440350436"><ele>874.0</ele><time>2026-05-03T09:39:40Z</time></trkpt><trkpt lat="43.46038098452876" lon="11.98080973672518"><ele>874.0</ele><time>2026-05-03T09:39:42Z</time></trkpt><trkpt lat="43.46028927441326" lon="11.980792185524765"><ele>873.9999999999999</ele><time>2026-05-03T09:39:44Z</time></trkpt><trkpt lat="43.46019490299605" lon="11.980834918849368"><ele>874.0</ele><time>2026-05-03T09:39:47Z</time></trkpt><trkpt lat="43.45996615150315" lon="11.98092155528247"><ele>869.4999999999999</ele><time>2026-05-03T09:39:51Z</time></trkpt><trkpt lat="43.45987048022008" lon="11.980882347404915"><ele>865.0</ele><time>2026-05-03T09:39:53Z</time></trkpt><trkpt lat="43.45980245675603" lon="11.980874599504334"><ele>860.5</ele><time>2026-05-03T09:39:55Z</time></trkpt><trkpt lat="43.459734538771364" lon="11.980909484060552"><ele>856.0</ele><time>2026-05-03T09:39:57Z</time></trkpt><trkpt lat="43.45967029032189" lon="11.980970453382106"><ele>851.4999999999999</ele><time>2026-05-03T09:39:59Z</time></trkpt><trkpt lat="43.45958732965836" lon="11.981051276715734"><ele>847.0</ele><time>2026-05-03T09:40:01Z</time></trkpt><trkpt lat="43.459520317492064" lon="11.981137129636382"><ele>844.4000000000001</ele><time>2026-05-03T09:40:03Z</time></trkpt><trkpt lat="43.459423585568594" lon="11.981202546930811"><ele>841.8000000000001</ele><time>2026-05-03T09:40:05Z</time></trkpt><trkpt lat="43.45931520084244" lon="11.98124682385211"><ele>839.2</ele><time>2026-05-03T09:40:06Z</time></trkpt><trkpt lat="43.45918375991763" lon="11.981238974948193"><ele>836.6</ele><time>2026-05-03T09:40:07Z</time></trkpt><trkpt lat="43.459094581067326" lon="11.981249878993538"><ele>834.0</ele><time>2026-05-03T09:40:08Z</time></trkpt><trkpt lat="43.45899172590978" lon="11.98126373811481"><ele>834.0</ele><time>2026-05-03T09:40:09Z</time></trkpt><trkpt lat="43.45887200975972" lon="11.981298919906973"><ele>834.0</ele><time>2026-05-03T09:40:10Z</time></trkpt><trkpt lat="43.45879356557413" lon="11.981303666523218"><ele>834.0</ele><time>2026-05-03T09:40:11Z</time></trkpt><trkpt lat="43.45869007237084" lon="11.981340905032887"><ele>834.0</ele><time>2026-05-03T09:40:12Z</time></trkpt><trkpt lat="43.45860142718372" lon="11.981372001897745"><ele>834.0</ele><time>2026-05-03T09:40:13Z</time></trkpt><trkpt lat="43.45849608314134" lon="11.981407197357"><ele>833.6</ele><time>2026-05-03T09:40:14Z</time></trkpt><trkpt lat="43.458400678458915" lon="11.98141778564926"><ele>833.2</ele><time>2026-05-03T09:40:15Z</time></trkpt><trkpt lat="43.458333733997016" lon="11.981450617738664"><ele>832.8000000000001</ele><time>2026-05-03T09:40:16Z</time></trkpt><trkpt lat="43.458204993172245" lon="11.981533436163371"><ele>832.4000000000001</ele><time>2026-05-03T09:40:18Z</time></trkpt><trkpt lat="43.458132034046564" lon="11.981575243871696"><ele>832.0</ele><time>2026-05-03T09:40:19Z</time></trkpt><trkpt lat="43.45806298826298" lon="11.981614365433323"><ele>831.9999999999999</ele><time>2026-05-03T09:40:20Z</time></trkpt><trkpt lat="43.45799479378505" lon="11.981649773783214"><ele>832.0</ele><time>2026-05-03T09:40:21Z</time></trkpt><trkpt lat="43.45793268157766" lon="11.981685425238593"><ele>832.0</ele><time>2026-05-03T09:40:22Z</time></trkpt><trkpt lat="43.457884969541944" lon="11.981749772197485"><ele>832.0</ele><time>2026-05-03T09:40:23Z</time></trkpt><trkpt lat="43.457839651165095" lon="11.981820419415628"><ele>831.9999999999999</ele><time>2026-05-03T09:40:24Z</time></trkpt><trkpt lat="43.457793018559386" lon="11.98190796988495"><ele>832.0</ele><time>2026-05-03T09:40:25Z</time></trkpt><trkpt lat="43.45772957001091" lon="11.982017376749475"><ele>830.1666666666666</ele><time>2026-05-03T09:40:27Z</time></trkpt><trkpt lat="43.4576569914095" lon="11.982101246893091"><ele>828.3333333333333</ele><time>2026-05-03T09:40:29Z</time></trkpt><trkpt lat="43.4575733620277" lon="11.982159731500175"><ele>826.5</ele><time>2026-05-03T09:40:30Z</time></trkpt><trkpt lat="43.45749336661525" lon="11.982212272149493"><ele>824.6666666666667</ele><time>2026-05-03T09:40:31Z</time></trkpt><trkpt lat="43.45742330340069" lon="11.982265038855036"><ele>822.8333333333334</ele><time>2026-05-03T09:40:32Z</time></trkpt><trkpt lat="43.45736636259045" lon="11.982309219558804"><ele>821.0</ele><time>2026-05-03T09:40:33Z</time></trkpt><trkpt lat="43.45730705448569" lon="11.982348972905546"><ele>821.0000000000001</ele><time>2026-05-03T09:40:34Z</time></trkpt><trkpt lat="43.457243828791455" lon="11.982371540077862"><ele>821.0</ele><time>2026-05-03T09:40:35Z</time></trkpt><trkpt lat="43.457168048671925" lon="11.982388838477913"><ele>821.0</ele><time>2026-05-03T09:40:36Z</time></trkpt><trkpt lat="43.4570783144394" lon="11.982412603276853"><ele>821.0</ele><time>2026-05-03T09:40:37Z</time></trkpt><trkpt lat="43.45700409150859" lon="11.982389502584867"><ele>821.0000000000001</ele><time>2026-05-03T09:40:38Z</time></trkpt><trkpt lat="43.456892318552484" lon="11.982328574118965"><ele>821.0</ele><time>2026-05-03T09:40:40Z</time></trkpt><trkpt lat="43.45682605432304" lon="11.982289077707573"><ele>819.5714285714287</ele><time>2026-05-03T09:40:41Z</time></trkpt><trkpt lat="43.45676830783282" lon="11.982231860858985"><ele>818.1428571428571</ele><time>2026-05-03T09:40:42Z</time></trkpt><trkpt lat="43.456712966167" lon="11.982187969566835"><ele>816.7142857142858</ele><time>2026-05-03T09:40:43Z</time></trkpt><trkpt lat="43.45664632527289" lon="11.98213321682015"><ele>815.2857142857143</ele><time>2026-05-03T09:40:45Z</time></trkpt><trkpt lat="43.45659384513398" lon="11.982078241072907"><ele>813.8571428571429</ele><time>2026-05-03T09:40:49Z</time></trkpt><trkpt lat="43.45654020708432" lon="11.982021259906695"><ele>812.4285714285714</ele><time>2026-05-03T09:40:57Z</time></trkpt><trkpt lat="43.45648588895672" lon="11.981969634151323"><ele>811.0</ele><time>2026-05-03T09:41:00Z</time></trkpt><trkpt lat="43.45643768066431" lon="11.981912823638135"><ele>810.9999999999999</ele><time>2026-05-03T09:41:01Z</time></trkpt><trkpt lat="43.456370162017876" lon="11.981840637975036"><ele>811.0</ele><time>2026-05-03T09:41:03Z</time></trkpt><trkpt lat="43.456309120510625" lon="11.981778374489254"><ele>811.0</ele><time>2026-05-03T09:41:05Z</time></trkpt><trkpt lat="43.45624026493796" lon="11.98173267238054"><ele>811.0</ele><time>2026-05-03T09:41:07Z</time></trkpt><trkpt lat="43.45615839506369" lon="11.981684433124816"><ele>810.9999999999999</ele><time>2026-05-03T09:41:11Z</time></trkpt><trkpt lat="43.4561027448772" lon="11.981629621146695"><ele>811.0</ele><time>2026-05-03T09:41:13Z</time></trkpt><trkpt lat="43.456039223039404" lon="11.981554133315361"><ele>806.8</ele><time>2026-05-03T09:41:16Z</time></trkpt><trkpt lat="43.455978709881904" lon="11.981507932169192"><ele>802.5999999999999</ele><time>2026-05-03T09:41:19Z</time></trkpt><trkpt lat="43.455924804135385" lon="11.98145680157125"><ele>798.4</ele><time>2026-05-03T09:41:21Z</time></trkpt><trkpt lat="43.455867574050856" lon="11.981392149800103"><ele>794.2</ele><time>2026-05-03T09:41:22Z</time></trkpt><trkpt lat="43.45577364637641" lon="11.981267261081912"><ele>790.0</ele><time>2026-05-03T09:41:24Z</time></trkpt><trkpt lat="43.45569345719363" lon="11.981140347149887"><ele>789.9999999999999</ele><time>2026-05-03T09:41:26Z</time></trkpt><trkpt lat="43.45562236905258" lon="11.981023038285189"><ele>790.0</ele><time>2026-05-03T09:41:28Z</time></trkpt><trkpt lat="43.455563842323244" lon="11.98088943503299"><ele>790.0</ele><time>2026-05-03T09:41:30Z</time></trkpt><trkpt lat="43.455520990826685" lon="11.980819123413578"><ele>790.0</ele><time>2026-05-03T09:41:32Z</time></trkpt><trkpt lat="43.455481234739366" lon="11.980749157618478"><ele>789.9999999999999</ele><time>2026-05-03T09:41:33Z</time></trkpt><trkpt lat="43.45543578038426" lon="11.980676883968526"><ele>790.0</ele><time>2026-05-03T09:41:35Z</time></trkpt><trkpt lat="43.45538770063245" lon="11.980594911587106"><ele>785.0</ele><time>2026-05-03T09:41:38Z</time></trkpt><trkpt lat="43.45533052017983" lon="11.98050950838227"><ele>780.0</ele><time>2026-05-03T09:41:41Z</time></trkpt><trkpt lat="43.455295174780986" lon="11.980391887837314"><ele>775.0</ele><time>2026-05-03T09:41:42Z</time></trkpt><trkpt lat="43.455254141882065" lon="11.980305550439274"><ele>770.0</ele><time>2026-05-03T09:41:43Z</time></trkpt><trkpt lat="43.45521015794013" lon="11.980190172656044"><ele>765.0</ele><time>2026-05-03T09:41:45Z</time></trkpt><trkpt lat="43.455138855299765" lon="11.980040351233889"><ele>764.4</ele><time>2026-05-03T09:41:47Z</time></trkpt><trkpt lat="43.45511192782796" lon="11.979915362486276"><ele>763.8</ele><time>2026-05-03T09:41:49Z</time></trkpt><trkpt lat="43.45509375964928" lon="11.979790863022636"><ele>763.2</ele><time>2026-05-03T09:41:50Z</time></trkpt><trkpt lat="43.455039123451506" lon="11.979659042628471"><ele>762.6</ele><time>2026-05-03T09:41:52Z</time></trkpt><trkpt lat="43.45497723155914" lon="11.97958125465805"><ele>762.0</ele><time>2026-05-03T09:41:53Z</time></trkpt><trkpt lat="43.454919024582644" lon="11.979510561068977"><ele>762.0</ele><time>2026-05-03T09:41:54Z</time></trkpt><trkpt lat="43.454878819664295" lon="11.979378203411878"><ele>762.0</ele><time>2026-05-03T09:41:56Z</time></trkpt><trkpt lat="43.45485550589832" lon="11.979296710225013"><ele>762.0</ele><time>2026-05-03T09:41:57Z</time></trkpt><trkpt lat="43.45483133546592" lon="11.979168774819476"><ele>762.0</ele><time>2026-05-03T09:41:59Z</time></trkpt><trkpt lat="43.454816201960455" lon="11.97905465908734"><ele>762.0</ele><time>2026-05-03T09:42:01Z</time></trkpt><trkpt lat="43.45476385663685" lon="11.978957198342815"><ele>762.0</ele><time>2026-05-03T09:42:04Z</time></trkpt><trkpt lat="43.45473476365442" lon="11.978877103736878"><ele>759.0</ele><time>2026-05-03T09:42:06Z</time></trkpt><trkpt lat="43.45488595330306" lon="11.978801418421018"><ele>756.0</ele><time>2026-05-03T09:43:49Z</time></trkpt><trkpt lat="43.454997001369854" lon="11.97879441733785"><ele>753.0</ele><time>2026-05-03T09:43:51Z</time></trkpt><trkpt lat="43.455100760827605" lon="11.978770209558753"><ele>750.0</ele><time>2026-05-03T09:43:53Z</time></trkpt><trkpt lat="43.45516185986685" lon="11.978660858031326"><ele>750.0</ele><time>2026-05-03T09:43:55Z</time></trkpt><trkpt lat="43.45521498449778" lon="11.978531122733573"><ele>750.0</ele><time>2026-05-03T09:43:57Z</time></trkpt><trkpt lat="43.455248684659196" lon="11.978432373587328"><ele>750.0</ele><time>2026-05-03T09:43:59Z</time></trkpt><trkpt lat="43.45532150545273" lon="11.978356863442333"><ele>750.0</ele><time>2026-05-03T09:44:02.001Z</time></trkpt><trkpt lat="43.45538452489738" lon="11.978252076785633"><ele>750.0</ele><time>2026-05-03T09:44:05.001Z</time></trkpt><trkpt lat="43.45544519502796" lon="11.978204338581858"><ele>750.0</ele><time>2026-05-03T09:44:08Z</time></trkpt><trkpt lat="43.45551729847213" lon="11.978213844826463"><ele>747.1666666666666</ele><time>2026-05-03T09:44:11Z</time></trkpt><trkpt lat="43.45559969778552" lon="11.978228092549845"><ele>744.3333333333334</ele><time>2026-05-03T09:44:14Z</time></trkpt><trkpt lat="43.45566119133252" lon="11.978252825647358"><ele>741.5</ele><time>2026-05-03T09:44:15Z</time></trkpt><trkpt lat="43.4557718272544" lon="11.978213084144924"><ele>738.6666666666667</ele><time>2026-05-03T09:44:17Z</time></trkpt><trkpt lat="43.45587127531298" lon="11.978162623471412"><ele>735.8333333333334</ele><time>2026-05-03T09:44:19Z</time></trkpt><trkpt lat="43.455937502179395" lon="11.978159220877853"><ele>733.0</ele><time>2026-05-03T09:44:21Z</time></trkpt><trkpt lat="43.45592218498433" lon="11.978046191708684"><ele>733.0</ele><time>2026-05-03T09:44:28Z</time></trkpt><trkpt lat="43.455952874301175" lon="11.977959014450793"><ele>733.0</ele><time>2026-05-03T09:44:31Z</time></trkpt><trkpt lat="43.455908863703286" lon="11.977572801766943"><ele>733.0</ele><time>2026-05-03T09:44:32Z</time></trkpt><trkpt lat="43.4559054136812" lon="11.977426388326714"><ele>730.1666666666667</ele><time>2026-05-03T09:44:34Z</time></trkpt><trkpt lat="43.45591649841959" lon="11.977330802551432"><ele>727.3333333333334</ele><time>2026-05-03T09:44:35Z</time></trkpt><trkpt lat="43.45593984907625" lon="11.977192254469543"><ele>724.5</ele><time>2026-05-03T09:44:36Z</time></trkpt><trkpt lat="43.45596667855517" lon="11.977089920466659"><ele>721.6666666666666</ele><time>2026-05-03T09:44:37Z</time></trkpt><trkpt lat="43.45600385912853" lon="11.97700633289472"><ele>718.8333333333333</ele><time>2026-05-03T09:44:38Z</time></trkpt><trkpt lat="43.456053733046275" lon="11.976933331661268"><ele>716.0</ele><time>2026-05-03T09:44:39Z</time></trkpt><trkpt lat="43.456114398195695" lon="11.976870738431138"><ele>717.0</ele><time>2026-05-03T09:44:40Z</time></trkpt><trkpt lat="43.45629572878309" lon="11.976828359587339"><ele>718.0</ele><time>2026-05-03T09:44:41Z</time></trkpt><trkpt lat="43.45637496785544" lon="11.97678614157696"><ele>719.0</ele><time>2026-05-03T09:44:42Z</time></trkpt><trkpt lat="43.4564541958113" lon="11.976744113541267"><ele>720.0</ele><time>2026-05-03T09:44:43Z</time></trkpt><trkpt lat="43.45653229170262" lon="11.976710410381724"><ele>721.0</ele><time>2026-05-03T09:44:44Z</time></trkpt><trkpt lat="43.45659042891605" lon="11.976606939772326"><ele>721.0</ele><time>2026-05-03T09:44:46Z</time></trkpt><trkpt lat="43.456546493949865" lon="11.976494392139454"><ele>721.0</ele><time>2026-05-03T09:44:48Z</time></trkpt><trkpt lat="43.45653981369745" lon="11.976325082247557"><ele>721.0</ele><time>2026-05-03T09:44:50Z</time></trkpt><trkpt lat="43.45655157124548" lon="11.976209905466959"><ele>721.0</ele><time>2026-05-03T09:44:51Z</time></trkpt><trkpt lat="43.45665911207526" lon="11.976175278033839"><ele>721.0</ele><time>2026-05-03T09:44:54Z</time></trkpt><trkpt lat="43.45672044077524" lon="11.976081859563974"><ele>721.0</ele><time>2026-05-03T09:44:55Z</time></trkpt><trkpt lat="43.45675434902083" lon="11.976003149671383"><ele>721.0</ele><time>2026-05-03T09:44:56Z</time></trkpt><trkpt lat="43.45677312480133" lon="11.975913563500768"><ele>721.0</ele><time>2026-05-03T09:44:57Z</time></trkpt><trkpt lat="43.45680147036851" lon="11.97582820310109"><ele>721.0</ele><time>2026-05-03T09:44:58Z</time></trkpt><trkpt lat="43.45682560641717" lon="11.97574026439553"><ele>721.0</ele><time>2026-05-03T09:44:59Z</time></trkpt><trkpt lat="43.45684381117198" lon="11.97565371617976"><ele>721.0</ele><time>2026-05-03T09:45:00Z</time></trkpt><trkpt lat="43.45691868721018" lon="11.975533664980958"><ele>718.4</ele><time>2026-05-03T09:45:02Z</time></trkpt><trkpt lat="43.45690725463677" lon="11.97544165197165"><ele>715.8</ele><time>2026-05-03T09:45:06Z</time></trkpt><trkpt lat="43.45689034270831" lon="11.975311628037657"><ele>713.1999999999999</ele><time>2026-05-03T09:45:09Z</time></trkpt><trkpt lat="43.456864194136735" lon="11.97513430320098"><ele>710.5999999999999</ele><time>2026-05-03T09:45:10Z</time></trkpt><trkpt lat="43.45685869970133" lon="11.974947403347581"><ele>708.0</ele><time>2026-05-03T09:45:12Z</time></trkpt><trkpt lat="43.45657805251034" lon="11.974568116538402"><ele>707.3333333333334</ele><time>2026-05-03T09:45:15Z</time></trkpt><trkpt lat="43.456534814290386" lon="11.974485166561655"><ele>706.6666666666666</ele><time>2026-05-03T09:45:16Z</time></trkpt><trkpt lat="43.45648548641154" lon="11.974393348131676"><ele>706.0</ele><time>2026-05-03T09:45:17Z</time></trkpt><trkpt lat="43.45645341960989" lon="11.974294851072228"><ele>705.3333333333333</ele><time>2026-05-03T09:45:18Z</time></trkpt><trkpt lat="43.45641830384467" lon="11.974202498597363"><ele>704.6666666666666</ele><time>2026-05-03T09:45:19Z</time></trkpt><trkpt lat="43.45637907099056" lon="11.974100836126798"><ele>704.0</ele><time>2026-05-03T09:45:20Z</time></trkpt><trkpt lat="43.456317599003576" lon="11.97398331408838"><ele>698.4000000000001</ele><time>2026-05-03T09:45:21Z</time></trkpt><trkpt lat="43.45626934523751" lon="11.97389860000755"><ele>692.8</ele><time>2026-05-03T09:45:22Z</time></trkpt><trkpt lat="43.45622819465676" lon="11.973775713568577"><ele>687.2</ele><time>2026-05-03T09:45:23Z</time></trkpt><trkpt lat="43.45616692863424" lon="11.973683562546395"><ele>681.5999999999999</ele><time>2026-05-03T09:45:24Z</time></trkpt><trkpt lat="43.45609790024317" lon="11.973551618159576"><ele>676.0</ele><time>2026-05-03T09:45:25Z</time></trkpt><trkpt lat="43.45608393802642" lon="11.973456399375651"><ele>677.5999999999999</ele><time>2026-05-03T09:45:26Z</time></trkpt><trkpt lat="43.45606564600997" lon="11.973353663346865"><ele>679.2</ele><time>2026-05-03T09:45:27Z</time></trkpt><trkpt lat="43.456025121886114" lon="11.973224175954998"><ele>680.8</ele><time>2026-05-03T09:45:28Z</time></trkpt><trkpt lat="43.4559724446858" lon="11.97315800809248"><ele>682.4000000000001</ele><time>2026-05-03T09:45:29Z</time></trkpt><trkpt lat="43.455965304440795" lon="11.972948077277353"><ele>684.0</ele><time>2026-05-03T09:45:31Z</time></trkpt><trkpt lat="43.455945375574046" lon="11.972786550827985"><ele>684.0</ele><time>2026-05-03T09:45:32Z</time></trkpt><trkpt lat="43.45587746152993" lon="11.972839646671712"><ele>684.0</ele><time>2026-05-03T09:45:33Z</time></trkpt><trkpt lat="43.455863599572254" lon="11.972715522226922"><ele>684.0</ele><time>2026-05-03T09:45:35Z</time></trkpt><trkpt lat="43.4558797275246" lon="11.972589044527005"><ele>684.0</ele><time>2026-05-03T09:45:37Z</time></trkpt><trkpt lat="43.45591143920073" lon="11.972469683380424"><ele>684.0</ele><time>2026-05-03T09:45:38Z</time></trkpt><trkpt lat="43.4559408134975" lon="11.972364335879359"><ele>684.0</ele><time>2026-05-03T09:45:39.001Z</time></trkpt><trkpt lat="43.45593063426719" lon="11.972273090064963"><ele>684.1666666666666</ele><time>2026-05-03T09:45:40.001Z</time></trkpt><trkpt lat="43.4559091568913" lon="11.97217809431219"><ele>684.3333333333334</ele><time>2026-05-03T09:45:41.001Z</time></trkpt><trkpt lat="43.455929153628325" lon="11.97208524690789"><ele>684.5</ele><time>2026-05-03T09:45:43.001Z</time></trkpt><trkpt lat="43.455901837458285" lon="11.971992808359515"><ele>684.6666666666667</ele><time>2026-05-03T09:45:44.001Z</time></trkpt><trkpt lat="43.45592428372478" lon="11.971903283254283"><ele>684.8333333333334</ele><time>2026-05-03T09:45:46.001Z</time></trkpt><trkpt lat="43.4559356333861" lon="11.971810624323684"><ele>685.0</ele><time>2026-05-03T09:45:58.001Z</time></trkpt><trkpt lat="43.455994682139014" lon="11.97169124750632"><ele>684.0</ele><time>2026-05-03T09:46:00.001Z</time></trkpt><trkpt lat="43.45602418458939" lon="11.971611151501873"><ele>683.0</ele><time>2026-05-03T09:46:01.001Z</time></trkpt><trkpt lat="43.45610760198093" lon="11.971504602693075"><ele>682.0</ele><time>2026-05-03T09:46:03.001Z</time></trkpt><trkpt lat="43.45619086719791" lon="11.971475958558273"><ele>681.0</ele><time>2026-05-03T09:46:05.001Z</time></trkpt><trkpt lat="43.45627611037393" lon="11.971464963016345"><ele>680.0</ele><time>2026-05-03T09:46:07.001Z</time></trkpt><trkpt lat="43.45635019621448" lon="11.97147168139761"><ele>679.0</ele><time>2026-05-03T09:46:09.001Z</time></trkpt><trkpt lat="43.456428546629745" lon="11.971492459773224"><ele>678.8000000000001</ele><time>2026-05-03T09:46:11.001Z</time></trkpt><trkpt lat="43.4565226502578" lon="11.97151649510603"><ele>678.6</ele><time>2026-05-03T09:46:13Z</time></trkpt><trkpt lat="43.456625488110355" lon="11.971611982151307"><ele>678.4</ele><time>2026-05-03T09:46:15Z</time></trkpt><trkpt lat="43.45674015047222" lon="11.971655466376625"><ele>678.2</ele><time>2026-05-03T09:46:17Z</time></trkpt><trkpt lat="43.45680600634123" lon="11.971675333777949"><ele>678.0</ele><time>2026-05-03T09:46:18Z</time></trkpt><trkpt lat="43.45693503619759" lon="11.971731439908424"><ele>678.6666666666666</ele><time>2026-05-03T09:46:20Z</time></trkpt><trkpt lat="43.45700662787616" lon="11.97176481370909"><ele>679.3333333333334</ele><time>2026-05-03T09:46:21Z</time></trkpt><trkpt lat="43.45707836690107" lon="11.971765332528005"><ele>680.0</ele><time>2026-05-03T09:46:22Z</time></trkpt><trkpt lat="43.457146722885334" lon="11.971785586326128"><ele>680.6666666666667</ele><time>2026-05-03T09:46:23Z</time></trkpt><trkpt lat="43.45722151759355" lon="11.97185528820176"><ele>681.3333333333334</ele><time>2026-05-03T09:46:24Z</time></trkpt><trkpt lat="43.45727671076937" lon="11.971900708826196"><ele>682.0</ele><time>2026-05-03T09:46:25Z</time></trkpt><trkpt lat="43.45732651486659" lon="11.972027704131703"><ele>682.0</ele><time>2026-05-03T09:46:27Z</time></trkpt><trkpt lat="43.45737485118943" lon="11.97209489542403"><ele>682.0</ele><time>2026-05-03T09:46:29Z</time></trkpt><trkpt lat="43.45745480726714" lon="11.972103260570696"><ele>682.0</ele><time>2026-05-03T09:46:30Z</time></trkpt><trkpt lat="43.45754961895961" lon="11.972161752618577"><ele>682.0</ele><time>2026-05-03T09:46:31Z</time></trkpt><trkpt lat="43.45763053711918" lon="11.972224740031992"><ele>682.0</ele><time>2026-05-03T09:46:32Z</time></trkpt><trkpt lat="43.4576884841169" lon="11.972278983838631"><ele>682.0</ele><time>2026-05-03T09:46:33Z</time></trkpt><trkpt lat="43.4577322195475" lon="11.972365259948543"><ele>682.0</ele><time>2026-05-03T09:46:35Z</time></trkpt><trkpt lat="43.457785036784074" lon="11.972434013630018"><ele>682.0</ele><time>2026-05-03T09:46:38Z</time></trkpt><trkpt lat="43.45783734142622" lon="11.972377049595453"><ele>682.0</ele><time>2026-05-03T09:46:44Z</time></trkpt><trkpt lat="43.45783068994099" lon="11.97228448342749"><ele>682.0</ele><time>2026-05-03T09:46:48Z</time></trkpt><trkpt lat="43.45783560855782" lon="11.97218225500788"><ele>682.0</ele><time>2026-05-03T09:46:51Z</time></trkpt><trkpt lat="43.45782850139203" lon="11.972076844743498"><ele>682.0</ele><time>2026-05-03T09:46:53Z</time></trkpt><trkpt lat="43.457853810399136" lon="11.971964034793698"><ele>682.0</ele><time>2026-05-03T09:46:55Z</time></trkpt><trkpt lat="43.4578708768658" lon="11.971846203281952"><ele>682.0</ele><time>2026-05-03T09:46:57Z</time></trkpt><trkpt lat="43.457908177876895" lon="11.97175953529087"><ele>682.0</ele><time>2026-05-03T09:46:58Z</time></trkpt><trkpt lat="43.45794910343078" lon="11.971685991708698"><ele>682.0</ele><time>2026-05-03T09:46:59Z</time></trkpt><trkpt lat="43.45801765394968" lon="11.97154050948855"><ele>682.0</ele><time>2026-05-03T09:47:01Z</time></trkpt><trkpt lat="43.458040531850656" lon="11.971408110646147"><ele>682.0</ele><time>2026-05-03T09:47:03Z</time></trkpt><trkpt lat="43.45808973141585" lon="11.971186901096784"><ele>680.0</ele><time>2026-05-03T09:47:07Z</time></trkpt><trkpt lat="43.45813187280485" lon="11.971077455551244"><ele>678.0</ele><time>2026-05-03T09:47:08Z</time></trkpt><trkpt lat="43.45821422302815" lon="11.970936731846008"><ele>676.0</ele><time>2026-05-03T09:47:09Z</time></trkpt><trkpt lat="43.45828696258817" lon="11.970897922987513"><ele>674.0</ele><time>2026-05-03T09:47:12Z</time></trkpt><trkpt lat="43.458366108995655" lon="11.97100781979757"><ele>672.0</ele><time>2026-05-03T09:47:14Z</time></trkpt><trkpt lat="43.458411083978646" lon="11.971076834151697"><ele>672.0</ele><time>2026-05-03T09:47:15Z</time></trkpt><trkpt lat="43.45846008588704" lon="11.971144726258073"><ele>672.0</ele><time>2026-05-03T09:47:16Z</time></trkpt><trkpt lat="43.4585259554838" lon="11.971176446768425"><ele>672.0</ele><time>2026-05-03T09:47:17Z</time></trkpt><trkpt lat="43.458600037386724" lon="11.971176559821659"><ele>672.0</ele><time>2026-05-03T09:47:18Z</time></trkpt><trkpt lat="43.45867322812098" lon="11.971134638895482"><ele>672.0</ele><time>2026-05-03T09:47:19Z</time></trkpt><trkpt lat="43.458763779176735" lon="11.970943605771502"><ele>672.6</ele><time>2026-05-03T09:47:20Z</time></trkpt><trkpt lat="43.45885392711493" lon="11.970907035675946"><ele>673.2</ele><time>2026-05-03T09:47:21Z</time></trkpt><trkpt lat="43.458919933162775" lon="11.97087328079371"><ele>673.8</ele><time>2026-05-03T09:47:22Z</time></trkpt><trkpt lat="43.459018915411505" lon="11.970825565556744"><ele>674.4</ele><time>2026-05-03T09:47:24Z</time></trkpt><trkpt lat="43.45908059676601" lon="11.970925407597255"><ele>675.0</ele><time>2026-05-03T09:47:26Z</time></trkpt><trkpt lat="43.45914281119344" lon="11.97102954861034"><ele>675.0</ele><time>2026-05-03T09:47:28Z</time></trkpt><trkpt lat="43.45925480068871" lon="11.97103736453874"><ele>675.0</ele><time>2026-05-03T09:47:31Z</time></trkpt><trkpt lat="43.45933317801664" lon="11.970993572973207"><ele>675.0</ele><time>2026-05-03T09:47:32Z</time></trkpt><trkpt lat="43.45943248037203" lon="11.970933474974684"><ele>675.0</ele><time>2026-05-03T09:47:33Z</time></trkpt><trkpt lat="43.45951139838434" lon="11.970907132902743"><ele>675.0</ele><time>2026-05-03T09:47:34Z</time></trkpt><trkpt lat="43.45957051712595" lon="11.970870628961883"><ele>672.6666666666666</ele><time>2026-05-03T09:47:35Z</time></trkpt><trkpt lat="43.45963579767498" lon="11.970817159005774"><ele>670.3333333333334</ele><time>2026-05-03T09:47:36Z</time></trkpt><trkpt lat="43.45970873041189" lon="11.970761300304963"><ele>668.0</ele><time>2026-05-03T09:47:37Z</time></trkpt><trkpt lat="43.459775270237664" lon="11.970723057578578"><ele>665.6666666666667</ele><time>2026-05-03T09:47:38Z</time></trkpt><trkpt lat="43.45990164117151" lon="11.970662084724482"><ele>663.3333333333334</ele><time>2026-05-03T09:47:40Z</time></trkpt><trkpt lat="43.45996892986884" lon="11.970658004908314"><ele>661.0</ele><time>2026-05-03T09:47:41Z</time></trkpt><trkpt lat="43.460048305292865" lon="11.970639927942704"><ele>661.0</ele><time>2026-05-03T09:47:42Z</time></trkpt><trkpt lat="43.46012879097094" lon="11.970632384575492"><ele>661.0</ele><time>2026-05-03T09:47:43Z</time></trkpt><trkpt lat="43.46019304313648" lon="11.97063384852092"><ele>661.0</ele><time>2026-05-03T09:47:44Z</time></trkpt><trkpt lat="43.46026340040807" lon="11.970632953809368"><ele>661.0</ele><time>2026-05-03T09:47:45Z</time></trkpt><trkpt lat="43.460383033698655" lon="11.970703867701966"><ele>661.0</ele><time>2026-05-03T09:47:47Z</time></trkpt><trkpt lat="43.460433254428914" lon="11.970769516539303"><ele>661.0</ele><time>2026-05-03T09:47:48Z</time></trkpt><trkpt lat="43.460499693873494" lon="11.970806512545403"><ele>660.8</ele><time>2026-05-03T09:47:49Z</time></trkpt><trkpt lat="43.460589254605246" lon="11.970783157461998"><ele>660.5999999999999</ele><time>2026-05-03T09:47:51Z</time></trkpt><trkpt lat="43.460700600010185" lon="11.970795038434046"><ele>660.4</ele><time>2026-05-03T09:47:53Z</time></trkpt><trkpt lat="43.46079335265969" lon="11.970821080949039"><ele>660.2</ele><time>2026-05-03T09:47:55Z</time></trkpt><trkpt lat="43.46088594726774" lon="11.970795234167408"><ele>660.0</ele><time>2026-05-03T09:47:58Z</time></trkpt><trkpt lat="43.46102143871641" lon="11.970713381172375"><ele>660.0</ele><time>2026-05-03T09:48:01Z</time></trkpt><trkpt lat="43.46113489898431" lon="11.970669422030438"><ele>660.0</ele><time>2026-05-03T09:48:03Z</time></trkpt><trkpt lat="43.46120585590362" lon="11.97067184743283"><ele>660.0</ele><time>2026-05-03T09:48:05Z</time></trkpt><trkpt lat="43.46124218737983" lon="11.970574933847942"><ele>660.0</ele><time>2026-05-03T09:48:08.001Z</time></trkpt><trkpt lat="43.46122239528944" lon="11.970459348331298"><ele>660.0</ele><time>2026-05-03T09:48:10.001Z</time></trkpt><trkpt lat="43.46118833304375" lon="11.970342714948059"><ele>660.0</ele><time>2026-05-03T09:48:12.001Z</time></trkpt><trkpt lat="43.46113641618355" lon="11.97029057582519"><ele>660.0</ele><time>2026-05-03T09:48:13.001Z</time></trkpt><trkpt lat="43.461116052910114" lon="11.97014803581297"><ele>660.0</ele><time>2026-05-03T09:48:15.001Z</time></trkpt><trkpt lat="43.461128556235344" lon="11.970041203617532"><ele>660.0</ele><time>2026-05-03T09:48:16.001Z</time></trkpt><trkpt lat="43.46106935556795" lon="11.96985382672653"><ele>660.0</ele><time>2026-05-03T09:48:19Z</time></trkpt><trkpt lat="43.46102202488118" lon="11.96976686890942"><ele>660.0</ele><time>2026-05-03T09:48:20Z</time></trkpt><trkpt lat="43.46096029311473" lon="11.969656421017243"><ele>659.6</ele><time>2026-05-03T09:48:22Z</time></trkpt><trkpt lat="43.4609461598762" lon="11.969505728606645"><ele>659.2</ele><time>2026-05-03T09:48:24Z</time></trkpt><trkpt lat="43.46091745996925" lon="11.969376793200961"><ele>658.8</ele><time>2026-05-03T09:48:25Z</time></trkpt><trkpt lat="43.46089528924067" lon="11.969227989131012"><ele>658.4</ele><time>2026-05-03T09:48:26Z</time></trkpt><trkpt lat="43.46087037709436" lon="11.969119355562217"><ele>658.0</ele><time>2026-05-03T09:48:27Z</time></trkpt><trkpt lat="43.46085630015516" lon="11.969009691571177"><ele>658.0</ele><time>2026-05-03T09:48:28Z</time></trkpt><trkpt lat="43.460854135282354" lon="11.968871284999027"><ele>658.0</ele><time>2026-05-03T09:48:29Z</time></trkpt><trkpt lat="43.460839025415424" lon="11.968730359216869"><ele>658.0</ele><time>2026-05-03T09:48:30Z</time></trkpt><trkpt lat="43.460830707540985" lon="11.96861186037235"><ele>658.0</ele><time>2026-05-03T09:48:31Z</time></trkpt><trkpt lat="43.460829929307494" lon="11.968511924746622"><ele>658.0</ele><time>2026-05-03T09:48:32Z</time></trkpt><trkpt lat="43.46085458121903" lon="11.968373477987425"><ele>659.75</ele><time>2026-05-03T09:48:34Z</time></trkpt><trkpt lat="43.460898111724134" lon="11.968211422088453"><ele>661.5</ele><time>2026-05-03T09:48:36Z</time></trkpt><trkpt lat="43.46092279040773" lon="11.968020974499657"><ele>663.25</ele><time>2026-05-03T09:48:38Z</time></trkpt><trkpt lat="43.46093726192229" lon="11.967925289594668"><ele>665.0</ele><time>2026-05-03T09:48:39Z</time></trkpt><trkpt lat="43.460968126692265" lon="11.967746572991501"><ele>665.0</ele><time>2026-05-03T09:48:41Z</time></trkpt><trkpt lat="43.46098241863001" lon="11.967640386098058"><ele>665.0</ele><time>2026-05-03T09:48:42Z</time></trkpt><trkpt lat="43.46098808196961" lon="11.9675532069392"><ele>665.0</ele><time>2026-05-03T09:48:43Z</time></trkpt><trkpt lat="43.460959584904394" lon="11.967439069223502"><ele>665.0</ele><time>2026-05-03T09:48:45Z</time></trkpt><trkpt lat="43.4608930407371" lon="11.967397669977316"><ele>665.0</ele><time>2026-05-03T09:48:46Z</time></trkpt><trkpt lat="43.46079228406591" lon="11.967326563556345"><ele>665.0</ele><time>2026-05-03T09:48:48Z</time></trkpt><trkpt lat="43.46075299828125" lon="11.967164556795353"><ele>666.0</ele><time>2026-05-03T09:48:50Z</time></trkpt><trkpt lat="43.46075866575345" lon="11.967060232480772"><ele>667.0</ele><time>2026-05-03T09:48:51Z</time></trkpt><trkpt lat="43.46077557703589" lon="11.9669481335558"><ele>668.0</ele><time>2026-05-03T09:48:52Z</time></trkpt><trkpt lat="43.460826952429386" lon="11.966791945172679"><ele>669.0</ele><time>2026-05-03T09:48:53Z</time></trkpt><trkpt lat="43.46085918187829" lon="11.966654491722974"><ele>670.0</ele><time>2026-05-03T09:48:54Z</time></trkpt><trkpt lat="43.46087189393248" lon="11.966513208473792"><ele>671.0</ele><time>2026-05-03T09:48:55Z</time></trkpt><trkpt lat="43.46087912553608" lon="11.966372457230383"><ele>672.0</ele><time>2026-05-03T09:48:56Z</time></trkpt><trkpt lat="43.46085964793763" lon="11.966258415182455"><ele>673.0</ele><time>2026-05-03T09:48:57Z</time></trkpt><trkpt lat="43.46086837177731" lon="11.966121177189676"><ele>674.0</ele><time>2026-05-03T09:48:58Z</time></trkpt><trkpt lat="43.46089127096013" lon="11.966008620119153"><ele>675.0</ele><time>2026-05-03T09:48:59Z</time></trkpt><trkpt lat="43.46085691600596" lon="11.965916046250229"><ele>676.0</ele><time>2026-05-03T09:49:02Z</time></trkpt><trkpt lat="43.46079401403186" lon="11.965786103509243"><ele>676.5</ele><time>2026-05-03T09:49:04Z</time></trkpt><trkpt lat="43.46076936085398" lon="11.965706119894211"><ele>677.0</ele><time>2026-05-03T09:49:05Z</time></trkpt><trkpt lat="43.46076601658812" lon="11.965613086932093"><ele>677.5</ele><time>2026-05-03T09:49:07Z</time></trkpt><trkpt lat="43.46089803772623" lon="11.965329463237916"><ele>678.0</ele><time>2026-05-03T09:49:11Z</time></trkpt><trkpt lat="43.4609814853842" lon="11.965118853735058"><ele>678.8</ele><time>2026-05-03T09:49:12Z</time></trkpt><trkpt lat="43.46099708728071" lon="11.964974218733921"><ele>679.5999999999999</ele><time>2026-05-03T09:49:13Z</time></trkpt><trkpt lat="43.46097090170887" lon="11.964857310122158"><ele>680.4000000000001</ele><time>2026-05-03T09:49:14Z</time></trkpt><trkpt lat="43.46090927025803" lon="11.964776946565564"><ele>681.2</ele><time>2026-05-03T09:49:15Z</time></trkpt><trkpt lat="43.46085890992026" lon="11.96465899336295"><ele>682.0</ele><time>2026-05-03T09:49:16Z</time></trkpt><trkpt lat="43.46082258672509" lon="11.964496739872189"><ele>682.0</ele><time>2026-05-03T09:49:17Z</time></trkpt><trkpt lat="43.460722999642826" lon="11.964365723597568"><ele>682.0</ele><time>2026-05-03T09:49:19Z</time></trkpt><trkpt lat="43.4606716402494" lon="11.964299295539071"><ele>682.0</ele><time>2026-05-03T09:49:20Z</time></trkpt><trkpt lat="43.46064729365482" lon="11.964196833592533"><ele>682.0</ele><time>2026-05-03T09:49:21Z</time></trkpt><trkpt lat="43.46064012201902" lon="11.964068036446482"><ele>682.0</ele><time>2026-05-03T09:49:22Z</time></trkpt><trkpt lat="43.460660181034555" lon="11.963942010006043"><ele>684.2</ele><time>2026-05-03T09:49:23Z</time></trkpt><trkpt lat="43.46071567708002" lon="11.963826708173237"><ele>686.4000000000001</ele><time>2026-05-03T09:49:24Z</time></trkpt><trkpt lat="43.46079675419387" lon="11.963733475315493"><ele>688.5999999999999</ele><time>2026-05-03T09:49:25Z</time></trkpt><trkpt lat="43.46089289128638" lon="11.963656644805425"><ele>690.8</ele><time>2026-05-03T09:49:26Z</time></trkpt><trkpt lat="43.46097441782527" lon="11.963573243524593"><ele>693.0</ele><time>2026-05-03T09:49:27Z</time></trkpt><trkpt lat="43.46105966594224" lon="11.96349311744371"><ele>693.0</ele><time>2026-05-03T09:49:28Z</time></trkpt><trkpt lat="43.461131286904944" lon="11.963456669324042"><ele>693.0</ele><time>2026-05-03T09:49:29Z</time></trkpt><trkpt lat="43.461205447822294" lon="11.963422528714524"><ele>693.0</ele><time>2026-05-03T09:49:30Z</time></trkpt><trkpt lat="43.4612676916362" lon="11.963323784792788"><ele>693.0</ele><time>2026-05-03T09:49:32Z</time></trkpt><trkpt lat="43.461224543404725" lon="11.963247022190963"><ele>693.0</ele><time>2026-05-03T09:49:34Z</time></trkpt><trkpt lat="43.461189901408225" lon="11.963173302246357"><ele>693.0</ele><time>2026-05-03T09:49:35Z</time></trkpt><trkpt lat="43.46113902441827" lon="11.963106235611175"><ele>692.6666666666666</ele><time>2026-05-03T09:49:36Z</time></trkpt><trkpt lat="43.46107652460625" lon="11.963038847149031"><ele>692.3333333333334</ele><time>2026-05-03T09:49:37Z</time></trkpt><trkpt lat="43.461029276130304" lon="11.96293583206164"><ele>692.0</ele><time>2026-05-03T09:49:38Z</time></trkpt><trkpt lat="43.46097695183535" lon="11.962809907739297"><ele>691.6666666666667</ele><time>2026-05-03T09:49:39Z</time></trkpt><trkpt lat="43.460924695638134" lon="11.962709617792202"><ele>691.3333333333334</ele><time>2026-05-03T09:49:41Z</time></trkpt><trkpt lat="43.46091778469473" lon="11.962598489159776"><ele>691.0</ele><time>2026-05-03T09:49:42Z</time></trkpt><trkpt lat="43.46091482972312" lon="11.96248528760628"><ele>690.5</ele><time>2026-05-03T09:49:43Z</time></trkpt><trkpt lat="43.460910401907235" lon="11.962354621524758"><ele>690.0</ele><time>2026-05-03T09:49:44Z</time></trkpt><trkpt lat="43.460900447073826" lon="11.962255708608103"><ele>689.5</ele><time>2026-05-03T09:49:45Z</time></trkpt><trkpt lat="43.460898077664474" lon="11.962164584836398"><ele>689.0</ele><time>2026-05-03T09:49:46Z</time></trkpt><trkpt lat="43.460862764889356" lon="11.96207595767677"><ele>688.5</ele><time>2026-05-03T09:49:49Z</time></trkpt><trkpt lat="43.46088523162553" lon="11.961975074828898"><ele>688.0</ele><time>2026-05-03T09:51:46.001Z</time></trkpt><trkpt lat="43.460832913252304" lon="11.961898510859848"><ele>688.0</ele><time>2026-05-03T09:51:51.001Z</time></trkpt><trkpt lat="43.460779677225545" lon="11.961845493586791"><ele>688.0</ele><time>2026-05-03T09:51:55.001Z</time></trkpt><trkpt lat="43.46070439577801" lon="11.961817521248982"><ele>688.0</ele><time>2026-05-03T09:51:59.001Z</time></trkpt><trkpt lat="43.460853592080056" lon="11.961717374876077"><ele>688.0</ele><time>2026-05-03T09:52:09.001Z</time></trkpt><trkpt lat="43.46092707392229" lon="11.961707803069917"><ele>688.0</ele><time>2026-05-03T09:52:10.001Z</time></trkpt><trkpt lat="43.461001837367334" lon="11.961674693083358"><ele>688.3333333333334</ele><time>2026-05-03T09:52:11.001Z</time></trkpt><trkpt lat="43.461100857234094" lon="11.96167962590529"><ele>688.6666666666667</ele><time>2026-05-03T09:52:12.001Z</time></trkpt><trkpt lat="43.46116368867699" lon="11.96161595877402"><ele>689.0</ele><time>2026-05-03T09:52:13.001Z</time></trkpt><trkpt lat="43.46121930455624" lon="11.961532216950062"><ele>689.3333333333334</ele><time>2026-05-03T09:52:14.001Z</time></trkpt><trkpt lat="43.46129227001311" lon="11.961464490515748"><ele>689.6666666666666</ele><time>2026-05-03T09:52:15.001Z</time></trkpt><trkpt lat="43.461367067441174" lon="11.961404599633392"><ele>690.0</ele><time>2026-05-03T09:52:16.001Z</time></trkpt><trkpt lat="43.46142411523032" lon="11.961334798210709"><ele>690.0</ele><time>2026-05-03T09:52:17.001Z</time></trkpt><trkpt lat="43.46148712398469" lon="11.961244436799445"><ele>690.0</ele><time>2026-05-03T09:52:18.001Z</time></trkpt><trkpt lat="43.461530789092755" lon="11.961131508667624"><ele>690.0</ele><time>2026-05-03T09:52:19.001Z</time></trkpt><trkpt lat="43.46160029298314" lon="11.961046185418013"><ele>690.0</ele><time>2026-05-03T09:52:20.001Z</time></trkpt><trkpt lat="43.461666042662436" lon="11.960927120580642"><ele>690.0</ele><time>2026-05-03T09:52:21.001Z</time></trkpt><trkpt lat="43.461725039768936" lon="11.960819932628924"><ele>687.1666666666666</ele><time>2026-05-03T09:52:22.001Z</time></trkpt><trkpt lat="43.461781925748404" lon="11.960720340471191"><ele>684.3333333333334</ele><time>2026-05-03T09:52:23.001Z</time></trkpt><trkpt lat="43.461833340914495" lon="11.960632701144737"><ele>681.5</ele><time>2026-05-03T09:52:24.001Z</time></trkpt><trkpt lat="43.461885610347075" lon="11.960543809549254"><ele>678.6666666666667</ele><time>2026-05-03T09:52:25.001Z</time></trkpt><trkpt lat="43.46193979705884" lon="11.960449838051744"><ele>675.8333333333334</ele><time>2026-05-03T09:52:26.001Z</time></trkpt><trkpt lat="43.46198850644862" lon="11.9603630418776"><ele>673.0</ele><time>2026-05-03T09:52:27.001Z</time></trkpt><trkpt lat="43.462032734459754" lon="11.960281519530508"><ele>673.0</ele><time>2026-05-03T09:52:28.001Z</time></trkpt><trkpt lat="43.46208645255186" lon="11.960182504801818"><ele>673.0</ele><time>2026-05-03T09:52:29.001Z</time></trkpt><trkpt lat="43.46213727204903" lon="11.960088244476728"><ele>673.0</ele><time>2026-05-03T09:52:30Z</time></trkpt><trkpt lat="43.46218601842363" lon="11.959995594613508"><ele>673.0</ele><time>2026-05-03T09:52:31Z</time></trkpt><trkpt lat="43.46223133687776" lon="11.959904088035627"><ele>673.0</ele><time>2026-05-03T09:52:32Z</time></trkpt><trkpt lat="43.462259339751306" lon="11.959808938835394"><ele>673.0</ele><time>2026-05-03T09:52:33Z</time></trkpt><trkpt lat="43.46230046291364" lon="11.959721036059793"><ele>673.6666666666667</ele><time>2026-05-03T09:52:34Z</time></trkpt><trkpt lat="43.462342247575876" lon="11.959637340567388"><ele>674.3333333333334</ele><time>2026-05-03T09:52:35Z</time></trkpt><trkpt lat="43.4623807414823" lon="11.95955396892925"><ele>675.0</ele><time>2026-05-03T09:52:36Z</time></trkpt><trkpt lat="43.46241623436572" lon="11.959459999066288"><ele>675.6666666666666</ele><time>2026-05-03T09:52:37Z</time></trkpt><trkpt lat="43.462451696058864" lon="11.959366913500848"><ele>676.3333333333333</ele><time>2026-05-03T09:52:38Z</time></trkpt><trkpt lat="43.46248581124729" lon="11.95927970614564"><ele>677.0</ele><time>2026-05-03T09:52:39Z</time></trkpt><trkpt lat="43.4625509659408" lon="11.959118665094353"><ele>674.9999999999999</ele><time>2026-05-03T09:52:41Z</time></trkpt><trkpt lat="43.46256608646495" lon="11.959026048543972"><ele>673.0</ele><time>2026-05-03T09:52:42Z</time></trkpt><trkpt lat="43.46260179044085" lon="11.958947697764975"><ele>671.0</ele><time>2026-05-03T09:52:43Z</time></trkpt><trkpt lat="43.46263792412565" lon="11.958871911722056"><ele>669.0</ele><time>2026-05-03T09:52:44Z</time></trkpt><trkpt lat="43.46268166046178" lon="11.958791128909933"><ele>667.0</ele><time>2026-05-03T09:52:45Z</time></trkpt><trkpt lat="43.4627282912082" lon="11.958711648693264"><ele>664.9999999999999</ele><time>2026-05-03T09:52:46Z</time></trkpt><trkpt lat="43.46276776756803" lon="11.958642011062057"><ele>663.0</ele><time>2026-05-03T09:52:47Z</time></trkpt><trkpt lat="43.46284145461122" lon="11.958519493822777"><ele>663.0</ele><time>2026-05-03T09:52:49Z</time></trkpt><trkpt lat="43.46291135067783" lon="11.95841134147011"><ele>663.0</ele><time>2026-05-03T09:52:51Z</time></trkpt><trkpt lat="43.46302586438511" lon="11.95837987840163"><ele>663.0</ele><time>2026-05-03T09:52:53Z</time></trkpt><trkpt lat="43.46308920251948" lon="11.95838104958868"><ele>663.0</ele><time>2026-05-03T09:52:54Z</time></trkpt><trkpt lat="43.463204452056935" lon="11.958402215740255"><ele>663.0</ele><time>2026-05-03T09:52:56Z</time></trkpt><trkpt lat="43.46330777697614" lon="11.95848334596303"><ele>665.2</ele><time>2026-05-03T09:52:58Z</time></trkpt><trkpt lat="43.46333645358196" lon="11.958590723300881"><ele>667.4</ele><time>2026-05-03T09:52:59Z</time></trkpt><trkpt lat="43.46338304932751" lon="11.958653869309547"><ele>669.6</ele><time>2026-05-03T09:53:00Z</time></trkpt><trkpt lat="43.46345067299271" lon="11.95873227621658"><ele>671.8000000000001</ele><time>2026-05-03T09:53:02Z</time></trkpt><trkpt lat="43.46353565283595" lon="11.958774132338132"><ele>674.0</ele><time>2026-05-03T09:53:04Z</time></trkpt><trkpt lat="43.46372490846636" lon="11.958671633820211"><ele>674.0</ele><time>2026-05-03T09:53:10Z</time></trkpt><trkpt lat="43.46377663057661" lon="11.958609356157575"><ele>674.0</ele><time>2026-05-03T09:53:11Z</time></trkpt><trkpt lat="43.46382517097902" lon="11.958545099128376"><ele>674.0</ele><time>2026-05-03T09:53:12Z</time></trkpt><trkpt lat="43.46390854109301" lon="11.958404218568035"><ele>674.0</ele><time>2026-05-03T09:53:14Z</time></trkpt><trkpt lat="43.46395001082088" lon="11.958311871018616"><ele>674.0</ele><time>2026-05-03T09:53:15Z</time></trkpt><trkpt lat="43.46402994446694" lon="11.958169701748313"><ele>671.8333333333333</ele><time>2026-05-03T09:53:17Z</time></trkpt><trkpt lat="43.46407100688573" lon="11.958091081120143"><ele>669.6666666666666</ele><time>2026-05-03T09:53:18Z</time></trkpt><trkpt lat="43.46415144612088" lon="11.958028549395516"><ele>667.5</ele><time>2026-05-03T09:53:19Z</time></trkpt><trkpt lat="43.46423675329357" lon="11.957998352956507"><ele>665.3333333333334</ele><time>2026-05-03T09:53:20Z</time></trkpt><trkpt lat="43.464320434213455" lon="11.957970317275258"><ele>663.1666666666667</ele><time>2026-05-03T09:53:21Z</time></trkpt><trkpt lat="43.46439817160911" lon="11.957957567971262"><ele>661.0</ele><time>2026-05-03T09:53:22Z</time></trkpt><trkpt lat="43.46446951634139" lon="11.957889362896845"><ele>661.0</ele><time>2026-05-03T09:53:23Z</time></trkpt><trkpt lat="43.4645190082609" lon="11.957822620211052"><ele>661.0</ele><time>2026-05-03T09:53:24Z</time></trkpt><trkpt lat="43.46461784112612" lon="11.957738602672215"><ele>661.0</ele><time>2026-05-03T09:53:26Z</time></trkpt><trkpt lat="43.46469348538612" lon="11.95773195094787"><ele>661.0</ele><time>2026-05-03T09:53:27Z</time></trkpt><trkpt lat="43.46475800360114" lon="11.95773147530177"><ele>661.0</ele><time>2026-05-03T09:53:28Z</time></trkpt><trkpt lat="43.464821797308005" lon="11.957771903254594"><ele>661.0</ele><time>2026-05-03T09:53:29Z</time></trkpt><trkpt lat="43.46488069506068" lon="11.957829768048327"><ele>661.5</ele><time>2026-05-03T09:53:30Z</time></trkpt><trkpt lat="43.46493942091947" lon="11.957874508605364"><ele>662.0</ele><time>2026-05-03T09:53:31Z</time></trkpt><trkpt lat="43.464973400870896" lon="11.957971055192674"><ele>662.5</ele><time>2026-05-03T09:53:32Z</time></trkpt><trkpt lat="43.465075642105305" lon="11.958075522962424"><ele>663.0</ele><time>2026-05-03T09:53:34Z</time></trkpt><trkpt lat="43.46514832884652" lon="11.95812275046622"><ele>663.5</ele><time>2026-05-03T09:53:35Z</time></trkpt><trkpt lat="43.46524010738072" lon="11.958116454493057"><ele>664.0</ele><time>2026-05-03T09:53:37Z</time></trkpt><trkpt lat="43.46526349456734" lon="11.958259141786453"><ele>664.0</ele><time>2026-05-03T09:53:39Z</time></trkpt><trkpt lat="43.4652881339086" lon="11.958352673040617"><ele>664.0</ele><time>2026-05-03T09:53:40Z</time></trkpt><trkpt lat="43.46533035321637" lon="11.958478331571754"><ele>664.0</ele><time>2026-05-03T09:53:41Z</time></trkpt><trkpt lat="43.465426418583036" lon="11.958500988398615"><ele>664.0</ele><time>2026-05-03T09:53:42Z</time></trkpt><trkpt lat="43.465502537642095" lon="11.958529244957331"><ele>664.0</ele><time>2026-05-03T09:53:43Z</time></trkpt><trkpt lat="43.465563564157634" lon="11.958557388149162"><ele>664.0</ele><time>2026-05-03T09:53:44Z</time></trkpt><trkpt lat="43.46566170074178" lon="11.958629413219443"><ele>665.0</ele><time>2026-05-03T09:53:46Z</time></trkpt><trkpt lat="43.46572727298359" lon="11.958744087324456"><ele>666.0</ele><time>2026-05-03T09:53:48Z</time></trkpt><trkpt lat="43.46572112726981" lon="11.958883799756922"><ele>667.0</ele><time>2026-05-03T09:53:50Z</time></trkpt><trkpt lat="43.465708122979684" lon="11.959053160447034"><ele>668.0</ele><time>2026-05-03T09:53:52Z</time></trkpt><trkpt lat="43.46584551446543" lon="11.95910883435229"><ele>668.0</ele><time>2026-05-03T09:53:53Z</time></trkpt><trkpt lat="43.465951579630804" lon="11.959071458463256"><ele>668.0</ele><time>2026-05-03T09:53:54.001Z</time></trkpt><trkpt lat="43.46606478466372" lon="11.95902047357734"><ele>668.0</ele><time>2026-05-03T09:53:55.001Z</time></trkpt><trkpt lat="43.46613937460326" lon="11.958979532337636"><ele>668.0</ele><time>2026-05-03T09:53:56.001Z</time></trkpt><trkpt lat="43.466231954715255" lon="11.958948128809368"><ele>668.0</ele><time>2026-05-03T09:53:58.001Z</time></trkpt><trkpt lat="43.466316526826596" lon="11.95902106168889"><ele>667.75</ele><time>2026-05-03T09:54:02.001Z</time></trkpt><trkpt lat="43.46636088452868" lon="11.959149341789704"><ele>667.5</ele><time>2026-05-03T09:54:07.001Z</time></trkpt><trkpt lat="43.46639047868758" lon="11.959345220415093"><ele>667.25</ele><time>2026-05-03T09:54:10.001Z</time></trkpt><trkpt lat="43.46647642418493" lon="11.959424392389998"><ele>667.0</ele><time>2026-05-03T09:54:11.001Z</time></trkpt><trkpt lat="43.466520362845024" lon="11.959193286777186"><ele>667.0</ele><time>2026-05-03T09:54:12.001Z</time></trkpt><trkpt lat="43.466584107250675" lon="11.959313729598767"><ele>667.0</ele><time>2026-05-03T09:54:14.001Z</time></trkpt><trkpt lat="43.466664773583055" lon="11.959406352620917"><ele>667.0</ele><time>2026-05-03T09:54:16.001Z</time></trkpt><trkpt lat="43.4667642288063" lon="11.959388509723595"><ele>667.0</ele><time>2026-05-03T09:54:18.001Z</time></trkpt><trkpt lat="43.46684376070089" lon="11.959261603918355"><ele>667.0</ele><time>2026-05-03T09:54:20.001Z</time></trkpt><trkpt lat="43.46692936480094" lon="11.959190898968558"><ele>671.75</ele><time>2026-05-03T09:54:22.001Z</time></trkpt><trkpt lat="43.46706659864185" lon="11.959392141729786"><ele>676.5</ele><time>2026-05-03T09:54:23.001Z</time></trkpt><trkpt lat="43.46719363128968" lon="11.959350343596572"><ele>681.25</ele><time>2026-05-03T09:54:25.001Z</time></trkpt><trkpt lat="43.46726325842117" lon="11.959338089497583"><ele>686.0</ele><time>2026-05-03T09:54:26.001Z</time></trkpt><trkpt lat="43.46733684275678" lon="11.959330345687668"><ele>686.8</ele><time>2026-05-03T09:54:27.001Z</time></trkpt><trkpt lat="43.46740253339983" lon="11.959325336041099"><ele>687.5999999999999</ele><time>2026-05-03T09:54:28.001Z</time></trkpt><trkpt lat="43.46746902960016" lon="11.959318073349055"><ele>688.4</ele><time>2026-05-03T09:54:29.001Z</time></trkpt><trkpt lat="43.46757621252026" lon="11.95928095072876"><ele>689.2</ele><time>2026-05-03T09:54:30.001Z</time></trkpt><trkpt lat="43.46765659747578" lon="11.959188034370182"><ele>690.0</ele><time>2026-05-03T09:54:31.001Z</time></trkpt><trkpt lat="43.467662842992176" lon="11.958995563258425"><ele>688.0</ele><time>2026-05-03T09:54:32.001Z</time></trkpt><trkpt lat="43.4676724336234" lon="11.958882027280971"><ele>686.0</ele><time>2026-05-03T09:54:34.001Z</time></trkpt><trkpt lat="43.467692677303596" lon="11.958771701592266"><ele>684.0</ele><time>2026-05-03T09:54:36Z</time></trkpt><trkpt lat="43.46773441417021" lon="11.958641733639439"><ele>682.0</ele><time>2026-05-03T09:54:38Z</time></trkpt><trkpt lat="43.46778323620859" lon="11.958571069922444"><ele>680.0</ele><time>2026-05-03T09:54:39Z</time></trkpt><trkpt lat="43.46788364240083" lon="11.95858137673018"><ele>678.0</ele><time>2026-05-03T09:54:40Z</time></trkpt><trkpt lat="43.46797781286422" lon="11.958539324603446"><ele>678.0</ele><time>2026-05-03T09:54:41Z</time></trkpt><trkpt lat="43.468077657204" lon="11.958486030994207"><ele>678.0</ele><time>2026-05-03T09:54:42Z</time></trkpt><trkpt lat="43.4681590594634" lon="11.958422401828745"><ele>678.0</ele><time>2026-05-03T09:54:43Z</time></trkpt><trkpt lat="43.468197705699005" lon="11.958330230886203"><ele>678.0</ele><time>2026-05-03T09:54:44Z</time></trkpt><trkpt lat="43.46825133952772" lon="11.958269872252108"><ele>678.0</ele><time>2026-05-03T09:54:45Z</time></trkpt><trkpt lat="43.468330431065304" lon="11.958197329682706"><ele>678.0</ele><time>2026-05-03T09:54:47Z</time></trkpt><trkpt lat="43.468427780743696" lon="11.958113345848703"><ele>677.2</ele><time>2026-05-03T09:54:49Z</time></trkpt><trkpt lat="43.46853593165927" lon="11.95801969347944"><ele>676.4</ele><time>2026-05-03T09:54:51Z</time></trkpt><trkpt lat="43.46860533955825" lon="11.957958684998834"><ele>675.6</ele><time>2026-05-03T09:54:52Z</time></trkpt><trkpt lat="43.46867066708367" lon="11.957902352101602"><ele>674.8000000000001</ele><time>2026-05-03T09:54:53Z</time></trkpt><trkpt lat="43.468733445422785" lon="11.957842104584403"><ele>674.0</ele><time>2026-05-03T09:54:54Z</time></trkpt><trkpt lat="43.46882048797165" lon="11.957742959614048"><ele>674.0</ele><time>2026-05-03T09:54:56Z</time></trkpt><trkpt lat="43.468865149689954" lon="11.957657282601025"><ele>674.0</ele><time>2026-05-03T09:54:57Z</time></trkpt><trkpt lat="43.468844554635126" lon="11.95757476728623"><ele>674.0</ele><time>2026-05-03T09:54:58Z</time></trkpt><trkpt lat="43.468854968013275" lon="11.957482204408485"><ele>674.0</ele><time>2026-05-03T09:54:59Z</time></trkpt><trkpt lat="43.46898133563509" lon="11.957420493195976"><ele>674.0</ele><time>2026-05-03T09:55:00Z</time></trkpt><trkpt lat="43.46901878350713" lon="11.957329117898917"><ele>674.0</ele><time>2026-05-03T09:55:01Z</time></trkpt><trkpt lat="43.4690630961914" lon="11.957228617197439"><ele>670.8333333333333</ele><time>2026-05-03T09:55:02Z</time></trkpt><trkpt lat="43.469120221279645" lon="11.957142326805727"><ele>667.6666666666666</ele><time>2026-05-03T09:55:03Z</time></trkpt><trkpt lat="43.46918603262634" lon="11.957066882305527"><ele>664.5</ele><time>2026-05-03T09:55:04Z</time></trkpt><trkpt lat="43.4692417899105" lon="11.956997578831304"><ele>661.3333333333334</ele><time>2026-05-03T09:55:05Z</time></trkpt><trkpt lat="43.46929566872793" lon="11.956926013735552"><ele>658.1666666666667</ele><time>2026-05-03T09:55:06Z</time></trkpt><trkpt lat="43.46934859827548" lon="11.956856542105276"><ele>655.0</ele><time>2026-05-03T09:55:07Z</time></trkpt><trkpt lat="43.469394203966495" lon="11.956785232680028"><ele>655.0</ele><time>2026-05-03T09:55:08Z</time></trkpt><trkpt lat="43.46943932589261" lon="11.956722927169984"><ele>655.0</ele><time>2026-05-03T09:55:09Z</time></trkpt><trkpt lat="43.46949119754374" lon="11.956651840274365"><ele>655.0</ele><time>2026-05-03T09:55:10Z</time></trkpt><trkpt lat="43.46953839399519" lon="11.956584190474471"><ele>655.0</ele><time>2026-05-03T09:55:11Z</time></trkpt><trkpt lat="43.46958550098407" lon="11.9565143131202"><ele>655.0</ele><time>2026-05-03T09:55:12Z</time></trkpt><trkpt lat="43.469636789457184" lon="11.956443968215428"><ele>655.0</ele><time>2026-05-03T09:55:13Z</time></trkpt><trkpt lat="43.469685305317064" lon="11.95638285701295"><ele>655.0</ele><time>2026-05-03T09:55:14Z</time></trkpt><trkpt lat="43.46976540477255" lon="11.956301671807607"><ele>654.2</ele><time>2026-05-03T09:55:16Z</time></trkpt><trkpt lat="43.46982113269057" lon="11.956242303302808"><ele>653.4</ele><time>2026-05-03T09:55:18Z</time></trkpt><trkpt lat="43.46991787206684" lon="11.956223247973316"><ele>652.5999999999999</ele><time>2026-05-03T09:55:20Z</time></trkpt><trkpt lat="43.46997918412646" lon="11.95625398662106"><ele>651.8</ele><time>2026-05-03T09:55:21Z</time></trkpt><trkpt lat="43.470099539857294" lon="11.956289766805314"><ele>651.0</ele><time>2026-05-03T09:55:23Z</time></trkpt><trkpt lat="43.470195988870984" lon="11.956352208453227"><ele>651.0</ele><time>2026-05-03T09:55:25Z</time></trkpt><trkpt lat="43.47029995116423" lon="11.95637561358521"><ele>651.0</ele><time>2026-05-03T09:55:27Z</time></trkpt><trkpt lat="43.47038043323283" lon="11.956333886806544"><ele>651.0</ele><time>2026-05-03T09:55:29Z</time></trkpt><trkpt lat="43.47046495808291" lon="11.956326056692825"><ele>651.0</ele><time>2026-05-03T09:55:30Z</time></trkpt><trkpt lat="43.47054921403199" lon="11.95631771062775"><ele>651.0</ele><time>2026-05-03T09:55:31Z</time></trkpt><trkpt lat="43.47062424505275" lon="11.956323752920238"><ele>651.0</ele><time>2026-05-03T09:55:32Z</time></trkpt><trkpt lat="43.470691554548225" lon="11.956341943664716"><ele>652.4</ele><time>2026-05-03T09:55:33Z</time></trkpt><trkpt lat="43.47086559763758" lon="11.956263245455016"><ele>653.8</ele><time>2026-05-03T09:55:37Z</time></trkpt><trkpt lat="43.470930527061455" lon="11.95626986576883"><ele>655.1999999999999</ele><time>2026-05-03T09:55:39Z</time></trkpt><trkpt lat="43.47102785880115" lon="11.956315552669414"><ele>656.5999999999999</ele><time>2026-05-03T09:55:41Z</time></trkpt><trkpt lat="43.47110527749557" lon="11.956324925592213"><ele>658.0</ele><time>2026-05-03T09:55:45Z</time></trkpt><trkpt lat="43.47117083310289" lon="11.956362956429627"><ele>658.0</ele><time>2026-05-03T09:55:46Z</time></trkpt><trkpt lat="43.47125769844659" lon="11.9563661271456"><ele>658.0</ele><time>2026-05-03T09:55:48Z</time></trkpt><trkpt lat="43.471338283842975" lon="11.956367727605961"><ele>658.0</ele><time>2026-05-03T09:55:51Z</time></trkpt><trkpt lat="43.47144844262318" lon="11.956340702220974"><ele>658.0</ele><time>2026-05-03T09:55:54Z</time></trkpt><trkpt lat="43.47156221415127" lon="11.9563263230268"><ele>658.0</ele><time>2026-05-03T09:55:56Z</time></trkpt><trkpt lat="43.471729636378" lon="11.95635246639057"><ele>656.0</ele><time>2026-05-03T09:55:59Z</time></trkpt><trkpt lat="43.47210448209153" lon="11.956296623714307"><ele>654.0</ele><time>2026-05-03T09:56:05.001Z</time></trkpt><trkpt lat="43.472148416495045" lon="11.956136259382937"><ele>654.0</ele><time>2026-05-03T09:56:07.001Z</time></trkpt><trkpt lat="43.472161693835076" lon="11.95597271177052"><ele>654.0</ele><time>2026-05-03T09:56:09.001Z</time></trkpt><trkpt lat="43.47221056251038" lon="11.955817077797535"><ele>654.0</ele><time>2026-05-03T09:56:11.001Z</time></trkpt><trkpt lat="43.47224959207234" lon="11.955742619050474"><ele>654.0</ele><time>2026-05-03T09:56:12.001Z</time></trkpt><trkpt lat="43.472290895977025" lon="11.955669975718209"><ele>654.0</ele><time>2026-05-03T09:56:13.001Z</time></trkpt><trkpt lat="43.47245990944534" lon="11.955578862496646"><ele>652.0</ele><time>2026-05-03T09:56:15.001Z</time></trkpt><trkpt lat="43.47254604149997" lon="11.955575766953997"><ele>650.0</ele><time>2026-05-03T09:56:16.001Z</time></trkpt><trkpt lat="43.472611885636844" lon="11.955550253949747"><ele>648.0</ele><time>2026-05-03T09:56:17.001Z</time></trkpt><trkpt lat="43.472692715192885" lon="11.955514460795438"><ele>646.0</ele><time>2026-05-03T09:56:19.001Z</time></trkpt><trkpt lat="43.47268150847965" lon="11.955392808846472"><ele>644.0</ele><time>2026-05-03T09:56:22.001Z</time></trkpt><trkpt lat="43.47267249102055" lon="11.955305525758437"><ele>642.0</ele><time>2026-05-03T09:56:23.001Z</time></trkpt><trkpt lat="43.472645161841825" lon="11.955203455849961"><ele>642.0</ele><time>2026-05-03T09:56:24.001Z</time></trkpt><trkpt lat="43.47261881962468" lon="11.955115121871016"><ele>642.0</ele><time>2026-05-03T09:56:25.001Z</time></trkpt><trkpt lat="43.47258975284559" lon="11.955033772982569"><ele>642.0</ele><time>2026-05-03T09:56:26.001Z</time></trkpt><trkpt lat="43.4725211784694" lon="11.95498538652758"><ele>642.0</ele><time>2026-05-03T09:56:27.001Z</time></trkpt><trkpt lat="43.47259343034792" lon="11.954843812313218"><ele>642.0</ele><time>2026-05-03T09:56:30.001Z</time></trkpt><trkpt lat="43.472602750921446" lon="11.954752712095141"><ele>642.0</ele><time>2026-05-03T09:56:31.001Z</time></trkpt><trkpt lat="43.47265817539678" lon="11.954312856722165"><ele>638.6666666666666</ele><time>2026-05-03T09:56:36.001Z</time></trkpt><trkpt lat="43.47272367774074" lon="11.953967625084402"><ele>635.3333333333333</ele><time>2026-05-03T09:56:37.001Z</time></trkpt><trkpt lat="43.4728101898417" lon="11.953866183707484"><ele>632.0</ele><time>2026-05-03T09:56:38.001Z</time></trkpt><trkpt lat="43.472865571393065" lon="11.953741664207703"><ele>632.0</ele><time>2026-05-03T09:56:39.001Z</time></trkpt><trkpt lat="43.47292278250272" lon="11.953624900738712"><ele>632.0</ele><time>2026-05-03T09:56:40.001Z</time></trkpt><trkpt lat="43.47295068243915" lon="11.953505779081137"><ele>632.0</ele><time>2026-05-03T09:56:41.001Z</time></trkpt><trkpt lat="43.47297460756174" lon="11.953408943423153"><ele>632.0</ele><time>2026-05-03T09:56:42Z</time></trkpt><trkpt lat="43.473003925829" lon="11.95322844495203"><ele>632.0</ele><time>2026-05-03T09:56:44Z</time></trkpt><trkpt lat="43.4730359594734" lon="11.953139856770827"><ele>637.0</ele><time>2026-05-03T09:56:46Z</time></trkpt><trkpt lat="43.4732122183824" lon="11.953121801421368"><ele>642.0</ele><time>2026-05-03T09:56:50Z</time></trkpt><trkpt lat="43.473262915704865" lon="11.953067511044676"><ele>647.0</ele><time>2026-05-03T09:56:52Z</time></trkpt><trkpt lat="43.47319969286184" lon="11.952727792554615"><ele>647.0</ele><time>2026-05-03T09:56:57Z</time></trkpt><trkpt lat="43.47322198853074" lon="11.952617118403108"><ele>647.0</ele><time>2026-05-03T09:56:58Z</time></trkpt><trkpt lat="43.47326148236399" lon="11.952530096172355"><ele>647.0</ele><time>2026-05-03T09:56:59Z</time></trkpt><trkpt lat="43.47330640465727" lon="11.952435916779345"><ele>647.0</ele><time>2026-05-03T09:57:00Z</time></trkpt><trkpt lat="43.47334706208429" lon="11.952334627449378"><ele>647.0</ele><time>2026-05-03T09:57:01Z</time></trkpt><trkpt lat="43.4733942216996" lon="11.952262485832764"><ele>647.0</ele><time>2026-05-03T09:57:02Z</time></trkpt><trkpt lat="43.473452974878995" lon="11.952228148784139"><ele>648.6</ele><time>2026-05-03T09:57:03Z</time></trkpt><trkpt lat="43.47355660263647" lon="11.952166969741437"><ele>650.2</ele><time>2026-05-03T09:57:05Z</time></trkpt><trkpt lat="43.473644098575946" lon="11.952057963228617"><ele>651.8</ele><time>2026-05-03T09:57:07Z</time></trkpt><trkpt lat="43.47371488824114" lon="11.952002518721939"><ele>653.4</ele><time>2026-05-03T09:57:08Z</time></trkpt><trkpt lat="43.47377538049879" lon="11.951938075139562"><ele>655.0</ele><time>2026-05-03T09:57:09Z</time></trkpt><trkpt lat="43.473890713972146" lon="11.951849586538671"><ele>655.0</ele><time>2026-05-03T09:57:11Z</time></trkpt><trkpt lat="43.473956100889126" lon="11.951807435214286"><ele>655.0</ele><time>2026-05-03T09:57:12Z</time></trkpt><trkpt lat="43.47408137387552" lon="11.951722280848564"><ele>655.0</ele><time>2026-05-03T09:57:14Z</time></trkpt><trkpt lat="43.47414484458159" lon="11.951670066870857"><ele>655.0</ele><time>2026-05-03T09:57:15Z</time></trkpt><trkpt lat="43.474197782937146" lon="11.951616045064766"><ele>655.0</ele><time>2026-05-03T09:57:16Z</time></trkpt><trkpt lat="43.474252531850794" lon="11.951569223263485"><ele>655.0</ele><time>2026-05-03T09:57:17Z</time></trkpt><trkpt lat="43.47435944557673" lon="11.951491290346958"><ele>653.1666666666667</ele><time>2026-05-03T09:57:19Z</time></trkpt><trkpt lat="43.474435192832935" lon="11.951502459573971"><ele>651.3333333333334</ele><time>2026-05-03T09:57:20Z</time></trkpt><trkpt lat="43.47450274798458" lon="11.95153276113992"><ele>649.5</ele><time>2026-05-03T09:57:21Z</time></trkpt><trkpt lat="43.474560996896486" lon="11.951575413649376"><ele>647.6666666666666</ele><time>2026-05-03T09:57:22Z</time></trkpt><trkpt lat="43.47462286216102" lon="11.951669060385987"><ele>645.8333333333333</ele><time>2026-05-03T09:57:24Z</time></trkpt><trkpt lat="43.47472387778503" lon="11.951629537075853"><ele>644.0</ele><time>2026-05-03T09:57:26Z</time></trkpt><trkpt lat="43.474792440748004" lon="11.951633645797376"><ele>644.0</ele><time>2026-05-03T09:57:27Z</time></trkpt><trkpt lat="43.47487079633972" lon="11.951619544825624"><ele>644.0</ele><time>2026-05-03T09:57:28Z</time></trkpt><trkpt lat="43.47494281871007" lon="11.95162073617547"><ele>644.0</ele><time>2026-05-03T09:57:29Z</time></trkpt><trkpt lat="43.475014996848394" lon="11.95161739950025"><ele>644.0</ele><time>2026-05-03T09:57:30Z</time></trkpt><trkpt lat="43.47511769567301" lon="11.951632930355945"><ele>644.0</ele><time>2026-05-03T09:57:32Z</time></trkpt><trkpt lat="43.47520423505457" lon="11.951653015421188"><ele>644.0</ele><time>2026-05-03T09:57:34Z</time></trkpt><trkpt lat="43.475270779479914" lon="11.951607980859325"><ele>644.0</ele><time>2026-05-03T09:57:36Z</time></trkpt><trkpt lat="43.47532417825615" lon="11.95151068750166"><ele>644.0</ele><time>2026-05-03T09:57:38Z</time></trkpt><trkpt lat="43.475398280718636" lon="11.95150040648539"><ele>644.0</ele><time>2026-05-03T09:57:40Z</time></trkpt><trkpt lat="43.475508192629256" lon="11.951546668625634"><ele>644.0</ele><time>2026-05-03T09:57:42Z</time></trkpt><trkpt lat="43.47562962762376" lon="11.951608317274994"><ele>644.0</ele><time>2026-05-03T09:57:44Z</time></trkpt><trkpt lat="43.47569333347654" lon="11.951621406211517"><ele>644.6</ele><time>2026-05-03T09:57:45Z</time></trkpt><trkpt lat="43.47577913371556" lon="11.95161105784376"><ele>645.2</ele><time>2026-05-03T09:57:47Z</time></trkpt><trkpt lat="43.47573486683509" lon="11.951496073132843"><ele>645.8000000000001</ele><time>2026-05-03T09:57:50Z</time></trkpt><trkpt lat="43.47567797488165" lon="11.95131713056323"><ele>646.4000000000001</ele><time>2026-05-03T09:57:52Z</time></trkpt><trkpt lat="43.475657873450245" lon="11.951220784481817"><ele>647.0</ele><time>2026-05-03T09:57:53Z</time></trkpt><trkpt lat="43.47566053466508" lon="11.95109975952586"><ele>647.0</ele><time>2026-05-03T09:57:54Z</time></trkpt><trkpt lat="43.475685738564415" lon="11.950971198627448"><ele>647.0</ele><time>2026-05-03T09:57:56Z</time></trkpt><trkpt lat="43.47574308798663" lon="11.950920810772768"><ele>647.0</ele><time>2026-05-03T09:57:57Z</time></trkpt><trkpt lat="43.47583190508287" lon="11.95085022993633"><ele>647.0</ele><time>2026-05-03T09:57:58Z</time></trkpt><trkpt lat="43.475898369484966" lon="11.95078548918529"><ele>647.0</ele><time>2026-05-03T09:57:59Z</time></trkpt><trkpt lat="43.47588426212142" lon="11.950698466577867"><ele>647.0</ele><time>2026-05-03T09:58:01Z</time></trkpt><trkpt lat="43.4758500514104" lon="11.950607342874836"><ele>645.25</ele><time>2026-05-03T09:58:02Z</time></trkpt><trkpt lat="43.47580617279589" lon="11.95048786294877"><ele>643.5</ele><time>2026-05-03T09:58:03Z</time></trkpt><trkpt lat="43.475755658289025" lon="11.950329778236515"><ele>641.75</ele><time>2026-05-03T09:58:05Z</time></trkpt><trkpt lat="43.47573744171684" lon="11.950129828198863"><ele>640.0</ele><time>2026-05-03T09:58:07Z</time></trkpt><trkpt lat="43.47574971904744" lon="11.950010951435338"><ele>640.0</ele><time>2026-05-03T09:58:08.001Z</time></trkpt><trkpt lat="43.47575610545782" lon="11.949902964752233"><ele>640.0</ele><time>2026-05-03T09:58:09.001Z</time></trkpt><trkpt lat="43.47577828427457" lon="11.949801960584962"><ele>640.0</ele><time>2026-05-03T09:58:10.001Z</time></trkpt><trkpt lat="43.47582044463558" lon="11.949712668860107"><ele>640.0</ele><time>2026-05-03T09:58:11.001Z</time></trkpt><trkpt lat="43.475870549188066" lon="11.949608768767673"><ele>640.0</ele><time>2026-05-03T09:58:12.001Z</time></trkpt><trkpt lat="43.47590922257871" lon="11.949498349963847"><ele>640.0</ele><time>2026-05-03T09:58:13.001Z</time></trkpt><trkpt lat="43.47589526262808" lon="11.949412180924666"><ele>640.0</ele><time>2026-05-03T09:58:14.001Z</time></trkpt><trkpt lat="43.47588089405559" lon="11.949303310353478"><ele>640.0</ele><time>2026-05-03T09:58:15.001Z</time></trkpt><trkpt lat="43.47587365039375" lon="11.949198943031481"><ele>640.0</ele><time>2026-05-03T09:58:16.001Z</time></trkpt><trkpt lat="43.475876330039924" lon="11.94909868259324"><ele>640.0</ele><time>2026-05-03T09:58:17.001Z</time></trkpt><trkpt lat="43.47590763695985" lon="11.948946435305205"><ele>640.0</ele><time>2026-05-03T09:58:19.001Z</time></trkpt><trkpt lat="43.47594439818493" lon="11.948793753433588"><ele>639.3333333333334</ele><time>2026-05-03T09:58:21.001Z</time></trkpt><trkpt lat="43.47600200530333" lon="11.948665280951278"><ele>638.6666666666667</ele><time>2026-05-03T09:58:23.001Z</time></trkpt><trkpt lat="43.47604495453752" lon="11.948598701251122"><ele>638.0</ele><time>2026-05-03T09:58:24.001Z</time></trkpt><trkpt lat="43.47609818888936" lon="11.94853090737776"><ele>637.3333333333334</ele><time>2026-05-03T09:58:25.001Z</time></trkpt><trkpt lat="43.47615781983139" lon="11.948475852119815"><ele>636.6666666666666</ele><time>2026-05-03T09:58:26.001Z</time></trkpt><trkpt lat="43.476251709331294" lon="11.948374265474403"><ele>636.0</ele><time>2026-05-03T09:58:28.001Z</time></trkpt><trkpt lat="43.47633897832501" lon="11.948282390312754"><ele>635.7142857142857</ele><time>2026-05-03T09:58:30.001Z</time></trkpt><trkpt lat="43.47641166383639" lon="11.948274645770756"><ele>635.4285714285714</ele><time>2026-05-03T09:58:31.001Z</time></trkpt><trkpt lat="43.476480011569855" lon="11.948297810311173"><ele>635.1428571428571</ele><time>2026-05-03T09:58:32.001Z</time></trkpt><trkpt lat="43.47653744840214" lon="11.948362060395397"><ele>634.8571428571429</ele><time>2026-05-03T09:58:33.001Z</time></trkpt><trkpt lat="43.47659538578149" lon="11.948431169083019"><ele>634.5714285714286</ele><time>2026-05-03T09:58:34.001Z</time></trkpt><trkpt lat="43.47665497937213" lon="11.948478203788287"><ele>634.2857142857143</ele><time>2026-05-03T09:58:35.001Z</time></trkpt><trkpt lat="43.47672316082829" lon="11.948498885820102"><ele>634.0</ele><time>2026-05-03T09:58:37.001Z</time></trkpt><trkpt lat="43.47679453373256" lon="11.948540321737187"><ele>634.0</ele><time>2026-05-03T09:58:38.001Z</time></trkpt><trkpt lat="43.476892190871915" lon="11.94851112057547"><ele>634.0</ele><time>2026-05-03T09:58:40.001Z</time></trkpt><trkpt lat="43.476926480956756" lon="11.948417270246074"><ele>634.0</ele><time>2026-05-03T09:58:43.001Z</time></trkpt><trkpt lat="43.47697108382807" lon="11.948287885176583"><ele>634.0</ele><time>2026-05-03T09:58:46.001Z</time></trkpt><trkpt lat="43.476982325296284" lon="11.948191021177907"><ele>634.0</ele><time>2026-05-03T09:58:50Z</time></trkpt><trkpt lat="43.477040826309434" lon="11.948129372643761"><ele>634.0</ele><time>2026-05-03T09:58:52Z</time></trkpt><trkpt lat="43.47707132143481" lon="11.94803888425731"><ele>633.8333333333334</ele><time>2026-05-03T09:58:54Z</time></trkpt><trkpt lat="43.47713935742974" lon="11.947912898291607"><ele>633.6666666666667</ele><time>2026-05-03T09:58:57Z</time></trkpt><trkpt lat="43.47720290743406" lon="11.947872038013061"><ele>633.5</ele><time>2026-05-03T09:58:59Z</time></trkpt><trkpt lat="43.47722102600955" lon="11.94775947956505"><ele>633.3333333333334</ele><time>2026-05-03T09:59:02Z</time></trkpt><trkpt lat="43.47722525105515" lon="11.94767233464581"><ele>633.1666666666666</ele><time>2026-05-03T09:59:04Z</time></trkpt><trkpt lat="43.47723994108378" lon="11.94756181762023"><ele>633.0</ele><time>2026-05-03T09:59:06Z</time></trkpt><trkpt lat="43.47724040548931" lon="11.947445866016347"><ele>632.3333333333334</ele><time>2026-05-03T09:59:09Z</time></trkpt><trkpt lat="43.47727216105869" lon="11.947354887779598"><ele>631.6666666666666</ele><time>2026-05-03T09:59:11Z</time></trkpt><trkpt lat="43.477313914135514" lon="11.9472774402236"><ele>631.0</ele><time>2026-05-03T09:59:13Z</time></trkpt><trkpt lat="43.477370186878495" lon="11.947194733081014"><ele>630.3333333333333</ele><time>2026-05-03T09:59:15Z</time></trkpt><trkpt lat="43.477431422372405" lon="11.947106569425566"><ele>629.6666666666666</ele><time>2026-05-03T09:59:17Z</time></trkpt><trkpt lat="43.47748625841439" lon="11.947030795425519"><ele>629.0</ele><time>2026-05-03T09:59:20Z</time></trkpt><trkpt lat="43.477533476200705" lon="11.946969832364493"><ele>629.0</ele><time>2026-05-03T09:59:24Z</time></trkpt><trkpt lat="43.47759352256901" lon="11.946907471688645"><ele>629.0</ele><time>2026-05-03T09:59:26Z</time></trkpt><trkpt lat="43.477647024525446" lon="11.946843986198704"><ele>629.0</ele><time>2026-05-03T09:59:29Z</time></trkpt><trkpt lat="43.477704624914686" lon="11.946791134412955"><ele>629.0</ele><time>2026-05-03T09:59:32Z</time></trkpt><trkpt lat="43.477763157602986" lon="11.946737739897017"><ele>629.0</ele><time>2026-05-03T09:59:35Z</time></trkpt><trkpt lat="43.47789325080655" lon="11.94657678672975"><ele>629.4</ele><time>2026-05-03T10:00:27.001Z</time></trkpt><trkpt lat="43.4779756911278" lon="11.946421558583308"><ele>629.8</ele><time>2026-05-03T10:00:35.001Z</time></trkpt><trkpt lat="43.47802859454218" lon="11.94632796525079"><ele>630.2</ele><time>2026-05-03T10:00:36.001Z</time></trkpt><trkpt lat="43.47809024207632" lon="11.9462545374329"><ele>630.6</ele><time>2026-05-03T10:00:37.001Z</time></trkpt><trkpt lat="43.478142701966455" lon="11.9461588106075"><ele>631.0</ele><time>2026-05-03T10:00:38.001Z</time></trkpt><trkpt lat="43.478195228017334" lon="11.946069208789211"><ele>631.0</ele><time>2026-05-03T10:00:39.001Z</time></trkpt><trkpt lat="43.478241443058685" lon="11.945985570527705"><ele>631.0</ele><time>2026-05-03T10:00:40.001Z</time></trkpt><trkpt lat="43.47827544958532" lon="11.945904718713184"><ele>631.0</ele><time>2026-05-03T10:00:41.001Z</time></trkpt><trkpt lat="43.47831310455474" lon="11.945817772658256"><ele>631.0</ele><time>2026-05-03T10:00:42.001Z</time></trkpt><trkpt lat="43.47832182578231" lon="11.945724648403582"><ele>631.0</ele><time>2026-05-03T10:00:43.001Z</time></trkpt><trkpt lat="43.47834298861869" lon="11.945573141610314"><ele>631.0</ele><time>2026-05-03T10:00:45.001Z</time></trkpt><trkpt lat="43.47832063334016" lon="11.945439508758914"><ele>629.25</ele><time>2026-05-03T10:00:47.001Z</time></trkpt><trkpt lat="43.47856164614296" lon="11.945360720590774"><ele>627.5</ele><time>2026-05-03T10:00:48.001Z</time></trkpt><trkpt lat="43.47861244943368" lon="11.945269417095895"><ele>625.75</ele><time>2026-05-03T10:00:49.001Z</time></trkpt><trkpt lat="43.47866499579549" lon="11.945179034963111"><ele>624.0</ele><time>2026-05-03T10:00:50.001Z</time></trkpt><trkpt lat="43.478706570977145" lon="11.945102466630633"><ele>623.2857142857143</ele><time>2026-05-03T10:00:51.001Z</time></trkpt><trkpt lat="43.478737842196374" lon="11.945018409165662"><ele>622.5714285714286</ele><time>2026-05-03T10:00:52.001Z</time></trkpt><trkpt lat="43.47875597375174" lon="11.944928428318567"><ele>621.8571428571429</ele><time>2026-05-03T10:00:53.001Z</time></trkpt><trkpt lat="43.47878655699429" lon="11.944835207225847"><ele>621.1428571428571</ele><time>2026-05-03T10:00:54Z</time></trkpt><trkpt lat="43.47882182465502" lon="11.944754923881892"><ele>620.4285714285714</ele><time>2026-05-03T10:00:55Z</time></trkpt><trkpt lat="43.47886787393437" lon="11.944690777775278"><ele>619.7142857142857</ele><time>2026-05-03T10:00:56Z</time></trkpt><trkpt lat="43.47892520916367" lon="11.944629801865448"><ele>619.0</ele><time>2026-05-03T10:00:57Z</time></trkpt><trkpt lat="43.47899191559146" lon="11.944554025178196"><ele>620.6666666666667</ele><time>2026-05-03T10:00:58Z</time></trkpt><trkpt lat="43.47904758275799" lon="11.944486136199995"><ele>622.3333333333334</ele><time>2026-05-03T10:00:59Z</time></trkpt><trkpt lat="43.4791375595079" lon="11.944360246076698"><ele>624.0</ele><time>2026-05-03T10:01:01Z</time></trkpt><trkpt lat="43.47917000280107" lon="11.944273452064385"><ele>625.6666666666666</ele><time>2026-05-03T10:01:02Z</time></trkpt><trkpt lat="43.47919387243926" lon="11.944191158777599"><ele>627.3333333333333</ele><time>2026-05-03T10:01:03Z</time></trkpt><trkpt lat="43.479234398910464" lon="11.944122924966681"><ele>629.0</ele><time>2026-05-03T10:01:04Z</time></trkpt><trkpt lat="43.479276027313794" lon="11.944055493366124"><ele>629.0</ele><time>2026-05-03T10:01:05Z</time></trkpt><trkpt lat="43.479304441291006" lon="11.943976391053928"><ele>629.0</ele><time>2026-05-03T10:01:06Z</time></trkpt><trkpt lat="43.47933012280139" lon="11.943862144257256"><ele>629.0</ele><time>2026-05-03T10:01:08Z</time></trkpt><trkpt lat="43.47939674021894" lon="11.943727625306884"><ele>629.0</ele><time>2026-05-03T10:01:10Z</time></trkpt><trkpt lat="43.47946202732577" lon="11.943623259464111"><ele>629.0</ele><time>2026-05-03T10:01:11Z</time></trkpt><trkpt lat="43.4795261879496" lon="11.943546997073687"><ele>631.8</ele><time>2026-05-03T10:01:12Z</time></trkpt><trkpt lat="43.47961673468298" lon="11.9434628820182"><ele>634.5999999999999</ele><time>2026-05-03T10:01:14Z</time></trkpt><trkpt lat="43.479644331618985" lon="11.943343436578896"><ele>637.4</ele><time>2026-05-03T10:01:16Z</time></trkpt><trkpt lat="43.47960654393291" lon="11.943248458517917"><ele>640.1999999999999</ele><time>2026-05-03T10:01:18Z</time></trkpt><trkpt lat="43.47963554878144" lon="11.943115522299415"><ele>643.0</ele><time>2026-05-03T10:01:20Z</time></trkpt><trkpt lat="43.47967969607967" lon="11.943013888134065"><ele>643.0</ele><time>2026-05-03T10:01:21Z</time></trkpt><trkpt lat="43.47972662310614" lon="11.94292702548891"><ele>643.0</ele><time>2026-05-03T10:01:22Z</time></trkpt><trkpt lat="43.47976933477842" lon="11.942846124162019"><ele>643.0</ele><time>2026-05-03T10:01:23Z</time></trkpt><trkpt lat="43.47980895006477" lon="11.942755208808357"><ele>643.0</ele><time>2026-05-03T10:01:24Z</time></trkpt><trkpt lat="43.47985667115456" lon="11.942677160945479"><ele>643.0</ele><time>2026-05-03T10:01:25Z</time></trkpt><trkpt lat="43.47991241543484" lon="11.942600431712938"><ele>643.0</ele><time>2026-05-03T10:01:26Z</time></trkpt><trkpt lat="43.47996602413332" lon="11.942516784358192"><ele>642.3333333333334</ele><time>2026-05-03T10:01:27Z</time></trkpt><trkpt lat="43.48001968220982" lon="11.942446860256426"><ele>641.6666666666667</ele><time>2026-05-03T10:01:28Z</time></trkpt><trkpt lat="43.48006737946625" lon="11.942385968969806"><ele>641.0</ele><time>2026-05-03T10:01:29Z</time></trkpt><trkpt lat="43.480128506878685" lon="11.942350761446965"><ele>640.3333333333334</ele><time>2026-05-03T10:01:30Z</time></trkpt><trkpt lat="43.480255650649404" lon="11.942336430201932"><ele>639.6666666666666</ele><time>2026-05-03T10:01:32Z</time></trkpt><trkpt lat="43.480344284118324" lon="11.942344912182403"><ele>639.0</ele><time>2026-05-03T10:01:33Z</time></trkpt><trkpt lat="43.48041960110791" lon="11.942342856608423"><ele>638.8</ele><time>2026-05-03T10:01:34Z</time></trkpt><trkpt lat="43.48048680165408" lon="11.942334873400842"><ele>638.5999999999999</ele><time>2026-05-03T10:01:35Z</time></trkpt><trkpt lat="43.48059592229655" lon="11.942301343566715"><ele>638.4</ele><time>2026-05-03T10:01:37Z</time></trkpt><trkpt lat="43.48069504594575" lon="11.942302459213606"><ele>638.1999999999999</ele><time>2026-05-03T10:01:39Z</time></trkpt><trkpt lat="43.48079813423487" lon="11.942317618592174"><ele>638.0</ele><time>2026-05-03T10:01:41Z</time></trkpt><trkpt lat="43.48093509009715" lon="11.942226638270704"><ele>638.0</ele><time>2026-05-03T10:01:43Z</time></trkpt><trkpt lat="43.48105696270564" lon="11.9421362477236"><ele>638.0</ele><time>2026-05-03T10:01:45Z</time></trkpt><trkpt lat="43.48109290075674" lon="11.942003097823576"><ele>638.0</ele><time>2026-05-03T10:01:47Z</time></trkpt><trkpt lat="43.48111458320817" lon="11.941909703382539"><ele>638.0</ele><time>2026-05-03T10:01:48Z</time></trkpt><trkpt lat="43.48114592259209" lon="11.941823998019833"><ele>638.0</ele><time>2026-05-03T10:01:49Z</time></trkpt><trkpt lat="43.48117887949629" lon="11.941720824359258"><ele>636.8333333333333</ele><time>2026-05-03T10:01:50Z</time></trkpt><trkpt lat="43.48119019035343" lon="11.941614955842292"><ele>635.6666666666666</ele><time>2026-05-03T10:01:51Z</time></trkpt><trkpt lat="43.481164870921546" lon="11.941510710499342"><ele>634.5</ele><time>2026-05-03T10:01:52Z</time></trkpt><trkpt lat="43.48114579386016" lon="11.941407282160629"><ele>633.3333333333334</ele><time>2026-05-03T10:01:53Z</time></trkpt><trkpt lat="43.48112335389382" lon="11.941291168689714"><ele>632.1666666666667</ele><time>2026-05-03T10:01:54Z</time></trkpt><trkpt lat="43.48111228912445" lon="11.941163098895274"><ele>631.0</ele><time>2026-05-03T10:01:55Z</time></trkpt><trkpt lat="43.481094812857584" lon="11.941049021236042"><ele>631.0</ele><time>2026-05-03T10:01:56Z</time></trkpt><trkpt lat="43.48108931846535" lon="11.940937318539957"><ele>631.0</ele><time>2026-05-03T10:01:57Z</time></trkpt><trkpt lat="43.48109197938982" lon="11.940838108820206"><ele>631.0</ele><time>2026-05-03T10:01:58Z</time></trkpt><trkpt lat="43.48107713307332" lon="11.940718324028186"><ele>631.0</ele><time>2026-05-03T10:02:00Z</time></trkpt><trkpt lat="43.481087435412064" lon="11.940610963101406"><ele>631.0</ele><time>2026-05-03T10:02:02.001Z</time></trkpt><trkpt lat="43.48120205069553" lon="11.940576871012338"><ele>631.0</ele><time>2026-05-03T10:02:05.001Z</time></trkpt><trkpt lat="43.48129609788668" lon="11.94056768869118"><ele>632.4</ele><time>2026-05-03T10:02:07.001Z</time></trkpt><trkpt lat="43.4814603801" lon="11.940471312862075"><ele>633.8</ele><time>2026-05-03T10:02:09.001Z</time></trkpt><trkpt lat="43.48153845259419" lon="11.940397175518083"><ele>635.1999999999999</ele><time>2026-05-03T10:02:10.001Z</time></trkpt><trkpt lat="43.48160380775014" lon="11.940324496599981"><ele>636.6</ele><time>2026-05-03T10:02:11.001Z</time></trkpt><trkpt lat="43.481660848781594" lon="11.940256981577969"><ele>638.0</ele><time>2026-05-03T10:02:12.001Z</time></trkpt><trkpt lat="43.48166075527299" lon="11.94013232308847"><ele>639.0</ele><time>2026-05-03T10:02:13.001Z</time></trkpt><trkpt lat="43.48169767325828" lon="11.939926661145101"><ele>640.0</ele><time>2026-05-03T10:02:15.001Z</time></trkpt><trkpt lat="43.48176673987414" lon="11.939761416412177"><ele>641.0</ele><time>2026-05-03T10:02:16.001Z</time></trkpt><trkpt lat="43.481822243863355" lon="11.93962616558428"><ele>642.0</ele><time>2026-05-03T10:02:17.001Z</time></trkpt><trkpt lat="43.48184157560569" lon="11.939494802641157"><ele>642.0</ele><time>2026-05-03T10:02:18.001Z</time></trkpt><trkpt lat="43.48182974318827" lon="11.939378252953759"><ele>642.0</ele><time>2026-05-03T10:02:19.001Z</time></trkpt><trkpt lat="43.481823847087995" lon="11.939198380506461"><ele>642.0</ele><time>2026-05-03T10:02:20.001Z</time></trkpt><trkpt lat="43.48183548216889" lon="11.939106711223582"><ele>642.0</ele><time>2026-05-03T10:02:21.001Z</time></trkpt><trkpt lat="43.481851451980624" lon="11.93901423515066"><ele>642.0</ele><time>2026-05-03T10:02:22.001Z</time></trkpt><trkpt lat="43.481966442235915" lon="11.938897861156242"><ele>642.3333333333334</ele><time>2026-05-03T10:02:24.001Z</time></trkpt><trkpt lat="43.48202252083961" lon="11.938842755200625"><ele>642.6666666666666</ele><time>2026-05-03T10:02:25.001Z</time></trkpt><trkpt lat="43.4820931113748" lon="11.938794455367512"><ele>643.0</ele><time>2026-05-03T10:02:26.001Z</time></trkpt><trkpt lat="43.482155524530796" lon="11.938735199148747"><ele>643.3333333333333</ele><time>2026-05-03T10:02:27.001Z</time></trkpt><trkpt lat="43.48222058503598" lon="11.938669980049418"><ele>643.6666666666666</ele><time>2026-05-03T10:02:28.001Z</time></trkpt><trkpt lat="43.48229327869214" lon="11.938654824482963"><ele>644.0</ele><time>2026-05-03T10:02:29.001Z</time></trkpt><trkpt lat="43.48241054085357" lon="11.938614230815583"><ele>644.0</ele><time>2026-05-03T10:02:31.001Z</time></trkpt><trkpt lat="43.48248410021747" lon="11.93862234664781"><ele>644.0</ele><time>2026-05-03T10:02:32.001Z</time></trkpt><trkpt lat="43.48259217788459" lon="11.93858318625048"><ele>644.0</ele><time>2026-05-03T10:02:34.001Z</time></trkpt><trkpt lat="43.48267292912374" lon="11.938526649092136"><ele>644.0</ele><time>2026-05-03T10:02:36.001Z</time></trkpt><trkpt lat="43.48270037614635" lon="11.938444497764065"><ele>644.0</ele><time>2026-05-03T10:02:37.001Z</time></trkpt><trkpt lat="43.48274256795309" lon="11.938361387610914"><ele>644.0</ele><time>2026-05-03T10:02:38.001Z</time></trkpt><trkpt lat="43.48280161923493" lon="11.938288576729855"><ele>644.6</ele><time>2026-05-03T10:02:39.001Z</time></trkpt><trkpt lat="43.482873153377874" lon="11.93822430763136"><ele>645.2</ele><time>2026-05-03T10:02:40.001Z</time></trkpt><trkpt lat="43.48293687269464" lon="11.938169292620044"><ele>645.8000000000001</ele><time>2026-05-03T10:02:41.001Z</time></trkpt><trkpt lat="43.482996480346124" lon="11.938122370167607"><ele>646.4000000000001</ele><time>2026-05-03T10:02:42.001Z</time></trkpt><trkpt lat="43.483106171740566" lon="11.938044038005861"><ele>647.0</ele><time>2026-05-03T10:02:44.001Z</time></trkpt><trkpt lat="43.4831993048427" lon="11.937960655665817"><ele>645.0</ele><time>2026-05-03T10:02:46.001Z</time></trkpt><trkpt lat="43.483304290763826" lon="11.937855255196379"><ele>643.0</ele><time>2026-05-03T10:02:48.001Z</time></trkpt><trkpt lat="43.48335408524763" lon="11.937787991793106"><ele>641.0</ele><time>2026-05-03T10:02:49.001Z</time></trkpt><trkpt lat="43.48342213340532" lon="11.937675721267306"><ele>639.0</ele><time>2026-05-03T10:02:51.001Z</time></trkpt><trkpt lat="43.483457510837034" lon="11.937540335429015"><ele>637.0</ele><time>2026-05-03T10:02:53.001Z</time></trkpt><trkpt lat="43.483510775006266" lon="11.937408587574026"><ele>637.0</ele><time>2026-05-03T10:02:55.001Z</time></trkpt><trkpt lat="43.48356311907067" lon="11.937265018636484"><ele>637.0</ele><time>2026-05-03T10:02:58.001Z</time></trkpt><trkpt lat="43.483586514321644" lon="11.937158791109267"><ele>637.0</ele><time>2026-05-03T10:03:00Z</time></trkpt><trkpt lat="43.483668744563076" lon="11.936966075186236"><ele>637.0</ele><time>2026-05-03T10:03:02Z</time></trkpt><trkpt lat="43.48369247009094" lon="11.936884705399926"><ele>637.0</ele><time>2026-05-03T10:03:03Z</time></trkpt><trkpt lat="43.48373312452683" lon="11.936809362364231"><ele>637.0</ele><time>2026-05-03T10:03:04Z</time></trkpt><trkpt lat="43.48375973722901" lon="11.936729861036593"><ele>637.0</ele><time>2026-05-03T10:03:05Z</time></trkpt><trkpt lat="43.48377150072079" lon="11.93656344502813"><ele>637.0</ele><time>2026-05-03T10:03:07Z</time></trkpt><trkpt lat="43.483765871470794" lon="11.936407349693788"><ele>637.0</ele><time>2026-05-03T10:03:09Z</time></trkpt><trkpt lat="43.48379584119914" lon="11.936330322397374"><ele>637.0</ele><time>2026-05-03T10:03:10Z</time></trkpt><trkpt lat="43.48387202069499" lon="11.936186347911544"><ele>634.5</ele><time>2026-05-03T10:03:12Z</time></trkpt><trkpt lat="43.48385699873066" lon="11.936097746900739"><ele>632.0</ele><time>2026-05-03T10:03:13Z</time></trkpt><trkpt lat="43.483822863647006" lon="11.936021581969753"><ele>629.5</ele><time>2026-05-03T10:03:14Z</time></trkpt><trkpt lat="43.483774919954406" lon="11.935870033877217"><ele>627.0</ele><time>2026-05-03T10:03:16Z</time></trkpt><trkpt lat="43.48374054392266" lon="11.935791992487902"><ele>624.5</ele><time>2026-05-03T10:03:17Z</time></trkpt><trkpt lat="43.48371467758122" lon="11.93570502365576"><ele>622.0</ele><time>2026-05-03T10:03:18Z</time></trkpt><trkpt lat="43.48369870499811" lon="11.935616165671753"><ele>620.0</ele><time>2026-05-03T10:03:19Z</time></trkpt><trkpt lat="43.483673879572464" lon="11.935497453230813"><ele>618.0</ele><time>2026-05-03T10:03:21Z</time></trkpt><trkpt lat="43.483659686984815" lon="11.935352394348838"><ele>616.0</ele><time>2026-05-03T10:03:23Z</time></trkpt><trkpt lat="43.48372935553756" lon="11.935282080075"><ele>614.0</ele><time>2026-05-03T10:03:26Z</time></trkpt><trkpt lat="43.4839028323069" lon="11.93518869315446"><ele>613.8</ele><time>2026-05-03T10:03:28Z</time></trkpt><trkpt lat="43.48401103366699" lon="11.935152101978396"><ele>613.5999999999999</ele><time>2026-05-03T10:03:29Z</time></trkpt><trkpt lat="43.484130709840635" lon="11.9351048383684"><ele>613.4</ele><time>2026-05-03T10:03:30Z</time></trkpt><trkpt lat="43.484223790874424" lon="11.935071226881494"><ele>613.1999999999999</ele><time>2026-05-03T10:03:31Z</time></trkpt><trkpt lat="43.484298005532445" lon="11.93501975950049"><ele>613.0</ele><time>2026-05-03T10:03:32Z</time></trkpt><trkpt lat="43.484386495117995" lon="11.934945304320703"><ele>611.25</ele><time>2026-05-03T10:03:33Z</time></trkpt><trkpt lat="43.484550113233865" lon="11.934801943639611"><ele>609.5</ele><time>2026-05-03T10:03:34Z</time></trkpt><trkpt lat="43.484646351197746" lon="11.934684945083847"><ele>607.75</ele><time>2026-05-03T10:03:35Z</time></trkpt><trkpt lat="43.484712658232326" lon="11.934570507774984"><ele>606.0</ele><time>2026-05-03T10:03:36Z</time></trkpt><trkpt lat="43.48480207596223" lon="11.934477705465753"><ele>606.0</ele><time>2026-05-03T10:03:37Z</time></trkpt><trkpt lat="43.484878631950735" lon="11.934364117724929"><ele>606.0</ele><time>2026-05-03T10:03:38Z</time></trkpt><trkpt lat="43.484948020049224" lon="11.93425533733976"><ele>606.0</ele><time>2026-05-03T10:03:39Z</time></trkpt><trkpt lat="43.48500535393684" lon="11.934178119867143"><ele>606.0</ele><time>2026-05-03T10:03:40Z</time></trkpt><trkpt lat="43.485067340899235" lon="11.934115340066993"><ele>606.0</ele><time>2026-05-03T10:03:41Z</time></trkpt><trkpt lat="43.48512283886505" lon="11.934047604023442"><ele>606.0</ele><time>2026-05-03T10:03:42Z</time></trkpt><trkpt lat="43.48519018039349" lon="11.933982209909665"><ele>606.2</ele><time>2026-05-03T10:03:43Z</time></trkpt><trkpt lat="43.48526584480421" lon="11.933947460296674"><ele>606.4000000000001</ele><time>2026-05-03T10:03:44Z</time></trkpt><trkpt lat="43.48534481855219" lon="11.93393368818568"><ele>606.6</ele><time>2026-05-03T10:03:45Z</time></trkpt><trkpt lat="43.485412919374646" lon="11.93391894216752"><ele>606.8000000000001</ele><time>2026-05-03T10:03:46Z</time></trkpt><trkpt lat="43.48550942774173" lon="11.933893673103587"><ele>607.0</ele><time>2026-05-03T10:03:47Z</time></trkpt><trkpt lat="43.485645851191975" lon="11.93385124618482"><ele>607.0</ele><time>2026-05-03T10:03:49Z</time></trkpt><trkpt lat="43.48573185602245" lon="11.933830889100454"><ele>607.0</ele><time>2026-05-03T10:03:50Z</time></trkpt><trkpt lat="43.485818597124414" lon="11.933831073978048"><ele>607.0</ele><time>2026-05-03T10:03:51Z</time></trkpt><trkpt lat="43.48590133676268" lon="11.933842454530726"><ele>607.0</ele><time>2026-05-03T10:03:52Z</time></trkpt><trkpt lat="43.48598254989838" lon="11.933866939579852"><ele>607.0</ele><time>2026-05-03T10:03:53Z</time></trkpt><trkpt lat="43.48606804516319" lon="11.93390112670955"><ele>607.0</ele><time>2026-05-03T10:03:54Z</time></trkpt><trkpt lat="43.48615336214399" lon="11.933942004650584"><ele>607.0</ele><time>2026-05-03T10:03:55Z</time></trkpt><trkpt lat="43.48625131340584" lon="11.933986549820911"><ele>607.0</ele><time>2026-05-03T10:03:56Z</time></trkpt><trkpt lat="43.48634516811718" lon="11.934014071871351"><ele>607.0</ele><time>2026-05-03T10:03:57Z</time></trkpt><trkpt lat="43.48643923806255" lon="11.934040910198666"><ele>607.0</ele><time>2026-05-03T10:03:58Z</time></trkpt><trkpt lat="43.48653773728592" lon="11.934071328288685"><ele>607.0</ele><time>2026-05-03T10:03:59Z</time></trkpt><trkpt lat="43.486631262999154" lon="11.93409371052752"><ele>606.0</ele><time>2026-05-03T10:04:00Z</time></trkpt><trkpt lat="43.48673162972716" lon="11.934124781250498"><ele>605.0</ele><time>2026-05-03T10:04:01Z</time></trkpt><trkpt lat="43.48682924791546" lon="11.934158836399252"><ele>604.0</ele><time>2026-05-03T10:04:02Z</time></trkpt><trkpt lat="43.48692409353392" lon="11.93419599755079"><ele>603.0</ele><time>2026-05-03T10:04:03Z</time></trkpt><trkpt lat="43.48700162028858" lon="11.934216893990905"><ele>602.0</ele><time>2026-05-03T10:04:04Z</time></trkpt><trkpt lat="43.48707861437431" lon="11.934244447775507"><ele>603.4</ele><time>2026-05-03T10:04:05Z</time></trkpt><trkpt lat="43.48716747325695" lon="11.934267172156403"><ele>604.8000000000001</ele><time>2026-05-03T10:04:06Z</time></trkpt><trkpt lat="43.48725100227314" lon="11.934292145849637"><ele>606.2</ele><time>2026-05-03T10:04:07Z</time></trkpt><trkpt lat="43.48733233240265" lon="11.934325212830279"><ele>607.6</ele><time>2026-05-03T10:04:08Z</time></trkpt><trkpt lat="43.48741782348363" lon="11.934361239588814"><ele>609.0</ele><time>2026-05-03T10:04:09Z</time></trkpt><trkpt lat="43.48751341680033" lon="11.934417807990464"><ele>609.0</ele><time>2026-05-03T10:04:10Z</time></trkpt><trkpt lat="43.48760211573459" lon="11.934474511048471"><ele>609.0</ele><time>2026-05-03T10:04:11Z</time></trkpt><trkpt lat="43.48769491020533" lon="11.934528300824477"><ele>609.0</ele><time>2026-05-03T10:04:12Z</time></trkpt><trkpt lat="43.48778838583536" lon="11.934580187998646"><ele>609.0</ele><time>2026-05-03T10:04:13Z</time></trkpt><trkpt lat="43.48787883600269" lon="11.934657316997493"><ele>609.0</ele><time>2026-05-03T10:04:14.001Z</time></trkpt><trkpt lat="43.48796438063336" lon="11.934735610214439"><ele>608.2</ele><time>2026-05-03T10:04:15.001Z</time></trkpt><trkpt lat="43.48804719293216" lon="11.934822338323333"><ele>607.4</ele><time>2026-05-03T10:04:16.001Z</time></trkpt><trkpt lat="43.488138796949805" lon="11.934886074334441"><ele>606.6</ele><time>2026-05-03T10:04:17.001Z</time></trkpt><trkpt lat="43.48823358387742" lon="11.934944472262309"><ele>605.8</ele><time>2026-05-03T10:04:18.001Z</time></trkpt><trkpt lat="43.48833810977847" lon="11.93499265179632"><ele>605.0</ele><time>2026-05-03T10:04:19.001Z</time></trkpt><trkpt lat="43.48843681241775" lon="11.935054097124462"><ele>606.2</ele><time>2026-05-03T10:04:20.001Z</time></trkpt><trkpt lat="43.48853974976697" lon="11.935096707515473"><ele>607.4</ele><time>2026-05-03T10:04:21.001Z</time></trkpt><trkpt lat="43.48865222979788" lon="11.935135688663387"><ele>608.6</ele><time>2026-05-03T10:04:22.001Z</time></trkpt><trkpt lat="43.48875951632803" lon="11.935159105113186"><ele>609.8</ele><time>2026-05-03T10:04:23.001Z</time></trkpt><trkpt lat="43.488871736000974" lon="11.935170611722825"><ele>611.0</ele><time>2026-05-03T10:04:24.001Z</time></trkpt><trkpt lat="43.48898085515535" lon="11.935171301897679"><ele>611.6</ele><time>2026-05-03T10:04:25.001Z</time></trkpt><trkpt lat="43.489089362144966" lon="11.935150846082074"><ele>612.2</ele><time>2026-05-03T10:04:26.001Z</time></trkpt><trkpt lat="43.489200513299245" lon="11.935112935646943"><ele>612.8</ele><time>2026-05-03T10:04:27.001Z</time></trkpt><trkpt lat="43.489304533094185" lon="11.935048625704662"><ele>613.4</ele><time>2026-05-03T10:04:28.001Z</time></trkpt><trkpt lat="43.48939366494704" lon="11.935006157538526"><ele>614.0</ele><time>2026-05-03T10:04:29.001Z</time></trkpt><trkpt lat="43.48946639840018" lon="11.93496992288274"><ele>614.0</ele><time>2026-05-03T10:04:30.001Z</time></trkpt><trkpt lat="43.48954766378472" lon="11.935022565616135"><ele>614.0</ele><time>2026-05-03T10:04:31.001Z</time></trkpt><trkpt lat="43.48958905287915" lon="11.935121812278432"><ele>614.0</ele><time>2026-05-03T10:04:32.001Z</time></trkpt><trkpt lat="43.48964774521208" lon="11.935197628586463"><ele>614.0</ele><time>2026-05-03T10:04:33.001Z</time></trkpt><trkpt lat="43.48968451986027" lon="11.935276954732657"><ele>614.0</ele><time>2026-05-03T10:04:34.001Z</time></trkpt><trkpt lat="43.48973282294648" lon="11.935359400062763"><ele>614.0</ele><time>2026-05-03T10:04:35.001Z</time></trkpt><trkpt lat="43.489779562543234" lon="11.935446928006309"><ele>612.4</ele><time>2026-05-03T10:04:36.001Z</time></trkpt><trkpt lat="43.48986010784577" lon="11.935488808393616"><ele>610.8</ele><time>2026-05-03T10:04:37.001Z</time></trkpt><trkpt lat="43.48995969390565" lon="11.935481832952673"><ele>609.2</ele><time>2026-05-03T10:04:38.001Z</time></trkpt><trkpt lat="43.49006118164294" lon="11.935444002444251"><ele>607.6</ele><time>2026-05-03T10:04:39.001Z</time></trkpt><trkpt lat="43.49013767327953" lon="11.935409132843649"><ele>606.0</ele><time>2026-05-03T10:04:40.001Z</time></trkpt><trkpt lat="43.49022395791418" lon="11.935373019784597"><ele>606.0</ele><time>2026-05-03T10:04:41.001Z</time></trkpt><trkpt lat="43.49029666848248" lon="11.935354149646988"><ele>606.0</ele><time>2026-05-03T10:04:42.001Z</time></trkpt><trkpt lat="43.49038955682087" lon="11.935318227828533"><ele>606.0</ele><time>2026-05-03T10:04:44.001Z</time></trkpt><trkpt lat="43.49048839931428" lon="11.935341610290648"><ele>606.0</ele><time>2026-05-03T10:04:48.001Z</time></trkpt><trkpt lat="43.49054663906398" lon="11.935411452485882"><ele>606.0</ele><time>2026-05-03T10:04:57.001Z</time></trkpt><trkpt lat="43.49062971649157" lon="11.935488376047848"><ele>606.0</ele><time>2026-05-03T10:04:59.001Z</time></trkpt><trkpt lat="43.4907295219069" lon="11.935534663865035"><ele>605.8</ele><time>2026-05-03T10:05:01.001Z</time></trkpt><trkpt lat="43.49078358671402" lon="11.935582730256154"><ele>605.6</ele><time>2026-05-03T10:05:02.001Z</time></trkpt><trkpt lat="43.49084258133672" lon="11.935633010597046"><ele>605.4</ele><time>2026-05-03T10:05:03.001Z</time></trkpt><trkpt lat="43.49092925666293" lon="11.935744671884217"><ele>605.2</ele><time>2026-05-03T10:05:05.001Z</time></trkpt><trkpt lat="43.491031873483415" lon="11.935825369399252"><ele>605.0</ele><time>2026-05-03T10:05:07Z</time></trkpt><trkpt lat="43.491089236495675" lon="11.935918048391022"><ele>605.0</ele><time>2026-05-03T10:05:09Z</time></trkpt><trkpt lat="43.49116781819082" lon="11.936003279780879"><ele>605.0</ele><time>2026-05-03T10:05:11Z</time></trkpt><trkpt lat="43.49130735894772" lon="11.93524878036763"><ele>606.6666666666666</ele><time>2026-05-03T10:05:13Z</time></trkpt><trkpt lat="43.49141370711358" lon="11.93519569734742"><ele>608.3333333333334</ele><time>2026-05-03T10:05:15Z</time></trkpt><trkpt lat="43.491504533974954" lon="11.935161067679463"><ele>610.0</ele><time>2026-05-03T10:05:17Z</time></trkpt><trkpt lat="43.49170913398464" lon="11.935768922612054"><ele>610.0</ele><time>2026-05-03T10:05:21Z</time></trkpt><trkpt lat="43.49178702090675" lon="11.935807836402608"><ele>610.0</ele><time>2026-05-03T10:05:23Z</time></trkpt><trkpt lat="43.4919003046123" lon="11.935826116256427"><ele>610.0</ele><time>2026-05-03T10:05:25Z</time></trkpt><trkpt lat="43.49196541681788" lon="11.935831525930103"><ele>610.0</ele><time>2026-05-03T10:05:26Z</time></trkpt><trkpt lat="43.492027252291656" lon="11.935849993976333"><ele>610.0</ele><time>2026-05-03T10:05:27Z</time></trkpt><trkpt lat="43.492093011950466" lon="11.935875216855804"><ele>610.0</ele><time>2026-05-03T10:05:28Z</time></trkpt><trkpt lat="43.4922017719564" lon="11.935905613352759"><ele>613.0</ele><time>2026-05-03T10:05:30Z</time></trkpt><trkpt lat="43.49230342375618" lon="11.93596937619705"><ele>616.0</ele><time>2026-05-03T10:05:32Z</time></trkpt><trkpt lat="43.49238682098158" lon="11.935985863824504"><ele>619.0</ele><time>2026-05-03T10:05:35Z</time></trkpt><trkpt lat="43.49251604333617" lon="11.935988747634111"><ele>622.0</ele><time>2026-05-03T10:05:36Z</time></trkpt><trkpt lat="43.49264038669551" lon="11.936002444627487"><ele>622.0</ele><time>2026-05-03T10:05:38Z</time></trkpt><trkpt lat="43.492711630340104" lon="11.93603568916977"><ele>622.0</ele><time>2026-05-03T10:05:39Z</time></trkpt><trkpt lat="43.49278419132002" lon="11.936073158915068"><ele>622.0</ele><time>2026-05-03T10:05:40Z</time></trkpt><trkpt lat="43.49290278336074" lon="11.936099179348998"><ele>622.0</ele><time>2026-05-03T10:05:42Z</time></trkpt><trkpt lat="43.492982812510434" lon="11.936118111017231"><ele>622.0</ele><time>2026-05-03T10:05:43Z</time></trkpt><trkpt lat="43.49305112666419" lon="11.93614039969768"><ele>622.0</ele><time>2026-05-03T10:05:44Z</time></trkpt><trkpt lat="43.49315840344436" lon="11.936167376553653"><ele>623.75</ele><time>2026-05-03T10:05:46Z</time></trkpt><trkpt lat="43.493271552647734" lon="11.93618205450625"><ele>625.5</ele><time>2026-05-03T10:05:48Z</time></trkpt><trkpt lat="43.49338546965014" lon="11.936214764827188"><ele>627.25</ele><time>2026-05-03T10:05:50Z</time></trkpt><trkpt lat="43.493509968121955" lon="11.936256939204561"><ele>629.0</ele><time>2026-05-03T10:05:52Z</time></trkpt><trkpt lat="43.493599693679435" lon="11.936301555269333"><ele>629.0</ele><time>2026-05-03T10:05:54Z</time></trkpt><trkpt lat="43.49366506471888" lon="11.936288846975868"><ele>629.0</ele><time>2026-05-03T10:05:56Z</time></trkpt><trkpt lat="43.49375494685632" lon="11.93627458268823"><ele>629.0</ele><time>2026-05-03T10:05:58Z</time></trkpt><trkpt lat="43.4938452160471" lon="11.936271477052195"><ele>629.0</ele><time>2026-05-03T10:06:00Z</time></trkpt><trkpt lat="43.49395203187326" lon="11.936239284192984"><ele>629.0</ele><time>2026-05-03T10:06:02Z</time></trkpt><trkpt lat="43.49404472421053" lon="11.936250507736515"><ele>629.0</ele><time>2026-05-03T10:06:04Z</time></trkpt><trkpt lat="43.49410954038776" lon="11.93631206086698"><ele>631.0</ele><time>2026-05-03T10:06:08Z</time></trkpt><trkpt lat="43.494142846530536" lon="11.936391806376626"><ele>633.0</ele><time>2026-05-03T10:06:11Z</time></trkpt><trkpt lat="43.49425108405994" lon="11.936476280351295"><ele>635.0</ele><time>2026-05-03T10:06:12Z</time></trkpt><trkpt lat="43.49433997125858" lon="11.936505306854352"><ele>637.0</ele><time>2026-05-03T10:06:13Z</time></trkpt><trkpt lat="43.49441104941825" lon="11.936505170937078"><ele>639.0</ele><time>2026-05-03T10:06:14Z</time></trkpt><trkpt lat="43.49448831612195" lon="11.936533756781026"><ele>641.0</ele><time>2026-05-03T10:06:15Z</time></trkpt><trkpt lat="43.49454986627533" lon="11.936585425630563"><ele>642.5999999999999</ele><time>2026-05-03T10:06:16Z</time></trkpt><trkpt lat="43.494603725599745" lon="11.936633281739239"><ele>644.2</ele><time>2026-05-03T10:06:17Z</time></trkpt><trkpt lat="43.49472590942452" lon="11.936637180226631"><ele>645.8</ele><time>2026-05-03T10:06:19.001Z</time></trkpt><trkpt lat="43.49484261195443" lon="11.936606156269976"><ele>647.4000000000001</ele><time>2026-05-03T10:06:21.001Z</time></trkpt><trkpt lat="43.4949055819756" lon="11.93660165056586"><ele>649.0</ele><time>2026-05-03T10:06:22.001Z</time></trkpt><trkpt lat="43.49501764306814" lon="11.93657352954484"><ele>649.0</ele><time>2026-05-03T10:06:24.001Z</time></trkpt><trkpt lat="43.49511581272308" lon="11.936516355766047"><ele>649.0</ele><time>2026-05-03T10:06:26.001Z</time></trkpt><trkpt lat="43.495182900020986" lon="11.936375703737927"><ele>649.0</ele><time>2026-05-03T10:06:28.001Z</time></trkpt><trkpt lat="43.49522346935271" lon="11.936301641327104"><ele>649.0</ele><time>2026-05-03T10:06:29.001Z</time></trkpt><trkpt lat="43.49531193914061" lon="11.936191324883444"><ele>649.0</ele><time>2026-05-03T10:06:31.001Z</time></trkpt><trkpt lat="43.49536166907933" lon="11.936131213190343"><ele>649.0</ele><time>2026-05-03T10:06:32.001Z</time></trkpt><trkpt lat="43.49541529252966" lon="11.936070526912527"><ele>649.0</ele><time>2026-05-03T10:06:33.001Z</time></trkpt><trkpt lat="43.495508354305294" lon="11.936008821463881"><ele>649.0</ele><time>2026-05-03T10:06:35.001Z</time></trkpt><trkpt lat="43.49561098214018" lon="11.935970553351224"><ele>649.0</ele><time>2026-05-03T10:06:37.001Z</time></trkpt><trkpt lat="43.49570205224454" lon="11.935941792301122"><ele>649.0</ele><time>2026-05-03T10:06:40.001Z</time></trkpt><trkpt lat="43.495806087411296" lon="11.935932721268683"><ele>650.25</ele><time>2026-05-03T10:06:44.001Z</time></trkpt><trkpt lat="43.49590353520362" lon="11.93593419612746"><ele>651.5</ele><time>2026-05-03T10:06:46.001Z</time></trkpt><trkpt lat="43.495975407465494" lon="11.935941803519592"><ele>652.75</ele><time>2026-05-03T10:06:47.001Z</time></trkpt><trkpt lat="43.49608607581342" lon="11.936000701079735"><ele>654.0</ele><time>2026-05-03T10:06:49.001Z</time></trkpt><trkpt lat="43.49627898671981" lon="11.936067948671024"><ele>654.0</ele><time>2026-05-03T10:06:50.001Z</time></trkpt><trkpt lat="43.49635141009267" lon="11.936106350857953"><ele>654.0</ele><time>2026-05-03T10:06:52.001Z</time></trkpt><trkpt lat="43.49642802803018" lon="11.936143123056683"><ele>654.0</ele><time>2026-05-03T10:06:55.001Z</time></trkpt><trkpt lat="43.49649919510611" lon="11.936212525965834"><ele>654.0</ele><time>2026-05-03T10:06:57.001Z</time></trkpt><trkpt lat="43.49655774060453" lon="11.9362667153585"><ele>654.0</ele><time>2026-05-03T10:06:59.001Z</time></trkpt><trkpt lat="43.49661388594587" lon="11.936322879190921"><ele>654.0</ele><time>2026-05-03T10:07:01.001Z</time></trkpt><trkpt lat="43.496676383612886" lon="11.936398350080047"><ele>654.0</ele><time>2026-05-03T10:07:03.001Z</time></trkpt><trkpt lat="43.49673764457086" lon="11.936486099296642"><ele>654.0</ele><time>2026-05-03T10:07:06.001Z</time></trkpt><trkpt lat="43.4968015195263" lon="11.936520452370573"><ele>654.0</ele><time>2026-05-03T10:07:08.001Z</time></trkpt><trkpt lat="43.49685721530439" lon="11.936611007876019"><ele>654.0</ele><time>2026-05-03T10:07:12Z</time></trkpt><trkpt lat="43.49689474815563" lon="11.9367150770619"><ele>654.0</ele><time>2026-05-03T10:07:14Z</time></trkpt><trkpt lat="43.49698929103604" lon="11.936801255754242"><ele>654.0</ele><time>2026-05-03T10:07:17Z</time></trkpt><trkpt lat="43.49708044236786" lon="11.936924161927097"><ele>651.2</ele><time>2026-05-03T10:07:18Z</time></trkpt><trkpt lat="43.49718525497015" lon="11.937009440591009"><ele>648.4000000000001</ele><time>2026-05-03T10:07:20Z</time></trkpt><trkpt lat="43.497278933650314" lon="11.93702962654509"><ele>645.6</ele><time>2026-05-03T10:07:22Z</time></trkpt><trkpt lat="43.497340702310076" lon="11.93692822804797"><ele>642.8</ele><time>2026-05-03T10:07:25Z</time></trkpt><trkpt lat="43.49729625413537" lon="11.936821006262038"><ele>640.0</ele><time>2026-05-03T10:07:27Z</time></trkpt><trkpt lat="43.49726040215637" lon="11.936746375866433"><ele>639.5714285714286</ele><time>2026-05-03T10:07:28Z</time></trkpt><trkpt lat="43.49723114438875" lon="11.936666919565159"><ele>639.1428571428571</ele><time>2026-05-03T10:07:29Z</time></trkpt><trkpt lat="43.49720385782259" lon="11.936584210104831"><ele>638.7142857142858</ele><time>2026-05-03T10:07:30Z</time></trkpt><trkpt lat="43.49717065976785" lon="11.936479147890532"><ele>638.2857142857142</ele><time>2026-05-03T10:07:31Z</time></trkpt><trkpt lat="43.49714121203779" lon="11.93637687445723"><ele>637.8571428571429</ele><time>2026-05-03T10:07:32Z</time></trkpt><trkpt lat="43.497120497852734" lon="11.93628012852234"><ele>637.4285714285714</ele><time>2026-05-03T10:07:33Z</time></trkpt><trkpt lat="43.49710466818839" lon="11.936185845120253"><ele>637.0</ele><time>2026-05-03T10:07:34Z</time></trkpt><trkpt lat="43.49708741016289" lon="11.936086981995617"><ele>638.0</ele><time>2026-05-03T10:07:35Z</time></trkpt><trkpt lat="43.49704561563054" lon="11.935990362470395"><ele>639.0</ele><time>2026-05-03T10:07:36Z</time></trkpt><trkpt lat="43.497001834896686" lon="11.935907798431309"><ele>640.0</ele><time>2026-05-03T10:07:37Z</time></trkpt><trkpt lat="43.49694583641206" lon="11.935852942782333"><ele>641.0</ele><time>2026-05-03T10:07:38Z</time></trkpt><trkpt lat="43.49688841513563" lon="11.93580371639717"><ele>642.0</ele><time>2026-05-03T10:07:39Z</time></trkpt><trkpt lat="43.49679036735742" lon="11.935741525407323"><ele>643.0</ele><time>2026-05-03T10:07:40Z</time></trkpt><trkpt lat="43.49672029361662" lon="11.935667658131813"><ele>643.0</ele><time>2026-05-03T10:07:41Z</time></trkpt><trkpt lat="43.49666163011321" lon="11.93557714849245"><ele>643.0</ele><time>2026-05-03T10:07:42Z</time></trkpt><trkpt lat="43.496610440625076" lon="11.935486724152506"><ele>643.0</ele><time>2026-05-03T10:07:43Z</time></trkpt><trkpt lat="43.496551625249516" lon="11.935408802767242"><ele>643.0</ele><time>2026-05-03T10:07:44Z</time></trkpt><trkpt lat="43.49647573304574" lon="11.935346589156488"><ele>643.0</ele><time>2026-05-03T10:07:45Z</time></trkpt><trkpt lat="43.496403480032214" lon="11.935296848552797"><ele>643.0</ele><time>2026-05-03T10:07:46Z</time></trkpt><trkpt lat="43.496325315790195" lon="11.935242098577588"><ele>642.0</ele><time>2026-05-03T10:07:47Z</time></trkpt><trkpt lat="43.496240948690925" lon="11.935174725274656"><ele>641.0</ele><time>2026-05-03T10:07:48Z</time></trkpt><trkpt lat="43.49617577922296" lon="11.935102705606589"><ele>640.0</ele><time>2026-05-03T10:07:49Z</time></trkpt><trkpt lat="43.496115519460915" lon="11.935038265343112"><ele>639.0</ele><time>2026-05-03T10:07:50Z</time></trkpt><trkpt lat="43.49604895398766" lon="11.934990127936446"><ele>638.0</ele><time>2026-05-03T10:07:51Z</time></trkpt><trkpt lat="43.49597467790183" lon="11.934968518108834"><ele>637.0</ele><time>2026-05-03T10:07:52Z</time></trkpt><trkpt lat="43.49590672489736" lon="11.934955895317755"><ele>637.0</ele><time>2026-05-03T10:07:53Z</time></trkpt><trkpt lat="43.49583896477846" lon="11.934908665078686"><ele>637.0</ele><time>2026-05-03T10:07:54Z</time></trkpt><trkpt lat="43.495775012346755" lon="11.9348252599022"><ele>637.0</ele><time>2026-05-03T10:07:55Z</time></trkpt><trkpt lat="43.495703951994926" lon="11.934769011394975"><ele>637.0</ele><time>2026-05-03T10:07:56Z</time></trkpt><trkpt lat="43.495620392174445" lon="11.934734939621594"><ele>637.0</ele><time>2026-05-03T10:07:57Z</time></trkpt><trkpt lat="43.49553160142267" lon="11.934712395879087"><ele>637.0</ele><time>2026-05-03T10:07:58Z</time></trkpt><trkpt lat="43.495443122960026" lon="11.934707760596835"><ele>635.8333333333334</ele><time>2026-05-03T10:07:59Z</time></trkpt><trkpt lat="43.49537439560483" lon="11.934730360840046"><ele>634.6666666666667</ele><time>2026-05-03T10:08:00Z</time></trkpt><trkpt lat="43.495314515517116" lon="11.93477788119613"><ele>633.5</ele><time>2026-05-03T10:08:01Z</time></trkpt><trkpt lat="43.4952607312892" lon="11.934851969035115"><ele>632.3333333333334</ele><time>2026-05-03T10:08:02Z</time></trkpt><trkpt lat="43.495212855406315" lon="11.934929135237317"><ele>631.1666666666666</ele><time>2026-05-03T10:08:03Z</time></trkpt><trkpt lat="43.49513240339115" lon="11.934996959735813"><ele>630.0</ele><time>2026-05-03T10:08:05Z</time></trkpt><trkpt lat="43.4950267479139" lon="11.934930343406055"><ele>630.0</ele><time>2026-05-03T10:08:07Z</time></trkpt><trkpt lat="43.494897367083766" lon="11.934882513070182"><ele>630.0</ele><time>2026-05-03T10:08:09Z</time></trkpt><trkpt lat="43.49483698533104" lon="11.934834390542218"><ele>630.0</ele><time>2026-05-03T10:08:10Z</time></trkpt><trkpt lat="43.494748480845935" lon="11.934840789214178"><ele>630.0</ele><time>2026-05-03T10:08:11Z</time></trkpt><trkpt lat="43.49468606269308" lon="11.934827957952105"><ele>630.0</ele><time>2026-05-03T10:08:12Z</time></trkpt><trkpt lat="43.49461041409192" lon="11.93479132698064"><ele>630.0</ele><time>2026-05-03T10:08:13Z</time></trkpt><trkpt lat="43.49455647154429" lon="11.934722834089223"><ele>628.1428571428571</ele><time>2026-05-03T10:08:14Z</time></trkpt><trkpt lat="43.494489753398476" lon="11.934653206368791"><ele>626.2857142857142</ele><time>2026-05-03T10:08:15Z</time></trkpt><trkpt lat="43.49441807067737" lon="11.934597509070494"><ele>624.4285714285714</ele><time>2026-05-03T10:08:16Z</time></trkpt><trkpt lat="43.494354529953284" lon="11.934546349429455"><ele>622.5714285714286</ele><time>2026-05-03T10:08:17Z</time></trkpt><trkpt lat="43.494287357230725" lon="11.934505827071682"><ele>620.7142857142857</ele><time>2026-05-03T10:08:18Z</time></trkpt><trkpt lat="43.49422836359076" lon="11.934468553934424"><ele>618.8571428571429</ele><time>2026-05-03T10:08:19.001Z</time></trkpt><trkpt lat="43.49416731593081" lon="11.93441764574449"><ele>617.0</ele><time>2026-05-03T10:08:20.001Z</time></trkpt><trkpt lat="43.494112533380836" lon="11.934348400521886"><ele>617.0</ele><time>2026-05-03T10:08:21.001Z</time></trkpt><trkpt lat="43.49406879351363" lon="11.93427670842697"><ele>617.0</ele><time>2026-05-03T10:08:22.001Z</time></trkpt><trkpt lat="43.494054174935115" lon="11.934181203762025"><ele>617.0</ele><time>2026-05-03T10:08:23.001Z</time></trkpt><trkpt lat="43.49398644445613" lon="11.934071012428925"><ele>617.0</ele><time>2026-05-03T10:08:25.001Z</time></trkpt><trkpt lat="43.49388590001335" lon="11.934053759862804"><ele>617.0</ele><time>2026-05-03T10:08:27.001Z</time></trkpt><trkpt lat="43.49377309510392" lon="11.9340467301578"><ele>613.5</ele><time>2026-05-03T10:08:29.001Z</time></trkpt><trkpt lat="43.49370079462939" lon="11.933960813035984"><ele>610.0</ele><time>2026-05-03T10:08:31.001Z</time></trkpt><trkpt lat="43.49368096410602" lon="11.933865207657352"><ele>606.5</ele><time>2026-05-03T10:08:32.001Z</time></trkpt><trkpt lat="43.49365455528154" lon="11.933771280235005"><ele>603.0</ele><time>2026-05-03T10:08:33.001Z</time></trkpt><trkpt lat="43.4936137540362" lon="11.93368599954009"><ele>599.5</ele><time>2026-05-03T10:08:34.001Z</time></trkpt><trkpt lat="43.49354924856152" lon="11.933548854338097"><ele>596.0</ele><time>2026-05-03T10:08:36.001Z</time></trkpt><trkpt lat="43.49349284951121" lon="11.933486968834416"><ele>596.0</ele><time>2026-05-03T10:08:37.001Z</time></trkpt><trkpt lat="43.49342248426922" lon="11.933448468275234"><ele>596.0</ele><time>2026-05-03T10:08:38.001Z</time></trkpt><trkpt lat="43.493360885782664" lon="11.933399412548932"><ele>596.0</ele><time>2026-05-03T10:08:39.001Z</time></trkpt><trkpt lat="43.49326943887343" lon="11.93334505623402"><ele>596.0</ele><time>2026-05-03T10:08:41.001Z</time></trkpt><trkpt lat="43.49319042307933" lon="11.933239390495109"><ele>596.0</ele><time>2026-05-03T10:08:43.001Z</time></trkpt><trkpt lat="43.493150828984255" lon="11.933083043410337"><ele>595.3333333333333</ele><time>2026-05-03T10:08:45.001Z</time></trkpt><trkpt lat="43.49312388927175" lon="11.9329875966278"><ele>594.6666666666666</ele><time>2026-05-03T10:08:46.001Z</time></trkpt><trkpt lat="43.49309668906019" lon="11.93290003031941"><ele>594.0</ele><time>2026-05-03T10:08:47.001Z</time></trkpt><trkpt lat="43.49305779724792" lon="11.932803214412047"><ele>593.3333333333334</ele><time>2026-05-03T10:08:48.001Z</time></trkpt><trkpt lat="43.49301045839316" lon="11.932701905620139"><ele>592.6666666666667</ele><time>2026-05-03T10:08:49.001Z</time></trkpt><trkpt lat="43.49295932705962" lon="11.932602369151702"><ele>592.0</ele><time>2026-05-03T10:08:50.001Z</time></trkpt><trkpt lat="43.49290856772095" lon="11.932511522881333"><ele>588.0</ele><time>2026-05-03T10:08:51.001Z</time></trkpt><trkpt lat="43.4928445928728" lon="11.93241624761597"><ele>584.0</ele><time>2026-05-03T10:08:52.001Z</time></trkpt><trkpt lat="43.492782035881405" lon="11.932339878708927"><ele>580.0</ele><time>2026-05-03T10:08:53.001Z</time></trkpt><trkpt lat="43.492718016802016" lon="11.932306944611529"><ele>576.0</ele><time>2026-05-03T10:08:54.001Z</time></trkpt><trkpt lat="43.492618084810374" lon="11.932257257766642"><ele>572.0</ele><time>2026-05-03T10:08:56.001Z</time></trkpt><trkpt lat="43.49251463867561" lon="11.932326350319459"><ele>572.0</ele><time>2026-05-03T10:08:58.001Z</time></trkpt><trkpt lat="43.49246043972937" lon="11.932372635150486"><ele>572.0</ele><time>2026-05-03T10:09:00.001Z</time></trkpt><trkpt lat="43.492400044128054" lon="11.932336124563767"><ele>572.0</ele><time>2026-05-03T10:09:02.001Z</time></trkpt><trkpt lat="43.49236997343719" lon="11.93224498080356"><ele>572.0</ele><time>2026-05-03T10:09:04.001Z</time></trkpt><trkpt lat="43.49232179959464" lon="11.93199938123879"><ele>572.0</ele><time>2026-05-03T10:09:06.001Z</time></trkpt><trkpt lat="43.49232995178279" lon="11.931839493149443"><ele>571.0</ele><time>2026-05-03T10:09:08.001Z</time></trkpt><trkpt lat="43.492423109254446" lon="11.93171293994986"><ele>570.0</ele><time>2026-05-03T10:09:10.001Z</time></trkpt><trkpt lat="43.492495198831435" lon="11.931620825976836"><ele>569.0</ele><time>2026-05-03T10:09:11.001Z</time></trkpt><trkpt lat="43.49255944282238" lon="11.931556334739641"><ele>568.0</ele><time>2026-05-03T10:09:12.001Z</time></trkpt><trkpt lat="43.49260884829201" lon="11.931481365397815"><ele>567.0</ele><time>2026-05-03T10:09:13.001Z</time></trkpt><trkpt lat="43.49266670301026" lon="11.93143264936322"><ele>567.0</ele><time>2026-05-03T10:09:14.001Z</time></trkpt><trkpt lat="43.49272427798612" lon="11.931377145117875"><ele>567.0</ele><time>2026-05-03T10:09:15.001Z</time></trkpt><trkpt lat="43.49281610490414" lon="11.931260177447122"><ele>567.0</ele><time>2026-05-03T10:09:17.001Z</time></trkpt><trkpt lat="43.49284855344485" lon="11.9311773207692"><ele>567.0</ele><time>2026-05-03T10:09:18Z</time></trkpt><trkpt lat="43.49285886557967" lon="11.931081385032117"><ele>567.0</ele><time>2026-05-03T10:09:19Z</time></trkpt><trkpt lat="43.49284287173297" lon="11.930981369959841"><ele>567.0</ele><time>2026-05-03T10:09:20Z</time></trkpt><trkpt lat="43.49279024466942" lon="11.930883303488585"><ele>565.3333333333334</ele><time>2026-05-03T10:09:21Z</time></trkpt><trkpt lat="43.49272967816328" lon="11.930814869622441"><ele>563.6666666666666</ele><time>2026-05-03T10:09:22Z</time></trkpt><trkpt lat="43.492674129693214" lon="11.93074310120322"><ele>562.0</ele><time>2026-05-03T10:09:23Z</time></trkpt><trkpt lat="43.49260642946027" lon="11.930684816941977"><ele>560.3333333333333</ele><time>2026-05-03T10:09:24Z</time></trkpt><trkpt lat="43.492544561916056" lon="11.930604694600468"><ele>558.6666666666666</ele><time>2026-05-03T10:09:25Z</time></trkpt><trkpt lat="43.49247675451767" lon="11.930504032795394"><ele>557.0</ele><time>2026-05-03T10:09:27Z</time></trkpt><trkpt lat="43.492388138529094" lon="11.930404702891344"><ele>557.0</ele><time>2026-05-03T10:09:28Z</time></trkpt><trkpt lat="43.49230733032443" lon="11.93032287572588"><ele>557.0</ele><time>2026-05-03T10:09:29Z</time></trkpt><trkpt lat="43.49222535380118" lon="11.930242581373964"><ele>557.0</ele><time>2026-05-03T10:09:30Z</time></trkpt><trkpt lat="43.492151348654204" lon="11.930171306303322"><ele>557.0</ele><time>2026-05-03T10:09:31Z</time></trkpt><trkpt lat="43.492062377664084" lon="11.93008732328266"><ele>557.0</ele><time>2026-05-03T10:09:32Z</time></trkpt><trkpt lat="43.491982218565504" lon="11.93001429000408"><ele>554.2</ele><time>2026-05-03T10:09:33Z</time></trkpt><trkpt lat="43.49189156208838" lon="11.929931942384217"><ele>551.4000000000001</ele><time>2026-05-03T10:09:34Z</time></trkpt><trkpt lat="43.49180231475179" lon="11.929854580975023"><ele>548.5999999999999</ele><time>2026-05-03T10:09:35Z</time></trkpt><trkpt lat="43.49171201422686" lon="11.92977919522407"><ele>545.8</ele><time>2026-05-03T10:09:36Z</time></trkpt><trkpt lat="43.491643625360254" lon="11.929723951090635"><ele>543.0</ele><time>2026-05-03T10:09:37Z</time></trkpt><trkpt lat="43.49155622729109" lon="11.929667995252977"><ele>543.0</ele><time>2026-05-03T10:09:38Z</time></trkpt><trkpt lat="43.49147453199631" lon="11.929612794360983"><ele>543.0</ele><time>2026-05-03T10:09:39Z</time></trkpt><trkpt lat="43.49141030554799" lon="11.929579376814763"><ele>543.0</ele><time>2026-05-03T10:09:40Z</time></trkpt><trkpt lat="43.49132678033934" lon="11.929553258798366"><ele>543.0</ele><time>2026-05-03T10:09:41Z</time></trkpt><trkpt lat="43.49125005467043" lon="11.929519210529078"><ele>543.0</ele><time>2026-05-03T10:09:42Z</time></trkpt><trkpt lat="43.49116574612922" lon="11.929564770118194"><ele>543.0</ele><time>2026-05-03T10:09:43Z</time></trkpt><trkpt lat="43.49109531742642" lon="11.92960384497087"><ele>540.4</ele><time>2026-05-03T10:09:44Z</time></trkpt><trkpt lat="43.49101333105437" lon="11.929651961025765"><ele>537.8</ele><time>2026-05-03T10:09:45Z</time></trkpt><trkpt lat="43.49093681222975" lon="11.929745669694572"><ele>535.2</ele><time>2026-05-03T10:09:46Z</time></trkpt><trkpt lat="43.49087518000609" lon="11.929855161948806"><ele>532.6</ele><time>2026-05-03T10:09:47Z</time></trkpt><trkpt lat="43.49080236065061" lon="11.929945051554737"><ele>530.0</ele><time>2026-05-03T10:09:48Z</time></trkpt><trkpt lat="43.49073377900491" lon="11.930023121501902"><ele>530.6666666666666</ele><time>2026-05-03T10:09:49Z</time></trkpt><trkpt lat="43.490685841729075" lon="11.930101659306452"><ele>531.3333333333333</ele><time>2026-05-03T10:09:50Z</time></trkpt><trkpt lat="43.49063917732037" lon="11.930192029821896"><ele>532.0</ele><time>2026-05-03T10:09:51Z</time></trkpt><trkpt lat="43.49060711268181" lon="11.930297847347195"><ele>532.6666666666666</ele><time>2026-05-03T10:09:52Z</time></trkpt><trkpt lat="43.49058935343053" lon="11.930407547324632"><ele>533.3333333333334</ele><time>2026-05-03T10:09:53Z</time></trkpt><trkpt lat="43.490577288705445" lon="11.930514108793622"><ele>534.0</ele><time>2026-05-03T10:09:54Z</time></trkpt><trkpt lat="43.49056436673198" lon="11.93060837337092"><ele>534.0</ele><time>2026-05-03T10:09:55Z</time></trkpt><trkpt lat="43.490526349413486" lon="11.930752979421449"><ele>534.0</ele><time>2026-05-03T10:09:57Z</time></trkpt><trkpt lat="43.490460676699385" lon="11.930843112710122"><ele>534.0</ele><time>2026-05-03T10:09:59Z</time></trkpt><trkpt lat="43.49035451945348" lon="11.930848239380342"><ele>534.0</ele><time>2026-05-03T10:10:01Z</time></trkpt><trkpt lat="43.49028422362838" lon="11.93063933877808"><ele>531.0</ele><time>2026-05-03T10:10:03Z</time></trkpt><trkpt lat="43.49026864223296" lon="11.930540951139108"><ele>528.0</ele><time>2026-05-03T10:10:04Z</time></trkpt><trkpt lat="43.49024820400052" lon="11.930451115415662"><ele>525.0</ele><time>2026-05-03T10:10:05Z</time></trkpt><trkpt lat="43.49021037280902" lon="11.930354816928425"><ele>522.0</ele><time>2026-05-03T10:10:06Z</time></trkpt><trkpt lat="43.490154120956845" lon="11.930256752245601"><ele>519.0</ele><time>2026-05-03T10:10:07Z</time></trkpt><trkpt lat="43.49010861481982" lon="11.930176559129288"><ele>516.0</ele><time>2026-05-03T10:10:08Z</time></trkpt><trkpt lat="43.490068342053235" lon="11.930089477498074"><ele>515.3333333333334</ele><time>2026-05-03T10:10:09Z</time></trkpt><trkpt lat="43.49005003676514" lon="11.9300012430838"><ele>514.6666666666666</ele><time>2026-05-03T10:10:10Z</time></trkpt><trkpt lat="43.49004235073085" lon="11.929890347202534"><ele>514.0</ele><time>2026-05-03T10:10:11Z</time></trkpt><trkpt lat="43.4900287232365" lon="11.929780505656849"><ele>513.3333333333333</ele><time>2026-05-03T10:10:12Z</time></trkpt><trkpt lat="43.490028343794506" lon="11.929688577988397"><ele>512.6666666666666</ele><time>2026-05-03T10:10:13Z</time></trkpt><trkpt lat="43.49002184209298" lon="11.929583756205794"><ele>512.0</ele><time>2026-05-03T10:10:14Z</time></trkpt><trkpt lat="43.489944399114854" lon="11.929505372075132"><ele>512.0</ele><time>2026-05-03T10:10:15Z</time></trkpt><trkpt lat="43.489873175965" lon="11.929407828609348"><ele>512.0</ele><time>2026-05-03T10:10:16Z</time></trkpt><trkpt lat="43.48979477810108" lon="11.92931840258467"><ele>512.0</ele><time>2026-05-03T10:10:17Z</time></trkpt><trkpt lat="43.48971032971471" lon="11.929229685533166"><ele>512.0</ele><time>2026-05-03T10:10:18Z</time></trkpt><trkpt lat="43.489628948219625" lon="11.929137471231057"><ele>512.0</ele><time>2026-05-03T10:10:19Z</time></trkpt><trkpt lat="43.48953821578107" lon="11.929039188662177"><ele>505.75</ele><time>2026-05-03T10:10:20.001Z</time></trkpt><trkpt lat="43.4894652461775" lon="11.928916972675415"><ele>499.5</ele><time>2026-05-03T10:10:21.001Z</time></trkpt><trkpt lat="43.48938710896208" lon="11.928793618753929"><ele>493.25</ele><time>2026-05-03T10:10:22.001Z</time></trkpt><trkpt lat="43.489306430125275" lon="11.928679610751773"><ele>487.0</ele><time>2026-05-03T10:10:23.001Z</time></trkpt><trkpt lat="43.4892284733084" lon="11.928574863897921"><ele>487.0</ele><time>2026-05-03T10:10:24.001Z</time></trkpt><trkpt lat="43.489154492659075" lon="11.928473325054558"><ele>487.00000000000006</ele><time>2026-05-03T10:10:25.001Z</time></trkpt><trkpt lat="43.48908394536446" lon="11.928381459264358"><ele>487.00000000000006</ele><time>2026-05-03T10:10:26.001Z</time></trkpt><trkpt lat="43.48900724470027" lon="11.92829827125827"><ele>487.0</ele><time>2026-05-03T10:10:27.001Z</time></trkpt><trkpt lat="43.48894470795758" lon="11.928202707389762"><ele>487.0</ele><time>2026-05-03T10:10:28.001Z</time></trkpt><trkpt lat="43.48887483503526" lon="11.928125246693977"><ele>487.20000000000005</ele><time>2026-05-03T10:10:29.001Z</time></trkpt><trkpt lat="43.48879686365235" lon="11.928042602225336"><ele>487.40000000000003</ele><time>2026-05-03T10:10:30.001Z</time></trkpt><trkpt lat="43.488714594316214" lon="11.927959010548085"><ele>487.59999999999997</ele><time>2026-05-03T10:10:31.001Z</time></trkpt><trkpt lat="43.488629668698756" lon="11.927875249012178"><ele>487.79999999999995</ele><time>2026-05-03T10:10:32.001Z</time></trkpt><trkpt lat="43.48853011237599" lon="11.927807290523313"><ele>488.0</ele><time>2026-05-03T10:10:33.001Z</time></trkpt><trkpt lat="43.48843883578514" lon="11.927716267224106"><ele>484.0</ele><time>2026-05-03T10:10:34.001Z</time></trkpt><trkpt lat="43.488339105724386" lon="11.927628193648163"><ele>480.0</ele><time>2026-05-03T10:10:35.001Z</time></trkpt><trkpt lat="43.48823581166516" lon="11.927545484379715"><ele>476.0</ele><time>2026-05-03T10:10:36.001Z</time></trkpt><trkpt lat="43.48813634099726" lon="11.92744380712058"><ele>472.0</ele><time>2026-05-03T10:10:37.001Z</time></trkpt><trkpt lat="43.488024632833856" lon="11.927358104287208"><ele>469.40000000000003</ele><time>2026-05-03T10:10:38.001Z</time></trkpt><trkpt lat="43.48791976808673" lon="11.927276771414347"><ele>466.80000000000007</ele><time>2026-05-03T10:10:39.001Z</time></trkpt><trkpt lat="43.487819012643016" lon="11.927199787873256"><ele>464.2</ele><time>2026-05-03T10:10:40.001Z</time></trkpt><trkpt lat="43.48772546489573" lon="11.927128772697174"><ele>461.6</ele><time>2026-05-03T10:10:41.001Z</time></trkpt><trkpt lat="43.48763576203745" lon="11.927059681645922"><ele>459.0</ele><time>2026-05-03T10:10:42.001Z</time></trkpt><trkpt lat="43.48755489125703" lon="11.92699169588483"><ele>459.0</ele><time>2026-05-03T10:10:43.001Z</time></trkpt><trkpt lat="43.48746875504247" lon="11.926907754706926"><ele>459.0</ele><time>2026-05-03T10:10:44.001Z</time></trkpt><trkpt lat="43.48738953706976" lon="11.926814769942713"><ele>459.0</ele><time>2026-05-03T10:10:45.001Z</time></trkpt><trkpt lat="43.48731702164194" lon="11.926710143544797"><ele>459.0</ele><time>2026-05-03T10:10:46.001Z</time></trkpt><trkpt lat="43.487245662324824" lon="11.926584367459832"><ele>459.0</ele><time>2026-05-03T10:10:47.001Z</time></trkpt><trkpt lat="43.48718623889465" lon="11.926463612599933"><ele>459.6</ele><time>2026-05-03T10:10:48.001Z</time></trkpt><trkpt lat="43.48712517917413" lon="11.926319837945687"><ele>460.2</ele><time>2026-05-03T10:10:49.001Z</time></trkpt><trkpt lat="43.48707586487328" lon="11.926184868327091"><ele>460.80000000000007</ele><time>2026-05-03T10:10:50.001Z</time></trkpt><trkpt lat="43.48703476559928" lon="11.926053077879539"><ele>461.40000000000003</ele><time>2026-05-03T10:10:51.001Z</time></trkpt><trkpt lat="43.48698994240162" lon="11.925935798599582"><ele>462.0</ele><time>2026-05-03T10:10:52.001Z</time></trkpt><trkpt lat="43.48697183767063" lon="11.92581832188962"><ele>460.1666666666667</ele><time>2026-05-03T10:10:53.001Z</time></trkpt><trkpt lat="43.48698289234485" lon="11.925716874140317"><ele>458.33333333333337</ele><time>2026-05-03T10:10:54.001Z</time></trkpt><trkpt lat="43.486989269261755" lon="11.925587368592302"><ele>456.5</ele><time>2026-05-03T10:10:55.001Z</time></trkpt><trkpt lat="43.48705256974057" lon="11.925442845953718"><ele>454.6666666666667</ele><time>2026-05-03T10:10:57.001Z</time></trkpt><trkpt lat="43.4871121143915" lon="11.9254015715665"><ele>452.83333333333337</ele><time>2026-05-03T10:10:58.001Z</time></trkpt><trkpt lat="43.487182153369424" lon="11.925326711732138"><ele>451.0</ele><time>2026-05-03T10:10:59.001Z</time></trkpt><trkpt lat="43.48727846623939" lon="11.925304113508648"><ele>451.0</ele><time>2026-05-03T10:11:00.001Z</time></trkpt><trkpt lat="43.48739154783359" lon="11.925293308959764"><ele>451.0</ele><time>2026-05-03T10:11:01.001Z</time></trkpt><trkpt lat="43.48751838639191" lon="11.92528458121957"><ele>451.0</ele><time>2026-05-03T10:11:02.001Z</time></trkpt><trkpt lat="43.48764102061903" lon="11.925260545579635"><ele>451.0</ele><time>2026-05-03T10:11:03.001Z</time></trkpt><trkpt lat="43.48775477864643" lon="11.925252833892916"><ele>451.0</ele><time>2026-05-03T10:11:04.001Z</time></trkpt><trkpt lat="43.48787925719243" lon="11.92527031151949"><ele>451.0</ele><time>2026-05-03T10:11:05.001Z</time></trkpt><trkpt lat="43.48800488061825" lon="11.92527908228535"><ele>451.0</ele><time>2026-05-03T10:11:06.001Z</time></trkpt><trkpt lat="43.48812037395859" lon="11.92529086648382"><ele>451.0</ele><time>2026-05-03T10:11:07.001Z</time></trkpt><trkpt lat="43.48822274538649" lon="11.925295857205144"><ele>449.8</ele><time>2026-05-03T10:11:08.001Z</time></trkpt><trkpt lat="43.48828659354161" lon="11.925315915324704"><ele>448.6</ele><time>2026-05-03T10:11:09.001Z</time></trkpt><trkpt lat="43.48839321789543" lon="11.925311219453034"><ele>447.4</ele><time>2026-05-03T10:11:11.001Z</time></trkpt><trkpt lat="43.488464253429925" lon="11.92522130383319"><ele>446.2</ele><time>2026-05-03T10:11:12.001Z</time></trkpt><trkpt lat="43.48845269569462" lon="11.925043343882193"><ele>445.0</ele><time>2026-05-03T10:11:13.001Z</time></trkpt><trkpt lat="43.48840315873662" lon="11.924896809919355"><ele>440.0</ele><time>2026-05-03T10:11:14.001Z</time></trkpt><trkpt lat="43.48835820870156" lon="11.924780698851778"><ele>435.0</ele><time>2026-05-03T10:11:15.001Z</time></trkpt><trkpt lat="43.48830014263906" lon="11.924678138298841"><ele>430.0</ele><time>2026-05-03T10:11:16.001Z</time></trkpt><trkpt lat="43.4882362292351" lon="11.924614050953956"><ele>425.0</ele><time>2026-05-03T10:11:17.001Z</time></trkpt><trkpt lat="43.48815872225322" lon="11.924546811731378"><ele>420.0</ele><time>2026-05-03T10:11:18.001Z</time></trkpt><trkpt lat="43.48806647570102" lon="11.92445884321353"><ele>420.0</ele><time>2026-05-03T10:11:19.001Z</time></trkpt><trkpt lat="43.4879815469758" lon="11.9243985185227"><ele>420.0</ele><time>2026-05-03T10:11:20.001Z</time></trkpt><trkpt lat="43.487884375182055" lon="11.924358003147661"><ele>420.0</ele><time>2026-05-03T10:11:21.001Z</time></trkpt><trkpt lat="43.48780102299096" lon="11.924292919096912"><ele>420.0</ele><time>2026-05-03T10:11:22.001Z</time></trkpt><trkpt lat="43.487712775641555" lon="11.92423548010222"><ele>420.0</ele><time>2026-05-03T10:11:23.001Z</time></trkpt><trkpt lat="43.487629379482215" lon="11.924173532938699"><ele>418.2</ele><time>2026-05-03T10:11:24Z</time></trkpt><trkpt lat="43.48753484016886" lon="11.924109356513181"><ele>416.4</ele><time>2026-05-03T10:11:25Z</time></trkpt><trkpt lat="43.48743675421519" lon="11.924054970750774"><ele>414.6</ele><time>2026-05-03T10:11:26Z</time></trkpt><trkpt lat="43.48735074977541" lon="11.9239626833655"><ele>412.8</ele><time>2026-05-03T10:11:27Z</time></trkpt><trkpt lat="43.487263409743036" lon="11.923877160977801"><ele>411.0</ele><time>2026-05-03T10:11:28Z</time></trkpt><trkpt lat="43.487173324553176" lon="11.923813050454921"><ele>411.0</ele><time>2026-05-03T10:11:29Z</time></trkpt><trkpt lat="43.48710128340964" lon="11.92372343547102"><ele>411.0</ele><time>2026-05-03T10:11:30Z</time></trkpt><trkpt lat="43.48702974334936" lon="11.923626858660208"><ele>411.0</ele><time>2026-05-03T10:11:31Z</time></trkpt><trkpt lat="43.486976999932786" lon="11.923519883983538"><ele>411.0</ele><time>2026-05-03T10:11:32Z</time></trkpt><trkpt lat="43.48691626005746" lon="11.923417148048493"><ele>411.0</ele><time>2026-05-03T10:11:33Z</time></trkpt><trkpt lat="43.48686559018352" lon="11.923310902581708"><ele>410.20000000000005</ele><time>2026-05-03T10:11:34Z</time></trkpt><trkpt lat="43.48681227225299" lon="11.923184400369056"><ele>409.40000000000003</ele><time>2026-05-03T10:11:35Z</time></trkpt><trkpt lat="43.48675116488829" lon="11.92306484488895"><ele>408.6</ele><time>2026-05-03T10:11:36Z</time></trkpt><trkpt lat="43.48671141266605" lon="11.922960339617324"><ele>407.8</ele><time>2026-05-03T10:11:37Z</time></trkpt><trkpt lat="43.486675304338604" lon="11.92281705298439"><ele>407.0</ele><time>2026-05-03T10:11:38Z</time></trkpt><trkpt lat="43.4866375667938" lon="11.922710900505333"><ele>407.0</ele><time>2026-05-03T10:11:39Z</time></trkpt><trkpt lat="43.48658630602589" lon="11.922566281867098"><ele>407.0</ele><time>2026-05-03T10:11:40Z</time></trkpt><trkpt lat="43.48653906472472" lon="11.9224251568259"><ele>407.0</ele><time>2026-05-03T10:11:41Z</time></trkpt><trkpt lat="43.48648521661988" lon="11.9222830354939"><ele>407.0</ele><time>2026-05-03T10:11:42Z</time></trkpt><trkpt lat="43.48642689004693" lon="11.922140198360186"><ele>404.5</ele><time>2026-05-03T10:11:43Z</time></trkpt><trkpt lat="43.48634104150286" lon="11.92202786030619"><ele>402.0</ele><time>2026-05-03T10:11:44Z</time></trkpt><trkpt lat="43.48626698799058" lon="11.921922338323624"><ele>399.5</ele><time>2026-05-03T10:11:45Z</time></trkpt><trkpt lat="43.48618776023397" lon="11.921803538167302"><ele>397.0</ele><time>2026-05-03T10:11:46Z</time></trkpt><trkpt lat="43.48609979153835" lon="11.921680436807556"><ele>394.0</ele><time>2026-05-03T10:11:47Z</time></trkpt><trkpt lat="43.48606329050496" lon="11.921515790365893"><ele>391.0</ele><time>2026-05-03T10:11:48Z</time></trkpt><trkpt lat="43.48604112897192" lon="11.921357026553128"><ele>388.0</ele><time>2026-05-03T10:11:49Z</time></trkpt><trkpt lat="43.48603521580976" lon="11.92118597436944"><ele>385.0</ele><time>2026-05-03T10:11:50Z</time></trkpt><trkpt lat="43.486028470134364" lon="11.921011573822094"><ele>382.75</ele><time>2026-05-03T10:11:51Z</time></trkpt><trkpt lat="43.48601819958767" lon="11.920834972525297"><ele>380.5</ele><time>2026-05-03T10:11:52Z</time></trkpt><trkpt lat="43.486001703182254" lon="11.920657522086941"><ele>378.25</ele><time>2026-05-03T10:11:53Z</time></trkpt><trkpt lat="43.48598799778516" lon="11.920477739714013"><ele>376.0</ele><time>2026-05-03T10:11:54Z</time></trkpt><trkpt lat="43.48597304552719" lon="11.920297895921205"><ele>376.0</ele><time>2026-05-03T10:11:55Z</time></trkpt><trkpt lat="43.48596142266065" lon="11.920123469473507"><ele>376.0</ele><time>2026-05-03T10:11:56Z</time></trkpt><trkpt lat="43.485955195168465" lon="11.919948481152769"><ele>376.0</ele><time>2026-05-03T10:11:57Z</time></trkpt><trkpt lat="43.48595174790269" lon="11.919766679778483"><ele>376.0</ele><time>2026-05-03T10:11:58Z</time></trkpt><trkpt lat="43.48594257086673" lon="11.919590632526416"><ele>374.0</ele><time>2026-05-03T10:11:59Z</time></trkpt><trkpt lat="43.48593266861075" lon="11.919419929286782"><ele>372.0</ele><time>2026-05-03T10:12:00Z</time></trkpt><trkpt lat="43.48593982307157" lon="11.91924760294525"><ele>370.0</ele><time>2026-05-03T10:12:01Z</time></trkpt><trkpt lat="43.485950746062436" lon="11.919083161418389"><ele>368.0</ele><time>2026-05-03T10:12:02Z</time></trkpt><trkpt lat="43.48595373557058" lon="11.918905942712142"><ele>366.75</ele><time>2026-05-03T10:12:03Z</time></trkpt><trkpt lat="43.485951328805285" lon="11.918729554964601"><ele>365.5</ele><time>2026-05-03T10:12:04Z</time></trkpt><trkpt lat="43.485948975537475" lon="11.918556489680489"><ele>364.25</ele><time>2026-05-03T10:12:05Z</time></trkpt><trkpt lat="43.48595136500359" lon="11.918382570324562"><ele>363.0</ele><time>2026-05-03T10:12:06Z</time></trkpt><trkpt lat="43.48595615480425" lon="11.91821622971542"><ele>362.0</ele><time>2026-05-03T10:12:07Z</time></trkpt><trkpt lat="43.485959910360314" lon="11.9180544061533"><ele>361.0</ele><time>2026-05-03T10:12:08Z</time></trkpt><trkpt lat="43.48596166084892" lon="11.91789291984851"><ele>360.0</ele><time>2026-05-03T10:12:09Z</time></trkpt><trkpt lat="43.48596949966213" lon="11.917741074076226"><ele>359.0</ele><time>2026-05-03T10:12:10Z</time></trkpt><trkpt lat="43.48600153380221" lon="11.917597210511941"><ele>358.0</ele><time>2026-05-03T10:12:11Z</time></trkpt><trkpt lat="43.486065135510025" lon="11.917467754018404"><ele>357.0</ele><time>2026-05-03T10:12:12Z</time></trkpt><trkpt lat="43.486153361349636" lon="11.917367990111249"><ele>356.0</ele><time>2026-05-03T10:12:13Z</time></trkpt><trkpt lat="43.48624547081297" lon="11.917272700876692"><ele>355.0</ele><time>2026-05-03T10:12:14Z</time></trkpt><trkpt lat="43.4863086935164" lon="11.917136107328929"><ele>353.0</ele><time>2026-05-03T10:12:15Z</time></trkpt><trkpt lat="43.48634105937257" lon="11.916978067678295"><ele>351.0</ele><time>2026-05-03T10:12:16Z</time></trkpt><trkpt lat="43.486365148780074" lon="11.916816855852874"><ele>349.0</ele><time>2026-05-03T10:12:17Z</time></trkpt><trkpt lat="43.486390547026964" lon="11.916650337328702"><ele>347.0</ele><time>2026-05-03T10:12:18Z</time></trkpt><trkpt lat="43.48640931428511" lon="11.916469269253042"><ele>346.0</ele><time>2026-05-03T10:12:19Z</time></trkpt><trkpt lat="43.486426571087534" lon="11.916294282608597"><ele>345.0</ele><time>2026-05-03T10:12:20Z</time></trkpt><trkpt lat="43.48644079999969" lon="11.916116532985946"><ele>344.0</ele><time>2026-05-03T10:12:21.001Z</time></trkpt><trkpt lat="43.486452350025694" lon="11.915940516381498"><ele>343.0</ele><time>2026-05-03T10:12:22.001Z</time></trkpt><trkpt lat="43.48647446850845" lon="11.915761993233064"><ele>342.0</ele><time>2026-05-03T10:12:23.001Z</time></trkpt><trkpt lat="43.486485697372224" lon="11.915595846394837"><ele>341.0</ele><time>2026-05-03T10:12:24.001Z</time></trkpt><trkpt lat="43.48650158549954" lon="11.915417728587693"><ele>340.0</ele><time>2026-05-03T10:12:25.001Z</time></trkpt><trkpt lat="43.486526557463016" lon="11.915240269920496"><ele>339.0</ele><time>2026-05-03T10:12:26.001Z</time></trkpt><trkpt lat="43.486546508501426" lon="11.915078549017192"><ele>337.79999999999995</ele><time>2026-05-03T10:12:27.001Z</time></trkpt><trkpt lat="43.486561387318616" lon="11.91492385566602"><ele>336.59999999999997</ele><time>2026-05-03T10:12:28.001Z</time></trkpt><trkpt lat="43.486573750419666" lon="11.914768696339374"><ele>335.4</ele><time>2026-05-03T10:12:29.001Z</time></trkpt><trkpt lat="43.48659051815741" lon="11.914629375277755"><ele>334.2</ele><time>2026-05-03T10:12:30.001Z</time></trkpt><trkpt lat="43.486611517547146" lon="11.914483617292055"><ele>333.0</ele><time>2026-05-03T10:12:31.001Z</time></trkpt><trkpt lat="43.48664573524696" lon="11.914340997637472"><ele>332.0</ele><time>2026-05-03T10:12:32.001Z</time></trkpt><trkpt lat="43.486694569718495" lon="11.914198330467721"><ele>331.0</ele><time>2026-05-03T10:12:33.001Z</time></trkpt><trkpt lat="43.4867479802467" lon="11.9140595917689"><ele>330.0</ele><time>2026-05-03T10:12:34.001Z</time></trkpt><trkpt lat="43.486807636184494" lon="11.913919154249658"><ele>329.0</ele><time>2026-05-03T10:12:35.001Z</time></trkpt><trkpt lat="43.48686227794775" lon="11.913767590291"><ele>329.0</ele><time>2026-05-03T10:12:36.001Z</time></trkpt><trkpt lat="43.48691590191638" lon="11.913622108990774"><ele>329.0</ele><time>2026-05-03T10:12:37.001Z</time></trkpt><trkpt lat="43.48697635395471" lon="11.91345480414005"><ele>329.0</ele><time>2026-05-03T10:12:38.001Z</time></trkpt><trkpt lat="43.48703405475729" lon="11.9133026379242"><ele>329.0</ele><time>2026-05-03T10:12:39.001Z</time></trkpt><trkpt lat="43.487083175986974" lon="11.913151726632966"><ele>326.2</ele><time>2026-05-03T10:12:40.001Z</time></trkpt><trkpt lat="43.487120559105755" lon="11.912998668112758"><ele>323.4</ele><time>2026-05-03T10:12:41.001Z</time></trkpt><trkpt lat="43.48714387705048" lon="11.91284634700081"><ele>320.6</ele><time>2026-05-03T10:12:42.001Z</time></trkpt><trkpt lat="43.487152126839696" lon="11.912694253384556"><ele>317.8</ele><time>2026-05-03T10:12:43.001Z</time></trkpt><trkpt lat="43.48714733414325" lon="11.912546498937106"><ele>315.0</ele><time>2026-05-03T10:12:44.001Z</time></trkpt><trkpt lat="43.487143214192265" lon="11.912394303530883"><ele>315.0</ele><time>2026-05-03T10:12:45.001Z</time></trkpt><trkpt lat="43.48713303455665" lon="11.912251469833285"><ele>315.0</ele><time>2026-05-03T10:12:46.001Z</time></trkpt><trkpt lat="43.48711486195933" lon="11.912101796388791"><ele>315.0</ele><time>2026-05-03T10:12:47.001Z</time></trkpt><trkpt lat="43.48709137275644" lon="11.911957674415683"><ele>315.0</ele><time>2026-05-03T10:12:48.001Z</time></trkpt><trkpt lat="43.487052189289265" lon="11.911814976384287"><ele>315.0</ele><time>2026-05-03T10:12:49.001Z</time></trkpt><trkpt lat="43.487010346557035" lon="11.911679831638455"><ele>314.6</ele><time>2026-05-03T10:12:50.001Z</time></trkpt><trkpt lat="43.486973910059994" lon="11.91154387074931"><ele>314.2</ele><time>2026-05-03T10:12:51.001Z</time></trkpt><trkpt lat="43.48694262837531" lon="11.911413678019153"><ele>313.8</ele><time>2026-05-03T10:12:52.001Z</time></trkpt><trkpt lat="43.486903463876864" lon="11.911285563673848"><ele>313.4</ele><time>2026-05-03T10:12:53.001Z</time></trkpt><trkpt lat="43.486873313880814" lon="11.911161345207157"><ele>313.0</ele><time>2026-05-03T10:12:54.001Z</time></trkpt><trkpt lat="43.48684850391515" lon="11.911052956370495"><ele>313.0</ele><time>2026-05-03T10:12:55.001Z</time></trkpt><trkpt lat="43.486824228209564" lon="11.910952036478783"><ele>313.0</ele><time>2026-05-03T10:12:56.001Z</time></trkpt><trkpt lat="43.48679009243517" lon="11.910851885810102"><ele>313.0</ele><time>2026-05-03T10:12:57.001Z</time></trkpt><trkpt lat="43.48675101583499" lon="11.910745510935486"><ele>313.0</ele><time>2026-05-03T10:12:58.001Z</time></trkpt><trkpt lat="43.486720753031214" lon="11.910619548208622"><ele>313.0</ele><time>2026-05-03T10:12:59.001Z</time></trkpt><trkpt lat="43.48673408718162" lon="11.9104702275227"><ele>313.0</ele><time>2026-05-03T10:13:00.001Z</time></trkpt><trkpt lat="43.48673802114028" lon="11.910303107642173"><ele>311.5</ele><time>2026-05-03T10:13:01.001Z</time></trkpt><trkpt lat="43.48675931297492" lon="11.910135745162492"><ele>310.0</ele><time>2026-05-03T10:13:02.001Z</time></trkpt><trkpt lat="43.48678119215569" lon="11.909968982460795"><ele>308.5</ele><time>2026-05-03T10:13:03.001Z</time></trkpt><trkpt lat="43.48678948078597" lon="11.909792938072332"><ele>307.0</ele><time>2026-05-03T10:13:04.001Z</time></trkpt><trkpt lat="43.48680504695239" lon="11.909622628999129"><ele>305.8</ele><time>2026-05-03T10:13:05.001Z</time></trkpt><trkpt lat="43.4868164447641" lon="11.909461458112746"><ele>304.6</ele><time>2026-05-03T10:13:06.001Z</time></trkpt><trkpt lat="43.48683645556651" lon="11.90931468805793"><ele>303.40000000000003</ele><time>2026-05-03T10:13:07.001Z</time></trkpt><trkpt lat="43.48684243052828" lon="11.909173335552303"><ele>302.2</ele><time>2026-05-03T10:13:08.001Z</time></trkpt><trkpt lat="43.48683697565027" lon="11.909040160919366"><ele>301.0</ele><time>2026-05-03T10:13:09.001Z</time></trkpt><trkpt lat="43.48681730178876" lon="11.90890836557988"><ele>299.6</ele><time>2026-05-03T10:13:10.001Z</time></trkpt><trkpt lat="43.48673777364619" lon="11.90880693319873"><ele>298.20000000000005</ele><time>2026-05-03T10:13:11.001Z</time></trkpt><trkpt lat="43.48665341747072" lon="11.908722318210858"><ele>296.79999999999995</ele><time>2026-05-03T10:13:12.001Z</time></trkpt><trkpt lat="43.48657188190268" lon="11.908636024849748"><ele>295.4</ele><time>2026-05-03T10:13:13.001Z</time></trkpt><trkpt lat="43.48649381144883" lon="11.90854913636727"><ele>294.0</ele><time>2026-05-03T10:13:14.001Z</time></trkpt><trkpt lat="43.48642708445907" lon="11.908456434199593"><ele>293.2</ele><time>2026-05-03T10:13:15.001Z</time></trkpt><trkpt lat="43.48636867787318" lon="11.908349576664573"><ele>292.4</ele><time>2026-05-03T10:13:16.001Z</time></trkpt><trkpt lat="43.48631711684084" lon="11.908238090540411"><ele>291.6</ele><time>2026-05-03T10:13:17.001Z</time></trkpt><trkpt lat="43.48625349985531" lon="11.90813712803023"><ele>290.8</ele><time>2026-05-03T10:13:18.001Z</time></trkpt><trkpt lat="43.486172093462535" lon="11.908063033000905"><ele>290.0</ele><time>2026-05-03T10:13:19.001Z</time></trkpt><trkpt lat="43.48608170697542" lon="11.908014637501108"><ele>289.8</ele><time>2026-05-03T10:13:20.001Z</time></trkpt><trkpt lat="43.48598858272441" lon="11.90798287382292"><ele>289.6</ele><time>2026-05-03T10:13:21.001Z</time></trkpt><trkpt lat="43.485900214532556" lon="11.90792517700575"><ele>289.4</ele><time>2026-05-03T10:13:22.001Z</time></trkpt><trkpt lat="43.48580833457745" lon="11.907880408544822"><ele>289.2</ele><time>2026-05-03T10:13:23.001Z</time></trkpt><trkpt lat="43.485708506296135" lon="11.907832211003488"><ele>289.0</ele><time>2026-05-03T10:13:24.001Z</time></trkpt><trkpt lat="43.48560483428105" lon="11.907763690585941"><ele>289.0</ele><time>2026-05-03T10:13:25.001Z</time></trkpt><trkpt lat="43.48549671901622" lon="11.907703214087894"><ele>289.0</ele><time>2026-05-03T10:13:26.001Z</time></trkpt><trkpt lat="43.48539331292138" lon="11.907641288762113"><ele>289.0</ele><time>2026-05-03T10:13:27.001Z</time></trkpt><trkpt lat="43.48528712458278" lon="11.907578545613354"><ele>289.0</ele><time>2026-05-03T10:13:28.001Z</time></trkpt><trkpt lat="43.48518296324322" lon="11.907516250535307"><ele>286.25</ele><time>2026-05-03T10:13:29.001Z</time></trkpt><trkpt lat="43.48508107681217" lon="11.907459160971143"><ele>283.5</ele><time>2026-05-03T10:13:30Z</time></trkpt><trkpt lat="43.484978763237585" lon="11.907387334074091"><ele>280.75</ele><time>2026-05-03T10:13:31Z</time></trkpt><trkpt lat="43.48487211075934" lon="11.907320397332299"><ele>278.0</ele><time>2026-05-03T10:13:32Z</time></trkpt><trkpt lat="43.484757814203924" lon="11.907240699426794"><ele>278.0</ele><time>2026-05-03T10:13:33Z</time></trkpt><trkpt lat="43.48465500073169" lon="11.907131824841832"><ele>278.0</ele><time>2026-05-03T10:13:34Z</time></trkpt><trkpt lat="43.484548959028764" lon="11.907018660364262"><ele>278.0</ele><time>2026-05-03T10:13:35Z</time></trkpt><trkpt lat="43.484446371195624" lon="11.906892196780868"><ele>278.0</ele><time>2026-05-03T10:13:36Z</time></trkpt><trkpt lat="43.484342073025005" lon="11.906767260027395"><ele>276.25</ele><time>2026-05-03T10:13:37Z</time></trkpt><trkpt lat="43.48422513613129" lon="11.906670032598289"><ele>274.5</ele><time>2026-05-03T10:13:38Z</time></trkpt><trkpt lat="43.48410010668754" lon="11.906597969756522"><ele>272.75</ele><time>2026-05-03T10:13:39Z</time></trkpt><trkpt lat="43.48399137429635" lon="11.906526509007282"><ele>271.0</ele><time>2026-05-03T10:13:40Z</time></trkpt><trkpt lat="43.48388873620656" lon="11.906464036719827"><ele>271.0</ele><time>2026-05-03T10:13:41Z</time></trkpt><trkpt lat="43.48379561635977" lon="11.906385346935721"><ele>271.0</ele><time>2026-05-03T10:13:42Z</time></trkpt><trkpt lat="43.48371603178222" lon="11.90627924409659"><ele>271.0</ele><time>2026-05-03T10:13:43Z</time></trkpt><trkpt lat="43.48363755321744" lon="11.90615837503151"><ele>271.0</ele><time>2026-05-03T10:13:44Z</time></trkpt><trkpt lat="43.483554730701975" lon="11.906034735228172"><ele>270.75</ele><time>2026-05-03T10:13:45Z</time></trkpt><trkpt lat="43.483467244886675" lon="11.905910437187812"><ele>270.5</ele><time>2026-05-03T10:13:46Z</time></trkpt><trkpt lat="43.48337710844622" lon="11.905788015382258"><ele>270.25</ele><time>2026-05-03T10:13:47Z</time></trkpt><trkpt lat="43.48328834435725" lon="11.905667883484094"><ele>270.0</ele><time>2026-05-03T10:13:48Z</time></trkpt><trkpt lat="43.483207935086675" lon="11.905556002516319"><ele>270.0</ele><time>2026-05-03T10:13:49Z</time></trkpt><trkpt lat="43.483138902918775" lon="11.9054612522202"><ele>270.0</ele><time>2026-05-03T10:13:50Z</time></trkpt><trkpt lat="43.483077685785226" lon="11.905373396141075"><ele>270.0</ele><time>2026-05-03T10:13:51Z</time></trkpt><trkpt lat="43.483021851119865" lon="11.905288009100637"><ele>270.0</ele><time>2026-05-03T10:13:52Z</time></trkpt><trkpt lat="43.482972567068266" lon="11.905207396131306"><ele>270.0</ele><time>2026-05-03T10:13:53Z</time></trkpt><trkpt lat="43.4830005432368" lon="11.905068916791649"><ele>270.0</ele><time>2026-05-03T10:13:54Z</time></trkpt><trkpt lat="43.48300242466244" lon="11.90491924618486"><ele>270.0</ele><time>2026-05-03T10:13:55Z</time></trkpt><trkpt lat="43.48299179258946" lon="11.904730666827279"><ele>270.0</ele><time>2026-05-03T10:13:56Z</time></trkpt><trkpt lat="43.48298463411212" lon="11.904494776170418"><ele>270.0</ele><time>2026-05-03T10:13:57Z</time></trkpt><trkpt lat="43.48296923437835" lon="11.904262951091832"><ele>269.6666666666667</ele><time>2026-05-03T10:13:58Z</time></trkpt><trkpt lat="43.48295411211824" lon="11.904010024371031"><ele>269.33333333333337</ele><time>2026-05-03T10:13:59Z</time></trkpt><trkpt lat="43.482935294422596" lon="11.903718697876092"><ele>269.0</ele><time>2026-05-03T10:14:00Z</time></trkpt><trkpt lat="43.48292610067779" lon="11.903383402251292"><ele>268.6666666666667</ele><time>2026-05-03T10:14:01Z</time></trkpt><trkpt lat="43.482931685204925" lon="11.903060130408857"><ele>268.3333333333333</ele><time>2026-05-03T10:14:02Z</time></trkpt><trkpt lat="43.482936093794265" lon="11.902788604067682"><ele>268.0</ele><time>2026-05-03T10:14:03Z</time></trkpt><trkpt lat="43.48293824090734" lon="11.902567027985484"><ele>267.66666666666663</ele><time>2026-05-03T10:14:04Z</time></trkpt><trkpt lat="43.48293259181142" lon="11.902375052233804"><ele>267.3333333333333</ele><time>2026-05-03T10:14:05Z</time></trkpt><trkpt lat="43.48289908812509" lon="11.902166722736919"><ele>267.0</ele><time>2026-05-03T10:14:06Z</time></trkpt><trkpt lat="43.48283236833628" lon="11.901916818762295"><ele>266.6666666666667</ele><time>2026-05-03T10:14:07Z</time></trkpt><trkpt lat="43.48273021290153" lon="11.901637126442909"><ele>266.33333333333337</ele><time>2026-05-03T10:14:08Z</time></trkpt><trkpt lat="43.482661529077305" lon="11.901379722995614"><ele>266.0</ele><time>2026-05-03T10:14:09Z</time></trkpt><trkpt lat="43.482576994002045" lon="11.901163032763481"><ele>266.0</ele><time>2026-05-03T10:14:10Z</time></trkpt><trkpt lat="43.48251413002084" lon="11.900936517937778"><ele>266.0</ele><time>2026-05-03T10:14:11Z</time></trkpt><trkpt lat="43.48248181223816" lon="11.900661993098055"><ele>266.0</ele><time>2026-05-03T10:14:12Z</time></trkpt><trkpt lat="43.482447966450025" lon="11.900348684035858"><ele>265.6666666666667</ele><time>2026-05-03T10:14:13Z</time></trkpt><trkpt lat="43.48241779946141" lon="11.90004688604883"><ele>265.3333333333333</ele><time>2026-05-03T10:14:14Z</time></trkpt><trkpt lat="43.482381279638275" lon="11.899752866482858"><ele>265.0</ele><time>2026-05-03T10:14:15Z</time></trkpt><trkpt lat="43.48239862540267" lon="11.89945052089718"><ele>264.66666666666663</ele><time>2026-05-03T10:14:16Z</time></trkpt><trkpt lat="43.482392647724865" lon="11.899180780725258"><ele>264.3333333333333</ele><time>2026-05-03T10:14:17Z</time></trkpt><trkpt lat="43.48240961300993" lon="11.898933487839193"><ele>264.0</ele><time>2026-05-03T10:14:18Z</time></trkpt><trkpt lat="43.48241947947801" lon="11.898684257925373"><ele>264.0</ele><time>2026-05-03T10:14:19Z</time></trkpt><trkpt lat="43.48241407948353" lon="11.898424138941811"><ele>264.0</ele><time>2026-05-03T10:14:20Z</time></trkpt><trkpt lat="43.482408406467506" lon="11.898174491405628"><ele>264.0</ele><time>2026-05-03T10:14:21Z</time></trkpt><trkpt lat="43.482400483933056" lon="11.897950883148509"><ele>263.3333333333333</ele><time>2026-05-03T10:14:22Z</time></trkpt><trkpt lat="43.482394289861894" lon="11.897726572247912"><ele>262.66666666666663</ele><time>2026-05-03T10:14:23Z</time></trkpt><trkpt lat="43.48237070298745" lon="11.897489357777662"><ele>262.0</ele><time>2026-05-03T10:14:24Z</time></trkpt><trkpt lat="43.48232442509415" lon="11.897242972186064"><ele>262.0</ele><time>2026-05-03T10:14:25.001Z</time></trkpt><trkpt lat="43.48225361815169" lon="11.896975433547615"><ele>262.0</ele><time>2026-05-03T10:14:26.001Z</time></trkpt><trkpt lat="43.48217891364329" lon="11.896706388061116"><ele>262.0</ele><time>2026-05-03T10:14:27.001Z</time></trkpt><trkpt lat="43.482119257941456" lon="11.896485282513337"><ele>262.0</ele><time>2026-05-03T10:14:28.001Z</time></trkpt><trkpt lat="43.48207963497719" lon="11.896306012646615"><ele>262.0</ele><time>2026-05-03T10:14:29.001Z</time></trkpt><trkpt lat="43.48205474533575" lon="11.896164707907014"><ele>262.0</ele><time>2026-05-03T10:14:30.001Z</time></trkpt><trkpt lat="43.482035515168654" lon="11.896057271203937"><ele>262.0</ele><time>2026-05-03T10:14:31.001Z</time></trkpt><trkpt lat="43.4820350752785" lon="11.895968688532433"><ele>262.0</ele><time>2026-05-03T10:14:32.001Z</time></trkpt><trkpt lat="43.482019918655176" lon="11.895861782151652"><ele>261.6</ele><time>2026-05-03T10:14:34.001Z</time></trkpt><trkpt lat="43.481991133427826" lon="11.89576192609154"><ele>261.2</ele><time>2026-05-03T10:14:37.001Z</time></trkpt><trkpt lat="43.481842597837314" lon="11.895785734348953"><ele>260.8</ele><time>2026-05-03T10:14:38.001Z</time></trkpt><trkpt lat="43.48176700362687" lon="11.89578781923526"><ele>260.4</ele><time>2026-05-03T10:14:39.001Z</time></trkpt><trkpt lat="43.481682911735916" lon="11.895786111560966"><ele>260.0</ele><time>2026-05-03T10:14:40.001Z</time></trkpt><trkpt lat="43.48159672787623" lon="11.895775546222605"><ele>260.0</ele><time>2026-05-03T10:14:41.001Z</time></trkpt><trkpt lat="43.4815117186491" lon="11.895770180611947"><ele>260.0</ele><time>2026-05-03T10:14:42.001Z</time></trkpt><trkpt lat="43.481429531281044" lon="11.895757801166072"><ele>260.0</ele><time>2026-05-03T10:14:43.001Z</time></trkpt><trkpt lat="43.48134078619275" lon="11.895737356058776"><ele>260.0</ele><time>2026-05-03T10:14:44.001Z</time></trkpt><trkpt lat="43.481255754305266" lon="11.895719091028715"><ele>260.0</ele><time>2026-05-03T10:14:45.001Z</time></trkpt><trkpt lat="43.48115518169529" lon="11.895646767561576"><ele>260.6</ele><time>2026-05-03T10:14:46.001Z</time></trkpt><trkpt lat="43.48105470767832" lon="11.895618327812514"><ele>261.2</ele><time>2026-05-03T10:14:47.001Z</time></trkpt><trkpt lat="43.480954404195764" lon="11.895584016818525"><ele>261.8</ele><time>2026-05-03T10:14:48.001Z</time></trkpt><trkpt lat="43.48085695608275" lon="11.89553596951364"><ele>262.4</ele><time>2026-05-03T10:14:49.001Z</time></trkpt><trkpt lat="43.48075905185947" lon="11.895488988050872"><ele>263.0</ele><time>2026-05-03T10:14:50.001Z</time></trkpt><trkpt lat="43.48066111189478" lon="11.895436879282368"><ele>263.0</ele><time>2026-05-03T10:14:51.001Z</time></trkpt><trkpt lat="43.48056063698021" lon="11.895387122749915"><ele>263.0</ele><time>2026-05-03T10:14:52.001Z</time></trkpt><trkpt lat="43.480463535575026" lon="11.895336491340514"><ele>263.0</ele><time>2026-05-03T10:14:53.001Z</time></trkpt><trkpt lat="43.480376316090435" lon="11.895281156285549"><ele>263.0</ele><time>2026-05-03T10:14:54.001Z</time></trkpt><trkpt lat="43.48028887885626" lon="11.89523222797217"><ele>263.0</ele><time>2026-05-03T10:14:55.001Z</time></trkpt><trkpt lat="43.48020062667482" lon="11.895181711129966"><ele>263.6</ele><time>2026-05-03T10:14:56.001Z</time></trkpt><trkpt lat="43.48012627204049" lon="11.895126919717496"><ele>264.20000000000005</ele><time>2026-05-03T10:14:57.001Z</time></trkpt><trkpt lat="43.48003499071402" lon="11.895069383089991"><ele>264.8</ele><time>2026-05-03T10:14:58.001Z</time></trkpt><trkpt lat="43.47994682492209" lon="11.895005632167997"><ele>265.40000000000003</ele><time>2026-05-03T10:14:59.001Z</time></trkpt><trkpt lat="43.47985422881726" lon="11.894945277524565"><ele>266.0</ele><time>2026-05-03T10:15:00.001Z</time></trkpt><trkpt lat="43.47975774066369" lon="11.89488688308583"><ele>266.0</ele><time>2026-05-03T10:15:01.001Z</time></trkpt><trkpt lat="43.479657485484495" lon="11.894841092322487"><ele>266.0</ele><time>2026-05-03T10:15:02.001Z</time></trkpt><trkpt lat="43.47955819167735" lon="11.894803350648226"><ele>266.0</ele><time>2026-05-03T10:15:03.001Z</time></trkpt><trkpt lat="43.47946880994556" lon="11.89476746693054"><ele>266.0</ele><time>2026-05-03T10:15:04.001Z</time></trkpt><trkpt lat="43.47937597163146" lon="11.894740435116459"><ele>266.0</ele><time>2026-05-03T10:15:05.001Z</time></trkpt><trkpt lat="43.47929618236049" lon="11.894716801329869"><ele>267.33333333333337</ele><time>2026-05-03T10:15:06.001Z</time></trkpt><trkpt lat="43.47923586948996" lon="11.894668923412551"><ele>268.6666666666667</ele><time>2026-05-03T10:15:07.001Z</time></trkpt><trkpt lat="43.47917472358478" lon="11.89458955418412"><ele>270.0</ele><time>2026-05-03T10:15:08.001Z</time></trkpt><trkpt lat="43.47910441198817" lon="11.894510878301933"><ele>271.3333333333333</ele><time>2026-05-03T10:15:09.001Z</time></trkpt><trkpt lat="43.479030280694985" lon="11.894449393419919"><ele>272.66666666666663</ele><time>2026-05-03T10:15:10.001Z</time></trkpt><trkpt lat="43.47896728208115" lon="11.894390079073888"><ele>274.0</ele><time>2026-05-03T10:15:11.001Z</time></trkpt><trkpt lat="43.47889208315536" lon="11.894341939632923"><ele>274.0</ele><time>2026-05-03T10:15:12.001Z</time></trkpt><trkpt lat="43.478805721621825" lon="11.894298354526287"><ele>274.0</ele><time>2026-05-03T10:15:13.001Z</time></trkpt><trkpt lat="43.47871962966794" lon="11.894255022167526"><ele>274.0</ele><time>2026-05-03T10:15:14.001Z</time></trkpt><trkpt lat="43.478644730659646" lon="11.894206183833541"><ele>274.0</ele><time>2026-05-03T10:15:15.001Z</time></trkpt><trkpt lat="43.4785788923877" lon="11.894149493082322"><ele>274.0</ele><time>2026-05-03T10:15:16.001Z</time></trkpt><trkpt lat="43.47849974387648" lon="11.894099040444098"><ele>274.0</ele><time>2026-05-03T10:15:17.001Z</time></trkpt><trkpt lat="43.478427094794846" lon="11.89405067750795"><ele>274.16666666666663</ele><time>2026-05-03T10:15:18.001Z</time></trkpt><trkpt lat="43.478347359999646" lon="11.893985169871105"><ele>274.3333333333333</ele><time>2026-05-03T10:15:19.001Z</time></trkpt><trkpt lat="43.47826493518176" lon="11.893938057871551"><ele>274.5</ele><time>2026-05-03T10:15:20.001Z</time></trkpt><trkpt lat="43.4781770041438" lon="11.89390046146467"><ele>274.6666666666667</ele><time>2026-05-03T10:15:21.001Z</time></trkpt><trkpt lat="43.478097070961184" lon="11.893877727051867"><ele>274.83333333333337</ele><time>2026-05-03T10:15:22.001Z</time></trkpt><trkpt lat="43.47803011159671" lon="11.893867440972349"><ele>275.0</ele><time>2026-05-03T10:15:23.001Z</time></trkpt><trkpt lat="43.477912209866716" lon="11.893840471989222"><ele>275.0</ele><time>2026-05-03T10:15:25.001Z</time></trkpt><trkpt lat="43.47779793004811" lon="11.89383225980887"><ele>275.0</ele><time>2026-05-03T10:15:27.001Z</time></trkpt><trkpt lat="43.477681165736314" lon="11.893821974818884"><ele>275.0</ele><time>2026-05-03T10:15:29.001Z</time></trkpt><trkpt lat="43.47761947288354" lon="11.893794566537785"><ele>275.0</ele><time>2026-05-03T10:15:30.001Z</time></trkpt><trkpt lat="43.477503941586825" lon="11.893766454671308"><ele>275.0</ele><time>2026-05-03T10:15:32.001Z</time></trkpt><trkpt lat="43.477412072675264" lon="11.893740015677551"><ele>275.0</ele><time>2026-05-03T10:15:34.001Z</time></trkpt><trkpt lat="43.47733249426243" lon="11.8937179948631"><ele>275.0</ele><time>2026-05-03T10:15:36Z</time></trkpt><trkpt lat="43.47728756105909" lon="11.89361800067249"><ele>275.0</ele><time>2026-05-03T10:15:38Z</time></trkpt><trkpt lat="43.47728090946093" lon="11.893530626877142"><ele>275.0</ele><time>2026-05-03T10:15:39Z</time></trkpt><trkpt lat="43.47728710278852" lon="11.89344365890355"><ele>275.0</ele><time>2026-05-03T10:15:40Z</time></trkpt><trkpt lat="43.47727084408725" lon="11.893350189953729"><ele>275.0</ele><time>2026-05-03T10:15:41Z</time></trkpt><trkpt lat="43.47725481416979" lon="11.89325247864014"><ele>275.0</ele><time>2026-05-03T10:15:42Z</time></trkpt><trkpt lat="43.47722927939581" lon="11.893158553519273"><ele>273.0</ele><time>2026-05-03T10:15:43Z</time></trkpt><trkpt lat="43.4771994584535" lon="11.893064383612534"><ele>271.0</ele><time>2026-05-03T10:15:44Z</time></trkpt><trkpt lat="43.477114347328914" lon="11.892989488501032"><ele>269.0</ele><time>2026-05-03T10:15:45Z</time></trkpt><trkpt lat="43.477041638729226" lon="11.892901196500034"><ele>267.0</ele><time>2026-05-03T10:15:46Z</time></trkpt><trkpt lat="43.47696753933799" lon="11.892809448658673"><ele>265.0</ele><time>2026-05-03T10:15:47Z</time></trkpt><trkpt lat="43.476887313256434" lon="11.892706184409217"><ele>264.6</ele><time>2026-05-03T10:15:48Z</time></trkpt><trkpt lat="43.47681598362102" lon="11.892605291775206"><ele>264.2</ele><time>2026-05-03T10:15:49Z</time></trkpt><trkpt lat="43.476737189905165" lon="11.892511617375215"><ele>263.8</ele><time>2026-05-03T10:15:50Z</time></trkpt><trkpt lat="43.47666388964956" lon="11.892419214887335"><ele>263.4</ele><time>2026-05-03T10:15:51Z</time></trkpt><trkpt lat="43.4765841756081" lon="11.892324288185291"><ele>263.0</ele><time>2026-05-03T10:15:52Z</time></trkpt><trkpt lat="43.47650502686436" lon="11.892229044568849"><ele>262.6</ele><time>2026-05-03T10:15:53Z</time></trkpt><trkpt lat="43.47642519988863" lon="11.892130986324261"><ele>262.20000000000005</ele><time>2026-05-03T10:15:54Z</time></trkpt><trkpt lat="43.476339650056005" lon="11.89202759802352"><ele>261.8</ele><time>2026-05-03T10:15:55Z</time></trkpt><trkpt lat="43.47624700627733" lon="11.891943191466071"><ele>261.40000000000003</ele><time>2026-05-03T10:15:56Z</time></trkpt><trkpt lat="43.47615936568438" lon="11.891860404573267"><ele>261.0</ele><time>2026-05-03T10:15:57Z</time></trkpt><trkpt lat="43.47607332107352" lon="11.891789442110328"><ele>259.75</ele><time>2026-05-03T10:15:58Z</time></trkpt><trkpt lat="43.47598507724759" lon="11.89172806619318"><ele>258.5</ele><time>2026-05-03T10:15:59Z</time></trkpt><trkpt lat="43.47588340342321" lon="11.891689935142894"><ele>257.25</ele><time>2026-05-03T10:16:00Z</time></trkpt><trkpt lat="43.475759965009495" lon="11.891673519563662"><ele>256.0</ele><time>2026-05-03T10:16:01Z</time></trkpt><trkpt lat="43.47562296683899" lon="11.891677195557278"><ele>256.0</ele><time>2026-05-03T10:16:02Z</time></trkpt><trkpt lat="43.47550996094414" lon="11.89167064843821"><ele>256.0</ele><time>2026-05-03T10:16:03Z</time></trkpt><trkpt lat="43.47542031157741" lon="11.891649531266323"><ele>256.0</ele><time>2026-05-03T10:16:04Z</time></trkpt><trkpt lat="43.475340631844226" lon="11.891605930510067"><ele>256.0</ele><time>2026-05-03T10:16:05Z</time></trkpt><trkpt lat="43.4752848628047" lon="11.89150152626433"><ele>256.0</ele><time>2026-05-03T10:16:06Z</time></trkpt><trkpt lat="43.475290833199686" lon="11.891336562150716"><ele>256.0</ele><time>2026-05-03T10:16:07Z</time></trkpt><trkpt lat="43.47526310514347" lon="11.891143715815623"><ele>256.0</ele><time>2026-05-03T10:16:08Z</time></trkpt><trkpt lat="43.4752551313343" lon="11.890900224379413"><ele>256.0</ele><time>2026-05-03T10:16:09Z</time></trkpt><trkpt lat="43.47524090834043" lon="11.89060319197036"><ele>256.0</ele><time>2026-05-03T10:16:10Z</time></trkpt><trkpt lat="43.47522646233723" lon="11.890283865774668"><ele>256.0</ele><time>2026-05-03T10:16:11Z</time></trkpt><trkpt lat="43.47522811929923" lon="11.88993490767755"><ele>255.0</ele><time>2026-05-03T10:16:12Z</time></trkpt><trkpt lat="43.47523081211832" lon="11.889599122246384"><ele>254.0</ele><time>2026-05-03T10:16:13Z</time></trkpt><trkpt lat="43.47523346056894" lon="11.889315050498281"><ele>254.0</ele><time>2026-05-03T10:16:14Z</time></trkpt><trkpt lat="43.47523410340568" lon="11.889052560412255"><ele>254.0</ele><time>2026-05-03T10:16:15Z</time></trkpt><trkpt lat="43.47523573475713" lon="11.888805432397909"><ele>254.0</ele><time>2026-05-03T10:16:16Z</time></trkpt><trkpt lat="43.475240304801304" lon="11.888577548935718"><ele>253.75</ele><time>2026-05-03T10:16:17Z</time></trkpt><trkpt lat="43.47524426830112" lon="11.888365355447128"><ele>253.5</ele><time>2026-05-03T10:16:18Z</time></trkpt><trkpt lat="43.47524587667355" lon="11.888167114048414"><ele>253.25</ele><time>2026-05-03T10:16:19Z</time></trkpt><trkpt lat="43.47525819739282" lon="11.88798178339615"><ele>253.0</ele><time>2026-05-03T10:16:20Z</time></trkpt><trkpt lat="43.475271907971475" lon="11.887801563700632"><ele>253.0</ele><time>2026-05-03T10:16:21Z</time></trkpt><trkpt lat="43.47528152838887" lon="11.887632868311629"><ele>253.0</ele><time>2026-05-03T10:16:22Z</time></trkpt><trkpt lat="43.47529097039679" lon="11.887471773280705"><ele>253.0</ele><time>2026-05-03T10:16:23Z</time></trkpt><trkpt lat="43.475301878287866" lon="11.887315543630848"><ele>253.0</ele><time>2026-05-03T10:16:24Z</time></trkpt><trkpt lat="43.475310969877626" lon="11.887159627769071"><ele>253.0</ele><time>2026-05-03T10:16:25Z</time></trkpt><trkpt lat="43.47531855371332" lon="11.88700438694372"><ele>253.0</ele><time>2026-05-03T10:16:26Z</time></trkpt><trkpt lat="43.47531926772636" lon="11.886848089988717"><ele>253.0</ele><time>2026-05-03T10:16:27Z</time></trkpt><trkpt lat="43.47530408588086" lon="11.886690208470558"><ele>253.0</ele><time>2026-05-03T10:16:28.001Z</time></trkpt><trkpt lat="43.47528253765895" lon="11.886522322223298"><ele>253.2</ele><time>2026-05-03T10:16:29.001Z</time></trkpt><trkpt lat="43.47526777919341" lon="11.886352410645202"><ele>253.4</ele><time>2026-05-03T10:16:30.001Z</time></trkpt><trkpt lat="43.47524929468538" lon="11.886192972904094"><ele>253.59999999999997</ele><time>2026-05-03T10:16:31.001Z</time></trkpt><trkpt lat="43.4752313140897" lon="11.886050150316256"><ele>253.79999999999998</ele><time>2026-05-03T10:16:32.001Z</time></trkpt><trkpt lat="43.47522208747847" lon="11.885938274055436"><ele>254.0</ele><time>2026-05-03T10:16:33.001Z</time></trkpt><trkpt lat="43.47521601526999" lon="11.885842932868123"><ele>254.0</ele><time>2026-05-03T10:16:34.001Z</time></trkpt><trkpt lat="43.475210874668456" lon="11.885729330935282"><ele>253.99999999999997</ele><time>2026-05-03T10:16:36.001Z</time></trkpt><trkpt lat="43.47519937754693" lon="11.885637476502907"><ele>253.99999999999997</ele><time>2026-05-03T10:16:44.001Z</time></trkpt><trkpt lat="43.475067747619164" lon="11.88558061575294"><ele>254.0</ele><time>2026-05-03T10:16:46.001Z</time></trkpt><trkpt lat="43.47498886182426" lon="11.885561106793904"><ele>254.0</ele><time>2026-05-03T10:16:47.001Z</time></trkpt><trkpt lat="43.47487683247184" lon="11.885571816328795"><ele>254.0</ele><time>2026-05-03T10:16:48.001Z</time></trkpt><trkpt lat="43.47473836159759" lon="11.885560752312553"><ele>254.0</ele><time>2026-05-03T10:16:49.001Z</time></trkpt><trkpt lat="43.47461801343505" lon="11.885546333920045"><ele>254.0</ele><time>2026-05-03T10:16:50.001Z</time></trkpt><trkpt lat="43.47449665696854" lon="11.885536273817639"><ele>254.0</ele><time>2026-05-03T10:16:51.001Z</time></trkpt><trkpt lat="43.47437453692194" lon="11.88552096926753"><ele>253.75</ele><time>2026-05-03T10:16:52.001Z</time></trkpt><trkpt lat="43.47424125396707" lon="11.885512014194749"><ele>253.5</ele><time>2026-05-03T10:16:53.001Z</time></trkpt><trkpt lat="43.47410097509655" lon="11.885502827877755"><ele>253.25</ele><time>2026-05-03T10:16:54.001Z</time></trkpt><trkpt lat="43.47396722145285" lon="11.88549026938138"><ele>253.0</ele><time>2026-05-03T10:16:55.001Z</time></trkpt><trkpt lat="43.4738344525909" lon="11.885477778936966"><ele>253.25</ele><time>2026-05-03T10:16:56.001Z</time></trkpt><trkpt lat="43.47369860091269" lon="11.88546774485968"><ele>253.5</ele><time>2026-05-03T10:16:57.001Z</time></trkpt><trkpt lat="43.473560883740646" lon="11.88545005207945"><ele>253.75</ele><time>2026-05-03T10:16:58.001Z</time></trkpt><trkpt lat="43.473429273404456" lon="11.885438623489625"><ele>254.0</ele><time>2026-05-03T10:16:59.001Z</time></trkpt><trkpt lat="43.473292028996106" lon="11.885431782945808"><ele>254.0</ele><time>2026-05-03T10:17:00.001Z</time></trkpt><trkpt lat="43.473153781389136" lon="11.885422857762533"><ele>254.0</ele><time>2026-05-03T10:17:01.001Z</time></trkpt><trkpt lat="43.473015360944956" lon="11.885406701375839"><ele>254.0</ele><time>2026-05-03T10:17:02.001Z</time></trkpt><trkpt lat="43.47287264850063" lon="11.88539170164788"><ele>254.0</ele><time>2026-05-03T10:17:03.001Z</time></trkpt><trkpt lat="43.472745923852315" lon="11.885383515023596"><ele>253.75</ele><time>2026-05-03T10:17:04.001Z</time></trkpt><trkpt lat="43.4726212407911" lon="11.885379794025692"><ele>253.5</ele><time>2026-05-03T10:17:05.001Z</time></trkpt><trkpt lat="43.4724951852235" lon="11.885369220442044"><ele>253.25</ele><time>2026-05-03T10:17:06.001Z</time></trkpt><trkpt lat="43.4723622450115" lon="11.885359644230792"><ele>253.0</ele><time>2026-05-03T10:17:07.001Z</time></trkpt><trkpt lat="43.47223242221519" lon="11.885346848228544"><ele>253.25</ele><time>2026-05-03T10:17:08.001Z</time></trkpt><trkpt lat="43.47210067625784" lon="11.885335895044804"><ele>253.5</ele><time>2026-05-03T10:17:09.001Z</time></trkpt><trkpt lat="43.47197085387104" lon="11.885321818962373"><ele>253.75</ele><time>2026-05-03T10:17:10.001Z</time></trkpt><trkpt lat="43.47182715661817" lon="11.88531357896157"><ele>254.0</ele><time>2026-05-03T10:17:11.001Z</time></trkpt><trkpt lat="43.47169904760904" lon="11.885303808557714"><ele>254.0</ele><time>2026-05-03T10:17:12.001Z</time></trkpt><trkpt lat="43.47157225717383" lon="11.885296209935436"><ele>254.0</ele><time>2026-05-03T10:17:13.001Z</time></trkpt><trkpt lat="43.471441999070485" lon="11.88528609070261"><ele>254.0</ele><time>2026-05-03T10:17:14.001Z</time></trkpt><trkpt lat="43.47131797144277" lon="11.885272035847645"><ele>254.0</ele><time>2026-05-03T10:17:15.001Z</time></trkpt><trkpt lat="43.47120900661135" lon="11.885260682229415"><ele>254.79999999999998</ele><time>2026-05-03T10:17:16.001Z</time></trkpt><trkpt lat="43.47109497883542" lon="11.88525719614338"><ele>255.59999999999997</ele><time>2026-05-03T10:17:17.001Z</time></trkpt><trkpt lat="43.47099441822646" lon="11.885239386888585"><ele>256.4</ele><time>2026-05-03T10:17:18.001Z</time></trkpt><trkpt lat="43.47089098963794" lon="11.885233631435698"><ele>257.2</ele><time>2026-05-03T10:17:19.001Z</time></trkpt><trkpt lat="43.470807078933916" lon="11.885221232851865"><ele>258.0</ele><time>2026-05-03T10:17:20.001Z</time></trkpt><trkpt lat="43.470706421919566" lon="11.885201061480032"><ele>258.0</ele><time>2026-05-03T10:17:21.001Z</time></trkpt><trkpt lat="43.47064257819177" lon="11.885175058722895"><ele>258.0</ele><time>2026-05-03T10:17:22.001Z</time></trkpt><trkpt lat="43.47057423274587" lon="11.885145390681144"><ele>258.0</ele><time>2026-05-03T10:17:27.001Z</time></trkpt><trkpt lat="43.47057877992402" lon="11.885000342969573"><ele>258.0</ele><time>2026-05-03T10:17:28.001Z</time></trkpt><trkpt lat="43.470596096590654" lon="11.884883036748182"><ele>258.0</ele><time>2026-05-03T10:17:29.001Z</time></trkpt><trkpt lat="43.470623714790825" lon="11.884770982392"><ele>258.0</ele><time>2026-05-03T10:17:30.001Z</time></trkpt><trkpt lat="43.470653620737345" lon="11.884661786885435"><ele>258.0</ele><time>2026-05-03T10:17:31.001Z</time></trkpt><trkpt lat="43.4706862861568" lon="11.884536901069962"><ele>258.0</ele><time>2026-05-03T10:17:32.001Z</time></trkpt><trkpt lat="43.4707086934769" lon="11.884426790439798"><ele>258.0</ele><time>2026-05-03T10:17:33.001Z</time></trkpt><trkpt lat="43.47074190252803" lon="11.884306861799795"><ele>258.0</ele><time>2026-05-03T10:17:34.001Z</time></trkpt><trkpt lat="43.47076993219926" lon="11.88419424641467"><ele>258.0</ele><time>2026-05-03T10:17:35.001Z</time></trkpt><trkpt lat="43.47080229494085" lon="11.88407712382347"><ele>258.1666666666667</ele><time>2026-05-03T10:17:36.001Z</time></trkpt><trkpt lat="43.47083187176289" lon="11.883967161446918"><ele>258.3333333333333</ele><time>2026-05-03T10:17:37.001Z</time></trkpt><trkpt lat="43.470854908349935" lon="11.883863460328024"><ele>258.5</ele><time>2026-05-03T10:17:38.001Z</time></trkpt><trkpt lat="43.47088639625148" lon="11.883761733298549"><ele>258.66666666666663</ele><time>2026-05-03T10:17:39.001Z</time></trkpt><trkpt lat="43.47092671466951" lon="11.883666428365338"><ele>258.8333333333333</ele><time>2026-05-03T10:17:40.001Z</time></trkpt><trkpt lat="43.47095677090589" lon="11.883585521832517"><ele>259.0</ele><time>2026-05-03T10:17:41.001Z</time></trkpt><trkpt lat="43.471000781356736" lon="11.88350184679099"><ele>258.8</ele><time>2026-05-03T10:17:42Z</time></trkpt><trkpt lat="43.47109013259977" lon="11.883389790534087"><ele>258.59999999999997</ele><time>2026-05-03T10:17:44Z</time></trkpt><trkpt lat="43.47114999383367" lon="11.883349039186403"><ele>258.4</ele><time>2026-05-03T10:17:45Z</time></trkpt><trkpt lat="43.471264502326285" lon="11.883308879631533"><ele>258.2</ele><time>2026-05-03T10:17:47Z</time></trkpt><trkpt lat="43.471354264273586" lon="11.883356525592555"><ele>258.0</ele><time>2026-05-03T10:17:48Z</time></trkpt><trkpt lat="43.47145761215898" lon="11.883347813595877"><ele>257.2</ele><time>2026-05-03T10:17:50Z</time></trkpt><trkpt lat="43.47155935040848" lon="11.883262684610507"><ele>256.4</ele><time>2026-05-03T10:17:52Z</time></trkpt><trkpt lat="43.47159285574137" lon="11.883087198602313"><ele>255.59999999999997</ele><time>2026-05-03T10:17:54Z</time></trkpt><trkpt lat="43.47153058352087" lon="11.883010253436156"><ele>254.79999999999998</ele><time>2026-05-03T10:17:55Z</time></trkpt><trkpt lat="43.47147894623495" lon="11.88287304034783"><ele>254.0</ele><time>2026-05-03T10:17:57Z</time></trkpt><trkpt lat="43.47146568049073" lon="11.882783747452706"><ele>254.00000000000003</ele><time>2026-05-03T10:17:58Z</time></trkpt><trkpt lat="43.47147133897102" lon="11.882681424495166"><ele>254.0</ele><time>2026-05-03T10:17:59Z</time></trkpt><trkpt lat="43.47151291564372" lon="11.882584871455197"><ele>254.0</ele><time>2026-05-03T10:18:00Z</time></trkpt><trkpt lat="43.47154192186522" lon="11.882475222718826"><ele>254.0</ele><time>2026-05-03T10:18:01Z</time></trkpt><trkpt lat="43.47156944215034" lon="11.882361064459436"><ele>254.00000000000003</ele><time>2026-05-03T10:18:02Z</time></trkpt><trkpt lat="43.47158058450516" lon="11.88224890117837"><ele>254.0</ele><time>2026-05-03T10:18:03Z</time></trkpt><trkpt lat="43.47162663244633" lon="11.882129996285329"><ele>254.2</ele><time>2026-05-03T10:18:04Z</time></trkpt><trkpt lat="43.47165582794006" lon="11.88201043378931"><ele>254.39999999999998</ele><time>2026-05-03T10:18:05Z</time></trkpt><trkpt lat="43.47168644937971" lon="11.881885031683424"><ele>254.6</ele><time>2026-05-03T10:18:06Z</time></trkpt><trkpt lat="43.471723339793506" lon="11.881733955821016"><ele>254.8</ele><time>2026-05-03T10:18:07Z</time></trkpt><trkpt lat="43.471766237300244" lon="11.881552604733887"><ele>255.0</ele><time>2026-05-03T10:18:08Z</time></trkpt><trkpt lat="43.471812143426064" lon="11.881342474250161"><ele>255.75</ele><time>2026-05-03T10:18:09Z</time></trkpt><trkpt lat="43.47184846840931" lon="11.881137118289141"><ele>256.5</ele><time>2026-05-03T10:18:10Z</time></trkpt><trkpt lat="43.47187974923976" lon="11.880953749008148"><ele>257.25</ele><time>2026-05-03T10:18:11Z</time></trkpt><trkpt lat="43.471910500189615" lon="11.880773485852599"><ele>258.0</ele><time>2026-05-03T10:18:12Z</time></trkpt><trkpt lat="43.47194239710622" lon="11.880579953454841"><ele>258.2</ele><time>2026-05-03T10:18:13Z</time></trkpt><trkpt lat="43.47196799294952" lon="11.880419843301244"><ele>258.4</ele><time>2026-05-03T10:18:14Z</time></trkpt><trkpt lat="43.47199200645527" lon="11.88026340193282"><ele>258.59999999999997</ele><time>2026-05-03T10:18:15Z</time></trkpt><trkpt lat="43.47201206565345" lon="11.880125185741509"><ele>258.8</ele><time>2026-05-03T10:18:16Z</time></trkpt><trkpt lat="43.47202794261712" lon="11.880002566265343"><ele>259.0</ele><time>2026-05-03T10:18:17Z</time></trkpt><trkpt lat="43.472045342395674" lon="11.879883570711208"><ele>259.0</ele><time>2026-05-03T10:18:18Z</time></trkpt><trkpt lat="43.47205049704185" lon="11.879775523944783"><ele>259.0</ele><time>2026-05-03T10:18:19Z</time></trkpt><trkpt lat="43.47210277398516" lon="11.879691283275788"><ele>259.0</ele><time>2026-05-03T10:18:20Z</time></trkpt><trkpt lat="43.47217021670572" lon="11.879622501605313"><ele>259.0</ele><time>2026-05-03T10:18:21Z</time></trkpt><trkpt lat="43.47226380811252" lon="11.87948578230404"><ele>259.0</ele><time>2026-05-03T10:18:23Z</time></trkpt><trkpt lat="43.472227375250746" lon="11.879362103184848"><ele>258.2857142857143</ele><time>2026-05-03T10:18:24Z</time></trkpt><trkpt lat="43.472221239276045" lon="11.879258869215342"><ele>257.57142857142856</ele><time>2026-05-03T10:18:25Z</time></trkpt><trkpt lat="43.472229635312345" lon="11.879158114696729"><ele>256.8571428571429</ele><time>2026-05-03T10:18:26Z</time></trkpt><trkpt lat="43.472251892477715" lon="11.87907152501781"><ele>256.1428571428571</ele><time>2026-05-03T10:18:27Z</time></trkpt><trkpt lat="43.47228325726099" lon="11.878979620486271"><ele>255.42857142857142</ele><time>2026-05-03T10:18:28Z</time></trkpt><trkpt lat="43.47230833803744" lon="11.878885536605726"><ele>254.71428571428572</ele><time>2026-05-03T10:18:29.001Z</time></trkpt><trkpt lat="43.47233345621923" lon="11.87880168289075"><ele>254.0</ele><time>2026-05-03T10:18:30.001Z</time></trkpt><trkpt lat="43.47235625310806" lon="11.878688083518496"><ele>254.0</ele><time>2026-05-03T10:18:31.001Z</time></trkpt><trkpt lat="43.472385321991446" lon="11.878566680134567"><ele>254.0</ele><time>2026-05-03T10:18:32.001Z</time></trkpt><trkpt lat="43.47244159476768" lon="11.878441714478637"><ele>254.0</ele><time>2026-05-03T10:18:33.001Z</time></trkpt><trkpt lat="43.47250231276501" lon="11.878296137242371"><ele>254.0</ele><time>2026-05-03T10:18:34.001Z</time></trkpt><trkpt lat="43.472577571806404" lon="11.878105916554677"><ele>253.66666666666669</ele><time>2026-05-03T10:18:35.001Z</time></trkpt><trkpt lat="43.472695099222705" lon="11.877916090663152"><ele>253.33333333333331</ele><time>2026-05-03T10:18:36.001Z</time></trkpt><trkpt lat="43.47280698588594" lon="11.87771200662318"><ele>253.0</ele><time>2026-05-03T10:18:37.001Z</time></trkpt><trkpt lat="43.47290292732299" lon="11.877526752878259"><ele>253.75</ele><time>2026-05-03T10:18:38.001Z</time></trkpt><trkpt lat="43.47300805284513" lon="11.877377263852145"><ele>254.5</ele><time>2026-05-03T10:18:39.001Z</time></trkpt><trkpt lat="43.473093505760254" lon="11.877218538657067"><ele>255.25</ele><time>2026-05-03T10:18:40.001Z</time></trkpt><trkpt lat="43.47317589249289" lon="11.87705997405511"><ele>256.0</ele><time>2026-05-03T10:18:41.001Z</time></trkpt><trkpt lat="43.47325919979394" lon="11.87689821537302"><ele>255.33333333333331</ele><time>2026-05-03T10:18:42.001Z</time></trkpt><trkpt lat="43.47334583913045" lon="11.876728899495527"><ele>254.66666666666669</ele><time>2026-05-03T10:18:43.001Z</time></trkpt><trkpt lat="43.473430745289306" lon="11.876559439177743"><ele>254.0</ele><time>2026-05-03T10:18:44.001Z</time></trkpt><trkpt lat="43.473505151555706" lon="11.876372326868387"><ele>254.0</ele><time>2026-05-03T10:18:45.001Z</time></trkpt><trkpt lat="43.47360657190408" lon="11.876208513438092"><ele>254.0</ele><time>2026-05-03T10:18:46.001Z</time></trkpt><trkpt lat="43.47368516945637" lon="11.876016969814707"><ele>254.0</ele><time>2026-05-03T10:18:47.001Z</time></trkpt><trkpt lat="43.473774221552624" lon="11.875842102576389"><ele>253.5</ele><time>2026-05-03T10:18:48.001Z</time></trkpt><trkpt lat="43.47386551725042" lon="11.875681917889066"><ele>253.0</ele><time>2026-05-03T10:18:49.001Z</time></trkpt><trkpt lat="43.47395085701307" lon="11.875514623517068"><ele>252.5</ele><time>2026-05-03T10:18:50.001Z</time></trkpt><trkpt lat="43.47403013720624" lon="11.875347919718124"><ele>252.0</ele><time>2026-05-03T10:18:51.001Z</time></trkpt><trkpt lat="43.47411664162677" lon="11.875178863674137"><ele>252.0</ele><time>2026-05-03T10:18:52.001Z</time></trkpt><trkpt lat="43.474205089985205" lon="11.875010632252861"><ele>252.0</ele><time>2026-05-03T10:18:53.001Z</time></trkpt><trkpt lat="43.4742824263411" lon="11.87485038353055"><ele>252.0</ele><time>2026-05-03T10:18:54.001Z</time></trkpt><trkpt lat="43.47436194268835" lon="11.874709331020782"><ele>252.0</ele><time>2026-05-03T10:18:55.001Z</time></trkpt><trkpt lat="43.47443311953562" lon="11.87456521713695"><ele>252.0</ele><time>2026-05-03T10:18:56.001Z</time></trkpt><trkpt lat="43.47450653000623" lon="11.874410547034106"><ele>252.0</ele><time>2026-05-03T10:18:57.001Z</time></trkpt><trkpt lat="43.47458750091116" lon="11.874252948912089"><ele>252.0</ele><time>2026-05-03T10:18:58.001Z</time></trkpt><trkpt lat="43.47467286676736" lon="11.874091248459958"><ele>252.0</ele><time>2026-05-03T10:18:59.001Z</time></trkpt><trkpt lat="43.47475425139707" lon="11.873929438687266"><ele>251.5</ele><time>2026-05-03T10:19:00.001Z</time></trkpt><trkpt lat="43.47483615596891" lon="11.873777216589183"><ele>251.0</ele><time>2026-05-03T10:19:01.001Z</time></trkpt><trkpt lat="43.47491657415268" lon="11.873628031714004"><ele>250.5</ele><time>2026-05-03T10:19:02.001Z</time></trkpt><trkpt lat="43.47499161575042" lon="11.873492153551938"><ele>250.0</ele><time>2026-05-03T10:19:03.001Z</time></trkpt><trkpt lat="43.47506702315424" lon="11.873349903096438"><ele>250.0</ele><time>2026-05-03T10:19:04.001Z</time></trkpt><trkpt lat="43.475145382406026" lon="11.873205684243995"><ele>250.0</ele><time>2026-05-03T10:19:05.001Z</time></trkpt><trkpt lat="43.47521543689763" lon="11.873076389772887"><ele>250.0</ele><time>2026-05-03T10:19:06.001Z</time></trkpt><trkpt lat="43.475274160311315" lon="11.872952295157294"><ele>250.0</ele><time>2026-05-03T10:19:07.001Z</time></trkpt><trkpt lat="43.47533307621739" lon="11.872830605971167"><ele>250.0</ele><time>2026-05-03T10:19:08.001Z</time></trkpt><trkpt lat="43.47539062227817" lon="11.872715316088668"><ele>250.0</ele><time>2026-05-03T10:19:09.001Z</time></trkpt><trkpt lat="43.475439528464825" lon="11.87261014510299"><ele>250.0</ele><time>2026-05-03T10:19:10.001Z</time></trkpt><trkpt lat="43.47548284653738" lon="11.872512333938417"><ele>250.0</ele><time>2026-05-03T10:19:11.001Z</time></trkpt><trkpt lat="43.475536151329884" lon="11.872420927448607"><ele>250.0</ele><time>2026-05-03T10:19:13.001Z</time></trkpt><trkpt lat="43.47560307065891" lon="11.872292538285828"><ele>249.75</ele><time>2026-05-03T10:19:15.001Z</time></trkpt><trkpt lat="43.475656192040944" lon="11.87217514489963"><ele>249.5</ele><time>2026-05-03T10:19:16.001Z</time></trkpt><trkpt lat="43.47572116668892" lon="11.872041599626517"><ele>249.25</ele><time>2026-05-03T10:19:17.001Z</time></trkpt><trkpt lat="43.47579704349482" lon="11.871887160135461"><ele>249.0</ele><time>2026-05-03T10:19:18.001Z</time></trkpt><trkpt lat="43.47587688525045" lon="11.871732143955956"><ele>249.0</ele><time>2026-05-03T10:19:19.001Z</time></trkpt><trkpt lat="43.475950109826314" lon="11.871585898311517"><ele>249.0</ele><time>2026-05-03T10:19:20.001Z</time></trkpt><trkpt lat="43.476027975161685" lon="11.871428186816729"><ele>249.0</ele><time>2026-05-03T10:19:21.001Z</time></trkpt><trkpt lat="43.47609246258417" lon="11.871285662249381"><ele>249.0</ele><time>2026-05-03T10:19:22.001Z</time></trkpt><trkpt lat="43.47617158747158" lon="11.871136197520999"><ele>249.0</ele><time>2026-05-03T10:19:23.001Z</time></trkpt><trkpt lat="43.476247985035855" lon="11.870988072724895"><ele>249.0</ele><time>2026-05-03T10:19:24.001Z</time></trkpt><trkpt lat="43.47632216900479" lon="11.870844800168998"><ele>249.0</ele><time>2026-05-03T10:19:25.001Z</time></trkpt><trkpt lat="43.476394449939036" lon="11.870691635981318"><ele>249.0</ele><time>2026-05-03T10:19:26.001Z</time></trkpt><trkpt lat="43.476473134690146" lon="11.870537497835038"><ele>249.0</ele><time>2026-05-03T10:19:27.001Z</time></trkpt><trkpt lat="43.47655441670009" lon="11.870389756852125"><ele>249.0</ele><time>2026-05-03T10:19:28.001Z</time></trkpt><trkpt lat="43.47663545988777" lon="11.870244406646828"><ele>249.0</ele><time>2026-05-03T10:19:29.001Z</time></trkpt><trkpt lat="43.47671883129915" lon="11.87009744759374"><ele>249.0</ele><time>2026-05-03T10:19:30.001Z</time></trkpt><trkpt lat="43.476792636658686" lon="11.869954521865393"><ele>249.0</ele><time>2026-05-03T10:19:31.001Z</time></trkpt><trkpt lat="43.4768580138689" lon="11.869822329167574"><ele>248.99999999999997</ele><time>2026-05-03T10:19:32.001Z</time></trkpt><trkpt lat="43.4769225923776" lon="11.869698542301423"><ele>248.99999999999997</ele><time>2026-05-03T10:19:33.001Z</time></trkpt><trkpt lat="43.476983953736536" lon="11.869578576434725"><ele>249.0</ele><time>2026-05-03T10:19:34.001Z</time></trkpt><trkpt lat="43.47704432057661" lon="11.869462377648803"><ele>249.0</ele><time>2026-05-03T10:19:35.001Z</time></trkpt><trkpt lat="43.477105512846904" lon="11.869349004909244"><ele>248.6</ele><time>2026-05-03T10:19:36.001Z</time></trkpt><trkpt lat="43.47715968719113" lon="11.869235631793156"><ele>248.2</ele><time>2026-05-03T10:19:37.001Z</time></trkpt><trkpt lat="43.47720085951213" lon="11.869146354274699"><ele>247.79999999999998</ele><time>2026-05-03T10:19:38.001Z</time></trkpt><trkpt lat="43.4772448263937" lon="11.869055938553945"><ele>247.39999999999998</ele><time>2026-05-03T10:19:40.001Z</time></trkpt><trkpt lat="43.47728432796984" lon="11.86896830172751"><ele>247.0</ele><time>2026-05-03T10:19:43.001Z</time></trkpt><trkpt lat="43.47718281246986" lon="11.86882233010199"><ele>247.0</ele><time>2026-05-03T10:19:47.002Z</time></trkpt><trkpt lat="43.477122440600155" lon="11.86875811069216"><ele>247.0</ele><time>2026-05-03T10:19:49Z</time></trkpt><trkpt lat="43.47718760045972" lon="11.86865931913471"><ele>247.0</ele><time>2026-05-03T10:19:50Z</time></trkpt><trkpt lat="43.47716953885768" lon="11.868565962763341"><ele>247.0</ele><time>2026-05-03T10:19:52Z</time></trkpt><trkpt lat="43.47713441066463" lon="11.868468079748801"><ele>247.0</ele><time>2026-05-03T10:19:55Z</time></trkpt><trkpt lat="43.476951084685645" lon="11.868553026957363"><ele>248.0</ele><time>2026-05-03T10:19:56Z</time></trkpt><trkpt lat="43.47690677064056" lon="11.868665432349003"><ele>248.0</ele><time>2026-05-03T10:19:58Z</time></trkpt><trkpt lat="43.47687231560767" lon="11.868743710429378"><ele>248.0</ele><time>2026-05-03T10:20:07Z</time></trkpt></trkseg></trk></gpx>